<?xml version='1.0' encoding='UTF-8'?><gpx version="1.1" creator="JPX - https://github.com/jenetics/jpx" xmlns="http://www.topografix.com/GPX/1/1"><trk><trkseg><trkpt lat="47.287092786113156" lon="8.713419143357783"><ele>485.0</ele><time>2026-04-17T18:43:53Z</time></trkpt><trkpt lat="47.287173870750095" lon="8.713407586249252"><ele>485.0</ele><time>2026-04-17T18:43:55Z</time></trkpt><trkpt lat="47.28726116014811" lon="8.713389574779537"><ele>485.0</ele><time>2026-04-17T18:43:57Z</time></trkpt><trkpt lat="47.28729299644921" lon="8.7132667600764"><ele>485.0</ele><time>2026-04-17T18:43:59Z</time></trkpt><trkpt lat="47.28725853116879" lon="8.713118904450448"><ele>485.0</ele><time>2026-04-17T18:44:01Z</time></trkpt><trkpt lat="47.28716643850636" lon="8.713003586633723"><ele>485.0</ele><time>2026-04-17T18:44:03Z</time></trkpt><trkpt lat="47.28705844781071" lon="8.712923717404644"><ele>485.0</ele><time>2026-04-17T18:44:05Z</time></trkpt><trkpt lat="47.28700887306462" lon="8.71273793670197"><ele>485.0</ele><time>2026-04-17T18:44:07Z</time></trkpt><trkpt lat="47.28699443346975" lon="8.712630633946901"><ele>485.0</ele><time>2026-04-17T18:44:08Z</time></trkpt><trkpt lat="47.2869667658164" lon="8.712524319935612"><ele>485.0</ele><time>2026-04-17T18:44:09Z</time></trkpt><trkpt lat="47.28695669450843" lon="8.712406605112191"><ele>485.00000000000006</ele><time>2026-04-17T18:44:10Z</time></trkpt><trkpt lat="47.2869463861426" lon="8.712296006487694"><ele>485.0</ele><time>2026-04-17T18:44:11Z</time></trkpt><trkpt lat="47.28694380903718" lon="8.71219358580356"><ele>485.00000000000006</ele><time>2026-04-17T18:44:12Z</time></trkpt><trkpt lat="47.28695409531735" lon="8.712101021277919"><ele>485.00000000000006</ele><time>2026-04-17T18:44:13Z</time></trkpt><trkpt lat="47.28697319638936" lon="8.711959588232656"><ele>485.0</ele><time>2026-04-17T18:44:15Z</time></trkpt><trkpt lat="47.286992767276" lon="8.711863546017307"><ele>485.00000000000006</ele><time>2026-04-17T18:44:17Z</time></trkpt><trkpt lat="47.28701892020953" lon="8.711773324611872"><ele>485.00000000000006</ele><time>2026-04-17T18:44:19Z</time></trkpt><trkpt lat="47.287085789472485" lon="8.711692194748569"><ele>484.8333333333333</ele><time>2026-04-17T18:44:21Z</time></trkpt><trkpt lat="47.28714028259671" lon="8.71152459229637"><ele>484.66666666666663</ele><time>2026-04-17T18:44:23Z</time></trkpt><trkpt lat="47.28714037211395" lon="8.711420660039996"><ele>484.5</ele><time>2026-04-17T18:44:24Z</time></trkpt><trkpt lat="47.287146079214324" lon="8.711322745367614"><ele>484.33333333333337</ele><time>2026-04-17T18:44:25Z</time></trkpt><trkpt lat="47.28712771189055" lon="8.711206679280531"><ele>484.1666666666667</ele><time>2026-04-17T18:44:26Z</time></trkpt><trkpt lat="47.28714150205748" lon="8.711100489326137"><ele>484.0</ele><time>2026-04-17T18:44:27Z</time></trkpt><trkpt lat="47.28715679303972" lon="8.710991823376395"><ele>483.83333333333337</ele><time>2026-04-17T18:44:28Z</time></trkpt><trkpt lat="47.28717359200635" lon="8.710884778405472"><ele>483.6666666666667</ele><time>2026-04-17T18:44:29Z</time></trkpt><trkpt lat="47.28719532095162" lon="8.710780402586675"><ele>483.5</ele><time>2026-04-17T18:44:30Z</time></trkpt><trkpt lat="47.28722277933483" lon="8.710674047828176"><ele>483.33333333333337</ele><time>2026-04-17T18:44:31Z</time></trkpt><trkpt lat="47.28725075010736" lon="8.710569927341586"><ele>483.1666666666667</ele><time>2026-04-17T18:44:32Z</time></trkpt><trkpt lat="47.28728968687028" lon="8.710470004267592"><ele>483.0</ele><time>2026-04-17T18:44:33Z</time></trkpt><trkpt lat="47.287328597984924" lon="8.710374340306346"><ele>483.0</ele><time>2026-04-17T18:44:34Z</time></trkpt><trkpt lat="47.28738448477423" lon="8.71029666593718"><ele>483.0</ele><time>2026-04-17T18:44:35Z</time></trkpt><trkpt lat="47.28742078128838" lon="8.71020413637139"><ele>483.0</ele><time>2026-04-17T18:44:36Z</time></trkpt><trkpt lat="47.287463213979834" lon="8.710121196040468"><ele>483.0</ele><time>2026-04-17T18:44:37Z</time></trkpt><trkpt lat="47.28750986853865" lon="8.710039133550875"><ele>483.0</ele><time>2026-04-17T18:44:38Z</time></trkpt><trkpt lat="47.28756116622433" lon="8.709966253641099"><ele>483.0</ele><time>2026-04-17T18:44:39Z</time></trkpt><trkpt lat="47.28761528082237" lon="8.709893044346929"><ele>483.0</ele><time>2026-04-17T18:44:40Z</time></trkpt><trkpt lat="47.28767012550161" lon="8.70982340924218"><ele>483.42857142857144</ele><time>2026-04-17T18:44:41Z</time></trkpt><trkpt lat="47.28772417319014" lon="8.709756223956157"><ele>483.8571428571429</ele><time>2026-04-17T18:44:42Z</time></trkpt><trkpt lat="47.28777993588181" lon="8.709690044937997"><ele>484.2857142857143</ele><time>2026-04-17T18:44:43Z</time></trkpt><trkpt lat="47.28782937579967" lon="8.709619950672167"><ele>484.7142857142857</ele><time>2026-04-17T18:44:44Z</time></trkpt><trkpt lat="47.28788652087058" lon="8.709550409042805"><ele>485.14285714285717</ele><time>2026-04-17T18:44:45Z</time></trkpt><trkpt lat="47.287938107906115" lon="8.709480307230407"><ele>485.57142857142856</ele><time>2026-04-17T18:44:46Z</time></trkpt><trkpt lat="47.28799259702832" lon="8.70941065335906"><ele>486.0</ele><time>2026-04-17T18:44:47Z</time></trkpt><trkpt lat="47.28804653328951" lon="8.709342914802702"><ele>486.1428571428571</ele><time>2026-04-17T18:44:48Z</time></trkpt><trkpt lat="47.28810244880055" lon="8.709274812798245"><ele>486.28571428571433</ele><time>2026-04-17T18:44:49Z</time></trkpt><trkpt lat="47.2881587729838" lon="8.709209098831995"><ele>486.42857142857144</ele><time>2026-04-17T18:44:50Z</time></trkpt><trkpt lat="47.28821464747756" lon="8.709145767847177"><ele>486.57142857142856</ele><time>2026-04-17T18:44:51Z</time></trkpt><trkpt lat="47.28827072260445" lon="8.709084964752753"><ele>486.71428571428567</ele><time>2026-04-17T18:44:52Z</time></trkpt><trkpt lat="47.288328367742565" lon="8.709022288285265"><ele>486.8571428571429</ele><time>2026-04-17T18:44:53Z</time></trkpt><trkpt lat="47.28838500902505" lon="8.70895856251477"><ele>487.0</ele><time>2026-04-17T18:44:54Z</time></trkpt><trkpt lat="47.288439550405506" lon="8.708896586969201"><ele>487.0</ele><time>2026-04-17T18:44:55Z</time></trkpt><trkpt lat="47.28848982473031" lon="8.708831906674703"><ele>487.0</ele><time>2026-04-17T18:44:56Z</time></trkpt><trkpt lat="47.28854857563062" lon="8.708771701679016"><ele>487.0</ele><time>2026-04-17T18:44:57Z</time></trkpt><trkpt lat="47.288597456393184" lon="8.70869981883904"><ele>487.0</ele><time>2026-04-17T18:44:58Z</time></trkpt><trkpt lat="47.28865297045165" lon="8.708644686090759"><ele>487.0</ele><time>2026-04-17T18:44:59Z</time></trkpt><trkpt lat="47.28870450674771" lon="8.708580340227895"><ele>487.0</ele><time>2026-04-17T18:45:00Z</time></trkpt><trkpt lat="47.288759185231434" lon="8.708522254717087"><ele>487.0</ele><time>2026-04-17T18:45:01Z</time></trkpt><trkpt lat="47.288815299413734" lon="8.708466662598909"><ele>487.7142857142857</ele><time>2026-04-17T18:45:02Z</time></trkpt><trkpt lat="47.28886966052742" lon="8.708403706765209"><ele>488.42857142857144</ele><time>2026-04-17T18:45:03Z</time></trkpt><trkpt lat="47.28892357160705" lon="8.708343633080455"><ele>489.14285714285717</ele><time>2026-04-17T18:45:04Z</time></trkpt><trkpt lat="47.28898072471043" lon="8.708286290084175"><ele>489.8571428571429</ele><time>2026-04-17T18:45:05Z</time></trkpt><trkpt lat="47.289036453168606" lon="8.708225169941334"><ele>490.57142857142856</ele><time>2026-04-17T18:45:06Z</time></trkpt><trkpt lat="47.2890884847355" lon="8.708168344023624"><ele>491.28571428571433</ele><time>2026-04-17T18:45:07Z</time></trkpt><trkpt lat="47.28914280479526" lon="8.708108758941288"><ele>492.00000000000006</ele><time>2026-04-17T18:45:08Z</time></trkpt><trkpt lat="47.28919773432009" lon="8.708052283454968"><ele>492.00000000000006</ele><time>2026-04-17T18:45:09Z</time></trkpt><trkpt lat="47.28925295071764" lon="8.707995214901242"><ele>492.0</ele><time>2026-04-17T18:45:10Z</time></trkpt><trkpt lat="47.289306367791816" lon="8.707941845006092"><ele>492.00000000000006</ele><time>2026-04-17T18:45:11Z</time></trkpt><trkpt lat="47.28935958914183" lon="8.707886764842772"><ele>492.00000000000006</ele><time>2026-04-17T18:45:12Z</time></trkpt><trkpt lat="47.289411479308704" lon="8.707832566913417"><ele>492.0</ele><time>2026-04-17T18:45:13Z</time></trkpt><trkpt lat="47.289464620933295" lon="8.707779012424075"><ele>492.00000000000006</ele><time>2026-04-17T18:45:14Z</time></trkpt><trkpt lat="47.28951920521018" lon="8.70772733298157"><ele>492.00000000000006</ele><time>2026-04-17T18:45:15Z</time></trkpt><trkpt lat="47.289574345462796" lon="8.707676474651205"><ele>493.0</ele><time>2026-04-17T18:45:16Z</time></trkpt><trkpt lat="47.28962667420021" lon="8.707622770358173"><ele>494.00000000000006</ele><time>2026-04-17T18:45:17Z</time></trkpt><trkpt lat="47.289677111188965" lon="8.707565947786023"><ele>495.00000000000006</ele><time>2026-04-17T18:45:18Z</time></trkpt><trkpt lat="47.289782007872944" lon="8.707469086960748"><ele>496.0</ele><time>2026-04-17T18:45:20Z</time></trkpt><trkpt lat="47.289882320093845" lon="8.70736596874556"><ele>497.0</ele><time>2026-04-17T18:45:22Z</time></trkpt><trkpt lat="47.289981138669475" lon="8.707261048093585"><ele>497.0</ele><time>2026-04-17T18:45:24Z</time></trkpt><trkpt lat="47.29007975334779" lon="8.707153795376941"><ele>497.0</ele><time>2026-04-17T18:45:26Z</time></trkpt><trkpt lat="47.29017878213276" lon="8.707051268777994"><ele>497.0</ele><time>2026-04-17T18:45:28Z</time></trkpt><trkpt lat="47.290279708488754" lon="8.706946023043638"><ele>497.0</ele><time>2026-04-17T18:45:30Z</time></trkpt><trkpt lat="47.29038679500487" lon="8.706858136768478"><ele>497.5</ele><time>2026-04-17T18:45:32Z</time></trkpt><trkpt lat="47.290491100655856" lon="8.706765642699333"><ele>498.0</ele><time>2026-04-17T18:45:34Z</time></trkpt><trkpt lat="47.29059424473571" lon="8.706661420411427"><ele>498.5</ele><time>2026-04-17T18:45:36Z</time></trkpt><trkpt lat="47.290693568124205" lon="8.706561297144205"><ele>499.0</ele><time>2026-04-17T18:45:38Z</time></trkpt><trkpt lat="47.29079231577494" lon="8.70645668676088"><ele>499.0</ele><time>2026-04-17T18:45:40Z</time></trkpt><trkpt lat="47.29089498593346" lon="8.706356112589043"><ele>499.0</ele><time>2026-04-17T18:45:42Z</time></trkpt><trkpt lat="47.290947644324895" lon="8.706299810593874"><ele>499.0</ele><time>2026-04-17T18:45:43Z</time></trkpt><trkpt lat="47.29104920953555" lon="8.706196780916216"><ele>499.0</ele><time>2026-04-17T18:45:45Z</time></trkpt><trkpt lat="47.29115379859926" lon="8.706098179866926"><ele>499.0</ele><time>2026-04-17T18:45:47Z</time></trkpt><trkpt lat="47.29125630368052" lon="8.705997318133589"><ele>501.0</ele><time>2026-04-17T18:45:49Z</time></trkpt><trkpt lat="47.29135949722658" lon="8.705897884481082"><ele>503.0</ele><time>2026-04-17T18:45:51Z</time></trkpt><trkpt lat="47.29146058948379" lon="8.705793137720722"><ele>505.0</ele><time>2026-04-17T18:45:53Z</time></trkpt><trkpt lat="47.29156137571846" lon="8.70568827891096"><ele>507.0</ele><time>2026-04-17T18:45:55Z</time></trkpt><trkpt lat="47.29165938772451" lon="8.705576179357104"><ele>507.0</ele><time>2026-04-17T18:45:57Z</time></trkpt><trkpt lat="47.291709011784036" lon="8.705518766146913"><ele>507.0</ele><time>2026-04-17T18:45:58Z</time></trkpt><trkpt lat="47.29175739917851" lon="8.705458025758702"><ele>507.0</ele><time>2026-04-17T18:45:59Z</time></trkpt><trkpt lat="47.29180178951761" lon="8.705389869039518"><ele>507.0</ele><time>2026-04-17T18:46:00Z</time></trkpt><trkpt lat="47.29184731268798" lon="8.705325273572562"><ele>507.0</ele><time>2026-04-17T18:46:01Z</time></trkpt><trkpt lat="47.29188921121421" lon="8.70525517940091"><ele>507.0</ele><time>2026-04-17T18:46:02Z</time></trkpt><trkpt lat="47.291929743814386" lon="8.705182376732136"><ele>507.0</ele><time>2026-04-17T18:46:03Z</time></trkpt><trkpt lat="47.29196535125783" lon="8.70510577552324"><ele>507.0</ele><time>2026-04-17T18:46:04Z</time></trkpt><trkpt lat="47.292000177980874" lon="8.705026500449113"><ele>507.75</ele><time>2026-04-17T18:46:05Z</time></trkpt><trkpt lat="47.29203333944825" lon="8.704946924798476"><ele>508.5</ele><time>2026-04-17T18:46:06Z</time></trkpt><trkpt lat="47.2920616941603" lon="8.704863522447845"><ele>509.25</ele><time>2026-04-17T18:46:07Z</time></trkpt><trkpt lat="47.29208910533801" lon="8.704779364772214"><ele>510.0</ele><time>2026-04-17T18:46:08Z</time></trkpt><trkpt lat="47.29210995942941" lon="8.704689639998811"><ele>510.75</ele><time>2026-04-17T18:46:09Z</time></trkpt><trkpt lat="47.29213004833101" lon="8.70459883656614"><ele>511.5</ele><time>2026-04-17T18:46:10Z</time></trkpt><trkpt lat="47.29215363275485" lon="8.704510512463228"><ele>512.25</ele><time>2026-04-17T18:46:11Z</time></trkpt><trkpt lat="47.292174393557524" lon="8.704418676441179"><ele>513.0</ele><time>2026-04-17T18:46:12Z</time></trkpt><trkpt lat="47.29218485536307" lon="8.704324039674221"><ele>513.5714285714287</ele><time>2026-04-17T18:46:13Z</time></trkpt><trkpt lat="47.292198197679966" lon="8.704229277436056"><ele>514.1428571428571</ele><time>2026-04-17T18:46:14Z</time></trkpt><trkpt lat="47.2922089031763" lon="8.704132888041274"><ele>514.7142857142858</ele><time>2026-04-17T18:46:15Z</time></trkpt><trkpt lat="47.29221855641093" lon="8.704034802898683"><ele>515.2857142857143</ele><time>2026-04-17T18:46:16Z</time></trkpt><trkpt lat="47.29222703649619" lon="8.703936650189025"><ele>515.8571428571429</ele><time>2026-04-17T18:46:17Z</time></trkpt><trkpt lat="47.29223549273345" lon="8.703836859487666"><ele>516.4285714285714</ele><time>2026-04-17T18:46:18Z</time></trkpt><trkpt lat="47.292242265159814" lon="8.70373661713131"><ele>517.0</ele><time>2026-04-17T18:46:19Z</time></trkpt><trkpt lat="47.29224823632266" lon="8.703634993089326"><ele>516.8571428571429</ele><time>2026-04-17T18:46:20Z</time></trkpt><trkpt lat="47.292252723424426" lon="8.703532263781224"><ele>516.7142857142858</ele><time>2026-04-17T18:46:21Z</time></trkpt><trkpt lat="47.29226042963193" lon="8.703429283966466"><ele>516.5714285714286</ele><time>2026-04-17T18:46:22Z</time></trkpt><trkpt lat="47.292267965632696" lon="8.703325082991197"><ele>516.4285714285714</ele><time>2026-04-17T18:46:23Z</time></trkpt><trkpt lat="47.29227531885115" lon="8.703220782407987"><ele>516.2857142857142</ele><time>2026-04-17T18:46:24Z</time></trkpt><trkpt lat="47.29228252410473" lon="8.70311666901165"><ele>516.1428571428571</ele><time>2026-04-17T18:46:25Z</time></trkpt><trkpt lat="47.29229090469256" lon="8.703011620861712"><ele>516.0</ele><time>2026-04-17T18:46:26Z</time></trkpt><trkpt lat="47.292295389683915" lon="8.70290604629524"><ele>515.7142857142857</ele><time>2026-04-17T18:46:27Z</time></trkpt><trkpt lat="47.292302549931016" lon="8.702800692202143"><ele>515.4285714285714</ele><time>2026-04-17T18:46:28Z</time></trkpt><trkpt lat="47.29230604836689" lon="8.702693122902504"><ele>515.1428571428571</ele><time>2026-04-17T18:46:29Z</time></trkpt><trkpt lat="47.29231185813819" lon="8.70258556349057"><ele>514.8571428571429</ele><time>2026-04-17T18:46:30Z</time></trkpt><trkpt lat="47.29231859706747" lon="8.702478655609017"><ele>514.5714285714286</ele><time>2026-04-17T18:46:31Z</time></trkpt><trkpt lat="47.29232552220599" lon="8.70237219571927"><ele>514.2857142857142</ele><time>2026-04-17T18:46:32Z</time></trkpt><trkpt lat="47.29233267268946" lon="8.702264015191503"><ele>514.0</ele><time>2026-04-17T18:46:33Z</time></trkpt><trkpt lat="47.29233904254314" lon="8.702156801651444"><ele>514.0</ele><time>2026-04-17T18:46:34Z</time></trkpt><trkpt lat="47.292345471005156" lon="8.70205105283765"><ele>514.0</ele><time>2026-04-17T18:46:35Z</time></trkpt><trkpt lat="47.2923543537668" lon="8.701943556125057"><ele>514.0</ele><time>2026-04-17T18:46:36Z</time></trkpt><trkpt lat="47.2923637501277" lon="8.701837423864232"><ele>514.0</ele><time>2026-04-17T18:46:37Z</time></trkpt><trkpt lat="47.292372325613336" lon="8.70172972907552"><ele>514.0</ele><time>2026-04-17T18:46:38Z</time></trkpt><trkpt lat="47.29237965281901" lon="8.701622656351631"><ele>514.0</ele><time>2026-04-17T18:46:39Z</time></trkpt><trkpt lat="47.29239268106522" lon="8.701517740253925"><ele>514.0</ele><time>2026-04-17T18:46:40Z</time></trkpt><trkpt lat="47.292406289926774" lon="8.70141120765873"><ele>514.0</ele><time>2026-04-17T18:46:41Z</time></trkpt><trkpt lat="47.29241657916842" lon="8.701305476279568"><ele>514.0</ele><time>2026-04-17T18:46:42Z</time></trkpt><trkpt lat="47.29242774413964" lon="8.701199618361507"><ele>514.0</ele><time>2026-04-17T18:46:43Z</time></trkpt><trkpt lat="47.292438844506385" lon="8.701092708026785"><ele>514.0</ele><time>2026-04-17T18:46:44Z</time></trkpt><trkpt lat="47.292453713395865" lon="8.700988407883287"><ele>514.0</ele><time>2026-04-17T18:46:45Z</time></trkpt><trkpt lat="47.29246970959224" lon="8.700886010613411"><ele>514.0</ele><time>2026-04-17T18:46:46Z</time></trkpt><trkpt lat="47.29248874058433" lon="8.70078528783818"><ele>514.0</ele><time>2026-04-17T18:46:47Z</time></trkpt><trkpt lat="47.292506499496994" lon="8.70068262958368"><ele>514.2857142857142</ele><time>2026-04-17T18:46:48Z</time></trkpt><trkpt lat="47.29252511883327" lon="8.700580833526315"><ele>514.5714285714286</ele><time>2026-04-17T18:46:49Z</time></trkpt><trkpt lat="47.29254643480791" lon="8.700480587041348"><ele>514.8571428571429</ele><time>2026-04-17T18:46:50Z</time></trkpt><trkpt lat="47.292568877253615" lon="8.700379378306792"><ele>515.1428571428571</ele><time>2026-04-17T18:46:51Z</time></trkpt><trkpt lat="47.29259289791283" lon="8.70027959125557"><ele>515.4285714285714</ele><time>2026-04-17T18:46:52Z</time></trkpt><trkpt lat="47.292614940485045" lon="8.70017890999771"><ele>515.7142857142857</ele><time>2026-04-17T18:46:53Z</time></trkpt><trkpt lat="47.292636681466234" lon="8.700077314727736"><ele>516.0</ele><time>2026-04-17T18:46:54Z</time></trkpt><trkpt lat="47.29266239511674" lon="8.699977037595074"><ele>515.9999999999999</ele><time>2026-04-17T18:46:55Z</time></trkpt><trkpt lat="47.29268721996314" lon="8.699877629631402"><ele>516.0</ele><time>2026-04-17T18:46:56Z</time></trkpt><trkpt lat="47.29271810445425" lon="8.699780297621425"><ele>516.0</ele><time>2026-04-17T18:46:57Z</time></trkpt><trkpt lat="47.29274859284777" lon="8.699681694960121"><ele>516.0</ele><time>2026-04-17T18:46:58Z</time></trkpt><trkpt lat="47.292780677211816" lon="8.699583955321861"><ele>516.0</ele><time>2026-04-17T18:46:59Z</time></trkpt><trkpt lat="47.29281452239997" lon="8.699489030917555"><ele>515.9999999999999</ele><time>2026-04-17T18:47:00Z</time></trkpt><trkpt lat="47.29284804258402" lon="8.699392978154252"><ele>516.0</ele><time>2026-04-17T18:47:01Z</time></trkpt><trkpt lat="47.29288217248136" lon="8.699297129432408"><ele>515.9999999999999</ele><time>2026-04-17T18:47:02Z</time></trkpt><trkpt lat="47.29291550926898" lon="8.69920047179117"><ele>516.0</ele><time>2026-04-17T18:47:03Z</time></trkpt><trkpt lat="47.292949520455664" lon="8.699105211891323"><ele>516.0</ele><time>2026-04-17T18:47:04Z</time></trkpt><trkpt lat="47.29299114175173" lon="8.699015208829122"><ele>516.0</ele><time>2026-04-17T18:47:05Z</time></trkpt><trkpt lat="47.29303310990413" lon="8.698928008924003"><ele>516.0</ele><time>2026-04-17T18:47:06Z</time></trkpt><trkpt lat="47.29307257583065" lon="8.698837990195866"><ele>515.9999999999999</ele><time>2026-04-17T18:47:07Z</time></trkpt><trkpt lat="47.293111554430986" lon="8.698746771642025"><ele>516.0</ele><time>2026-04-17T18:47:08Z</time></trkpt><trkpt lat="47.2931530421226" lon="8.698657510741295"><ele>516.5714285714286</ele><time>2026-04-17T18:47:09Z</time></trkpt><trkpt lat="47.293196181923406" lon="8.698569644949455"><ele>517.1428571428571</ele><time>2026-04-17T18:47:10Z</time></trkpt><trkpt lat="47.293240165071325" lon="8.698482148204622"><ele>517.7142857142858</ele><time>2026-04-17T18:47:11Z</time></trkpt><trkpt lat="47.293283954478994" lon="8.698395490503456"><ele>518.2857142857142</ele><time>2026-04-17T18:47:12Z</time></trkpt><trkpt lat="47.293327383225936" lon="8.698308081802821"><ele>518.8571428571429</ele><time>2026-04-17T18:47:13Z</time></trkpt><trkpt lat="47.29337128482445" lon="8.698222091351981"><ele>519.4285714285714</ele><time>2026-04-17T18:47:14Z</time></trkpt><trkpt lat="47.2934161141715" lon="8.69813648610766"><ele>520.0</ele><time>2026-04-17T18:47:15Z</time></trkpt><trkpt lat="47.29346136199772" lon="8.698052011399774"><ele>520.0000000000001</ele><time>2026-04-17T18:47:16Z</time></trkpt><trkpt lat="47.29350573383421" lon="8.69796628316127"><ele>520.0</ele><time>2026-04-17T18:47:17Z</time></trkpt><trkpt lat="47.29354897044833" lon="8.697879730027196"><ele>520.0</ele><time>2026-04-17T18:47:18Z</time></trkpt><trkpt lat="47.29359339673403" lon="8.697794504789023"><ele>520.0</ele><time>2026-04-17T18:47:19Z</time></trkpt><trkpt lat="47.293636361942355" lon="8.697706801204653"><ele>520.0</ele><time>2026-04-17T18:47:20Z</time></trkpt><trkpt lat="47.29367856005477" lon="8.697620065877924"><ele>520.0000000000001</ele><time>2026-04-17T18:47:21Z</time></trkpt><trkpt lat="47.293723928460025" lon="8.697534557341893"><ele>520.0</ele><time>2026-04-17T18:47:22Z</time></trkpt><trkpt lat="47.29376949941733" lon="8.697449678131745"><ele>520.4285714285714</ele><time>2026-04-17T18:47:23Z</time></trkpt><trkpt lat="47.29381345745195" lon="8.697361754241832"><ele>520.8571428571429</ele><time>2026-04-17T18:47:24Z</time></trkpt><trkpt lat="47.29385917035434" lon="8.697277209235903"><ele>521.2857142857142</ele><time>2026-04-17T18:47:25Z</time></trkpt><trkpt lat="47.293903757420715" lon="8.697189462458363"><ele>521.7142857142858</ele><time>2026-04-17T18:47:26Z</time></trkpt><trkpt lat="47.293950161006" lon="8.697101364353163"><ele>522.1428571428571</ele><time>2026-04-17T18:47:27Z</time></trkpt><trkpt lat="47.29399488744023" lon="8.69701176163976"><ele>522.5714285714286</ele><time>2026-04-17T18:47:28Z</time></trkpt><trkpt lat="47.29403989391522" lon="8.696922901940102"><ele>523.0</ele><time>2026-04-17T18:47:29Z</time></trkpt><trkpt lat="47.29408470218399" lon="8.696834328614752"><ele>523.0</ele><time>2026-04-17T18:47:30Z</time></trkpt><trkpt lat="47.29413298056597" lon="8.696746056568731"><ele>523.0</ele><time>2026-04-17T18:47:31Z</time></trkpt><trkpt lat="47.29418270135906" lon="8.696659733878777"><ele>523.0</ele><time>2026-04-17T18:47:32Z</time></trkpt><trkpt lat="47.294230240611085" lon="8.696573298117782"><ele>523.0</ele><time>2026-04-17T18:47:33Z</time></trkpt><trkpt lat="47.29427958894786" lon="8.696487757581362"><ele>523.0</ele><time>2026-04-17T18:47:34Z</time></trkpt><trkpt lat="47.2943298848465" lon="8.696404672292246"><ele>523.0</ele><time>2026-04-17T18:47:35Z</time></trkpt><trkpt lat="47.29438104635021" lon="8.696322672091293"><ele>523.0</ele><time>2026-04-17T18:47:36Z</time></trkpt><trkpt lat="47.294432495252536" lon="8.696242079991496"><ele>523.0</ele><time>2026-04-17T18:47:37Z</time></trkpt><trkpt lat="47.294483944194745" lon="8.696161791127814"><ele>523.0</ele><time>2026-04-17T18:47:38Z</time></trkpt><trkpt lat="47.294537487967695" lon="8.69608401741522"><ele>523.0</ele><time>2026-04-17T18:47:39Z</time></trkpt><trkpt lat="47.294593413403994" lon="8.69600780397309"><ele>523.0</ele><time>2026-04-17T18:47:40Z</time></trkpt><trkpt lat="47.29465174398377" lon="8.695933493271486"><ele>523.0</ele><time>2026-04-17T18:47:41Z</time></trkpt><trkpt lat="47.294710043886546" lon="8.695859933052272"><ele>523.1666666666667</ele><time>2026-04-17T18:47:42Z</time></trkpt><trkpt lat="47.29476511708759" lon="8.695781524754082"><ele>523.3333333333334</ele><time>2026-04-17T18:47:43Z</time></trkpt><trkpt lat="47.29481831749102" lon="8.695699368577529"><ele>523.5</ele><time>2026-04-17T18:47:44Z</time></trkpt><trkpt lat="47.294875355886305" lon="8.695623812697171"><ele>523.6666666666666</ele><time>2026-04-17T18:47:45Z</time></trkpt><trkpt lat="47.29493568365682" lon="8.69555207434853"><ele>523.8333333333333</ele><time>2026-04-17T18:47:46Z</time></trkpt><trkpt lat="47.29499926678264" lon="8.695488411713091"><ele>524.0</ele><time>2026-04-17T18:47:47Z</time></trkpt><trkpt lat="47.29506238328791" lon="8.69542672347672"><ele>524.0</ele><time>2026-04-17T18:47:48Z</time></trkpt><trkpt lat="47.29512851282572" lon="8.695367989424112"><ele>524.0</ele><time>2026-04-17T18:47:49Z</time></trkpt><trkpt lat="47.295194312155246" lon="8.695310360036462"><ele>524.0</ele><time>2026-04-17T18:47:50Z</time></trkpt><trkpt lat="47.29525804864119" lon="8.695246980313264"><ele>524.0</ele><time>2026-04-17T18:47:51Z</time></trkpt><trkpt lat="47.29531796668922" lon="8.695178132994636"><ele>524.0</ele><time>2026-04-17T18:47:52Z</time></trkpt><trkpt lat="47.29537910733076" lon="8.695112495522153"><ele>524.0</ele><time>2026-04-17T18:47:53Z</time></trkpt><trkpt lat="47.29544219483735" lon="8.695050488655411"><ele>524.1666666666666</ele><time>2026-04-17T18:47:54Z</time></trkpt><trkpt lat="47.29550431802146" lon="8.694985742847795"><ele>524.3333333333333</ele><time>2026-04-17T18:47:55Z</time></trkpt><trkpt lat="47.29556445506341" lon="8.694917616624874"><ele>524.5</ele><time>2026-04-17T18:47:56Z</time></trkpt><trkpt lat="47.295625979885365" lon="8.69484987145002"><ele>524.6666666666666</ele><time>2026-04-17T18:47:57Z</time></trkpt><trkpt lat="47.29568383173408" lon="8.69478027372834"><ele>524.8333333333334</ele><time>2026-04-17T18:47:58Z</time></trkpt><trkpt lat="47.29574491230863" lon="8.694710978052894"><ele>525.0</ele><time>2026-04-17T18:47:59Z</time></trkpt><trkpt lat="47.29580387592074" lon="8.694641814213403"><ele>525.0</ele><time>2026-04-17T18:48:00Z</time></trkpt><trkpt lat="47.295861247643046" lon="8.694568668184795"><ele>525.0</ele><time>2026-04-17T18:48:01Z</time></trkpt><trkpt lat="47.29591649440031" lon="8.694496572310626"><ele>525.0</ele><time>2026-04-17T18:48:02Z</time></trkpt><trkpt lat="47.29597194676814" lon="8.69442351505893"><ele>525.0</ele><time>2026-04-17T18:48:03Z</time></trkpt><trkpt lat="47.29602697950543" lon="8.694351277945565"><ele>525.0</ele><time>2026-04-17T18:48:04Z</time></trkpt><trkpt lat="47.29607916223851" lon="8.694276545863525"><ele>525.0</ele><time>2026-04-17T18:48:05Z</time></trkpt><trkpt lat="47.29613103773362" lon="8.694198511649983"><ele>525.0</ele><time>2026-04-17T18:48:06Z</time></trkpt><trkpt lat="47.29617967983866" lon="8.69411975072707"><ele>525.4285714285714</ele><time>2026-04-17T18:48:07Z</time></trkpt><trkpt lat="47.29622955830449" lon="8.69404133602117"><ele>525.8571428571429</ele><time>2026-04-17T18:48:08Z</time></trkpt><trkpt lat="47.296282641444115" lon="8.693964472627894"><ele>526.2857142857142</ele><time>2026-04-17T18:48:09Z</time></trkpt><trkpt lat="47.29632947392397" lon="8.693886887178643"><ele>526.7142857142858</ele><time>2026-04-17T18:48:10Z</time></trkpt><trkpt lat="47.29638339266796" lon="8.693815448919006"><ele>527.1428571428571</ele><time>2026-04-17T18:48:11Z</time></trkpt><trkpt lat="47.2964414073877" lon="8.693750085612322"><ele>527.5714285714286</ele><time>2026-04-17T18:48:12Z</time></trkpt><trkpt lat="47.29649650708017" lon="8.693681057030885"><ele>528.0</ele><time>2026-04-17T18:48:13Z</time></trkpt><trkpt lat="47.29655029227574" lon="8.693609175190794"><ele>528.0</ele><time>2026-04-17T18:48:14Z</time></trkpt><trkpt lat="47.296603741485626" lon="8.693536346030365"><ele>528.0</ele><time>2026-04-17T18:48:15Z</time></trkpt><trkpt lat="47.29665564360521" lon="8.693462346806335"><ele>528.0</ele><time>2026-04-17T18:48:16Z</time></trkpt><trkpt lat="47.296708636886926" lon="8.693390124933103"><ele>528.0</ele><time>2026-04-17T18:48:17Z</time></trkpt><trkpt lat="47.296761842074346" lon="8.693317808696568"><ele>528.0</ele><time>2026-04-17T18:48:18Z</time></trkpt><trkpt lat="47.296813262390316" lon="8.693240802432841"><ele>528.0</ele><time>2026-04-17T18:48:19Z</time></trkpt><trkpt lat="47.29686187689363" lon="8.693162941454743"><ele>528.0</ele><time>2026-04-17T18:48:20Z</time></trkpt><trkpt lat="47.2969101344417" lon="8.693081917614862"><ele>528.0</ele><time>2026-04-17T18:48:21Z</time></trkpt><trkpt lat="47.296957027435724" lon="8.69300037472985"><ele>528.0</ele><time>2026-04-17T18:48:22Z</time></trkpt><trkpt lat="47.29701233376797" lon="8.692930814039794"><ele>528.0</ele><time>2026-04-17T18:48:23Z</time></trkpt><trkpt lat="47.29706887142832" lon="8.692864461546248"><ele>528.0</ele><time>2026-04-17T18:48:24Z</time></trkpt><trkpt lat="47.297125814536564" lon="8.692798166066293"><ele>528.0</ele><time>2026-04-17T18:48:25Z</time></trkpt><trkpt lat="47.29718104791001" lon="8.69272934175617"><ele>528.0</ele><time>2026-04-17T18:48:26Z</time></trkpt><trkpt lat="47.29723485578015" lon="8.69265679152693"><ele>528.0</ele><time>2026-04-17T18:48:27Z</time></trkpt><trkpt lat="47.29728615539738" lon="8.692581163268066"><ele>528.4285714285714</ele><time>2026-04-17T18:48:28Z</time></trkpt><trkpt lat="47.29733699714813" lon="8.692506207361102"><ele>528.8571428571429</ele><time>2026-04-17T18:48:29Z</time></trkpt><trkpt lat="47.29738894985806" lon="8.692432385751735"><ele>529.2857142857143</ele><time>2026-04-17T18:48:30Z</time></trkpt><trkpt lat="47.297442463604526" lon="8.692359911580594"><ele>529.7142857142858</ele><time>2026-04-17T18:48:31Z</time></trkpt><trkpt lat="47.297494426559005" lon="8.692286151580872"><ele>530.1428571428572</ele><time>2026-04-17T18:48:32Z</time></trkpt><trkpt lat="47.29754496477055" lon="8.692210953922219"><ele>530.5714285714286</ele><time>2026-04-17T18:48:33Z</time></trkpt><trkpt lat="47.29759657657672" lon="8.692137088025621"><ele>531.0</ele><time>2026-04-17T18:48:34Z</time></trkpt><trkpt lat="47.29764807056186" lon="8.692062876231661"><ele>531.0</ele><time>2026-04-17T18:48:35Z</time></trkpt><trkpt lat="47.297694859056385" lon="8.691983909904069"><ele>531.0</ele><time>2026-04-17T18:48:36Z</time></trkpt><trkpt lat="47.297743482587045" lon="8.691906718785575"><ele>531.0</ele><time>2026-04-17T18:48:37Z</time></trkpt><trkpt lat="47.29779355369896" lon="8.691832320600952"><ele>531.0</ele><time>2026-04-17T18:48:38Z</time></trkpt><trkpt lat="47.29784697326716" lon="8.691761203649506"><ele>531.0</ele><time>2026-04-17T18:48:39Z</time></trkpt><trkpt lat="47.29790160005229" lon="8.691692877750354"><ele>531.0</ele><time>2026-04-17T18:48:40Z</time></trkpt><trkpt lat="47.29795655814838" lon="8.691624013442224"><ele>531.0</ele><time>2026-04-17T18:48:41Z</time></trkpt><trkpt lat="47.298012680791345" lon="8.691559484333462"><ele>531.5714285714286</ele><time>2026-04-17T18:48:42Z</time></trkpt><trkpt lat="47.298073344971165" lon="8.691503504969237"><ele>532.1428571428572</ele><time>2026-04-17T18:48:43Z</time></trkpt><trkpt lat="47.29813522725657" lon="8.691447247061703"><ele>532.7142857142858</ele><time>2026-04-17T18:48:44Z</time></trkpt><trkpt lat="47.29819730025573" lon="8.691391060168648"><ele>533.2857142857143</ele><time>2026-04-17T18:48:45Z</time></trkpt><trkpt lat="47.29825945079162" lon="8.691336461174249"><ele>533.8571428571429</ele><time>2026-04-17T18:48:46Z</time></trkpt><trkpt lat="47.298320363872534" lon="8.691276204970675"><ele>534.4285714285714</ele><time>2026-04-17T18:48:47Z</time></trkpt><trkpt lat="47.29837652679636" lon="8.691216941837483"><ele>535.0</ele><time>2026-04-17T18:48:48Z</time></trkpt><trkpt lat="47.29843876842139" lon="8.691165623872607"><ele>535.0</ele><time>2026-04-17T18:48:49Z</time></trkpt><trkpt lat="47.29850624278573" lon="8.691125647812845"><ele>535.0</ele><time>2026-04-17T18:48:50Z</time></trkpt><trkpt lat="47.298572090802075" lon="8.691080837076335"><ele>535.0</ele><time>2026-04-17T18:48:51Z</time></trkpt><trkpt lat="47.29863593818828" lon="8.691038631797776"><ele>535.0</ele><time>2026-04-17T18:48:52Z</time></trkpt><trkpt lat="47.29870301288376" lon="8.69100176756869"><ele>535.0</ele><time>2026-04-17T18:48:53Z</time></trkpt><trkpt lat="47.29876875629334" lon="8.690961898317019"><ele>535.0</ele><time>2026-04-17T18:48:54Z</time></trkpt><trkpt lat="47.298835276271106" lon="8.690925361397294"><ele>535.0</ele><time>2026-04-17T18:48:55Z</time></trkpt><trkpt lat="47.298902631273904" lon="8.69089185800522"><ele>535.8571428571429</ele><time>2026-04-17T18:48:56Z</time></trkpt><trkpt lat="47.29896989897582" lon="8.690858804490446"><ele>536.7142857142858</ele><time>2026-04-17T18:48:57Z</time></trkpt><trkpt lat="47.29903612949266" lon="8.690823223312716"><ele>537.5714285714287</ele><time>2026-04-17T18:48:58Z</time></trkpt><trkpt lat="47.299101808366636" lon="8.69078955328694"><ele>538.4285714285714</ele><time>2026-04-17T18:48:59Z</time></trkpt><trkpt lat="47.29916845536723" lon="8.690752419217567"><ele>539.2857142857143</ele><time>2026-04-17T18:49:00Z</time></trkpt><trkpt lat="47.29923633068934" lon="8.690720926471991"><ele>540.1428571428572</ele><time>2026-04-17T18:49:01Z</time></trkpt><trkpt lat="47.299303212519" lon="8.69068863161637"><ele>541.0</ele><time>2026-04-17T18:49:02Z</time></trkpt><trkpt lat="47.299370632972725" lon="8.690652334547057"><ele>541.0</ele><time>2026-04-17T18:49:03Z</time></trkpt><trkpt lat="47.29943374370941" lon="8.690606270278392"><ele>541.0</ele><time>2026-04-17T18:49:04Z</time></trkpt><trkpt lat="47.29949028114026" lon="8.690539788962937"><ele>541.0</ele><time>2026-04-17T18:49:05Z</time></trkpt><trkpt lat="47.29953984057056" lon="8.69047188032986"><ele>541.0</ele><time>2026-04-17T18:49:06Z</time></trkpt><trkpt lat="47.2996988226184" lon="8.690467229430846"><ele>541.0</ele><time>2026-04-17T18:49:08Z</time></trkpt><trkpt lat="47.29977162074244" lon="8.69045696193685"><ele>541.0</ele><time>2026-04-17T18:49:09Z</time></trkpt><trkpt lat="47.299843776290274" lon="8.690426707194536"><ele>541.4285714285714</ele><time>2026-04-17T18:49:10Z</time></trkpt><trkpt lat="47.29991339885847" lon="8.690393587107062"><ele>541.8571428571429</ele><time>2026-04-17T18:49:11Z</time></trkpt><trkpt lat="47.299985126493034" lon="8.690362147568027"><ele>542.2857142857142</ele><time>2026-04-17T18:49:12Z</time></trkpt><trkpt lat="47.3000563443054" lon="8.690331665009236"><ele>542.7142857142858</ele><time>2026-04-17T18:49:13Z</time></trkpt><trkpt lat="47.30012863932011" lon="8.690299104252455"><ele>543.1428571428571</ele><time>2026-04-17T18:49:14Z</time></trkpt><trkpt lat="47.30019246905567" lon="8.690259544529095"><ele>543.5714285714286</ele><time>2026-04-17T18:49:15Z</time></trkpt><trkpt lat="47.30026484948396" lon="8.690228929650921"><ele>544.0</ele><time>2026-04-17T18:49:16Z</time></trkpt><trkpt lat="47.300339300742706" lon="8.690203186460332"><ele>544.1666666666667</ele><time>2026-04-17T18:49:17Z</time></trkpt><trkpt lat="47.30041066292671" lon="8.690170166164792"><ele>544.3333333333334</ele><time>2026-04-17T18:49:18Z</time></trkpt><trkpt lat="47.300482660454655" lon="8.690139646312806"><ele>544.5</ele><time>2026-04-17T18:49:19Z</time></trkpt><trkpt lat="47.300554304989376" lon="8.690112677232323"><ele>544.6666666666666</ele><time>2026-04-17T18:49:20Z</time></trkpt><trkpt lat="47.3006266646514" lon="8.690084199355152"><ele>544.8333333333333</ele><time>2026-04-17T18:49:21Z</time></trkpt><trkpt lat="47.30069799805406" lon="8.690053348100747"><ele>545.0</ele><time>2026-04-17T18:49:22Z</time></trkpt><trkpt lat="47.30077161801787" lon="8.690020323413815"><ele>545.0</ele><time>2026-04-17T18:49:23Z</time></trkpt><trkpt lat="47.30084638191096" lon="8.689984312360465"><ele>545.0</ele><time>2026-04-17T18:49:24Z</time></trkpt><trkpt lat="47.30091649423669" lon="8.689943075303898"><ele>545.0</ele><time>2026-04-17T18:49:25Z</time></trkpt><trkpt lat="47.30098745632056" lon="8.689898608100437"><ele>545.0</ele><time>2026-04-17T18:49:26Z</time></trkpt><trkpt lat="47.30105798135768" lon="8.689849998670823"><ele>545.0</ele><time>2026-04-17T18:49:27Z</time></trkpt><trkpt lat="47.301128612774114" lon="8.68980027532147"><ele>545.0</ele><time>2026-04-17T18:49:28Z</time></trkpt><trkpt lat="47.30119866123416" lon="8.68975183910228"><ele>545.0</ele><time>2026-04-17T18:49:29Z</time></trkpt><trkpt lat="47.30126870009986" lon="8.689701027183409"><ele>545.0</ele><time>2026-04-17T18:49:30Z</time></trkpt><trkpt lat="47.301337825463285" lon="8.689648041822348"><ele>545.0</ele><time>2026-04-17T18:49:31Z</time></trkpt><trkpt lat="47.301406920187326" lon="8.689595908883417"><ele>545.0</ele><time>2026-04-17T18:49:32Z</time></trkpt><trkpt lat="47.301477091273746" lon="8.689546679272182"><ele>545.0</ele><time>2026-04-17T18:49:33Z</time></trkpt><trkpt lat="47.30154751655357" lon="8.68950007130349"><ele>545.0</ele><time>2026-04-17T18:49:34Z</time></trkpt><trkpt lat="47.30161711036337" lon="8.689451939943504"><ele>545.1666666666666</ele><time>2026-04-17T18:49:35Z</time></trkpt><trkpt lat="47.301681281189644" lon="8.689405434846133"><ele>545.3333333333333</ele><time>2026-04-17T18:49:36Z</time></trkpt><trkpt lat="47.301740484627096" lon="8.689361484836484"><ele>545.5</ele><time>2026-04-17T18:49:37Z</time></trkpt><trkpt lat="47.30179778579898" lon="8.689321865766004"><ele>545.6666666666666</ele><time>2026-04-17T18:49:38Z</time></trkpt><trkpt lat="47.301915084234075" lon="8.689237520924033"><ele>545.8333333333334</ele><time>2026-04-17T18:49:40Z</time></trkpt><trkpt lat="47.301978322841265" lon="8.689186745783017"><ele>546.0</ele><time>2026-04-17T18:49:41Z</time></trkpt><trkpt lat="47.30204151763518" lon="8.689144399300341"><ele>546.0</ele><time>2026-04-17T18:49:42Z</time></trkpt><trkpt lat="47.302100285790544" lon="8.689092541289735"><ele>546.0</ele><time>2026-04-17T18:49:43Z</time></trkpt><trkpt lat="47.30215716143928" lon="8.689039161350225"><ele>546.0</ele><time>2026-04-17T18:49:44Z</time></trkpt><trkpt lat="47.30228299488823" lon="8.688986780551382"><ele>546.0</ele><time>2026-04-17T18:49:46Z</time></trkpt><trkpt lat="47.30234739860347" lon="8.688939028210317"><ele>546.0</ele><time>2026-04-17T18:49:47Z</time></trkpt><trkpt lat="47.30241322565849" lon="8.688889743178104"><ele>546.0</ele><time>2026-04-17T18:49:48Z</time></trkpt><trkpt lat="47.302478990985776" lon="8.688838128763855"><ele>546.1666666666666</ele><time>2026-04-17T18:49:49Z</time></trkpt><trkpt lat="47.30254477578757" lon="8.688781930251142"><ele>546.3333333333334</ele><time>2026-04-17T18:49:50Z</time></trkpt><trkpt lat="47.30261105505782" lon="8.688728832242028"><ele>546.5</ele><time>2026-04-17T18:49:51Z</time></trkpt><trkpt lat="47.30267544167049" lon="8.688669002755828"><ele>546.6666666666667</ele><time>2026-04-17T18:49:52Z</time></trkpt><trkpt lat="47.30273536592148" lon="8.688597192242511"><ele>546.8333333333334</ele><time>2026-04-17T18:49:53Z</time></trkpt><trkpt lat="47.302797125764" lon="8.68855068163144"><ele>547.0</ele><time>2026-04-17T18:49:54Z</time></trkpt><trkpt lat="47.302882745771136" lon="8.688523081779724"><ele>546.8333333333334</ele><time>2026-04-17T18:49:56Z</time></trkpt><trkpt lat="47.302950632259915" lon="8.688628650619915"><ele>546.6666666666667</ele><time>2026-04-17T18:49:57Z</time></trkpt><trkpt lat="47.30299180377471" lon="8.688712181151056"><ele>546.5</ele><time>2026-04-17T18:49:58Z</time></trkpt><trkpt lat="47.303030654760924" lon="8.68880180516567"><ele>546.3333333333334</ele><time>2026-04-17T18:49:59Z</time></trkpt><trkpt lat="47.303075630182796" lon="8.688892161578961"><ele>546.1666666666666</ele><time>2026-04-17T18:50:00Z</time></trkpt><trkpt lat="47.303118788101315" lon="8.688988160723826"><ele>546.0</ele><time>2026-04-17T18:50:01Z</time></trkpt><trkpt lat="47.30316437071669" lon="8.68908421772175"><ele>546.0</ele><time>2026-04-17T18:50:02Z</time></trkpt><trkpt lat="47.30321298277902" lon="8.689177172349359"><ele>546.0</ele><time>2026-04-17T18:50:03Z</time></trkpt><trkpt lat="47.30326102677061" lon="8.689275133699985"><ele>546.0</ele><time>2026-04-17T18:50:04Z</time></trkpt><trkpt lat="47.303306637453225" lon="8.68937437558737"><ele>546.0</ele><time>2026-04-17T18:50:05Z</time></trkpt><trkpt lat="47.30335282817167" lon="8.689471425178658"><ele>546.0</ele><time>2026-04-17T18:50:06Z</time></trkpt><trkpt lat="47.30340003242067" lon="8.689567924676517"><ele>546.0</ele><time>2026-04-17T18:50:07Z</time></trkpt><trkpt lat="47.30344587366469" lon="8.68966667374262"><ele>545.8333333333334</ele><time>2026-04-17T18:50:08Z</time></trkpt><trkpt lat="47.30349380242009" lon="8.689764286203015"><ele>545.6666666666666</ele><time>2026-04-17T18:50:09Z</time></trkpt><trkpt lat="47.30354071767393" lon="8.689861416106657"><ele>545.5</ele><time>2026-04-17T18:50:10Z</time></trkpt><trkpt lat="47.30358871925054" lon="8.689955557630022"><ele>545.3333333333333</ele><time>2026-04-17T18:50:11Z</time></trkpt><trkpt lat="47.303633791302566" lon="8.690053445342144"><ele>545.1666666666666</ele><time>2026-04-17T18:50:12Z</time></trkpt><trkpt lat="47.30368093840068" lon="8.690150394655568"><ele>545.0</ele><time>2026-04-17T18:50:13Z</time></trkpt><trkpt lat="47.30372912707344" lon="8.690244902770734"><ele>544.6</ele><time>2026-04-17T18:50:14Z</time></trkpt><trkpt lat="47.30377769679621" lon="8.690335977170106"><ele>544.2</ele><time>2026-04-17T18:50:15Z</time></trkpt><trkpt lat="47.30385140521846" lon="8.690441624968935"><ele>543.8</ele><time>2026-04-17T18:50:17Z</time></trkpt><trkpt lat="47.303893844483" lon="8.69051611239501"><ele>543.4</ele><time>2026-04-17T18:50:19Z</time></trkpt><trkpt lat="47.303904642695606" lon="8.690646216656766"><ele>543.0</ele><time>2026-04-17T18:50:21Z</time></trkpt><trkpt lat="47.303997753500845" lon="8.69076073885799"><ele>542.6</ele><time>2026-04-17T18:50:23Z</time></trkpt><trkpt lat="47.30408289157527" lon="8.690933125391012"><ele>542.1999999999999</ele><time>2026-04-17T18:50:25Z</time></trkpt><trkpt lat="47.30412707023891" lon="8.691028086156809"><ele>541.8</ele><time>2026-04-17T18:50:26Z</time></trkpt><trkpt lat="47.30417568448706" lon="8.691123758349882"><ele>541.4</ele><time>2026-04-17T18:50:27Z</time></trkpt><trkpt lat="47.30422582589134" lon="8.69121929908752"><ele>541.0</ele><time>2026-04-17T18:50:28Z</time></trkpt><trkpt lat="47.30427536578432" lon="8.691314879785539"><ele>541.0</ele><time>2026-04-17T18:50:29Z</time></trkpt><trkpt lat="47.30432443116246" lon="8.691410537707853"><ele>541.0</ele><time>2026-04-17T18:50:30Z</time></trkpt><trkpt lat="47.30437606707287" lon="8.691506326301798"><ele>541.0</ele><time>2026-04-17T18:50:31Z</time></trkpt><trkpt lat="47.30442613212751" lon="8.691603342438757"><ele>541.0</ele><time>2026-04-17T18:50:32Z</time></trkpt><trkpt lat="47.30447651841362" lon="8.691701384687917"><ele>541.0</ele><time>2026-04-17T18:50:33Z</time></trkpt><trkpt lat="47.30452884084513" lon="8.691799236835863"><ele>541.0</ele><time>2026-04-17T18:50:34Z</time></trkpt><trkpt lat="47.30458108488984" lon="8.691897550696462"><ele>540.6666666666667</ele><time>2026-04-17T18:50:35Z</time></trkpt><trkpt lat="47.30463417053189" lon="8.691996997146259"><ele>540.3333333333334</ele><time>2026-04-17T18:50:36Z</time></trkpt><trkpt lat="47.30468698682449" lon="8.69209468272095"><ele>540.0</ele><time>2026-04-17T18:50:37Z</time></trkpt><trkpt lat="47.30474211585154" lon="8.692192982633555"><ele>539.6666666666666</ele><time>2026-04-17T18:50:38Z</time></trkpt><trkpt lat="47.30479600195674" lon="8.692288126109856"><ele>539.3333333333333</ele><time>2026-04-17T18:50:39Z</time></trkpt><trkpt lat="47.30484151670392" lon="8.692367464678956"><ele>539.0</ele><time>2026-04-17T18:50:40Z</time></trkpt><trkpt lat="47.304864909673256" lon="8.692459966132"><ele>538.8333333333333</ele><time>2026-04-17T18:50:41Z</time></trkpt><trkpt lat="47.30491818085947" lon="8.692619760070977"><ele>538.6666666666666</ele><time>2026-04-17T18:50:43Z</time></trkpt><trkpt lat="47.304958551779876" lon="8.692691826743966"><ele>538.5</ele><time>2026-04-17T18:50:44Z</time></trkpt><trkpt lat="47.3050056503197" lon="8.692761178905698"><ele>538.3333333333334</ele><time>2026-04-17T18:50:45Z</time></trkpt><trkpt lat="47.30509781058607" lon="8.69278051476265"><ele>538.1666666666667</ele><time>2026-04-17T18:50:46Z</time></trkpt><trkpt lat="47.305146060077476" lon="8.692872467702038"><ele>538.0</ele><time>2026-04-17T18:50:47Z</time></trkpt><trkpt lat="47.305192435579116" lon="8.692971178982312"><ele>538.0</ele><time>2026-04-17T18:50:48Z</time></trkpt><trkpt lat="47.30524543342645" lon="8.693064202713673"><ele>538.0</ele><time>2026-04-17T18:50:49Z</time></trkpt><trkpt lat="47.30529779698357" lon="8.69315893407248"><ele>538.0</ele><time>2026-04-17T18:50:50Z</time></trkpt><trkpt lat="47.305349802386004" lon="8.693256162631284"><ele>538.0</ele><time>2026-04-17T18:50:51Z</time></trkpt><trkpt lat="47.305403747196614" lon="8.693351905426015"><ele>538.0</ele><time>2026-04-17T18:50:52Z</time></trkpt><trkpt lat="47.30546802154257" lon="8.693436503009515"><ele>538.0</ele><time>2026-04-17T18:50:53Z</time></trkpt><trkpt lat="47.30554519294651" lon="8.693493675290828"><ele>538.8333333333334</ele><time>2026-04-17T18:50:54Z</time></trkpt><trkpt lat="47.30563505673745" lon="8.69352615442993"><ele>539.6666666666667</ele><time>2026-04-17T18:50:55Z</time></trkpt><trkpt lat="47.30572142702754" lon="8.693524399653537"><ele>540.5</ele><time>2026-04-17T18:50:56Z</time></trkpt><trkpt lat="47.30579698520358" lon="8.693501598527549"><ele>541.3333333333334</ele><time>2026-04-17T18:50:57Z</time></trkpt><trkpt lat="47.30586740432144" lon="8.693459826071734"><ele>542.1666666666666</ele><time>2026-04-17T18:50:58Z</time></trkpt><trkpt lat="47.30593511248407" lon="8.693364633726487"><ele>543.0</ele><time>2026-04-17T18:50:59Z</time></trkpt><trkpt lat="47.30598942822342" lon="8.693254262561922"><ele>543.0</ele><time>2026-04-17T18:51:00Z</time></trkpt><trkpt lat="47.30603336844075" lon="8.69314107368752"><ele>543.0</ele><time>2026-04-17T18:51:01Z</time></trkpt><trkpt lat="47.30607256242334" lon="8.693019477655639"><ele>543.0</ele><time>2026-04-17T18:51:02Z</time></trkpt><trkpt lat="47.30611359588967" lon="8.692899286969737"><ele>543.0</ele><time>2026-04-17T18:51:03Z</time></trkpt><trkpt lat="47.30615156817539" lon="8.692772686822877"><ele>543.0</ele><time>2026-04-17T18:51:04Z</time></trkpt><trkpt lat="47.306194855730034" lon="8.692644771275951"><ele>541.4</ele><time>2026-04-17T18:51:05Z</time></trkpt><trkpt lat="47.30623704155548" lon="8.692515051224104"><ele>539.8</ele><time>2026-04-17T18:51:06Z</time></trkpt><trkpt lat="47.30627683193339" lon="8.692379391360353"><ele>538.2</ele><time>2026-04-17T18:51:07Z</time></trkpt><trkpt lat="47.30631424887327" lon="8.692239585811734"><ele>536.6</ele><time>2026-04-17T18:51:08Z</time></trkpt><trkpt lat="47.30635487779285" lon="8.692098680782298"><ele>535.0</ele><time>2026-04-17T18:51:09Z</time></trkpt><trkpt lat="47.3064016591221" lon="8.691958233292548"><ele>533.4</ele><time>2026-04-17T18:51:10Z</time></trkpt><trkpt lat="47.306458152329334" lon="8.69182185047463"><ele>531.8</ele><time>2026-04-17T18:51:11Z</time></trkpt><trkpt lat="47.306524975794254" lon="8.691691539918969"><ele>530.2</ele><time>2026-04-17T18:51:12Z</time></trkpt><trkpt lat="47.30660217599353" lon="8.69156907620819"><ele>528.6</ele><time>2026-04-17T18:51:13Z</time></trkpt><trkpt lat="47.306684109352716" lon="8.69144986243968"><ele>527.0</ele><time>2026-04-17T18:51:14Z</time></trkpt><trkpt lat="47.30676463047841" lon="8.691330746314293"><ele>527.0</ele><time>2026-04-17T18:51:15Z</time></trkpt><trkpt lat="47.3068464947286" lon="8.691212334815786"><ele>527.0</ele><time>2026-04-17T18:51:16Z</time></trkpt><trkpt lat="47.30692642150294" lon="8.69109513279576"><ele>527.0</ele><time>2026-04-17T18:51:17Z</time></trkpt><trkpt lat="47.307002085546536" lon="8.690982418500624"><ele>527.0</ele><time>2026-04-17T18:51:18Z</time></trkpt><trkpt lat="47.3070751270199" lon="8.690866923949235"><ele>527.0</ele><time>2026-04-17T18:51:19Z</time></trkpt><trkpt lat="47.30714387826937" lon="8.690750561869056"><ele>527.2</ele><time>2026-04-17T18:51:20Z</time></trkpt><trkpt lat="47.30721165460643" lon="8.690636184230819"><ele>527.4000000000001</ele><time>2026-04-17T18:51:21Z</time></trkpt><trkpt lat="47.30727680550762" lon="8.690524205354823"><ele>527.5999999999999</ele><time>2026-04-17T18:51:22Z</time></trkpt><trkpt lat="47.307339444700126" lon="8.690410965306846"><ele>527.8</ele><time>2026-04-17T18:51:23Z</time></trkpt><trkpt lat="47.307401466153884" lon="8.690301659554468"><ele>528.0</ele><time>2026-04-17T18:51:24Z</time></trkpt><trkpt lat="47.30746054690812" lon="8.690192731586396"><ele>528.5</ele><time>2026-04-17T18:51:25Z</time></trkpt><trkpt lat="47.30751894360652" lon="8.690086565343854"><ele>529.0</ele><time>2026-04-17T18:51:26Z</time></trkpt><trkpt lat="47.307576098158904" lon="8.689982116739221"><ele>529.5</ele><time>2026-04-17T18:51:27Z</time></trkpt><trkpt lat="47.307631367242855" lon="8.689882060700468"><ele>530.0</ele><time>2026-04-17T18:51:28Z</time></trkpt><trkpt lat="47.307686491223556" lon="8.689786892228627"><ele>530.5</ele><time>2026-04-17T18:51:29Z</time></trkpt><trkpt lat="47.307737243280975" lon="8.689688913463463"><ele>531.0</ele><time>2026-04-17T18:51:30Z</time></trkpt><trkpt lat="47.30778469567359" lon="8.68958801018658"><ele>531.0</ele><time>2026-04-17T18:51:31Z</time></trkpt><trkpt lat="47.30782930551251" lon="8.68948588370572"><ele>531.0</ele><time>2026-04-17T18:51:32Z</time></trkpt><trkpt lat="47.30788824185965" lon="8.689402688168512"><ele>531.0</ele><time>2026-04-17T18:51:33Z</time></trkpt><trkpt lat="47.30794403260676" lon="8.689318330961044"><ele>531.0</ele><time>2026-04-17T18:51:34Z</time></trkpt><trkpt lat="47.30800162792806" lon="8.689242064515732"><ele>531.0</ele><time>2026-04-17T18:51:35Z</time></trkpt><trkpt lat="47.30806973859116" lon="8.689184887934523"><ele>531.0</ele><time>2026-04-17T18:51:36Z</time></trkpt><trkpt lat="47.30812822935146" lon="8.689111713705534"><ele>531.0</ele><time>2026-04-17T18:51:37Z</time></trkpt><trkpt lat="47.30817363888435" lon="8.689024742845374"><ele>531.0</ele><time>2026-04-17T18:51:38Z</time></trkpt><trkpt lat="47.30824289766521" lon="8.688972261234827"><ele>531.0</ele><time>2026-04-17T18:51:39Z</time></trkpt><trkpt lat="47.30831344785337" lon="8.688918101231843"><ele>531.0</ele><time>2026-04-17T18:51:40Z</time></trkpt><trkpt lat="47.30838423978686" lon="8.688864741019163"><ele>531.0</ele><time>2026-04-17T18:51:41Z</time></trkpt><trkpt lat="47.30845719625012" lon="8.688816113825611"><ele>531.0</ele><time>2026-04-17T18:51:42Z</time></trkpt><trkpt lat="47.308534200373884" lon="8.688776858998121"><ele>531.0</ele><time>2026-04-17T18:51:43Z</time></trkpt><trkpt lat="47.30861263784489" lon="8.688738414979621"><ele>531.0</ele><time>2026-04-17T18:51:44Z</time></trkpt><trkpt lat="47.3086919512706" lon="8.688705360922972"><ele>531.0</ele><time>2026-04-17T18:51:45Z</time></trkpt><trkpt lat="47.30877328416129" lon="8.688676580093583"><ele>531.0</ele><time>2026-04-17T18:51:46Z</time></trkpt><trkpt lat="47.30885670562432" lon="8.68865316356057"><ele>531.0</ele><time>2026-04-17T18:51:47Z</time></trkpt><trkpt lat="47.3089404112135" lon="8.688630823548772"><ele>531.0</ele><time>2026-04-17T18:51:48Z</time></trkpt><trkpt lat="47.30902424220966" lon="8.68861808488367"><ele>530.8333333333334</ele><time>2026-04-17T18:51:49Z</time></trkpt><trkpt lat="47.309110600815934" lon="8.688616223876688"><ele>530.6666666666666</ele><time>2026-04-17T18:51:50Z</time></trkpt><trkpt lat="47.30919650393021" lon="8.688617032923265"><ele>530.5</ele><time>2026-04-17T18:51:51Z</time></trkpt><trkpt lat="47.309282455639085" lon="8.68862431300804"><ele>530.3333333333333</ele><time>2026-04-17T18:51:52Z</time></trkpt><trkpt lat="47.309367228724476" lon="8.688628835447014"><ele>530.1666666666666</ele><time>2026-04-17T18:51:53Z</time></trkpt><trkpt lat="47.30944985886057" lon="8.688632700815782"><ele>530.0</ele><time>2026-04-17T18:51:54Z</time></trkpt><trkpt lat="47.30952584961889" lon="8.688681626609402"><ele>530.0</ele><time>2026-04-17T18:51:55Z</time></trkpt><trkpt lat="47.309603667447696" lon="8.688708038543725"><ele>530.0</ele><time>2026-04-17T18:51:56Z</time></trkpt><trkpt lat="47.30970621291826" lon="8.688750874777417"><ele>530.0</ele><time>2026-04-17T18:51:57Z</time></trkpt><trkpt lat="47.30978920815772" lon="8.68878538962407"><ele>530.0</ele><time>2026-04-17T18:51:58Z</time></trkpt><trkpt lat="47.309873997802086" lon="8.688817212251605"><ele>530.0</ele><time>2026-04-17T18:51:59Z</time></trkpt><trkpt lat="47.309959881165575" lon="8.688847975066038"><ele>530.0</ele><time>2026-04-17T18:52:00Z</time></trkpt><trkpt lat="47.31004416088157" lon="8.688877221875961"><ele>530.0</ele><time>2026-04-17T18:52:01Z</time></trkpt><trkpt lat="47.310130422368985" lon="8.688906157766075"><ele>530.0</ele><time>2026-04-17T18:52:02Z</time></trkpt><trkpt lat="47.31021875285148" lon="8.688936515843942"><ele>530.0</ele><time>2026-04-17T18:52:03Z</time></trkpt><trkpt lat="47.310309154301436" lon="8.688969187838286"><ele>530.0</ele><time>2026-04-17T18:52:04Z</time></trkpt><trkpt lat="47.310405157728646" lon="8.689003902174493"><ele>530.0</ele><time>2026-04-17T18:52:05Z</time></trkpt><trkpt lat="47.3105038318932" lon="8.689038313481584"><ele>528.6</ele><time>2026-04-17T18:52:06Z</time></trkpt><trkpt lat="47.3106031436131" lon="8.689071877230468"><ele>527.2</ele><time>2026-04-17T18:52:07Z</time></trkpt><trkpt lat="47.31070675972777" lon="8.689106431604644"><ele>525.8</ele><time>2026-04-17T18:52:08Z</time></trkpt><trkpt lat="47.31081198030852" lon="8.689142337292642"><ele>524.4</ele><time>2026-04-17T18:52:09Z</time></trkpt><trkpt lat="47.31091743612518" lon="8.689178848596386"><ele>523.0</ele><time>2026-04-17T18:52:10Z</time></trkpt><trkpt lat="47.31102485128652" lon="8.689216036908384"><ele>523.0</ele><time>2026-04-17T18:52:11Z</time></trkpt><trkpt lat="47.311136493329705" lon="8.689256626581408"><ele>523.0</ele><time>2026-04-17T18:52:12Z</time></trkpt><trkpt lat="47.311249750282144" lon="8.689298671830068"><ele>523.0</ele><time>2026-04-17T18:52:13Z</time></trkpt><trkpt lat="47.31135856293848" lon="8.689344169089189"><ele>523.0</ele><time>2026-04-17T18:52:14Z</time></trkpt><trkpt lat="47.31146318727875" lon="8.689401746646904"><ele>522.4</ele><time>2026-04-17T18:52:15Z</time></trkpt><trkpt lat="47.31156736852014" lon="8.68946512453435"><ele>521.8</ele><time>2026-04-17T18:52:16Z</time></trkpt><trkpt lat="47.31167298017179" lon="8.689526003789387"><ele>521.2</ele><time>2026-04-17T18:52:17Z</time></trkpt><trkpt lat="47.311776312059074" lon="8.689585411838317"><ele>520.6</ele><time>2026-04-17T18:52:18Z</time></trkpt><trkpt lat="47.31187892787058" lon="8.68964408606993"><ele>520.0</ele><time>2026-04-17T18:52:19Z</time></trkpt><trkpt lat="47.31198246270936" lon="8.689702255952685"><ele>520.0</ele><time>2026-04-17T18:52:20Z</time></trkpt><trkpt lat="47.312087604449744" lon="8.689762113503768"><ele>520.0</ele><time>2026-04-17T18:52:21Z</time></trkpt><trkpt lat="47.31219211275921" lon="8.689821017294294"><ele>520.0</ele><time>2026-04-17T18:52:22Z</time></trkpt><trkpt lat="47.31229477817474" lon="8.689880265133773"><ele>520.0</ele><time>2026-04-17T18:52:23Z</time></trkpt><trkpt lat="47.31239938503857" lon="8.689934147180063"><ele>520.0</ele><time>2026-04-17T18:52:24Z</time></trkpt><trkpt lat="47.312503459353785" lon="8.689989745439613"><ele>519.6</ele><time>2026-04-17T18:52:25Z</time></trkpt><trkpt lat="47.312606298353835" lon="8.690047203161384"><ele>519.2</ele><time>2026-04-17T18:52:26Z</time></trkpt><trkpt lat="47.312712043223215" lon="8.690106911465906"><ele>518.8</ele><time>2026-04-17T18:52:27Z</time></trkpt><trkpt lat="47.31281851018697" lon="8.690163839066017"><ele>518.4</ele><time>2026-04-17T18:52:28Z</time></trkpt><trkpt lat="47.31292309683538" lon="8.690224081281059"><ele>518.0</ele><time>2026-04-17T18:52:29Z</time></trkpt><trkpt lat="47.31302861803531" lon="8.69027868878944"><ele>518.0</ele><time>2026-04-17T18:52:30Z</time></trkpt><trkpt lat="47.3131365235075" lon="8.69032814858669"><ele>518.0</ele><time>2026-04-17T18:52:31Z</time></trkpt><trkpt lat="47.31324622487783" lon="8.690382643862495"><ele>518.0</ele><time>2026-04-17T18:52:32Z</time></trkpt><trkpt lat="47.31335920933808" lon="8.69043163153801"><ele>518.0</ele><time>2026-04-17T18:52:33Z</time></trkpt><trkpt lat="47.313468580908165" lon="8.690482574312865"><ele>518.0</ele><time>2026-04-17T18:52:34Z</time></trkpt><trkpt lat="47.31357866561296" lon="8.69053139832154"><ele>518.0</ele><time>2026-04-17T18:52:35Z</time></trkpt><trkpt lat="47.31368979072369" lon="8.690603140396567"><ele>518.0</ele><time>2026-04-17T18:52:36Z</time></trkpt><trkpt lat="47.31378613558517" lon="8.69064307828221"><ele>518.0</ele><time>2026-04-17T18:52:37Z</time></trkpt><trkpt lat="47.31390106103706" lon="8.690686788711274"><ele>518.3333333333333</ele><time>2026-04-17T18:52:38Z</time></trkpt><trkpt lat="47.313993013191165" lon="8.690731730550477"><ele>518.6666666666666</ele><time>2026-04-17T18:52:39Z</time></trkpt><trkpt lat="47.31407466381568" lon="8.690757015187568"><ele>519.0</ele><time>2026-04-17T18:52:40Z</time></trkpt><trkpt lat="47.31415240713427" lon="8.690793255127748"><ele>519.3333333333334</ele><time>2026-04-17T18:52:41Z</time></trkpt><trkpt lat="47.31422895846596" lon="8.690844531453727"><ele>519.6666666666667</ele><time>2026-04-17T18:52:42Z</time></trkpt><trkpt lat="47.31431106317787" lon="8.690900343553354"><ele>520.0</ele><time>2026-04-17T18:52:43Z</time></trkpt><trkpt lat="47.314388989165" lon="8.690963968371195"><ele>520.0</ele><time>2026-04-17T18:52:44Z</time></trkpt><trkpt lat="47.31445707635984" lon="8.691027414354707"><ele>520.0</ele><time>2026-04-17T18:52:45Z</time></trkpt><trkpt lat="47.314518470836795" lon="8.69109947143103"><ele>520.0</ele><time>2026-04-17T18:52:46Z</time></trkpt><trkpt lat="47.31456848827792" lon="8.691200800997077"><ele>520.0</ele><time>2026-04-17T18:52:47Z</time></trkpt><trkpt lat="47.31458872365331" lon="8.691316159516587"><ele>520.0</ele><time>2026-04-17T18:52:48Z</time></trkpt><trkpt lat="47.31457954343612" lon="8.691446757096152"><ele>520.0</ele><time>2026-04-17T18:52:49Z</time></trkpt><trkpt lat="47.31453233530479" lon="8.691561299950218"><ele>517.8333333333334</ele><time>2026-04-17T18:52:50Z</time></trkpt><trkpt lat="47.314478150495496" lon="8.69167484669435"><ele>515.6666666666667</ele><time>2026-04-17T18:52:51Z</time></trkpt><trkpt lat="47.314413589138496" lon="8.691770321146727"><ele>513.5</ele><time>2026-04-17T18:52:52Z</time></trkpt><trkpt lat="47.31434941529883" lon="8.69185999132988"><ele>511.33333333333337</ele><time>2026-04-17T18:52:53Z</time></trkpt><trkpt lat="47.31429102421264" lon="8.691957882947218"><ele>509.1666666666667</ele><time>2026-04-17T18:52:54Z</time></trkpt><trkpt lat="47.31423430390844" lon="8.692052628613393"><ele>507.0</ele><time>2026-04-17T18:52:55Z</time></trkpt><trkpt lat="47.31417581123659" lon="8.692144908193232"><ele>507.40000000000003</ele><time>2026-04-17T18:52:56Z</time></trkpt><trkpt lat="47.31411533398935" lon="8.692241896381603"><ele>507.80000000000007</ele><time>2026-04-17T18:52:57Z</time></trkpt><trkpt lat="47.314056144828434" lon="8.692343793547755"><ele>508.2</ele><time>2026-04-17T18:52:58Z</time></trkpt><trkpt lat="47.3139972967663" lon="8.692447712527207"><ele>508.6</ele><time>2026-04-17T18:52:59Z</time></trkpt><trkpt lat="47.31393641670477" lon="8.692551172360892"><ele>509.0</ele><time>2026-04-17T18:53:00Z</time></trkpt><trkpt lat="47.31387417455033" lon="8.692655130906795"><ele>507.2</ele><time>2026-04-17T18:53:01Z</time></trkpt><trkpt lat="47.31381352644217" lon="8.692763023335786"><ele>505.4</ele><time>2026-04-17T18:53:02Z</time></trkpt><trkpt lat="47.31375699196439" lon="8.692879101319402"><ele>503.6</ele><time>2026-04-17T18:53:03Z</time></trkpt><trkpt lat="47.31370421963031" lon="8.693001543071825"><ele>501.8</ele><time>2026-04-17T18:53:04Z</time></trkpt><trkpt lat="47.31365201011312" lon="8.693125441864552"><ele>500.0</ele><time>2026-04-17T18:53:05Z</time></trkpt><trkpt lat="47.31360131109942" lon="8.693253029419362"><ele>500.0</ele><time>2026-04-17T18:53:06Z</time></trkpt><trkpt lat="47.31355478414427" lon="8.693385889701297"><ele>500.0</ele><time>2026-04-17T18:53:07Z</time></trkpt><trkpt lat="47.313509157401846" lon="8.693522684449214"><ele>500.0</ele><time>2026-04-17T18:53:08Z</time></trkpt><trkpt lat="47.31346557064266" lon="8.693665656580471"><ele>500.0</ele><time>2026-04-17T18:53:09Z</time></trkpt><trkpt lat="47.313426337317075" lon="8.693813075509214"><ele>500.0</ele><time>2026-04-17T18:53:10Z</time></trkpt><trkpt lat="47.31339194296833" lon="8.69396472361038"><ele>498.8</ele><time>2026-04-17T18:53:11Z</time></trkpt><trkpt lat="47.31336303643109" lon="8.694122123949597"><ele>497.6</ele><time>2026-04-17T18:53:12Z</time></trkpt><trkpt lat="47.313340522752924" lon="8.694284443654078"><ele>496.4</ele><time>2026-04-17T18:53:13Z</time></trkpt><trkpt lat="47.31332242079062" lon="8.694449961014412"><ele>495.2</ele><time>2026-04-17T18:53:14Z</time></trkpt><trkpt lat="47.31330919224296" lon="8.69461527331089"><ele>494.0</ele><time>2026-04-17T18:53:15Z</time></trkpt><trkpt lat="47.3133005273717" lon="8.694784973068973"><ele>492.75</ele><time>2026-04-17T18:53:16Z</time></trkpt><trkpt lat="47.3132960274164" lon="8.694955202878988"><ele>491.5</ele><time>2026-04-17T18:53:17Z</time></trkpt><trkpt lat="47.31329375273036" lon="8.695126930967566"><ele>490.25</ele><time>2026-04-17T18:53:18Z</time></trkpt><trkpt lat="47.3132920174657" lon="8.69529749916619"><ele>489.0</ele><time>2026-04-17T18:53:19Z</time></trkpt><trkpt lat="47.31328343271086" lon="8.695466372881372"><ele>488.2</ele><time>2026-04-17T18:53:20Z</time></trkpt><trkpt lat="47.313271321736494" lon="8.695628815471208"><ele>487.4</ele><time>2026-04-17T18:53:21Z</time></trkpt><trkpt lat="47.31325506887737" lon="8.695787575423758"><ele>486.6</ele><time>2026-04-17T18:53:22Z</time></trkpt><trkpt lat="47.31323390770228" lon="8.695940425235818"><ele>485.8</ele><time>2026-04-17T18:53:23Z</time></trkpt><trkpt lat="47.31321009203458" lon="8.696097048649014"><ele>485.0</ele><time>2026-04-17T18:53:24Z</time></trkpt><trkpt lat="47.313182372865896" lon="8.696252803543821"><ele>483.8</ele><time>2026-04-17T18:53:25Z</time></trkpt><trkpt lat="47.31315272170892" lon="8.696411029662782"><ele>482.6</ele><time>2026-04-17T18:53:26Z</time></trkpt><trkpt lat="47.31312244904263" lon="8.696567832936033"><ele>481.4</ele><time>2026-04-17T18:53:27Z</time></trkpt><trkpt lat="47.31309165596535" lon="8.696726821220537"><ele>480.2</ele><time>2026-04-17T18:53:28Z</time></trkpt><trkpt lat="47.31306123826418" lon="8.696877935155099"><ele>479.0</ele><time>2026-04-17T18:53:29Z</time></trkpt><trkpt lat="47.31303173800764" lon="8.697023838874664"><ele>482.79999999999995</ele><time>2026-04-17T18:53:30Z</time></trkpt><trkpt lat="47.312997675850426" lon="8.697161507188033"><ele>486.59999999999997</ele><time>2026-04-17T18:53:31Z</time></trkpt><trkpt lat="47.31295636238292" lon="8.69729404653887"><ele>490.4</ele><time>2026-04-17T18:53:32Z</time></trkpt><trkpt lat="47.31290375334015" lon="8.697418613484869"><ele>494.2</ele><time>2026-04-17T18:53:33Z</time></trkpt><trkpt lat="47.31284905971657" lon="8.697543895260939"><ele>498.0</ele><time>2026-04-17T18:53:34Z</time></trkpt><trkpt lat="47.31279002579984" lon="8.697664119218793"><ele>496.3333333333333</ele><time>2026-04-17T18:53:35Z</time></trkpt><trkpt lat="47.31272407235088" lon="8.697763035468451"><ele>494.66666666666663</ele><time>2026-04-17T18:53:36Z</time></trkpt><trkpt lat="47.31265108102676" lon="8.697862638572978"><ele>493.0</ele><time>2026-04-17T18:53:37Z</time></trkpt><trkpt lat="47.31258399267321" lon="8.697942120922983"><ele>491.3333333333333</ele><time>2026-04-17T18:53:38Z</time></trkpt><trkpt lat="47.31251700348735" lon="8.698012701033736"><ele>489.66666666666663</ele><time>2026-04-17T18:53:39Z</time></trkpt><trkpt lat="47.31245562468459" lon="8.69807556501308"><ele>488.0</ele><time>2026-04-17T18:53:40Z</time></trkpt><trkpt lat="47.31239741568821" lon="8.698133142388007"><ele>487.99999999999994</ele><time>2026-04-17T18:53:41Z</time></trkpt><trkpt lat="47.31234918146178" lon="8.698202773859048"><ele>488.0</ele><time>2026-04-17T18:53:42Z</time></trkpt><trkpt lat="47.312314486792125" lon="8.698287364860137"><ele>488.0</ele><time>2026-04-17T18:53:43Z</time></trkpt><trkpt lat="47.31230809835256" lon="8.69839001600319"><ele>488.0</ele><time>2026-04-17T18:53:44Z</time></trkpt><trkpt lat="47.31232439871321" lon="8.698487391647461"><ele>487.99999999999994</ele><time>2026-04-17T18:53:45Z</time></trkpt><trkpt lat="47.31236273719794" lon="8.698580643561245"><ele>488.0</ele><time>2026-04-17T18:53:46Z</time></trkpt><trkpt lat="47.31247557781582" lon="8.698632976825644"><ele>487.99999999999994</ele><time>2026-04-17T18:53:48Z</time></trkpt><trkpt lat="47.31254020844893" lon="8.698624914591667"><ele>488.0</ele><time>2026-04-17T18:53:49Z</time></trkpt><trkpt lat="47.31260888457385" lon="8.698590358037924"><ele>488.0</ele><time>2026-04-17T18:53:50Z</time></trkpt><trkpt lat="47.31267527825078" lon="8.698509267338027"><ele>488.0</ele><time>2026-04-17T18:53:51Z</time></trkpt><trkpt lat="47.31272779572985" lon="8.698405238663037"><ele>487.99999999999994</ele><time>2026-04-17T18:53:52Z</time></trkpt><trkpt lat="47.312789809034484" lon="8.698313596717737"><ele>488.0</ele><time>2026-04-17T18:53:53Z</time></trkpt><trkpt lat="47.312859011140134" lon="8.698234729205208"><ele>488.0</ele><time>2026-04-17T18:53:54Z</time></trkpt><trkpt lat="47.31293291854441" lon="8.698153312059983"><ele>487.99999999999994</ele><time>2026-04-17T18:53:55Z</time></trkpt><trkpt lat="47.313008057878946" lon="8.69807806761377"><ele>487.99999999999994</ele><time>2026-04-17T18:53:56Z</time></trkpt><trkpt lat="47.31309036272433" lon="8.698008009620104"><ele>488.0</ele><time>2026-04-17T18:53:57Z</time></trkpt><trkpt lat="47.31317851819719" lon="8.697944934391042"><ele>488.0</ele><time>2026-04-17T18:53:58Z</time></trkpt><trkpt lat="47.31326981324813" lon="8.697891727146365"><ele>484.79999999999995</ele><time>2026-04-17T18:53:59Z</time></trkpt><trkpt lat="47.31336467486579" lon="8.69784363281305"><ele>481.59999999999997</ele><time>2026-04-17T18:54:00Z</time></trkpt><trkpt lat="47.31346052029381" lon="8.697797477568775"><ele>478.40000000000003</ele><time>2026-04-17T18:54:01Z</time></trkpt><trkpt lat="47.3135540265381" lon="8.69773766685717"><ele>475.20000000000005</ele><time>2026-04-17T18:54:02Z</time></trkpt><trkpt lat="47.31364498520583" lon="8.69766533754286"><ele>472.0</ele><time>2026-04-17T18:54:03Z</time></trkpt><trkpt lat="47.31373690355849" lon="8.697591415662403"><ele>472.0</ele><time>2026-04-17T18:54:04Z</time></trkpt><trkpt lat="47.31382830182604" lon="8.697507015365778"><ele>472.00000000000006</ele><time>2026-04-17T18:54:05Z</time></trkpt><trkpt lat="47.313918984541864" lon="8.697418354167"><ele>472.00000000000006</ele><time>2026-04-17T18:54:06Z</time></trkpt><trkpt lat="47.31401298064294" lon="8.69732836750557"><ele>472.0</ele><time>2026-04-17T18:54:07Z</time></trkpt><trkpt lat="47.31410978963784" lon="8.697236910243793"><ele>472.0</ele><time>2026-04-17T18:54:08Z</time></trkpt><trkpt lat="47.31420710558819" lon="8.697148127352659"><ele>471.75</ele><time>2026-04-17T18:54:09Z</time></trkpt><trkpt lat="47.3143066675495" lon="8.697057205639412"><ele>471.5</ele><time>2026-04-17T18:54:10Z</time></trkpt><trkpt lat="47.314404441731625" lon="8.696962322435152"><ele>471.25</ele><time>2026-04-17T18:54:11Z</time></trkpt><trkpt lat="47.31450388216041" lon="8.69686664423901"><ele>471.0</ele><time>2026-04-17T18:54:12Z</time></trkpt><trkpt lat="47.31460526239131" lon="8.696772369948686"><ele>471.0</ele><time>2026-04-17T18:54:13Z</time></trkpt><trkpt lat="47.31470949666315" lon="8.696681135030301"><ele>471.0</ele><time>2026-04-17T18:54:14Z</time></trkpt><trkpt lat="47.314814797896155" lon="8.696593162311144"><ele>471.0</ele><time>2026-04-17T18:54:15Z</time></trkpt><trkpt lat="47.31492179674894" lon="8.696512729842047"><ele>471.0</ele><time>2026-04-17T18:54:16Z</time></trkpt><trkpt lat="47.3150317494043" lon="8.696443563211627"><ele>466.75</ele><time>2026-04-17T18:54:17Z</time></trkpt><trkpt lat="47.31514232852959" lon="8.696376163509985"><ele>462.5</ele><time>2026-04-17T18:54:18Z</time></trkpt><trkpt lat="47.315253300846166" lon="8.69630216666887"><ele>458.25</ele><time>2026-04-17T18:54:19Z</time></trkpt><trkpt lat="47.31535935752615" lon="8.696221120195906"><ele>454.0</ele><time>2026-04-17T18:54:20Z</time></trkpt><trkpt lat="47.315469570036" lon="8.696144656758275"><ele>454.79999999999995</ele><time>2026-04-17T18:54:21Z</time></trkpt><trkpt lat="47.315576834934056" lon="8.696069245686102"><ele>455.59999999999997</ele><time>2026-04-17T18:54:22Z</time></trkpt><trkpt lat="47.315679793488854" lon="8.695999368467396"><ele>456.4</ele><time>2026-04-17T18:54:23Z</time></trkpt><trkpt lat="47.315773515581924" lon="8.695950746530537"><ele>457.2</ele><time>2026-04-17T18:54:24Z</time></trkpt><trkpt lat="47.315865486452" lon="8.695924696185534"><ele>458.0</ele><time>2026-04-17T18:54:25Z</time></trkpt><trkpt lat="47.315958790779064" lon="8.695917786178018"><ele>458.0</ele><time>2026-04-17T18:54:26Z</time></trkpt><trkpt lat="47.3160542369274" lon="8.695924509710814"><ele>457.99999999999994</ele><time>2026-04-17T18:54:27Z</time></trkpt><trkpt lat="47.316152151494364" lon="8.695944727615478"><ele>457.99999999999994</ele><time>2026-04-17T18:54:28Z</time></trkpt><trkpt lat="47.316247939411056" lon="8.695995310730627"><ele>458.0</ele><time>2026-04-17T18:54:29Z</time></trkpt><trkpt lat="47.316338401744815" lon="8.696069718147967"><ele>458.0</ele><time>2026-04-17T18:54:30Z</time></trkpt><trkpt lat="47.316419523067154" lon="8.696167942696462"><ele>455.2</ele><time>2026-04-17T18:54:31Z</time></trkpt><trkpt lat="47.31649049436988" lon="8.696286390632432"><ele>452.4</ele><time>2026-04-17T18:54:32Z</time></trkpt><trkpt lat="47.31655005568256" lon="8.696421529394641"><ele>449.59999999999997</ele><time>2026-04-17T18:54:33Z</time></trkpt><trkpt lat="47.31659799886329" lon="8.696566690870709"><ele>446.79999999999995</ele><time>2026-04-17T18:54:34Z</time></trkpt><trkpt lat="47.31664434458452" lon="8.696714144998104"><ele>444.0</ele><time>2026-04-17T18:54:35Z</time></trkpt><trkpt lat="47.316696088393904" lon="8.696857207248858"><ele>443.6</ele><time>2026-04-17T18:54:36Z</time></trkpt><trkpt lat="47.316746902762326" lon="8.697002139620789"><ele>443.2</ele><time>2026-04-17T18:54:37Z</time></trkpt><trkpt lat="47.31679683526167" lon="8.697143939316867"><ele>442.80000000000007</ele><time>2026-04-17T18:54:38Z</time></trkpt><trkpt lat="47.316847047222765" lon="8.697285156515994"><ele>442.40000000000003</ele><time>2026-04-17T18:54:39Z</time></trkpt><trkpt lat="47.3168980903286" lon="8.697424749503016"><ele>442.0</ele><time>2026-04-17T18:54:40Z</time></trkpt><trkpt lat="47.31694786278719" lon="8.697562306224812"><ele>442.0</ele><time>2026-04-17T18:54:41Z</time></trkpt><trkpt lat="47.3169969868909" lon="8.697698451405866"><ele>442.00000000000006</ele><time>2026-04-17T18:54:42Z</time></trkpt><trkpt lat="47.31704479286079" lon="8.697832595575175"><ele>442.00000000000006</ele><time>2026-04-17T18:54:43Z</time></trkpt><trkpt lat="47.31709596035513" lon="8.697963506469238"><ele>442.0</ele><time>2026-04-17T18:54:44Z</time></trkpt><trkpt lat="47.31714909542988" lon="8.698089944446219"><ele>442.0</ele><time>2026-04-17T18:54:45Z</time></trkpt><trkpt lat="47.31720468993692" lon="8.69821465874927"><ele>442.0</ele><time>2026-04-17T18:54:46Z</time></trkpt><trkpt lat="47.31726336808103" lon="8.698334137893589"><ele>442.00000000000006</ele><time>2026-04-17T18:54:47Z</time></trkpt><trkpt lat="47.31732374469252" lon="8.69845008510674"><ele>442.00000000000006</ele><time>2026-04-17T18:54:48Z</time></trkpt><trkpt lat="47.31738958072257" lon="8.698560958310814"><ele>442.0</ele><time>2026-04-17T18:54:49Z</time></trkpt><trkpt lat="47.31745791930098" lon="8.698665866837098"><ele>442.0</ele><time>2026-04-17T18:54:50Z</time></trkpt><trkpt lat="47.317531667402285" lon="8.698765834465481"><ele>442.0</ele><time>2026-04-17T18:54:51Z</time></trkpt><trkpt lat="47.317608018464156" lon="8.698860625783905"><ele>442.00000000000006</ele><time>2026-04-17T18:54:52Z</time></trkpt><trkpt lat="47.31768530570604" lon="8.698956170062413"><ele>442.00000000000006</ele><time>2026-04-17T18:54:53Z</time></trkpt><trkpt lat="47.31776227375535" lon="8.699053409424646"><ele>442.0</ele><time>2026-04-17T18:54:54Z</time></trkpt><trkpt lat="47.317838747606324" lon="8.699156012434322"><ele>442.0</ele><time>2026-04-17T18:54:55Z</time></trkpt><trkpt lat="47.317917954984786" lon="8.699256838426752"><ele>442.0</ele><time>2026-04-17T18:54:56Z</time></trkpt><trkpt lat="47.317996003598964" lon="8.69935847616672"><ele>442.00000000000006</ele><time>2026-04-17T18:54:57Z</time></trkpt><trkpt lat="47.318074745507175" lon="8.699461547429486"><ele>442.00000000000006</ele><time>2026-04-17T18:54:58Z</time></trkpt><trkpt lat="47.318154001736545" lon="8.6995623543535"><ele>442.0</ele><time>2026-04-17T18:54:59Z</time></trkpt><trkpt lat="47.31823347198205" lon="8.699658648898476"><ele>442.0</ele><time>2026-04-17T18:55:00Z</time></trkpt><trkpt lat="47.31831061752564" lon="8.69975716429931"><ele>441.0</ele><time>2026-04-17T18:55:01Z</time></trkpt><trkpt lat="47.31838443707437" lon="8.699856780906533"><ele>440.00000000000006</ele><time>2026-04-17T18:55:02Z</time></trkpt><trkpt lat="47.31845779399048" lon="8.699955327003153"><ele>439.00000000000006</ele><time>2026-04-17T18:55:03Z</time></trkpt><trkpt lat="47.31853312488839" lon="8.700047789608607"><ele>438.0</ele><time>2026-04-17T18:55:04Z</time></trkpt><trkpt lat="47.31860800252463" lon="8.700138315134646"><ele>437.0</ele><time>2026-04-17T18:55:05Z</time></trkpt><trkpt lat="47.318678273017575" lon="8.700231854391118"><ele>437.0</ele><time>2026-04-17T18:55:06Z</time></trkpt><trkpt lat="47.31874796961432" lon="8.700326211879153"><ele>437.00000000000006</ele><time>2026-04-17T18:55:07Z</time></trkpt><trkpt lat="47.31881700855095" lon="8.700417537537724"><ele>437.00000000000006</ele><time>2026-04-17T18:55:08Z</time></trkpt><trkpt lat="47.31888717421771" lon="8.700506770784571"><ele>437.0</ele><time>2026-04-17T18:55:09Z</time></trkpt><trkpt lat="47.318956527962776" lon="8.700593999615792"><ele>437.0</ele><time>2026-04-17T18:55:10Z</time></trkpt><trkpt lat="47.319023297366606" lon="8.700681350170173"><ele>436.99999999999994</ele><time>2026-04-17T18:55:11Z</time></trkpt><trkpt lat="47.31909117050621" lon="8.700770491779029"><ele>437.0</ele><time>2026-04-17T18:55:12Z</time></trkpt><trkpt lat="47.31916105136637" lon="8.7008551303861"><ele>437.0</ele><time>2026-04-17T18:55:13Z</time></trkpt><trkpt lat="47.319227939288076" lon="8.700938714084565"><ele>437.0</ele><time>2026-04-17T18:55:14Z</time></trkpt><trkpt lat="47.31929482595192" lon="8.701024863743664"><ele>436.99999999999994</ele><time>2026-04-17T18:55:15Z</time></trkpt><trkpt lat="47.31936057814359" lon="8.701109355588711"><ele>437.0</ele><time>2026-04-17T18:55:16Z</time></trkpt><trkpt lat="47.319424798629875" lon="8.701194869717465"><ele>436.8333333333333</ele><time>2026-04-17T18:55:17Z</time></trkpt><trkpt lat="47.319489047689345" lon="8.701278814923706"><ele>436.66666666666663</ele><time>2026-04-17T18:55:18Z</time></trkpt><trkpt lat="47.31955425864069" lon="8.701363243652374"><ele>436.5</ele><time>2026-04-17T18:55:19Z</time></trkpt><trkpt lat="47.31961848594328" lon="8.701444341855895"><ele>436.33333333333337</ele><time>2026-04-17T18:55:20Z</time></trkpt><trkpt lat="47.31968623222216" lon="8.701526446383262"><ele>436.1666666666667</ele><time>2026-04-17T18:55:21Z</time></trkpt><trkpt lat="47.31974943106141" lon="8.701607525342396"><ele>436.0</ele><time>2026-04-17T18:55:22Z</time></trkpt><trkpt lat="47.31981256695727" lon="8.70168835249285"><ele>436.00000000000006</ele><time>2026-04-17T18:55:23Z</time></trkpt><trkpt lat="47.31987790130415" lon="8.701767918116472"><ele>436.0</ele><time>2026-04-17T18:55:24Z</time></trkpt><trkpt lat="47.319940328295964" lon="8.701854668678218"><ele>436.0</ele><time>2026-04-17T18:55:25Z</time></trkpt><trkpt lat="47.320004578086575" lon="8.701937595200194"><ele>436.0</ele><time>2026-04-17T18:55:26Z</time></trkpt><trkpt lat="47.320068611937096" lon="8.702018741061044"><ele>436.00000000000006</ele><time>2026-04-17T18:55:27Z</time></trkpt><trkpt lat="47.32013323562327" lon="8.702098735938284"><ele>436.0</ele><time>2026-04-17T18:55:28Z</time></trkpt><trkpt lat="47.32019749655659" lon="8.70218089625128"><ele>436.00000000000006</ele><time>2026-04-17T18:55:29Z</time></trkpt><trkpt lat="47.320260936794" lon="8.702261969633948"><ele>436.0</ele><time>2026-04-17T18:55:30Z</time></trkpt><trkpt lat="47.32032480763704" lon="8.702342481307248"><ele>436.0</ele><time>2026-04-17T18:55:31Z</time></trkpt><trkpt lat="47.320387453878" lon="8.702423722576562"><ele>436.0</ele><time>2026-04-17T18:55:32Z</time></trkpt><trkpt lat="47.32045025134569" lon="8.702504853222681"><ele>436.00000000000006</ele><time>2026-04-17T18:55:33Z</time></trkpt><trkpt lat="47.32051226438686" lon="8.702587726717576"><ele>436.0</ele><time>2026-04-17T18:55:34Z</time></trkpt><trkpt lat="47.32057480266405" lon="8.702669066994332"><ele>436.50000000000006</ele><time>2026-04-17T18:55:35Z</time></trkpt><trkpt lat="47.32063785679653" lon="8.702750427471932"><ele>437.0</ele><time>2026-04-17T18:55:36Z</time></trkpt><trkpt lat="47.320700600097126" lon="8.70282982574901"><ele>437.5</ele><time>2026-04-17T18:55:37Z</time></trkpt><trkpt lat="47.320763783721496" lon="8.702909646467234"><ele>438.0</ele><time>2026-04-17T18:55:38Z</time></trkpt><trkpt lat="47.32082601973614" lon="8.702988943470034"><ele>438.50000000000006</ele><time>2026-04-17T18:55:39Z</time></trkpt><trkpt lat="47.32088855661003" lon="8.703067520760372"><ele>439.0</ele><time>2026-04-17T18:55:40Z</time></trkpt><trkpt lat="47.320951912020334" lon="8.703146234721485"><ele>439.00000000000006</ele><time>2026-04-17T18:55:41Z</time></trkpt><trkpt lat="47.32101442889208" lon="8.703225151018339"><ele>439.0</ele><time>2026-04-17T18:55:42Z</time></trkpt><trkpt lat="47.32107589710559" lon="8.703304628057381"><ele>439.0</ele><time>2026-04-17T18:55:43Z</time></trkpt><trkpt lat="47.32113669504261" lon="8.703384520774819"><ele>439.0</ele><time>2026-04-17T18:55:44Z</time></trkpt><trkpt lat="47.32119757198052" lon="8.703465045026968"><ele>439.00000000000006</ele><time>2026-04-17T18:55:45Z</time></trkpt><trkpt lat="47.32125849693116" lon="8.703544960949205"><ele>439.0</ele><time>2026-04-17T18:55:46Z</time></trkpt><trkpt lat="47.3213203278619" lon="8.703620877126705"><ele>438.6666666666667</ele><time>2026-04-17T18:55:47Z</time></trkpt><trkpt lat="47.321381341155636" lon="8.703700145210268"><ele>438.33333333333337</ele><time>2026-04-17T18:55:48Z</time></trkpt><trkpt lat="47.32144227269184" lon="8.70378115913815"><ele>438.0</ele><time>2026-04-17T18:55:49Z</time></trkpt><trkpt lat="47.321503334415276" lon="8.703859928519718"><ele>437.66666666666663</ele><time>2026-04-17T18:55:50Z</time></trkpt><trkpt lat="47.32156605644434" lon="8.703937545432298"><ele>437.3333333333333</ele><time>2026-04-17T18:55:51Z</time></trkpt><trkpt lat="47.3216285316746" lon="8.70401405110215"><ele>437.0</ele><time>2026-04-17T18:55:52Z</time></trkpt><trkpt lat="47.321690092950625" lon="8.704093651901355"><ele>436.99999999999994</ele><time>2026-04-17T18:55:53Z</time></trkpt><trkpt lat="47.32175083805182" lon="8.704173612506143"><ele>437.0</ele><time>2026-04-17T18:55:54Z</time></trkpt><trkpt lat="47.3218120984957" lon="8.704252494613147"><ele>437.0</ele><time>2026-04-17T18:55:55Z</time></trkpt><trkpt lat="47.32187310799252" lon="8.704331711741677"><ele>437.0</ele><time>2026-04-17T18:55:56Z</time></trkpt><trkpt lat="47.32193555836687" lon="8.704409431002453"><ele>436.99999999999994</ele><time>2026-04-17T18:55:57Z</time></trkpt><trkpt lat="47.32199807804778" lon="8.704486571115329"><ele>437.0</ele><time>2026-04-17T18:55:58Z</time></trkpt><trkpt lat="47.32205882901744" lon="8.704566740220063"><ele>436.99999999999994</ele><time>2026-04-17T18:55:59Z</time></trkpt><trkpt lat="47.32211870443381" lon="8.70464787523626"><ele>437.0</ele><time>2026-04-17T18:56:00Z</time></trkpt><trkpt lat="47.32217999603389" lon="8.70472737713907"><ele>437.0</ele><time>2026-04-17T18:56:01Z</time></trkpt><trkpt lat="47.322242422046635" lon="8.704805165062641"><ele>437.0</ele><time>2026-04-17T18:56:02Z</time></trkpt><trkpt lat="47.32230513849849" lon="8.704881356814488"><ele>436.99999999999994</ele><time>2026-04-17T18:56:03Z</time></trkpt><trkpt lat="47.322367042761336" lon="8.704960369779945"><ele>437.0</ele><time>2026-04-17T18:56:04Z</time></trkpt><trkpt lat="47.32242963107556" lon="8.705039908843686"><ele>436.99999999999994</ele><time>2026-04-17T18:56:05Z</time></trkpt><trkpt lat="47.32249214614042" lon="8.70511748995523"><ele>437.0</ele><time>2026-04-17T18:56:06Z</time></trkpt><trkpt lat="47.32255303858821" lon="8.70519679166453"><ele>437.0</ele><time>2026-04-17T18:56:07Z</time></trkpt><trkpt lat="47.322613090003706" lon="8.705277736374233"><ele>437.0</ele><time>2026-04-17T18:56:08Z</time></trkpt><trkpt lat="47.32267401722192" lon="8.705358111223212"><ele>436.99999999999994</ele><time>2026-04-17T18:56:09Z</time></trkpt><trkpt lat="47.32273639881549" lon="8.70543641959534"><ele>437.0</ele><time>2026-04-17T18:56:10Z</time></trkpt><trkpt lat="47.32279778092049" lon="8.70551379700929"><ele>437.16666666666663</ele><time>2026-04-17T18:56:11Z</time></trkpt><trkpt lat="47.322860357334676" lon="8.70559101261692"><ele>437.3333333333333</ele><time>2026-04-17T18:56:12Z</time></trkpt><trkpt lat="47.32292237958235" lon="8.705668780054928"><ele>437.5</ele><time>2026-04-17T18:56:13Z</time></trkpt><trkpt lat="47.32298406845582" lon="8.705748034815516"><ele>437.66666666666663</ele><time>2026-04-17T18:56:14Z</time></trkpt><trkpt lat="47.32304383532367" lon="8.705826856734292"><ele>437.8333333333333</ele><time>2026-04-17T18:56:15Z</time></trkpt><trkpt lat="47.32310254991854" lon="8.7058968931087"><ele>438.0</ele><time>2026-04-17T18:56:16Z</time></trkpt><trkpt lat="47.323159209857174" lon="8.70596154690216"><ele>437.6666666666667</ele><time>2026-04-17T18:56:17Z</time></trkpt><trkpt lat="47.323210826581544" lon="8.706019714604087"><ele>437.33333333333337</ele><time>2026-04-17T18:56:18Z</time></trkpt><trkpt lat="47.323280367477636" lon="8.706116598130095"><ele>437.0</ele><time>2026-04-17T18:56:20Z</time></trkpt><trkpt lat="47.32333286188992" lon="8.706182714436222"><ele>436.6666666666667</ele><time>2026-04-17T18:56:22Z</time></trkpt><trkpt lat="47.32340533645795" lon="8.706273994026562"><ele>436.33333333333337</ele><time>2026-04-17T18:56:24Z</time></trkpt><trkpt lat="47.323458094225536" lon="8.706329539114279"><ele>436.0</ele><time>2026-04-17T18:56:25Z</time></trkpt><trkpt lat="47.323505642754036" lon="8.706393163169547"><ele>436.00000000000006</ele><time>2026-04-17T18:56:26Z</time></trkpt><trkpt lat="47.32355686798018" lon="8.706461085516356"><ele>436.0</ele><time>2026-04-17T18:56:27Z</time></trkpt><trkpt lat="47.32361444182754" lon="8.706538473196712"><ele>436.0</ele><time>2026-04-17T18:56:28Z</time></trkpt><trkpt lat="47.32367272152889" lon="8.706616806568931"><ele>436.0</ele><time>2026-04-17T18:56:29Z</time></trkpt><trkpt lat="47.32373496520645" lon="8.706695322937632"><ele>436.00000000000006</ele><time>2026-04-17T18:56:30Z</time></trkpt><trkpt lat="47.3237952019286" lon="8.706773471268393"><ele>436.0</ele><time>2026-04-17T18:56:31Z</time></trkpt><trkpt lat="47.32385580410068" lon="8.706852093676266"><ele>435.6666666666667</ele><time>2026-04-17T18:56:32Z</time></trkpt><trkpt lat="47.323916362651254" lon="8.706930659472198"><ele>435.33333333333337</ele><time>2026-04-17T18:56:33Z</time></trkpt><trkpt lat="47.323977526972634" lon="8.707009494746895"><ele>435.0</ele><time>2026-04-17T18:56:34Z</time></trkpt><trkpt lat="47.32403849943921" lon="8.70708805386497"><ele>434.66666666666663</ele><time>2026-04-17T18:56:35Z</time></trkpt><trkpt lat="47.324099931384815" lon="8.707167204859116"><ele>434.3333333333333</ele><time>2026-04-17T18:56:36Z</time></trkpt><trkpt lat="47.3241615122236" lon="8.707246547904647"><ele>434.0</ele><time>2026-04-17T18:56:37Z</time></trkpt><trkpt lat="47.32422260151037" lon="8.707325257537777"><ele>433.99999999999994</ele><time>2026-04-17T18:56:38Z</time></trkpt><trkpt lat="47.32428422879664" lon="8.707404660317257"><ele>434.0</ele><time>2026-04-17T18:56:39Z</time></trkpt><trkpt lat="47.32434453728079" lon="8.707483134296105"><ele>434.0</ele><time>2026-04-17T18:56:40Z</time></trkpt><trkpt lat="47.32440619959834" lon="8.707563491510818"><ele>434.0</ele><time>2026-04-17T18:56:41Z</time></trkpt><trkpt lat="47.32446696603334" lon="8.70764268126041"><ele>433.99999999999994</ele><time>2026-04-17T18:56:42Z</time></trkpt><trkpt lat="47.32452840974384" lon="8.70772212527467"><ele>434.0</ele><time>2026-04-17T18:56:43Z</time></trkpt><trkpt lat="47.324589136013" lon="8.707800593499874"><ele>433.8333333333333</ele><time>2026-04-17T18:56:44Z</time></trkpt><trkpt lat="47.32464981088476" lon="8.707878995283904"><ele>433.66666666666663</ele><time>2026-04-17T18:56:45Z</time></trkpt><trkpt lat="47.324710462582026" lon="8.707957367030497"><ele>433.5</ele><time>2026-04-17T18:56:46Z</time></trkpt><trkpt lat="47.32477072166827" lon="8.708035231626003"><ele>433.33333333333337</ele><time>2026-04-17T18:56:47Z</time></trkpt><trkpt lat="47.32483100069194" lon="8.708113121932282"><ele>433.1666666666667</ele><time>2026-04-17T18:56:48Z</time></trkpt><trkpt lat="47.324891264923714" lon="8.708190993095805"><ele>433.0</ele><time>2026-04-17T18:56:49Z</time></trkpt><trkpt lat="47.32495138224081" lon="8.708268674435976"><ele>433.33333333333337</ele><time>2026-04-17T18:56:50Z</time></trkpt><trkpt lat="47.32501099151631" lon="8.708345699285596"><ele>433.6666666666667</ele><time>2026-04-17T18:56:51Z</time></trkpt><trkpt lat="47.32507128314263" lon="8.708423605853838"><ele>434.0</ele><time>2026-04-17T18:56:52Z</time></trkpt><trkpt lat="47.32513083083921" lon="8.708500551168251"><ele>434.33333333333337</ele><time>2026-04-17T18:56:53Z</time></trkpt><trkpt lat="47.32519078939624" lon="8.708578027345103"><ele>434.6666666666667</ele><time>2026-04-17T18:56:54Z</time></trkpt><trkpt lat="47.32525047032158" lon="8.708655144794433"><ele>435.0</ele><time>2026-04-17T18:56:55Z</time></trkpt><trkpt lat="47.325309962931115" lon="8.708732018906346"><ele>435.3333333333333</ele><time>2026-04-17T18:56:56Z</time></trkpt><trkpt lat="47.32536867821249" lon="8.708808528614934"><ele>435.66666666666663</ele><time>2026-04-17T18:56:57Z</time></trkpt><trkpt lat="47.325426601670756" lon="8.708884304320698"><ele>436.0</ele><time>2026-04-17T18:56:58Z</time></trkpt><trkpt lat="47.32548571849387" lon="8.708961641177408"><ele>436.3333333333333</ele><time>2026-04-17T18:56:59Z</time></trkpt><trkpt lat="47.32554445591867" lon="8.709038483363445"><ele>436.66666666666663</ele><time>2026-04-17T18:57:00Z</time></trkpt><trkpt lat="47.325605327238335" lon="8.709116288599741"><ele>437.0</ele><time>2026-04-17T18:57:01Z</time></trkpt><trkpt lat="47.325665342250865" lon="8.709192650616833"><ele>437.16666666666663</ele><time>2026-04-17T18:57:02Z</time></trkpt><trkpt lat="47.325725808830306" lon="8.709268571131853"><ele>437.3333333333333</ele><time>2026-04-17T18:57:03Z</time></trkpt><trkpt lat="47.32579448115534" lon="8.709343758503046"><ele>437.5</ele><time>2026-04-17T18:57:04Z</time></trkpt><trkpt lat="47.32587553087648" lon="8.709408807670838"><ele>437.66666666666663</ele><time>2026-04-17T18:57:05Z</time></trkpt><trkpt lat="47.32596045030849" lon="8.709456040423163"><ele>437.8333333333333</ele><time>2026-04-17T18:57:06Z</time></trkpt><trkpt lat="47.32604002006518" lon="8.7094875688533"><ele>438.0</ele><time>2026-04-17T18:57:07Z</time></trkpt><trkpt lat="47.32611361647519" lon="8.7095076087728"><ele>438.5</ele><time>2026-04-17T18:57:08Z</time></trkpt><trkpt lat="47.326194370416474" lon="8.709544912487212"><ele>439.0</ele><time>2026-04-17T18:57:09Z</time></trkpt><trkpt lat="47.32627071082367" lon="8.709574814894848"><ele>439.5</ele><time>2026-04-17T18:57:10Z</time></trkpt><trkpt lat="47.32633515865165" lon="8.709610735129864"><ele>440.0</ele><time>2026-04-17T18:57:11Z</time></trkpt><trkpt lat="47.32639033323996" lon="8.709658174292006"><ele>440.5</ele><time>2026-04-17T18:57:12Z</time></trkpt><trkpt lat="47.326445427203645" lon="8.709708465993975"><ele>441.0</ele><time>2026-04-17T18:57:13Z</time></trkpt><trkpt lat="47.326601930926664" lon="8.709513637560077"><ele>441.0</ele><time>2026-04-17T18:57:14Z</time></trkpt><trkpt lat="47.326655509644745" lon="8.709573077412303"><ele>441.0</ele><time>2026-04-17T18:57:15Z</time></trkpt><trkpt lat="47.3267309132918" lon="8.709705117227657"><ele>441.0</ele><time>2026-04-17T18:57:17Z</time></trkpt><trkpt lat="47.32672283962785" lon="8.709933114515076"><ele>441.0</ele><time>2026-04-17T18:57:18Z</time></trkpt><trkpt lat="47.326809860827204" lon="8.709969881674665"><ele>441.0</ele><time>2026-04-17T18:57:20Z</time></trkpt><trkpt lat="47.32693296736958" lon="8.71001820383359"><ele>441.0</ele><time>2026-04-17T18:57:22Z</time></trkpt><trkpt lat="47.32700037456812" lon="8.710042344003108"><ele>441.0</ele><time>2026-04-17T18:57:23Z</time></trkpt><trkpt lat="47.32708054471436" lon="8.71006479613678"><ele>441.0</ele><time>2026-04-17T18:57:24Z</time></trkpt><trkpt lat="47.3271556641583" lon="8.710083281121332"><ele>441.0</ele><time>2026-04-17T18:57:25Z</time></trkpt><trkpt lat="47.327218487718696" lon="8.71013950712457"><ele>441.0</ele><time>2026-04-17T18:57:26Z</time></trkpt><trkpt lat="47.32730455571131" lon="8.710165697836208"><ele>441.0</ele><time>2026-04-17T18:57:27Z</time></trkpt><trkpt lat="47.3273852346215" lon="8.710188574502876"><ele>440.6666666666667</ele><time>2026-04-17T18:57:28Z</time></trkpt><trkpt lat="47.3274666977141" lon="8.71020971309957"><ele>440.33333333333337</ele><time>2026-04-17T18:57:29Z</time></trkpt><trkpt lat="47.327547507165185" lon="8.710230748044932"><ele>440.0</ele><time>2026-04-17T18:57:30Z</time></trkpt><trkpt lat="47.327628051207505" lon="8.710251713903181"><ele>439.6666666666667</ele><time>2026-04-17T18:57:31Z</time></trkpt><trkpt lat="47.327709598381624" lon="8.710272940879912"><ele>439.33333333333337</ele><time>2026-04-17T18:57:32Z</time></trkpt><trkpt lat="47.327790714879995" lon="8.71029420795415"><ele>439.0</ele><time>2026-04-17T18:57:33Z</time></trkpt><trkpt lat="47.32787146042864" lon="8.71031538338288"><ele>439.83333333333337</ele><time>2026-04-17T18:57:34Z</time></trkpt><trkpt lat="47.32795306597302" lon="8.710336784323868"><ele>440.6666666666667</ele><time>2026-04-17T18:57:35Z</time></trkpt><trkpt lat="47.32803434008339" lon="8.710358098361745"><ele>441.5</ele><time>2026-04-17T18:57:36Z</time></trkpt><trkpt lat="47.3281155852277" lon="8.710379404794924"><ele>442.33333333333337</ele><time>2026-04-17T18:57:37Z</time></trkpt><trkpt lat="47.32819668437188" lon="8.710400672945433"><ele>443.1666666666667</ele><time>2026-04-17T18:57:38Z</time></trkpt><trkpt lat="47.32827874754165" lon="8.710422196090743"><ele>444.0</ele><time>2026-04-17T18:57:39Z</time></trkpt><trkpt lat="47.32835972922502" lon="8.71044343343468"><ele>444.0</ele><time>2026-04-17T18:57:40Z</time></trkpt><trkpt lat="47.32844165013411" lon="8.710464917091068"><ele>444.0</ele><time>2026-04-17T18:57:41Z</time></trkpt><trkpt lat="47.32852319976268" lon="8.710486303378897"><ele>444.0</ele><time>2026-04-17T18:57:42Z</time></trkpt><trkpt lat="47.3286046821583" lon="8.710507672034987"><ele>444.0</ele><time>2026-04-17T18:57:43Z</time></trkpt><trkpt lat="47.32868671339358" lon="8.710529184623114"><ele>444.0</ele><time>2026-04-17T18:57:44Z</time></trkpt><trkpt lat="47.328767997468134" lon="8.710550501270237"><ele>444.0</ele><time>2026-04-17T18:57:45Z</time></trkpt><trkpt lat="47.32884887921961" lon="8.710571712408202"><ele>443.5</ele><time>2026-04-17T18:57:46Z</time></trkpt><trkpt lat="47.32893041765567" lon="8.71059309576126"><ele>443.0</ele><time>2026-04-17T18:57:47Z</time></trkpt><trkpt lat="47.32901122408469" lon="8.710614358343829"><ele>442.5</ele><time>2026-04-17T18:57:48Z</time></trkpt><trkpt lat="47.329091671787445" lon="8.710635683305144"><ele>442.0</ele><time>2026-04-17T18:57:49Z</time></trkpt><trkpt lat="47.329172836599874" lon="8.710657198357397"><ele>441.5</ele><time>2026-04-17T18:57:50Z</time></trkpt><trkpt lat="47.32925306561388" lon="8.71067846534871"><ele>441.0</ele><time>2026-04-17T18:57:51Z</time></trkpt><trkpt lat="47.32933390123803" lon="8.710699893140193"><ele>441.0</ele><time>2026-04-17T18:57:52Z</time></trkpt><trkpt lat="47.32941396344968" lon="8.710721453210185"><ele>441.0</ele><time>2026-04-17T18:57:53Z</time></trkpt><trkpt lat="47.32949425049498" lon="8.710743547134427"><ele>441.0</ele><time>2026-04-17T18:57:54Z</time></trkpt><trkpt lat="47.32957206706963" lon="8.710768344323084"><ele>441.0</ele><time>2026-04-17T18:57:55Z</time></trkpt><trkpt lat="47.32964288902362" lon="8.7107972070097"><ele>441.0</ele><time>2026-04-17T18:57:56Z</time></trkpt><trkpt lat="47.32971247478339" lon="8.710835381007167"><ele>441.0</ele><time>2026-04-17T18:57:57Z</time></trkpt><trkpt lat="47.329790125771076" lon="8.710881816650625"><ele>440.6666666666667</ele><time>2026-04-17T18:57:58Z</time></trkpt><trkpt lat="47.329872048739155" lon="8.710917613322806"><ele>440.33333333333337</ele><time>2026-04-17T18:57:59Z</time></trkpt><trkpt lat="47.32995536806223" lon="8.710945684529026"><ele>440.0</ele><time>2026-04-17T18:58:00Z</time></trkpt><trkpt lat="47.33004781701222" lon="8.710957378439875"><ele>439.6666666666667</ele><time>2026-04-17T18:58:01Z</time></trkpt><trkpt lat="47.33013436915009" lon="8.710961796804055"><ele>439.33333333333337</ele><time>2026-04-17T18:58:02Z</time></trkpt><trkpt lat="47.330221752047024" lon="8.710954035977732"><ele>439.0</ele><time>2026-04-17T18:58:03Z</time></trkpt><trkpt lat="47.33030020446254" lon="8.710956955342144"><ele>439.00000000000006</ele><time>2026-04-17T18:58:04Z</time></trkpt><trkpt lat="47.330371282903286" lon="8.710969004229343"><ele>439.0</ele><time>2026-04-17T18:58:05Z</time></trkpt><trkpt lat="47.33045575476817" lon="8.710988996039056"><ele>439.0</ele><time>2026-04-17T18:58:06Z</time></trkpt><trkpt lat="47.33054480817063" lon="8.710999321343763"><ele>439.0</ele><time>2026-04-17T18:58:07Z</time></trkpt><trkpt lat="47.330625810240726" lon="8.711003768535353"><ele>439.00000000000006</ele><time>2026-04-17T18:58:08Z</time></trkpt><trkpt lat="47.33068504416021" lon="8.711063049172587"><ele>439.0</ele><time>2026-04-17T18:58:09Z</time></trkpt><trkpt lat="47.33075797775849" lon="8.71110312118917"><ele>439.1666666666667</ele><time>2026-04-17T18:58:10Z</time></trkpt><trkpt lat="47.33083484202106" lon="8.711143045186503"><ele>439.33333333333337</ele><time>2026-04-17T18:58:11Z</time></trkpt><trkpt lat="47.33091757396157" lon="8.711168925823777"><ele>439.5</ele><time>2026-04-17T18:58:12Z</time></trkpt><trkpt lat="47.33100289557693" lon="8.711178054410652"><ele>439.66666666666663</ele><time>2026-04-17T18:58:13Z</time></trkpt><trkpt lat="47.331089071756224" lon="8.7111766201192"><ele>439.8333333333333</ele><time>2026-04-17T18:58:14Z</time></trkpt><trkpt lat="47.33116613259417" lon="8.711163125709227"><ele>440.0</ele><time>2026-04-17T18:58:15Z</time></trkpt><trkpt lat="47.33123804684625" lon="8.7111639780195"><ele>439.99999999999994</ele><time>2026-04-17T18:58:16Z</time></trkpt><trkpt lat="47.33130905141689" lon="8.711176960705142"><ele>440.0</ele><time>2026-04-17T18:58:17Z</time></trkpt><trkpt lat="47.331375360913405" lon="8.711203828064452"><ele>440.0</ele><time>2026-04-17T18:58:18Z</time></trkpt><trkpt lat="47.33144145419129" lon="8.711246555399509"><ele>440.0</ele><time>2026-04-17T18:58:19Z</time></trkpt><trkpt lat="47.33150327831512" lon="8.711292320410939"><ele>440.0</ele><time>2026-04-17T18:58:20Z</time></trkpt><trkpt lat="47.331578860065605" lon="8.711339607146632"><ele>439.99999999999994</ele><time>2026-04-17T18:58:21Z</time></trkpt><trkpt lat="47.33166026048084" lon="8.711365494252611"><ele>440.0</ele><time>2026-04-17T18:58:22Z</time></trkpt><trkpt lat="47.331751159637214" lon="8.711360875470051"><ele>440.16666666666663</ele><time>2026-04-17T18:58:23Z</time></trkpt><trkpt lat="47.331827623493595" lon="8.71135761126168"><ele>440.3333333333333</ele><time>2026-04-17T18:58:24Z</time></trkpt><trkpt lat="47.33191115064887" lon="8.711331131190674"><ele>440.5</ele><time>2026-04-17T18:58:25Z</time></trkpt><trkpt lat="47.33198202059206" lon="8.71132359266184"><ele>440.66666666666663</ele><time>2026-04-17T18:58:26Z</time></trkpt><trkpt lat="47.33205505129807" lon="8.71132834498287"><ele>440.8333333333333</ele><time>2026-04-17T18:58:27Z</time></trkpt><trkpt lat="47.3321337848801" lon="8.711332054956292"><ele>441.0</ele><time>2026-04-17T18:58:28Z</time></trkpt><trkpt lat="47.33220199022935" lon="8.711363574824324"><ele>441.0</ele><time>2026-04-17T18:58:29Z</time></trkpt><trkpt lat="47.33227520256663" lon="8.711386161007571"><ele>441.0</ele><time>2026-04-17T18:58:30Z</time></trkpt><trkpt lat="47.33235006601374" lon="8.71141008373751"><ele>441.0</ele><time>2026-04-17T18:58:31Z</time></trkpt><trkpt lat="47.33243003045856" lon="8.711444402194092"><ele>441.0</ele><time>2026-04-17T18:58:33Z</time></trkpt><trkpt lat="47.33249562981526" lon="8.711489635324623"><ele>441.0</ele><time>2026-04-17T18:58:44Z</time></trkpt><trkpt lat="47.332519199040334" lon="8.71158408952298"><ele>441.0</ele><time>2026-04-17T18:58:49Z</time></trkpt><trkpt lat="47.33259228969532" lon="8.711646599558993"><ele>441.0</ele><time>2026-04-17T18:58:51Z</time></trkpt><trkpt lat="47.332699321161925" lon="8.711725673609353"><ele>441.0</ele><time>2026-04-17T18:58:53Z</time></trkpt><trkpt lat="47.332760863772805" lon="8.711768999994208"><ele>441.0</ele><time>2026-04-17T18:58:54Z</time></trkpt><trkpt lat="47.33281311772358" lon="8.711828671428847"><ele>441.0</ele><time>2026-04-17T18:58:55Z</time></trkpt><trkpt lat="47.33292238058966" lon="8.711871829215426"><ele>441.0</ele><time>2026-04-17T18:58:57Z</time></trkpt><trkpt lat="47.332985431898614" lon="8.711947759044964"><ele>441.0</ele><time>2026-04-17T18:58:59Z</time></trkpt><trkpt lat="47.33308200395664" lon="8.711982189182429"><ele>441.20000000000005</ele><time>2026-04-17T18:59:02Z</time></trkpt><trkpt lat="47.333196701448806" lon="8.71201680360649"><ele>441.40000000000003</ele><time>2026-04-17T18:59:04Z</time></trkpt><trkpt lat="47.33330885576343" lon="8.712030594541947"><ele>441.6</ele><time>2026-04-17T18:59:06Z</time></trkpt><trkpt lat="47.33343075745249" lon="8.712025466697806"><ele>441.8</ele><time>2026-04-17T18:59:08Z</time></trkpt><trkpt lat="47.33346964430011" lon="8.712116031022589"><ele>442.0</ele><time>2026-04-17T18:59:09Z</time></trkpt><trkpt lat="47.333513532766275" lon="8.712254867780509"><ele>442.00000000000006</ele><time>2026-04-17T18:59:11Z</time></trkpt><trkpt lat="47.333568036751586" lon="8.712350202594736"><ele>442.0</ele><time>2026-04-17T18:59:21Z</time></trkpt><trkpt lat="47.333657763060685" lon="8.712384043325212"><ele>442.0</ele><time>2026-04-17T18:59:23Z</time></trkpt><trkpt lat="47.333735115303504" lon="8.712305784491683"><ele>442.0</ele><time>2026-04-17T18:59:25Z</time></trkpt><trkpt lat="47.3338354834993" lon="8.712249738473197"><ele>442.00000000000006</ele><time>2026-04-17T18:59:27Z</time></trkpt><trkpt lat="47.333903999338155" lon="8.712263087405248"><ele>442.0</ele><time>2026-04-17T18:59:28Z</time></trkpt><trkpt lat="47.33397963633508" lon="8.712271326893367"><ele>442.00000000000006</ele><time>2026-04-17T18:59:29Z</time></trkpt><trkpt lat="47.33405044742744" lon="8.71230166710536"><ele>442.0</ele><time>2026-04-17T18:59:30Z</time></trkpt><trkpt lat="47.3341234808844" lon="8.712332537111731"><ele>442.0</ele><time>2026-04-17T18:59:31Z</time></trkpt><trkpt lat="47.33419635300938" lon="8.712363338926778"><ele>442.0</ele><time>2026-04-17T18:59:32Z</time></trkpt><trkpt lat="47.33426978168257" lon="8.71239437598474"><ele>442.00000000000006</ele><time>2026-04-17T18:59:33Z</time></trkpt><trkpt lat="47.334343236093716" lon="8.712425423921824"><ele>442.0</ele><time>2026-04-17T18:59:34Z</time></trkpt><trkpt lat="47.334416938575544" lon="8.712456303996293"><ele>442.00000000000006</ele><time>2026-04-17T18:59:35Z</time></trkpt><trkpt lat="47.334491888428175" lon="8.712487399773602"><ele>442.0</ele><time>2026-04-17T18:59:36Z</time></trkpt><trkpt lat="47.33456629734802" lon="8.712518271125974"><ele>442.0</ele><time>2026-04-17T18:59:37Z</time></trkpt><trkpt lat="47.33464056381233" lon="8.712549083372453"><ele>442.0</ele><time>2026-04-17T18:59:38Z</time></trkpt><trkpt lat="47.334715123800876" lon="8.712580017400716"><ele>442.00000000000006</ele><time>2026-04-17T18:59:39Z</time></trkpt><trkpt lat="47.334789050422536" lon="8.712610247152956"><ele>442.0</ele><time>2026-04-17T18:59:40Z</time></trkpt><trkpt lat="47.334863143855706" lon="8.712640196899413"><ele>442.00000000000006</ele><time>2026-04-17T18:59:41Z</time></trkpt><trkpt lat="47.334937147394406" lon="8.71267011030984"><ele>442.0</ele><time>2026-04-17T18:59:42Z</time></trkpt><trkpt lat="47.33501049904956" lon="8.712699760217973"><ele>442.0</ele><time>2026-04-17T18:59:43Z</time></trkpt><trkpt lat="47.335084850111606" lon="8.712729814103408"><ele>442.0</ele><time>2026-04-17T18:59:44Z</time></trkpt><trkpt lat="47.33515930609016" lon="8.71275991039797"><ele>442.00000000000006</ele><time>2026-04-17T18:59:45Z</time></trkpt><trkpt lat="47.33523174893254" lon="8.712811351668897"><ele>442.0</ele><time>2026-04-17T18:59:46Z</time></trkpt><trkpt lat="47.33530713403246" lon="8.712837284469446"><ele>442.1666666666667</ele><time>2026-04-17T18:59:47Z</time></trkpt><trkpt lat="47.335384007135566" lon="8.712862199008313"><ele>442.33333333333337</ele><time>2026-04-17T18:59:48Z</time></trkpt><trkpt lat="47.33545991380103" lon="8.712892661098172"><ele>442.5</ele><time>2026-04-17T18:59:49Z</time></trkpt><trkpt lat="47.33553565560406" lon="8.712922670282055"><ele>442.66666666666663</ele><time>2026-04-17T18:59:50Z</time></trkpt><trkpt lat="47.33561280586956" lon="8.712947746921166"><ele>442.8333333333333</ele><time>2026-04-17T18:59:51Z</time></trkpt><trkpt lat="47.335690168616715" lon="8.712971604600373"><ele>443.0</ele><time>2026-04-17T18:59:52Z</time></trkpt><trkpt lat="47.33576564127607" lon="8.71299984541053"><ele>443.16666666666663</ele><time>2026-04-17T18:59:53Z</time></trkpt><trkpt lat="47.335839700939665" lon="8.713033374227294"><ele>443.3333333333333</ele><time>2026-04-17T18:59:54Z</time></trkpt><trkpt lat="47.33591626362331" lon="8.713070395476915"><ele>443.5</ele><time>2026-04-17T18:59:55Z</time></trkpt><trkpt lat="47.33599579943837" lon="8.713099015968465"><ele>443.66666666666663</ele><time>2026-04-17T18:59:56Z</time></trkpt><trkpt lat="47.336072780047346" lon="8.713122867774981"><ele>443.8333333333333</ele><time>2026-04-17T18:59:57Z</time></trkpt><trkpt lat="47.33614608169621" lon="8.713156919076335"><ele>444.0</ele><time>2026-04-17T18:59:58Z</time></trkpt><trkpt lat="47.33621903210009" lon="8.713197919026493"><ele>444.0</ele><time>2026-04-17T18:59:59Z</time></trkpt><trkpt lat="47.33629221036899" lon="8.713241389876448"><ele>444.0</ele><time>2026-04-17T19:00:00Z</time></trkpt><trkpt lat="47.336368249025924" lon="8.713276821008412"><ele>444.0</ele><time>2026-04-17T19:00:01Z</time></trkpt><trkpt lat="47.3364485655204" lon="8.713284639255864"><ele>444.0</ele><time>2026-04-17T19:00:02Z</time></trkpt><trkpt lat="47.336524790625184" lon="8.71331575023223"><ele>444.0</ele><time>2026-04-17T19:00:03Z</time></trkpt><trkpt lat="47.33660087082645" lon="8.713346802064708"><ele>444.0</ele><time>2026-04-17T19:00:04Z</time></trkpt><trkpt lat="47.33667684828727" lon="8.713377811965655"><ele>443.8333333333333</ele><time>2026-04-17T19:00:05Z</time></trkpt><trkpt lat="47.33675247134875" lon="8.713408677218917"><ele>443.66666666666663</ele><time>2026-04-17T19:00:06Z</time></trkpt><trkpt lat="47.33682721290681" lon="8.713439182690148"><ele>443.5</ele><time>2026-04-17T19:00:07Z</time></trkpt><trkpt lat="47.33690236770517" lon="8.71346985682569"><ele>443.3333333333333</ele><time>2026-04-17T19:00:08Z</time></trkpt><trkpt lat="47.33697727170802" lon="8.713500428598906"><ele>443.16666666666663</ele><time>2026-04-17T19:00:09Z</time></trkpt><trkpt lat="47.33705260598002" lon="8.713531175984466"><ele>443.0</ele><time>2026-04-17T19:00:10Z</time></trkpt><trkpt lat="47.3371281558631" lon="8.713561709785994"><ele>442.8333333333333</ele><time>2026-04-17T19:00:11Z</time></trkpt><trkpt lat="47.33720285620023" lon="8.713591709857475"><ele>442.66666666666663</ele><time>2026-04-17T19:00:12Z</time></trkpt><trkpt lat="47.33727742832246" lon="8.713621658434516"><ele>442.5</ele><time>2026-04-17T19:00:13Z</time></trkpt><trkpt lat="47.33735203190617" lon="8.713651619648283"><ele>442.33333333333337</ele><time>2026-04-17T19:00:14Z</time></trkpt><trkpt lat="47.337426625055485" lon="8.713681576670655"><ele>442.1666666666667</ele><time>2026-04-17T19:00:15Z</time></trkpt><trkpt lat="47.3375018201943" lon="8.71371177545537"><ele>442.0</ele><time>2026-04-17T19:00:16Z</time></trkpt><trkpt lat="47.337577068559945" lon="8.713744453361706"><ele>442.83333333333337</ele><time>2026-04-17T19:00:17Z</time></trkpt><trkpt lat="47.33765036472333" lon="8.713773173985027"><ele>443.6666666666667</ele><time>2026-04-17T19:00:18Z</time></trkpt><trkpt lat="47.337724202379775" lon="8.713802973469775"><ele>444.5</ele><time>2026-04-17T19:00:19Z</time></trkpt><trkpt lat="47.33779772254963" lon="8.713832637220948"><ele>445.33333333333337</ele><time>2026-04-17T19:00:20Z</time></trkpt><trkpt lat="47.3378710761865" lon="8.713862234142852"><ele>446.1666666666667</ele><time>2026-04-17T19:00:21Z</time></trkpt><trkpt lat="47.33794492326217" lon="8.713892029923901"><ele>447.0</ele><time>2026-04-17T19:00:22Z</time></trkpt><trkpt lat="47.338019019137676" lon="8.713921926152507"><ele>447.5</ele><time>2026-04-17T19:00:23Z</time></trkpt><trkpt lat="47.33809399232629" lon="8.713952176360701"><ele>448.0</ele><time>2026-04-17T19:00:24Z</time></trkpt><trkpt lat="47.33816906455005" lon="8.713982466520365"><ele>448.5</ele><time>2026-04-17T19:00:25Z</time></trkpt><trkpt lat="47.33824397613856" lon="8.714012691866328"><ele>449.0</ele><time>2026-04-17T19:00:26Z</time></trkpt><trkpt lat="47.338318001471706" lon="8.714042484491864"><ele>449.5</ele><time>2026-04-17T19:00:27Z</time></trkpt><trkpt lat="47.33839163120916" lon="8.71407211805866"><ele>450.0</ele><time>2026-04-17T19:00:28Z</time></trkpt><trkpt lat="47.3384645755915" lon="8.714101475800678"><ele>450.0</ele><time>2026-04-17T19:00:29Z</time></trkpt><trkpt lat="47.33853801866281" lon="8.714131034248826"><ele>450.0</ele><time>2026-04-17T19:00:30Z</time></trkpt><trkpt lat="47.33861201387646" lon="8.71416183152628"><ele>450.0</ele><time>2026-04-17T19:00:31Z</time></trkpt><trkpt lat="47.33868528968482" lon="8.71419240943517"><ele>450.0</ele><time>2026-04-17T19:00:32Z</time></trkpt><trkpt lat="47.338760623401846" lon="8.714223846114713"><ele>450.0</ele><time>2026-04-17T19:00:33Z</time></trkpt><trkpt lat="47.33883560302498" lon="8.714254512896323"><ele>450.0</ele><time>2026-04-17T19:00:34Z</time></trkpt><trkpt lat="47.33891184442906" lon="8.714284658671449"><ele>449.6666666666667</ele><time>2026-04-17T19:00:35Z</time></trkpt><trkpt lat="47.33898840604405" lon="8.714314930938475"><ele>449.33333333333337</ele><time>2026-04-17T19:00:36Z</time></trkpt><trkpt lat="47.339066165274794" lon="8.714344835162482"><ele>449.0</ele><time>2026-04-17T19:00:37Z</time></trkpt><trkpt lat="47.33914416411512" lon="8.714375125707088"><ele>448.6666666666667</ele><time>2026-04-17T19:00:38Z</time></trkpt><trkpt lat="47.33922234732039" lon="8.71440548783226"><ele>448.33333333333337</ele><time>2026-04-17T19:00:39Z</time></trkpt><trkpt lat="47.33930035694752" lon="8.714435369151484"><ele>448.0</ele><time>2026-04-17T19:00:40Z</time></trkpt><trkpt lat="47.33937645139151" lon="8.714464511713892"><ele>448.1666666666667</ele><time>2026-04-17T19:00:41Z</time></trkpt><trkpt lat="47.339452511668846" lon="8.714489947313666"><ele>448.33333333333337</ele><time>2026-04-17T19:00:42Z</time></trkpt><trkpt lat="47.33952811573279" lon="8.714514273191922"><ele>448.5</ele><time>2026-04-17T19:00:43Z</time></trkpt><trkpt lat="47.33960847012694" lon="8.714542945556213"><ele>448.66666666666663</ele><time>2026-04-17T19:00:44Z</time></trkpt><trkpt lat="47.33968235766906" lon="8.71457054586694"><ele>448.8333333333333</ele><time>2026-04-17T19:00:45Z</time></trkpt><trkpt lat="47.3397592337119" lon="8.71461356195437"><ele>449.0</ele><time>2026-04-17T19:00:46Z</time></trkpt><trkpt lat="47.339834487189606" lon="8.714632989665796"><ele>448.99999999999994</ele><time>2026-04-17T19:00:47Z</time></trkpt><trkpt lat="47.339911033541355" lon="8.714663594782435"><ele>449.0</ele><time>2026-04-17T19:00:48Z</time></trkpt><trkpt lat="47.33998795709896" lon="8.714694166767734"><ele>449.0</ele><time>2026-04-17T19:00:49Z</time></trkpt><trkpt lat="47.34006455668817" lon="8.714723566819217"><ele>449.0</ele><time>2026-04-17T19:00:50Z</time></trkpt><trkpt lat="47.34014126756942" lon="8.714753484404268"><ele>448.99999999999994</ele><time>2026-04-17T19:00:51Z</time></trkpt><trkpt lat="47.340217767592584" lon="8.714785942597027"><ele>449.0</ele><time>2026-04-17T19:00:52Z</time></trkpt><trkpt lat="47.340293566089684" lon="8.714818784316769"><ele>448.99999999999994</ele><time>2026-04-17T19:00:53Z</time></trkpt><trkpt lat="47.34036928505696" lon="8.7148527021423"><ele>449.0</ele><time>2026-04-17T19:00:54Z</time></trkpt><trkpt lat="47.340444647428015" lon="8.714885699145555"><ele>449.0</ele><time>2026-04-17T19:00:55Z</time></trkpt><trkpt lat="47.34052120559787" lon="8.714914839225797"><ele>449.0</ele><time>2026-04-17T19:00:56Z</time></trkpt><trkpt lat="47.34059776346507" lon="8.714943677893322"><ele>448.99999999999994</ele><time>2026-04-17T19:00:57Z</time></trkpt><trkpt lat="47.34067437488556" lon="8.714972302777914"><ele>449.0</ele><time>2026-04-17T19:00:58Z</time></trkpt><trkpt lat="47.34075177624041" lon="8.715001198269047"><ele>448.99999999999994</ele><time>2026-04-17T19:00:59Z</time></trkpt><trkpt lat="47.340827849365446" lon="8.71503103433977"><ele>449.0</ele><time>2026-04-17T19:01:00Z</time></trkpt><trkpt lat="47.34090396727942" lon="8.71506163504345"><ele>449.0</ele><time>2026-04-17T19:01:01Z</time></trkpt><trkpt lat="47.34098016081849" lon="8.715090568719875"><ele>449.0</ele><time>2026-04-17T19:01:02Z</time></trkpt><trkpt lat="47.34105566443216" lon="8.715119184429499"><ele>448.99999999999994</ele><time>2026-04-17T19:01:03Z</time></trkpt><trkpt lat="47.34112989073679" lon="8.715151101911744"><ele>449.0</ele><time>2026-04-17T19:01:04Z</time></trkpt><trkpt lat="47.34120510798361" lon="8.715183514342447"><ele>448.99999999999994</ele><time>2026-04-17T19:01:05Z</time></trkpt><trkpt lat="47.341280389316324" lon="8.715212989884018"><ele>449.0</ele><time>2026-04-17T19:01:06Z</time></trkpt><trkpt lat="47.34135544292273" lon="8.715241714546561"><ele>449.0</ele><time>2026-04-17T19:01:07Z</time></trkpt><trkpt lat="47.341430598272005" lon="8.715272911322703"><ele>449.0</ele><time>2026-04-17T19:01:08Z</time></trkpt><trkpt lat="47.34150632290203" lon="8.71530599130862"><ele>448.99999999999994</ele><time>2026-04-17T19:01:09Z</time></trkpt><trkpt lat="47.34158139122958" lon="8.715338042591396"><ele>449.0</ele><time>2026-04-17T19:01:10Z</time></trkpt><trkpt lat="47.34165674215327" lon="8.715369942877786"><ele>449.16666666666663</ele><time>2026-04-17T19:01:11Z</time></trkpt><trkpt lat="47.3417315501257" lon="8.715401585691232"><ele>449.3333333333333</ele><time>2026-04-17T19:01:12Z</time></trkpt><trkpt lat="47.34180683542778" lon="8.715430838214987"><ele>449.5</ele><time>2026-04-17T19:01:13Z</time></trkpt><trkpt lat="47.34188388419554" lon="8.715457252101807"><ele>449.66666666666663</ele><time>2026-04-17T19:01:14Z</time></trkpt><trkpt lat="47.341958947540505" lon="8.715485982727749"><ele>449.8333333333333</ele><time>2026-04-17T19:01:15Z</time></trkpt><trkpt lat="47.34203328628508" lon="8.715519214425093"><ele>450.0</ele><time>2026-04-17T19:01:16Z</time></trkpt><trkpt lat="47.34210601994479" lon="8.715554523316323"><ele>450.00000000000006</ele><time>2026-04-17T19:01:17Z</time></trkpt><trkpt lat="47.34217943904614" lon="8.715585804858327"><ele>450.0</ele><time>2026-04-17T19:01:18Z</time></trkpt><trkpt lat="47.34225288148834" lon="8.715615577464492"><ele>450.00000000000006</ele><time>2026-04-17T19:01:19Z</time></trkpt><trkpt lat="47.3423253011942" lon="8.715643816932387"><ele>450.00000000000006</ele><time>2026-04-17T19:01:20Z</time></trkpt><trkpt lat="47.34239758219297" lon="8.715671635951018"><ele>450.0</ele><time>2026-04-17T19:01:21Z</time></trkpt><trkpt lat="47.34246677117784" lon="8.715700916604684"><ele>450.00000000000006</ele><time>2026-04-17T19:01:22Z</time></trkpt><trkpt lat="47.34253549937211" lon="8.715733166723247"><ele>450.00000000000006</ele><time>2026-04-17T19:01:23Z</time></trkpt><trkpt lat="47.34260233201655" lon="8.715761575926518"><ele>451.4</ele><time>2026-04-17T19:01:24Z</time></trkpt><trkpt lat="47.3427002577761" lon="8.715811109926236"><ele>452.8</ele><time>2026-04-17T19:01:26Z</time></trkpt><trkpt lat="47.342799437085716" lon="8.715876683645572"><ele>454.20000000000005</ele><time>2026-04-17T19:01:28Z</time></trkpt><trkpt lat="47.34291041653367" lon="8.715950845037897"><ele>455.6</ele><time>2026-04-17T19:01:30Z</time></trkpt><trkpt lat="47.34297187349951" lon="8.715985966974666"><ele>457.0</ele><time>2026-04-17T19:01:31Z</time></trkpt><trkpt lat="47.343035518252385" lon="8.716019063695429"><ele>457.83333333333337</ele><time>2026-04-17T19:01:32Z</time></trkpt><trkpt lat="47.34310226170786" lon="8.716049934284264"><ele>458.6666666666667</ele><time>2026-04-17T19:01:33Z</time></trkpt><trkpt lat="47.343170212509165" lon="8.716082577696856"><ele>459.5</ele><time>2026-04-17T19:01:34Z</time></trkpt><trkpt lat="47.34323300592175" lon="8.716121003289075"><ele>460.33333333333337</ele><time>2026-04-17T19:01:35Z</time></trkpt><trkpt lat="47.34333493356077" lon="8.716166688306165"><ele>461.1666666666667</ele><time>2026-04-17T19:01:37Z</time></trkpt><trkpt lat="47.34343467833525" lon="8.716242915998723"><ele>462.0</ele><time>2026-04-17T19:01:39Z</time></trkpt><trkpt lat="47.34349701031876" lon="8.716268313719816"><ele>462.3333333333333</ele><time>2026-04-17T19:01:40Z</time></trkpt><trkpt lat="47.343558928892804" lon="8.716295998562355"><ele>462.66666666666663</ele><time>2026-04-17T19:01:41Z</time></trkpt><trkpt lat="47.34362395366499" lon="8.716322359360666"><ele>463.0</ele><time>2026-04-17T19:01:42Z</time></trkpt><trkpt lat="47.34368915044252" lon="8.716347442063327"><ele>463.3333333333333</ele><time>2026-04-17T19:01:43Z</time></trkpt><trkpt lat="47.34380301800528" lon="8.716385981166722"><ele>463.66666666666663</ele><time>2026-04-17T19:01:45Z</time></trkpt><trkpt lat="47.343910934273566" lon="8.716447705378302"><ele>464.0</ele><time>2026-04-17T19:01:47Z</time></trkpt><trkpt lat="47.34400576866836" lon="8.716531344022671"><ele>463.99999999999994</ele><time>2026-04-17T19:01:49Z</time></trkpt><trkpt lat="47.34409917485672" lon="8.71644923133853"><ele>464.0</ele><time>2026-04-17T19:01:50Z</time></trkpt><trkpt lat="47.344165889361065" lon="8.716412300087889"><ele>464.0</ele><time>2026-04-17T19:01:51Z</time></trkpt><trkpt lat="47.344240899189444" lon="8.716373583536823"><ele>464.0</ele><time>2026-04-17T19:01:52Z</time></trkpt><trkpt lat="47.3443015931179" lon="8.71630097877308"><ele>463.99999999999994</ele><time>2026-04-17T19:01:53Z</time></trkpt><trkpt lat="47.34439478731561" lon="8.716309844327755"><ele>464.0</ele><time>2026-04-17T19:01:54Z</time></trkpt><trkpt lat="47.3444731470334" lon="8.716286813243162"><ele>463.99999999999994</ele><time>2026-04-17T19:01:55Z</time></trkpt><trkpt lat="47.34455055734067" lon="8.71626192803119"><ele>464.0</ele><time>2026-04-17T19:01:56Z</time></trkpt><trkpt lat="47.34462804503233" lon="8.716239723774013"><ele>464.0</ele><time>2026-04-17T19:01:57Z</time></trkpt><trkpt lat="47.344705077408555" lon="8.716218063003947"><ele>464.0</ele><time>2026-04-17T19:01:58Z</time></trkpt><trkpt lat="47.344780805319395" lon="8.716188881237471"><ele>463.99999999999994</ele><time>2026-04-17T19:01:59Z</time></trkpt><trkpt lat="47.34485477170757" lon="8.716157577097084"><ele>464.0</ele><time>2026-04-17T19:02:00Z</time></trkpt><trkpt lat="47.34493050154452" lon="8.716127669175012"><ele>464.3333333333333</ele><time>2026-04-17T19:02:01Z</time></trkpt><trkpt lat="47.34500434530065" lon="8.716100971948416"><ele>464.66666666666663</ele><time>2026-04-17T19:02:02Z</time></trkpt><trkpt lat="47.34507891815018" lon="8.716077858069527"><ele>465.0</ele><time>2026-04-17T19:02:03Z</time></trkpt><trkpt lat="47.345155599982796" lon="8.716053130283626"><ele>465.33333333333337</ele><time>2026-04-17T19:02:04Z</time></trkpt><trkpt lat="47.34523206489025" lon="8.716029099071308"><ele>465.6666666666667</ele><time>2026-04-17T19:02:05Z</time></trkpt><trkpt lat="47.34530729823888" lon="8.716009229655805"><ele>466.0</ele><time>2026-04-17T19:02:06Z</time></trkpt><trkpt lat="47.3453858200823" lon="8.716005633611045"><ele>466.00000000000006</ele><time>2026-04-17T19:02:07Z</time></trkpt><trkpt lat="47.345462204296325" lon="8.716016441950323"><ele>466.0</ele><time>2026-04-17T19:02:08Z</time></trkpt><trkpt lat="47.34553743920927" lon="8.716037180258512"><ele>466.0</ele><time>2026-04-17T19:02:09Z</time></trkpt><trkpt lat="47.34561128719972" lon="8.716063386976797"><ele>466.0</ele><time>2026-04-17T19:02:10Z</time></trkpt><trkpt lat="47.34568628834478" lon="8.716093810432632"><ele>466.00000000000006</ele><time>2026-04-17T19:02:11Z</time></trkpt><trkpt lat="47.345762570625446" lon="8.716126836736887"><ele>466.0</ele><time>2026-04-17T19:02:12Z</time></trkpt><trkpt lat="47.34583989737828" lon="8.716165333049382"><ele>467.00000000000006</ele><time>2026-04-17T19:02:13Z</time></trkpt><trkpt lat="47.34591724147711" lon="8.716208896349334"><ele>468.0</ele><time>2026-04-17T19:02:14Z</time></trkpt><trkpt lat="47.34599554190453" lon="8.716260167864299"><ele>469.0</ele><time>2026-04-17T19:02:15Z</time></trkpt><trkpt lat="47.34607228536206" lon="8.716324328781937"><ele>470.0</ele><time>2026-04-17T19:02:16Z</time></trkpt><trkpt lat="47.34614742235921" lon="8.716396340018939"><ele>471.00000000000006</ele><time>2026-04-17T19:02:17Z</time></trkpt><trkpt lat="47.34622427440207" lon="8.71647280316862"><ele>472.0</ele><time>2026-04-17T19:02:18Z</time></trkpt><trkpt lat="47.34630176861565" lon="8.716546996868475"><ele>470.6</ele><time>2026-04-17T19:02:19Z</time></trkpt><trkpt lat="47.34637963491723" lon="8.716616354485295"><ele>469.20000000000005</ele><time>2026-04-17T19:02:20Z</time></trkpt><trkpt lat="47.34645735061589" lon="8.716693452474969"><ele>467.8</ele><time>2026-04-17T19:02:21Z</time></trkpt><trkpt lat="47.34653167501125" lon="8.716776093953623"><ele>466.4</ele><time>2026-04-17T19:02:22Z</time></trkpt><trkpt lat="47.34659433660069" lon="8.716875546973062"><ele>465.0</ele><time>2026-04-17T19:02:23Z</time></trkpt><trkpt lat="47.3466523970018" lon="8.716979306973714"><ele>465.0</ele><time>2026-04-17T19:02:24Z</time></trkpt><trkpt lat="47.34670265242464" lon="8.717088113056747"><ele>465.0</ele><time>2026-04-17T19:02:25Z</time></trkpt><trkpt lat="47.346747302183076" lon="8.717202887079472"><ele>465.0</ele><time>2026-04-17T19:02:26Z</time></trkpt><trkpt lat="47.34678200733938" lon="8.717321840522947"><ele>465.0</ele><time>2026-04-17T19:02:27Z</time></trkpt><trkpt lat="47.346818594865" lon="8.7174272097905"><ele>465.0</ele><time>2026-04-17T19:02:28Z</time></trkpt><trkpt lat="47.3468612768097" lon="8.717526296826989"><ele>465.0</ele><time>2026-04-17T19:02:29Z</time></trkpt><trkpt lat="47.34691434944818" lon="8.717616138266477"><ele>465.0</ele><time>2026-04-17T19:02:30Z</time></trkpt><trkpt lat="47.34697637009698" lon="8.717690100346552"><ele>465.0</ele><time>2026-04-17T19:02:31Z</time></trkpt><trkpt lat="47.34704681723406" lon="8.717752266356827"><ele>465.0</ele><time>2026-04-17T19:02:32Z</time></trkpt><trkpt lat="47.34711626440088" lon="8.717814076443062"><ele>465.0</ele><time>2026-04-17T19:02:33Z</time></trkpt><trkpt lat="47.347186723512806" lon="8.717880129184605"><ele>465.0</ele><time>2026-04-17T19:02:34Z</time></trkpt><trkpt lat="47.347258416179585" lon="8.717944047484998"><ele>465.0</ele><time>2026-04-17T19:02:35Z</time></trkpt><trkpt lat="47.34733458872644" lon="8.717998646016014"><ele>465.0</ele><time>2026-04-17T19:02:36Z</time></trkpt><trkpt lat="47.347415988189574" lon="8.718035440688402"><ele>465.0</ele><time>2026-04-17T19:02:37Z</time></trkpt><trkpt lat="47.347497328751714" lon="8.71806929393373"><ele>465.0</ele><time>2026-04-17T19:02:38Z</time></trkpt><trkpt lat="47.3475778235105" lon="8.71810406795875"><ele>465.0</ele><time>2026-04-17T19:02:39Z</time></trkpt><trkpt lat="47.34765806061275" lon="8.718133375160145"><ele>465.0</ele><time>2026-04-17T19:02:40Z</time></trkpt><trkpt lat="47.34773488623666" lon="8.718156592540405"><ele>465.0</ele><time>2026-04-17T19:02:41Z</time></trkpt><trkpt lat="47.34779683777252" lon="8.718186209482887"><ele>465.0</ele><time>2026-04-17T19:02:42Z</time></trkpt><trkpt lat="47.34788774606189" lon="8.718239582120345"><ele>465.0</ele><time>2026-04-17T19:02:44Z</time></trkpt><trkpt lat="47.34796364257713" lon="8.718287857121174"><ele>465.0</ele><time>2026-04-17T19:02:46Z</time></trkpt><trkpt lat="47.348006472652344" lon="8.718413035824124"><ele>465.0</ele><time>2026-04-17T19:02:48Z</time></trkpt><trkpt lat="47.34798483559967" lon="8.71850994327159"><ele>465.0</ele><time>2026-04-17T19:02:49Z</time></trkpt><trkpt lat="47.34795028834474" lon="8.718606348209644"><ele>465.0</ele><time>2026-04-17T19:02:50Z</time></trkpt><trkpt lat="47.34792195756687" lon="8.718698246123767"><ele>465.0</ele><time>2026-04-17T19:02:51Z</time></trkpt><trkpt lat="47.34789031611781" lon="8.718802200828872"><ele>465.0</ele><time>2026-04-17T19:02:52Z</time></trkpt><trkpt lat="47.34785980425674" lon="8.718908768616211"><ele>465.0</ele><time>2026-04-17T19:02:53Z</time></trkpt><trkpt lat="47.347833388397014" lon="8.719023103198737"><ele>465.0</ele><time>2026-04-17T19:02:54Z</time></trkpt><trkpt lat="47.34781192965091" lon="8.719138570896842"><ele>465.0</ele><time>2026-04-17T19:02:55Z</time></trkpt><trkpt lat="47.347792742279" lon="8.719254562158474"><ele>465.0</ele><time>2026-04-17T19:02:56Z</time></trkpt><trkpt lat="47.347779118819524" lon="8.719372164990936"><ele>465.3333333333333</ele><time>2026-04-17T19:02:57Z</time></trkpt><trkpt lat="47.347770836054096" lon="8.719492266702858"><ele>465.66666666666663</ele><time>2026-04-17T19:02:58Z</time></trkpt><trkpt lat="47.347761369097114" lon="8.719610344907712"><ele>466.0</ele><time>2026-04-17T19:02:59Z</time></trkpt><trkpt lat="47.34774878922907" lon="8.719727247137378"><ele>466.3333333333333</ele><time>2026-04-17T19:03:00Z</time></trkpt><trkpt lat="47.34773745542661" lon="8.719845322934706"><ele>466.66666666666663</ele><time>2026-04-17T19:03:01Z</time></trkpt><trkpt lat="47.34772471306358" lon="8.71996254586667"><ele>467.0</ele><time>2026-04-17T19:03:02Z</time></trkpt><trkpt lat="47.34769167319005" lon="8.720070906290228"><ele>466.99999999999994</ele><time>2026-04-17T19:03:03Z</time></trkpt><trkpt lat="47.347648917624284" lon="8.720173005362865"><ele>467.0</ele><time>2026-04-17T19:03:04Z</time></trkpt><trkpt lat="47.34761782222972" lon="8.7202831681808"><ele>467.0</ele><time>2026-04-17T19:03:05Z</time></trkpt><trkpt lat="47.34758221014722" lon="8.720389533468696"><ele>467.0</ele><time>2026-04-17T19:03:06Z</time></trkpt><trkpt lat="47.34755064959031" lon="8.720501575922153"><ele>466.99999999999994</ele><time>2026-04-17T19:03:07Z</time></trkpt><trkpt lat="47.34751799660251" lon="8.720609931066814"><ele>467.0</ele><time>2026-04-17T19:03:08Z</time></trkpt><trkpt lat="47.34748671679056" lon="8.720718486189217"><ele>467.16666666666663</ele><time>2026-04-17T19:03:09Z</time></trkpt><trkpt lat="47.347454989812725" lon="8.72082580470199"><ele>467.3333333333333</ele><time>2026-04-17T19:03:10Z</time></trkpt><trkpt lat="47.34742333858153" lon="8.720934338187927"><ele>467.5</ele><time>2026-04-17T19:03:11Z</time></trkpt><trkpt lat="47.34739064222955" lon="8.721043013916724"><ele>467.66666666666663</ele><time>2026-04-17T19:03:12Z</time></trkpt><trkpt lat="47.347357540266046" lon="8.721149628152544"><ele>467.8333333333333</ele><time>2026-04-17T19:03:13Z</time></trkpt><trkpt lat="47.347325642721984" lon="8.721257829134776"><ele>468.0</ele><time>2026-04-17T19:03:14Z</time></trkpt><trkpt lat="47.34729287141702" lon="8.721365211298215"><ele>468.0</ele><time>2026-04-17T19:03:15Z</time></trkpt><trkpt lat="47.34726027889122" lon="8.721473034536698"><ele>468.0</ele><time>2026-04-17T19:03:16Z</time></trkpt><trkpt lat="47.34722753653575" lon="8.721580254047174"><ele>468.0</ele><time>2026-04-17T19:03:17Z</time></trkpt><trkpt lat="47.34719678922936" lon="8.721686850176182"><ele>468.0</ele><time>2026-04-17T19:03:18Z</time></trkpt><trkpt lat="47.34716429416267" lon="8.721794154068766"><ele>468.0</ele><time>2026-04-17T19:03:19Z</time></trkpt><trkpt lat="47.34713273349699" lon="8.721900798190658"><ele>468.0</ele><time>2026-04-17T19:03:20Z</time></trkpt><trkpt lat="47.34710165632378" lon="8.722008659866477"><ele>468.1666666666667</ele><time>2026-04-17T19:03:21Z</time></trkpt><trkpt lat="47.347072934280945" lon="8.722116914171796"><ele>468.33333333333337</ele><time>2026-04-17T19:03:22Z</time></trkpt><trkpt lat="47.347042886192106" lon="8.72222413416102"><ele>468.5</ele><time>2026-04-17T19:03:23Z</time></trkpt><trkpt lat="47.347013638639126" lon="8.722332610428122"><ele>468.6666666666667</ele><time>2026-04-17T19:03:24Z</time></trkpt><trkpt lat="47.3469864504661" lon="8.722440938004294"><ele>468.83333333333337</ele><time>2026-04-17T19:03:25Z</time></trkpt><trkpt lat="47.346959458815796" lon="8.72254976118093"><ele>469.0</ele><time>2026-04-17T19:03:26Z</time></trkpt><trkpt lat="47.346935092044475" lon="8.72266080639299"><ele>468.83333333333337</ele><time>2026-04-17T19:03:27Z</time></trkpt><trkpt lat="47.34690901746473" lon="8.722771896371494"><ele>468.6666666666667</ele><time>2026-04-17T19:03:28Z</time></trkpt><trkpt lat="47.346882748135044" lon="8.722882193469362"><ele>468.5</ele><time>2026-04-17T19:03:29Z</time></trkpt><trkpt lat="47.346855711903906" lon="8.722992088350292"><ele>468.33333333333337</ele><time>2026-04-17T19:03:30Z</time></trkpt><trkpt lat="47.346830344588724" lon="8.723104016899907"><ele>468.1666666666667</ele><time>2026-04-17T19:03:31Z</time></trkpt><trkpt lat="47.346801857890455" lon="8.723213055724393"><ele>468.0</ele><time>2026-04-17T19:03:32Z</time></trkpt><trkpt lat="47.34677795563468" lon="8.723324286311586"><ele>468.0</ele><time>2026-04-17T19:03:33Z</time></trkpt><trkpt lat="47.34675398966638" lon="8.72343672209127"><ele>468.0</ele><time>2026-04-17T19:03:34Z</time></trkpt><trkpt lat="47.34673494731383" lon="8.723551837241505"><ele>468.0</ele><time>2026-04-17T19:03:35Z</time></trkpt><trkpt lat="47.346714351846515" lon="8.723666115067234"><ele>468.0</ele><time>2026-04-17T19:03:36Z</time></trkpt><trkpt lat="47.34669684428095" lon="8.7237822485163"><ele>468.0</ele><time>2026-04-17T19:03:37Z</time></trkpt><trkpt lat="47.34668160468592" lon="8.723898332998"><ele>468.0</ele><time>2026-04-17T19:03:38Z</time></trkpt><trkpt lat="47.34666696628355" lon="8.724013977937162"><ele>468.1666666666667</ele><time>2026-04-17T19:03:39Z</time></trkpt><trkpt lat="47.34665254763614" lon="8.72413052408049"><ele>468.33333333333337</ele><time>2026-04-17T19:03:40Z</time></trkpt><trkpt lat="47.34663734380664" lon="8.724245877543387"><ele>468.5</ele><time>2026-04-17T19:03:41Z</time></trkpt><trkpt lat="47.346622728671676" lon="8.72436246091467"><ele>468.6666666666667</ele><time>2026-04-17T19:03:42Z</time></trkpt><trkpt lat="47.346606947855705" lon="8.724477837104155"><ele>468.83333333333337</ele><time>2026-04-17T19:03:43Z</time></trkpt><trkpt lat="47.34659226483518" lon="8.72459514477694"><ele>469.0</ele><time>2026-04-17T19:03:44Z</time></trkpt><trkpt lat="47.34657807032742" lon="8.724711254378876"><ele>469.33333333333337</ele><time>2026-04-17T19:03:45Z</time></trkpt><trkpt lat="47.34656330863499" lon="8.724827864292227"><ele>469.6666666666667</ele><time>2026-04-17T19:03:46Z</time></trkpt><trkpt lat="47.34654801605696" lon="8.724943722581338"><ele>470.0</ele><time>2026-04-17T19:03:47Z</time></trkpt><trkpt lat="47.34653370030929" lon="8.725060079636725"><ele>470.33333333333337</ele><time>2026-04-17T19:03:48Z</time></trkpt><trkpt lat="47.34651919729233" lon="8.725175749943128"><ele>470.6666666666667</ele><time>2026-04-17T19:03:49Z</time></trkpt><trkpt lat="47.34650804169127" lon="8.725293114131617"><ele>471.0</ele><time>2026-04-17T19:03:50Z</time></trkpt><trkpt lat="47.34650159703962" lon="8.72541230895868"><ele>471.3333333333333</ele><time>2026-04-17T19:03:51Z</time></trkpt><trkpt lat="47.346500517218615" lon="8.725530803181687"><ele>471.66666666666663</ele><time>2026-04-17T19:03:52Z</time></trkpt><trkpt lat="47.346504665028256" lon="8.725650695502168"><ele>472.0</ele><time>2026-04-17T19:03:53Z</time></trkpt><trkpt lat="47.34651348868205" lon="8.725769234929922"><ele>472.3333333333333</ele><time>2026-04-17T19:03:54Z</time></trkpt><trkpt lat="47.34652394425941" lon="8.725886614685118"><ele>472.66666666666663</ele><time>2026-04-17T19:03:55Z</time></trkpt><trkpt lat="47.34653542525581" lon="8.72600453451931"><ele>473.0</ele><time>2026-04-17T19:03:56Z</time></trkpt><trkpt lat="47.34654591017819" lon="8.726123543656886"><ele>472.99999999999994</ele><time>2026-04-17T19:03:57Z</time></trkpt><trkpt lat="47.346554242152685" lon="8.726242139870543"><ele>473.0</ele><time>2026-04-17T19:03:58Z</time></trkpt><trkpt lat="47.34656742546745" lon="8.726360041974448"><ele>473.0</ele><time>2026-04-17T19:03:59Z</time></trkpt><trkpt lat="47.34658701078268" lon="8.726477274996487"><ele>473.0</ele><time>2026-04-17T19:04:00Z</time></trkpt><trkpt lat="47.346605103667386" lon="8.72659297552125"><ele>472.99999999999994</ele><time>2026-04-17T19:04:01Z</time></trkpt><trkpt lat="47.34662160963579" lon="8.726709969041071"><ele>473.0</ele><time>2026-04-17T19:04:02Z</time></trkpt><trkpt lat="47.34663464274061" lon="8.726829191590038"><ele>472.99999999999994</ele><time>2026-04-17T19:04:03Z</time></trkpt><trkpt lat="47.346645036159764" lon="8.726946266687186"><ele>473.0</ele><time>2026-04-17T19:04:04Z</time></trkpt><trkpt lat="47.346639423435576" lon="8.727066571928837"><ele>473.0</ele><time>2026-04-17T19:04:05Z</time></trkpt><trkpt lat="47.34662790547124" lon="8.727185061528084"><ele>473.0</ele><time>2026-04-17T19:04:06Z</time></trkpt><trkpt lat="47.34661266574302" lon="8.727300151348377"><ele>472.99999999999994</ele><time>2026-04-17T19:04:07Z</time></trkpt><trkpt lat="47.346589413174634" lon="8.727413619257357"><ele>473.0</ele><time>2026-04-17T19:04:08Z</time></trkpt><trkpt lat="47.346560003008264" lon="8.727524113625577"><ele>472.99999999999994</ele><time>2026-04-17T19:04:09Z</time></trkpt><trkpt lat="47.34652202662377" lon="8.727629251893527"><ele>473.0</ele><time>2026-04-17T19:04:10Z</time></trkpt><trkpt lat="47.346478552757276" lon="8.72772876355173"><ele>473.0</ele><time>2026-04-17T19:04:11Z</time></trkpt><trkpt lat="47.346427319716014" lon="8.727821598388779"><ele>473.0</ele><time>2026-04-17T19:04:12Z</time></trkpt><trkpt lat="47.34637256670241" lon="8.727909700636255"><ele>472.99999999999994</ele><time>2026-04-17T19:04:13Z</time></trkpt><trkpt lat="47.34631530500054" lon="8.727995042583386"><ele>473.0</ele><time>2026-04-17T19:04:14Z</time></trkpt><trkpt lat="47.34625889511052" lon="8.728080369181601"><ele>472.99999999999994</ele><time>2026-04-17T19:04:15Z</time></trkpt><trkpt lat="47.346205097057435" lon="8.728168629099446"><ele>473.0</ele><time>2026-04-17T19:04:16Z</time></trkpt><trkpt lat="47.34615197875442" lon="8.72825924032725"><ele>473.0</ele><time>2026-04-17T19:04:17Z</time></trkpt><trkpt lat="47.34609953334755" lon="8.728347293412497"><ele>473.0</ele><time>2026-04-17T19:04:18Z</time></trkpt><trkpt lat="47.346044160102224" lon="8.728433164318698"><ele>472.99999999999994</ele><time>2026-04-17T19:04:19Z</time></trkpt><trkpt lat="47.34598921976965" lon="8.728519930035693"><ele>473.0</ele><time>2026-04-17T19:04:20Z</time></trkpt><trkpt lat="47.345934659359486" lon="8.728608411071466"><ele>473.3333333333333</ele><time>2026-04-17T19:04:21Z</time></trkpt><trkpt lat="47.34588694423688" lon="8.728704379912783"><ele>473.66666666666663</ele><time>2026-04-17T19:04:22Z</time></trkpt><trkpt lat="47.345844874795574" lon="8.728806312651576"><ele>474.0</ele><time>2026-04-17T19:04:23Z</time></trkpt><trkpt lat="47.34580508582085" lon="8.728911062343641"><ele>474.33333333333337</ele><time>2026-04-17T19:04:24Z</time></trkpt><trkpt lat="47.34576769149241" lon="8.729017705501871"><ele>474.6666666666667</ele><time>2026-04-17T19:04:25Z</time></trkpt><trkpt lat="47.34573075202119" lon="8.729124009092113"><ele>475.0</ele><time>2026-04-17T19:04:26Z</time></trkpt><trkpt lat="47.345693034899625" lon="8.72922722627527"><ele>475.00000000000006</ele><time>2026-04-17T19:04:27Z</time></trkpt><trkpt lat="47.345656318808004" lon="8.729333109417087"><ele>475.0</ele><time>2026-04-17T19:04:28Z</time></trkpt><trkpt lat="47.345624040108184" lon="8.72944132548943"><ele>475.0</ele><time>2026-04-17T19:04:29Z</time></trkpt><trkpt lat="47.34559499432109" lon="8.729551091039315"><ele>475.0</ele><time>2026-04-17T19:04:30Z</time></trkpt><trkpt lat="47.345570584879596" lon="8.729661936553201"><ele>475.00000000000006</ele><time>2026-04-17T19:04:31Z</time></trkpt><trkpt lat="47.34554699930356" lon="8.729773287976716"><ele>475.0</ele><time>2026-04-17T19:04:32Z</time></trkpt><trkpt lat="47.34552651883428" lon="8.729885494567478"><ele>475.00000000000006</ele><time>2026-04-17T19:04:33Z</time></trkpt><trkpt lat="47.34550733565648" lon="8.729998929922909"><ele>475.0</ele><time>2026-04-17T19:04:34Z</time></trkpt><trkpt lat="47.34548730155563" lon="8.730111945732556"><ele>475.0</ele><time>2026-04-17T19:04:35Z</time></trkpt><trkpt lat="47.34546316462252" lon="8.73022316039632"><ele>475.0</ele><time>2026-04-17T19:04:36Z</time></trkpt><trkpt lat="47.34543700397277" lon="8.730332051647828"><ele>475.00000000000006</ele><time>2026-04-17T19:04:37Z</time></trkpt><trkpt lat="47.345406239960404" lon="8.730438774158511"><ele>475.0</ele><time>2026-04-17T19:04:38Z</time></trkpt><trkpt lat="47.34536860730282" lon="8.730540749579143"><ele>475.00000000000006</ele><time>2026-04-17T19:04:39Z</time></trkpt><trkpt lat="47.34532721870976" lon="8.7306402328761"><ele>475.0</ele><time>2026-04-17T19:04:40Z</time></trkpt><trkpt lat="47.34528752523441" lon="8.730740349990919"><ele>475.0</ele><time>2026-04-17T19:04:41Z</time></trkpt><trkpt lat="47.34524898214144" lon="8.73084232820477"><ele>475.0</ele><time>2026-04-17T19:04:42Z</time></trkpt><trkpt lat="47.34521199273244" lon="8.73094588777955"><ele>475.00000000000006</ele><time>2026-04-17T19:04:43Z</time></trkpt><trkpt lat="47.34517372357202" lon="8.73104809800987"><ele>475.0</ele><time>2026-04-17T19:04:44Z</time></trkpt><trkpt lat="47.34513457890877" lon="8.731150512186531"><ele>475.00000000000006</ele><time>2026-04-17T19:04:45Z</time></trkpt><trkpt lat="47.34509486747072" lon="8.731252817449757"><ele>475.0</ele><time>2026-04-17T19:04:46Z</time></trkpt><trkpt lat="47.34505483516979" lon="8.731354217416971"><ele>475.0</ele><time>2026-04-17T19:04:47Z</time></trkpt><trkpt lat="47.34501527892378" lon="8.731456533663843"><ele>475.0</ele><time>2026-04-17T19:04:48Z</time></trkpt><trkpt lat="47.344984302430255" lon="8.731565103845925"><ele>475.00000000000006</ele><time>2026-04-17T19:04:49Z</time></trkpt><trkpt lat="47.34496342758872" lon="8.731679851712915"><ele>475.0</ele><time>2026-04-17T19:04:50Z</time></trkpt><trkpt lat="47.344945942170874" lon="8.73179486608166"><ele>475.1666666666667</ele><time>2026-04-17T19:04:51Z</time></trkpt><trkpt lat="47.344935440588195" lon="8.731913135895244"><ele>475.33333333333337</ele><time>2026-04-17T19:04:52Z</time></trkpt><trkpt lat="47.344933283966746" lon="8.732032487066483"><ele>475.5</ele><time>2026-04-17T19:04:53Z</time></trkpt><trkpt lat="47.344938765309024" lon="8.732151502401788"><ele>475.66666666666663</ele><time>2026-04-17T19:04:54Z</time></trkpt><trkpt lat="47.3449417068341" lon="8.732269703928818"><ele>475.8333333333333</ele><time>2026-04-17T19:04:55Z</time></trkpt><trkpt lat="47.344943861174634" lon="8.73238838002272"><ele>476.0</ele><time>2026-04-17T19:04:56Z</time></trkpt><trkpt lat="47.344949349611376" lon="8.73250611729601"><ele>475.99999999999994</ele><time>2026-04-17T19:04:57Z</time></trkpt><trkpt lat="47.34495992547271" lon="8.732623227252258"><ele>476.0</ele><time>2026-04-17T19:04:58Z</time></trkpt><trkpt lat="47.34497491779011" lon="8.732735433106514"><ele>476.0</ele><time>2026-04-17T19:04:59Z</time></trkpt><trkpt lat="47.34498924190402" lon="8.732842229522314"><ele>476.0</ele><time>2026-04-17T19:05:00Z</time></trkpt><trkpt lat="47.345015966073774" lon="8.7330070724167"><ele>475.99999999999994</ele><time>2026-04-17T19:05:02Z</time></trkpt><trkpt lat="47.345005807596706" lon="8.733146287076028"><ele>476.0</ele><time>2026-04-17T19:05:04Z</time></trkpt><trkpt lat="47.344924764571424" lon="8.73324147817966"><ele>476.20000000000005</ele><time>2026-04-17T19:05:06Z</time></trkpt><trkpt lat="47.34481660690875" lon="8.733271279785933"><ele>476.40000000000003</ele><time>2026-04-17T19:05:08Z</time></trkpt><trkpt lat="47.34473824029085" lon="8.73329235320089"><ele>476.6</ele><time>2026-04-17T19:05:10Z</time></trkpt><trkpt lat="47.34468039439843" lon="8.733347497052982"><ele>476.8</ele><time>2026-04-17T19:05:12Z</time></trkpt><trkpt lat="47.344590526018685" lon="8.733410062310064"><ele>477.0</ele><time>2026-04-17T19:05:14Z</time></trkpt><trkpt lat="47.3444849595301" lon="8.733490435285882"><ele>478.20000000000005</ele><time>2026-04-17T19:05:16Z</time></trkpt><trkpt lat="47.34437702387072" lon="8.733589396663923"><ele>479.40000000000003</ele><time>2026-04-17T19:05:18Z</time></trkpt><trkpt lat="47.344273706712166" lon="8.733691043665578"><ele>480.59999999999997</ele><time>2026-04-17T19:05:20Z</time></trkpt><trkpt lat="47.34421820579264" lon="8.73374383744127"><ele>481.79999999999995</ele><time>2026-04-17T19:05:21Z</time></trkpt><trkpt lat="47.34415623908244" lon="8.733797078679848"><ele>483.0</ele><time>2026-04-17T19:05:22Z</time></trkpt><trkpt lat="47.34409043242452" lon="8.733847528261947"><ele>483.0</ele><time>2026-04-17T19:05:23Z</time></trkpt><trkpt lat="47.344022147798256" lon="8.73389087163853"><ele>483.0</ele><time>2026-04-17T19:05:24Z</time></trkpt><trkpt lat="47.343954288222065" lon="8.733932586191537"><ele>483.0</ele><time>2026-04-17T19:05:25Z</time></trkpt><trkpt lat="47.343889391136024" lon="8.733982755319767"><ele>483.0</ele><time>2026-04-17T19:05:26Z</time></trkpt><trkpt lat="47.34381221261822" lon="8.734014358409606"><ele>483.0</ele><time>2026-04-17T19:05:27Z</time></trkpt><trkpt lat="47.34373970969005" lon="8.734038526145033"><ele>483.0</ele><time>2026-04-17T19:05:28Z</time></trkpt><trkpt lat="47.343660115788765" lon="8.734053622883698"><ele>483.7142857142857</ele><time>2026-04-17T19:05:29Z</time></trkpt><trkpt lat="47.34358634355656" lon="8.734057741922747"><ele>484.42857142857144</ele><time>2026-04-17T19:05:30Z</time></trkpt><trkpt lat="47.343517607440035" lon="8.734065330407255"><ele>485.1428571428571</ele><time>2026-04-17T19:05:31Z</time></trkpt><trkpt lat="47.34344552810704" lon="8.734075873789852"><ele>485.85714285714283</ele><time>2026-04-17T19:05:32Z</time></trkpt><trkpt lat="47.3433781418565" lon="8.73408827733434"><ele>486.57142857142856</ele><time>2026-04-17T19:05:33Z</time></trkpt><trkpt lat="47.34330624259325" lon="8.734109889791423"><ele>487.2857142857142</ele><time>2026-04-17T19:05:34Z</time></trkpt><trkpt lat="47.34324162659654" lon="8.734136332668667"><ele>487.99999999999994</ele><time>2026-04-17T19:05:35Z</time></trkpt><trkpt lat="47.343178353136146" lon="8.73417403428071"><ele>487.99999999999994</ele><time>2026-04-17T19:05:36Z</time></trkpt><trkpt lat="47.3431185624841" lon="8.734223014112537"><ele>488.0</ele><time>2026-04-17T19:05:37Z</time></trkpt><trkpt lat="47.34305825940124" lon="8.734276844924027"><ele>487.99999999999994</ele><time>2026-04-17T19:05:38Z</time></trkpt><trkpt lat="47.34299690750829" lon="8.734331076112255"><ele>487.99999999999994</ele><time>2026-04-17T19:05:39Z</time></trkpt><trkpt lat="47.34293567065671" lon="8.734385205650083"><ele>488.0</ele><time>2026-04-17T19:05:40Z</time></trkpt><trkpt lat="47.34287290966395" lon="8.734438813728483"><ele>487.99999999999994</ele><time>2026-04-17T19:05:41Z</time></trkpt><trkpt lat="47.34281050853781" lon="8.734490708838418"><ele>487.99999999999994</ele><time>2026-04-17T19:05:42Z</time></trkpt><trkpt lat="47.34274540248132" lon="8.73454075619267"><ele>489.1428571428571</ele><time>2026-04-17T19:05:43Z</time></trkpt><trkpt lat="47.34268084189668" lon="8.734589730236204"><ele>490.2857142857143</ele><time>2026-04-17T19:05:44Z</time></trkpt><trkpt lat="47.34260893521489" lon="8.734617239118114"><ele>491.42857142857144</ele><time>2026-04-17T19:05:45Z</time></trkpt><trkpt lat="47.342547358971835" lon="8.734672683583115"><ele>492.57142857142856</ele><time>2026-04-17T19:05:46Z</time></trkpt><trkpt lat="47.342485567265655" lon="8.734727401112716"><ele>493.7142857142858</ele><time>2026-04-17T19:05:47Z</time></trkpt><trkpt lat="47.34242338430022" lon="8.734778783079856"><ele>494.8571428571429</ele><time>2026-04-17T19:05:48Z</time></trkpt><trkpt lat="47.34235915607303" lon="8.734822353582118"><ele>496.0</ele><time>2026-04-17T19:05:49Z</time></trkpt><trkpt lat="47.34229228379818" lon="8.734860873783132"><ele>496.00000000000006</ele><time>2026-04-17T19:05:50Z</time></trkpt><trkpt lat="47.34223374961455" lon="8.734926368366533"><ele>496.0</ele><time>2026-04-17T19:05:51Z</time></trkpt><trkpt lat="47.34216468942643" lon="8.734966871700278"><ele>496.0</ele><time>2026-04-17T19:05:52Z</time></trkpt><trkpt lat="47.34209099082374" lon="8.735000376590895"><ele>496.0</ele><time>2026-04-17T19:05:53Z</time></trkpt><trkpt lat="47.34201633459829" lon="8.735024250637226"><ele>496.00000000000006</ele><time>2026-04-17T19:05:54Z</time></trkpt><trkpt lat="47.341938663589204" lon="8.735036903132112"><ele>496.0</ele><time>2026-04-17T19:05:55Z</time></trkpt><trkpt lat="47.3418591514056" lon="8.735042066606756"><ele>496.50000000000006</ele><time>2026-04-17T19:05:56Z</time></trkpt><trkpt lat="47.341779001331275" lon="8.735044267744723"><ele>497.0</ele><time>2026-04-17T19:05:57Z</time></trkpt><trkpt lat="47.34170050233595" lon="8.73504080802203"><ele>497.5</ele><time>2026-04-17T19:05:58Z</time></trkpt><trkpt lat="47.34162050816913" lon="8.735033307035414"><ele>498.0</ele><time>2026-04-17T19:05:59Z</time></trkpt><trkpt lat="47.34154263598449" lon="8.73502229642835"><ele>498.50000000000006</ele><time>2026-04-17T19:06:00Z</time></trkpt><trkpt lat="47.341460739402486" lon="8.735001439026464"><ele>499.0</ele><time>2026-04-17T19:06:01Z</time></trkpt><trkpt lat="47.34138144861189" lon="8.734977194556624"><ele>499.00000000000006</ele><time>2026-04-17T19:06:02Z</time></trkpt><trkpt lat="47.34130308513139" lon="8.734956712774652"><ele>499.0</ele><time>2026-04-17T19:06:03Z</time></trkpt><trkpt lat="47.341225329111715" lon="8.734941685712146"><ele>499.0</ele><time>2026-04-17T19:06:04Z</time></trkpt><trkpt lat="47.341145737249555" lon="8.734932470748562"><ele>499.0</ele><time>2026-04-17T19:06:05Z</time></trkpt><trkpt lat="47.341065360356275" lon="8.734924811359539"><ele>499.00000000000006</ele><time>2026-04-17T19:06:06Z</time></trkpt><trkpt lat="47.34098418727122" lon="8.734918093189647"><ele>499.0</ele><time>2026-04-17T19:06:07Z</time></trkpt><trkpt lat="47.340904100560714" lon="8.734915478571438"><ele>499.00000000000006</ele><time>2026-04-17T19:06:08Z</time></trkpt><trkpt lat="47.340821955148876" lon="8.734893177406486"><ele>499.0</ele><time>2026-04-17T19:06:09Z</time></trkpt><trkpt lat="47.34074022898026" lon="8.734900705091583"><ele>499.0</ele><time>2026-04-17T19:06:10Z</time></trkpt><trkpt lat="47.340661719717055" lon="8.734941378646996"><ele>499.0</ele><time>2026-04-17T19:06:11Z</time></trkpt><trkpt lat="47.3405834479172" lon="8.734972032987674"><ele>499.00000000000006</ele><time>2026-04-17T19:06:12Z</time></trkpt><trkpt lat="47.34050854938931" lon="8.73501399524676"><ele>499.0</ele><time>2026-04-17T19:06:13Z</time></trkpt><trkpt lat="47.34043435869111" lon="8.73505947347762"><ele>499.1666666666667</ele><time>2026-04-17T19:06:14Z</time></trkpt><trkpt lat="47.34035849307216" lon="8.735105649237644"><ele>499.33333333333337</ele><time>2026-04-17T19:06:15Z</time></trkpt><trkpt lat="47.34028363498334" lon="8.735149472802878"><ele>499.5</ele><time>2026-04-17T19:06:16Z</time></trkpt><trkpt lat="47.34020986677276" lon="8.735192658402717"><ele>499.66666666666663</ele><time>2026-04-17T19:06:17Z</time></trkpt><trkpt lat="47.340138504514954" lon="8.73523455281596"><ele>499.8333333333333</ele><time>2026-04-17T19:06:18Z</time></trkpt><trkpt lat="47.34006358409198" lon="8.735279874494315"><ele>500.0</ele><time>2026-04-17T19:06:19Z</time></trkpt><trkpt lat="47.33998982002432" lon="8.7353244966655"><ele>499.49999999999994</ele><time>2026-04-17T19:06:20Z</time></trkpt><trkpt lat="47.33991726415917" lon="8.735369728761896"><ele>499.0</ele><time>2026-04-17T19:06:21Z</time></trkpt><trkpt lat="47.339843577210246" lon="8.735415935117802"><ele>498.5</ele><time>2026-04-17T19:06:22Z</time></trkpt><trkpt lat="47.33977110300536" lon="8.735462182767531"><ele>498.0</ele><time>2026-04-17T19:06:23Z</time></trkpt><trkpt lat="47.33969745019197" lon="8.735510781837618"><ele>497.49999999999994</ele><time>2026-04-17T19:06:24Z</time></trkpt><trkpt lat="47.339625360325186" lon="8.735558349608302"><ele>497.0</ele><time>2026-04-17T19:06:25Z</time></trkpt><trkpt lat="47.33955257747157" lon="8.735606374585274"><ele>496.99999999999994</ele><time>2026-04-17T19:06:26Z</time></trkpt><trkpt lat="47.33947681764578" lon="8.735656363916192"><ele>497.0</ele><time>2026-04-17T19:06:27Z</time></trkpt><trkpt lat="47.33940336425257" lon="8.735704831375998"><ele>497.0</ele><time>2026-04-17T19:06:28Z</time></trkpt><trkpt lat="47.33932773674591" lon="8.735754733396867"><ele>497.0</ele><time>2026-04-17T19:06:29Z</time></trkpt><trkpt lat="47.3392528823811" lon="8.735805292809552"><ele>496.99999999999994</ele><time>2026-04-17T19:06:30Z</time></trkpt><trkpt lat="47.33917864212766" lon="8.735855542042989"><ele>497.0</ele><time>2026-04-17T19:06:31Z</time></trkpt><trkpt lat="47.33910343911425" lon="8.735906443007849"><ele>496.99999999999994</ele><time>2026-04-17T19:06:32Z</time></trkpt><trkpt lat="47.33902840462314" lon="8.735957229789163"><ele>497.0</ele><time>2026-04-17T19:06:33Z</time></trkpt><trkpt lat="47.338953559543214" lon="8.736007888408166"><ele>497.0</ele><time>2026-04-17T19:06:34Z</time></trkpt><trkpt lat="47.338878724530495" lon="8.73605854028475"><ele>497.0</ele><time>2026-04-17T19:06:35Z</time></trkpt><trkpt lat="47.33880397972761" lon="8.736109133893182"><ele>496.99999999999994</ele><time>2026-04-17T19:06:36Z</time></trkpt><trkpt lat="47.33872763518591" lon="8.736162326744862"><ele>497.0</ele><time>2026-04-17T19:06:37Z</time></trkpt><trkpt lat="47.33865045017214" lon="8.736213025610569"><ele>496.99999999999994</ele><time>2026-04-17T19:06:38Z</time></trkpt><trkpt lat="47.33857294461857" lon="8.73626393502446"><ele>497.0</ele><time>2026-04-17T19:06:39Z</time></trkpt><trkpt lat="47.338495026442" lon="8.736314844512304"><ele>497.0</ele><time>2026-04-17T19:06:40Z</time></trkpt><trkpt lat="47.33841752426257" lon="8.736365103246094"><ele>497.0</ele><time>2026-04-17T19:06:41Z</time></trkpt><trkpt lat="47.33833980470232" lon="8.736415506934614"><ele>496.99999999999994</ele><time>2026-04-17T19:06:42Z</time></trkpt><trkpt lat="47.33826070182439" lon="8.736466803649137"><ele>497.0</ele><time>2026-04-17T19:06:43Z</time></trkpt><trkpt lat="47.33818271263443" lon="8.736516866655085"><ele>496.99999999999994</ele><time>2026-04-17T19:06:44Z</time></trkpt><trkpt lat="47.33810449259803" lon="8.73656580180802"><ele>497.0</ele><time>2026-04-17T19:06:45Z</time></trkpt><trkpt lat="47.33802377147514" lon="8.73661460624791"><ele>497.0</ele><time>2026-04-17T19:06:46Z</time></trkpt><trkpt lat="47.33794162242049" lon="8.736658575494694"><ele>497.0</ele><time>2026-04-17T19:06:47Z</time></trkpt><trkpt lat="47.33785593021768" lon="8.736698137146295"><ele>496.99999999999994</ele><time>2026-04-17T19:06:48Z</time></trkpt><trkpt lat="47.337773081113674" lon="8.73673483843912"><ele>497.0</ele><time>2026-04-17T19:06:49Z</time></trkpt><trkpt lat="47.337691797608606" lon="8.736769492607246"><ele>496.99999999999994</ele><time>2026-04-17T19:06:50Z</time></trkpt><trkpt lat="47.3376075476675" lon="8.736804963378251"><ele>497.0</ele><time>2026-04-17T19:06:51Z</time></trkpt><trkpt lat="47.33752248178301" lon="8.73683615071452"><ele>497.0</ele><time>2026-04-17T19:06:52Z</time></trkpt><trkpt lat="47.33744097232927" lon="8.736859836696134"><ele>497.0</ele><time>2026-04-17T19:06:53Z</time></trkpt><trkpt lat="47.33735608628873" lon="8.736876042279814"><ele>496.99999999999994</ele><time>2026-04-17T19:06:54Z</time></trkpt><trkpt lat="47.337284165222336" lon="8.736888763489315"><ele>497.0</ele><time>2026-04-17T19:06:55Z</time></trkpt><trkpt lat="47.337175261385745" lon="8.7369080261317"><ele>497.3333333333333</ele><time>2026-04-17T19:06:57Z</time></trkpt><trkpt lat="47.33707577742276" lon="8.736925622523449"><ele>497.66666666666663</ele><time>2026-04-17T19:06:59Z</time></trkpt><trkpt lat="47.33695902911955" lon="8.736914860301178"><ele>498.0</ele><time>2026-04-17T19:07:01Z</time></trkpt><trkpt lat="47.336895330707016" lon="8.736932936371296"><ele>498.33333333333337</ele><time>2026-04-17T19:07:02Z</time></trkpt><trkpt lat="47.33682738853068" lon="8.736954875844237"><ele>498.6666666666667</ele><time>2026-04-17T19:07:03Z</time></trkpt><trkpt lat="47.336753822692096" lon="8.736963279129043"><ele>499.0</ele><time>2026-04-17T19:07:04Z</time></trkpt><trkpt lat="47.33668316186396" lon="8.736997719300701"><ele>499.00000000000006</ele><time>2026-04-17T19:07:05Z</time></trkpt><trkpt lat="47.336612558230264" lon="8.737036588539489"><ele>499.0</ele><time>2026-04-17T19:07:06Z</time></trkpt><trkpt lat="47.33654186936553" lon="8.737079410450436"><ele>499.0</ele><time>2026-04-17T19:07:07Z</time></trkpt><trkpt lat="47.33647103150955" lon="8.737123393763964"><ele>499.0</ele><time>2026-04-17T19:07:08Z</time></trkpt><trkpt lat="47.33639958453286" lon="8.737166637029013"><ele>499.00000000000006</ele><time>2026-04-17T19:07:09Z</time></trkpt><trkpt lat="47.336329983061916" lon="8.737215521564098"><ele>499.0</ele><time>2026-04-17T19:07:10Z</time></trkpt><trkpt lat="47.33626250836067" lon="8.737270039187397"><ele>499.33333333333337</ele><time>2026-04-17T19:07:11Z</time></trkpt><trkpt lat="47.33619968367591" lon="8.737330378401532"><ele>499.6666666666667</ele><time>2026-04-17T19:07:12Z</time></trkpt><trkpt lat="47.33613610976867" lon="8.73738789763498"><ele>500.0</ele><time>2026-04-17T19:07:13Z</time></trkpt><trkpt lat="47.33607143678683" lon="8.737446539954558"><ele>500.33333333333337</ele><time>2026-04-17T19:07:14Z</time></trkpt><trkpt lat="47.33600907876223" lon="8.737513228410943"><ele>500.6666666666667</ele><time>2026-04-17T19:07:15Z</time></trkpt><trkpt lat="47.335947249268536" lon="8.737581948250483"><ele>501.0</ele><time>2026-04-17T19:07:16Z</time></trkpt><trkpt lat="47.33588884188901" lon="8.737659744327898"><ele>501.1666666666667</ele><time>2026-04-17T19:07:17Z</time></trkpt><trkpt lat="47.33582907846897" lon="8.737736952148056"><ele>501.33333333333337</ele><time>2026-04-17T19:07:18Z</time></trkpt><trkpt lat="47.33576877439237" lon="8.737816897068676"><ele>501.5</ele><time>2026-04-17T19:07:19Z</time></trkpt><trkpt lat="47.3357117819274" lon="8.737902750594973"><ele>501.6666666666667</ele><time>2026-04-17T19:07:20Z</time></trkpt><trkpt lat="47.335657768309986" lon="8.737991886366334"><ele>501.83333333333337</ele><time>2026-04-17T19:07:21Z</time></trkpt><trkpt lat="47.335605014673504" lon="8.73808449510553"><ele>502.0</ele><time>2026-04-17T19:07:22Z</time></trkpt><trkpt lat="47.33555169075072" lon="8.738177441804394"><ele>501.6666666666667</ele><time>2026-04-17T19:07:23Z</time></trkpt><trkpt lat="47.33549940261158" lon="8.738275476349271"><ele>501.33333333333337</ele><time>2026-04-17T19:07:24Z</time></trkpt><trkpt lat="47.335448845985816" lon="8.7383762657211"><ele>501.0</ele><time>2026-04-17T19:07:25Z</time></trkpt><trkpt lat="47.33539646011064" lon="8.738478051457099"><ele>500.66666666666663</ele><time>2026-04-17T19:07:26Z</time></trkpt><trkpt lat="47.3353427018468" lon="8.738577780623304"><ele>500.3333333333333</ele><time>2026-04-17T19:07:27Z</time></trkpt><trkpt lat="47.335288186952" lon="8.738681934969307"><ele>500.0</ele><time>2026-04-17T19:07:28Z</time></trkpt><trkpt lat="47.335234691097845" lon="8.738789468246747"><ele>500.0</ele><time>2026-04-17T19:07:29Z</time></trkpt><trkpt lat="47.33518010697804" lon="8.738898874182528"><ele>500.0</ele><time>2026-04-17T19:07:30Z</time></trkpt><trkpt lat="47.33512423703754" lon="8.73900668454138"><ele>500.0</ele><time>2026-04-17T19:07:31Z</time></trkpt><trkpt lat="47.33506679449562" lon="8.73911616540632"><ele>500.0</ele><time>2026-04-17T19:07:32Z</time></trkpt><trkpt lat="47.33500676548115" lon="8.739224433771945"><ele>500.0</ele><time>2026-04-17T19:07:33Z</time></trkpt><trkpt lat="47.33494559984025" lon="8.739332320571235"><ele>499.8333333333333</ele><time>2026-04-17T19:07:34Z</time></trkpt><trkpt lat="47.33488339560519" lon="8.739440322763244"><ele>499.66666666666663</ele><time>2026-04-17T19:07:35Z</time></trkpt><trkpt lat="47.33481980904883" lon="8.73953937168505"><ele>499.5</ele><time>2026-04-17T19:07:36Z</time></trkpt><trkpt lat="47.33476152022237" lon="8.739639307656134"><ele>499.33333333333337</ele><time>2026-04-17T19:07:37Z</time></trkpt><trkpt lat="47.33470953832531" lon="8.739727625419489"><ele>499.1666666666667</ele><time>2026-04-17T19:07:38Z</time></trkpt><trkpt lat="47.33466487598465" lon="8.739802152890515"><ele>499.0</ele><time>2026-04-17T19:07:39Z</time></trkpt><trkpt lat="47.33458166855228" lon="8.739935312616964"><ele>498.79999999999995</ele><time>2026-04-17T19:07:41Z</time></trkpt><trkpt lat="47.33450366436792" lon="8.740046291759237"><ele>498.59999999999997</ele><time>2026-04-17T19:07:43Z</time></trkpt><trkpt lat="47.33442928056371" lon="8.740149516005737"><ele>498.4</ele><time>2026-04-17T19:07:45Z</time></trkpt><trkpt lat="47.33434739388311" lon="8.740305413848539"><ele>498.2</ele><time>2026-04-17T19:07:47Z</time></trkpt><trkpt lat="47.33429397198309" lon="8.740386456396704"><ele>498.0</ele><time>2026-04-17T19:07:48Z</time></trkpt><trkpt lat="47.334237076100685" lon="8.740471255996374"><ele>498.0</ele><time>2026-04-17T19:07:49Z</time></trkpt><trkpt lat="47.334180880356655" lon="8.74055113657103"><ele>498.0</ele><time>2026-04-17T19:07:50Z</time></trkpt><trkpt lat="47.33411824850278" lon="8.74061561273338"><ele>498.0</ele><time>2026-04-17T19:07:51Z</time></trkpt><trkpt lat="47.334060321215084" lon="8.740695093543346"><ele>498.0</ele><time>2026-04-17T19:07:52Z</time></trkpt><trkpt lat="47.33399704157596" lon="8.740771780117534"><ele>498.0</ele><time>2026-04-17T19:07:53Z</time></trkpt><trkpt lat="47.33393708284653" lon="8.740849963622429"><ele>498.0</ele><time>2026-04-17T19:07:54Z</time></trkpt><trkpt lat="47.333879806410295" lon="8.740926466829572"><ele>497.6666666666667</ele><time>2026-04-17T19:07:55Z</time></trkpt><trkpt lat="47.33382058126348" lon="8.740995249733395"><ele>497.33333333333337</ele><time>2026-04-17T19:07:56Z</time></trkpt><trkpt lat="47.3337521979289" lon="8.741055881231185"><ele>497.0</ele><time>2026-04-17T19:07:57Z</time></trkpt><trkpt lat="47.333680906109" lon="8.741112899636018"><ele>496.6666666666667</ele><time>2026-04-17T19:07:58Z</time></trkpt><trkpt lat="47.33360565076046" lon="8.741159477599194"><ele>496.33333333333337</ele><time>2026-04-17T19:07:59Z</time></trkpt><trkpt lat="47.33352920871776" lon="8.741205045168186"><ele>496.0</ele><time>2026-04-17T19:08:00Z</time></trkpt><trkpt lat="47.3334512145726" lon="8.741247031349644"><ele>496.00000000000006</ele><time>2026-04-17T19:08:01Z</time></trkpt><trkpt lat="47.33337181640291" lon="8.74128326324578"><ele>496.0</ele><time>2026-04-17T19:08:02Z</time></trkpt><trkpt lat="47.33329049896488" lon="8.741312262456152"><ele>496.0</ele><time>2026-04-17T19:08:03Z</time></trkpt><trkpt lat="47.33320970072039" lon="8.741338882329472"><ele>496.0</ele><time>2026-04-17T19:08:04Z</time></trkpt><trkpt lat="47.3331266219045" lon="8.741357280551236"><ele>496.00000000000006</ele><time>2026-04-17T19:08:05Z</time></trkpt><trkpt lat="47.33304493148722" lon="8.741380119150202"><ele>496.0</ele><time>2026-04-17T19:08:06Z</time></trkpt><trkpt lat="47.33296515428291" lon="8.741403556807255"><ele>495.6666666666667</ele><time>2026-04-17T19:08:07Z</time></trkpt><trkpt lat="47.33289869551646" lon="8.74142404868867"><ele>495.33333333333337</ele><time>2026-04-17T19:08:08Z</time></trkpt><trkpt lat="47.332772811980895" lon="8.741432430997392"><ele>495.0</ele><time>2026-04-17T19:08:10Z</time></trkpt><trkpt lat="47.33270172811633" lon="8.741455202632183"><ele>494.66666666666663</ele><time>2026-04-17T19:08:11Z</time></trkpt><trkpt lat="47.332631734492075" lon="8.741484024461053"><ele>494.3333333333333</ele><time>2026-04-17T19:08:12Z</time></trkpt><trkpt lat="47.33255939773629" lon="8.741519757532123"><ele>494.0</ele><time>2026-04-17T19:08:13Z</time></trkpt><trkpt lat="47.33248531379921" lon="8.741559820579154"><ele>493.99999999999994</ele><time>2026-04-17T19:08:14Z</time></trkpt><trkpt lat="47.332412106149" lon="8.741611900468746"><ele>494.0</ele><time>2026-04-17T19:08:15Z</time></trkpt><trkpt lat="47.332338324847974" lon="8.741662097338518"><ele>494.0</ele><time>2026-04-17T19:08:16Z</time></trkpt><trkpt lat="47.332267457275904" lon="8.741715909199069"><ele>494.0</ele><time>2026-04-17T19:08:17Z</time></trkpt><trkpt lat="47.33220310534944" lon="8.741771214472353"><ele>493.99999999999994</ele><time>2026-04-17T19:08:18Z</time></trkpt><trkpt lat="47.332142061619386" lon="8.741829101122686"><ele>494.0</ele><time>2026-04-17T19:08:19Z</time></trkpt><trkpt lat="47.332080458106105" lon="8.741888796538573"><ele>494.49999999999994</ele><time>2026-04-17T19:08:20Z</time></trkpt><trkpt lat="47.332019985628705" lon="8.741955406540619"><ele>495.0</ele><time>2026-04-17T19:08:21Z</time></trkpt><trkpt lat="47.33196324948951" lon="8.742032940528967"><ele>495.5</ele><time>2026-04-17T19:08:22Z</time></trkpt><trkpt lat="47.331906954488524" lon="8.74211261144492"><ele>496.0</ele><time>2026-04-17T19:08:23Z</time></trkpt><trkpt lat="47.331853914272685" lon="8.742197609055621"><ele>496.49999999999994</ele><time>2026-04-17T19:08:24Z</time></trkpt><trkpt lat="47.331812784601226" lon="8.742297381634767"><ele>497.0</ele><time>2026-04-17T19:08:25Z</time></trkpt><trkpt lat="47.33176755930697" lon="8.742390720115688"><ele>496.99999999999994</ele><time>2026-04-17T19:08:26Z</time></trkpt><trkpt lat="47.33171805886601" lon="8.742481296683941"><ele>497.0</ele><time>2026-04-17T19:08:27Z</time></trkpt><trkpt lat="47.3316695672187" lon="8.742571829207435"><ele>497.0</ele><time>2026-04-17T19:08:28Z</time></trkpt><trkpt lat="47.33161918081704" lon="8.742661100790055"><ele>497.0</ele><time>2026-04-17T19:08:29Z</time></trkpt><trkpt lat="47.33156437830414" lon="8.742743972909214"><ele>496.99999999999994</ele><time>2026-04-17T19:08:30Z</time></trkpt><trkpt lat="47.33151081353372" lon="8.74282424247291"><ele>497.0</ele><time>2026-04-17T19:08:31Z</time></trkpt><trkpt lat="47.33145873159501" lon="8.742909616756906"><ele>497.16666666666663</ele><time>2026-04-17T19:08:32Z</time></trkpt><trkpt lat="47.33140681976352" lon="8.74299717531249"><ele>497.3333333333333</ele><time>2026-04-17T19:08:33Z</time></trkpt><trkpt lat="47.33135447786176" lon="8.743083226012185"><ele>497.5</ele><time>2026-04-17T19:08:34Z</time></trkpt><trkpt lat="47.33129941267149" lon="8.743164463979712"><ele>497.66666666666663</ele><time>2026-04-17T19:08:35Z</time></trkpt><trkpt lat="47.331240654224544" lon="8.743237506271816"><ele>497.8333333333333</ele><time>2026-04-17T19:08:36Z</time></trkpt><trkpt lat="47.33118189941784" lon="8.743307641087243"><ele>498.0</ele><time>2026-04-17T19:08:37Z</time></trkpt><trkpt lat="47.3311238321626" lon="8.743379953782991"><ele>498.0</ele><time>2026-04-17T19:08:38Z</time></trkpt><trkpt lat="47.331066246172185" lon="8.743442489687803"><ele>497.99999999999994</ele><time>2026-04-17T19:08:39Z</time></trkpt><trkpt lat="47.331005527601825" lon="8.743499985480334"><ele>498.0</ele><time>2026-04-17T19:08:40Z</time></trkpt><trkpt lat="47.3309433056793" lon="8.743550409152983"><ele>498.0</ele><time>2026-04-17T19:08:41Z</time></trkpt><trkpt lat="47.33088075315866" lon="8.743593640939272"><ele>497.99999999999994</ele><time>2026-04-17T19:08:42Z</time></trkpt><trkpt lat="47.33081699077171" lon="8.74363306844845"><ele>498.0</ele><time>2026-04-17T19:08:43Z</time></trkpt><trkpt lat="47.330754963761066" lon="8.743674837553879"><ele>498.0</ele><time>2026-04-17T19:08:44Z</time></trkpt><trkpt lat="47.33069334587077" lon="8.743714371331361"><ele>498.0</ele><time>2026-04-17T19:08:45Z</time></trkpt><trkpt lat="47.330630082615876" lon="8.74374852233558"><ele>497.99999999999994</ele><time>2026-04-17T19:08:46Z</time></trkpt><trkpt lat="47.33056559002262" lon="8.743776984310259"><ele>498.0</ele><time>2026-04-17T19:08:47Z</time></trkpt><trkpt lat="47.33050071853475" lon="8.74380306218757"><ele>498.0</ele><time>2026-04-17T19:08:48Z</time></trkpt><trkpt lat="47.33043643345583" lon="8.743834157679649"><ele>497.99999999999994</ele><time>2026-04-17T19:08:49Z</time></trkpt><trkpt lat="47.330371114978966" lon="8.743864778120502"><ele>498.0</ele><time>2026-04-17T19:08:50Z</time></trkpt><trkpt lat="47.33030401554486" lon="8.743892158114054"><ele>498.0</ele><time>2026-04-17T19:08:51Z</time></trkpt><trkpt lat="47.330237524729206" lon="8.74392138521077"><ele>500.2857142857143</ele><time>2026-04-17T19:08:52Z</time></trkpt><trkpt lat="47.330175330580936" lon="8.743953676711277"><ele>502.57142857142856</ele><time>2026-04-17T19:08:53Z</time></trkpt><trkpt lat="47.33011089357022" lon="8.74398078490772"><ele>504.85714285714283</ele><time>2026-04-17T19:08:54Z</time></trkpt><trkpt lat="47.330047517093476" lon="8.744005702844913"><ele>507.1428571428571</ele><time>2026-04-17T19:08:55Z</time></trkpt><trkpt lat="47.32997922794924" lon="8.744031413482663"><ele>509.42857142857144</ele><time>2026-04-17T19:08:56Z</time></trkpt><trkpt lat="47.329919109929286" lon="8.744064400947813"><ele>511.71428571428567</ele><time>2026-04-17T19:08:57Z</time></trkpt><trkpt lat="47.32985413644697" lon="8.74409363428318"><ele>514.0</ele><time>2026-04-17T19:08:58Z</time></trkpt><trkpt lat="47.32978913446519" lon="8.744125755742466"><ele>514.0</ele><time>2026-04-17T19:08:59Z</time></trkpt><trkpt lat="47.3297254889073" lon="8.744157113401029"><ele>514.0</ele><time>2026-04-17T19:09:00Z</time></trkpt><trkpt lat="47.32965878625646" lon="8.744188681447543"><ele>514.0</ele><time>2026-04-17T19:09:01Z</time></trkpt><trkpt lat="47.32958964782019" lon="8.744219988227883"><ele>514.0</ele><time>2026-04-17T19:09:02Z</time></trkpt><trkpt lat="47.329519354972724" lon="8.74425417326949"><ele>514.0</ele><time>2026-04-17T19:09:03Z</time></trkpt><trkpt lat="47.32944542716482" lon="8.744283792442799"><ele>514.0</ele><time>2026-04-17T19:09:04Z</time></trkpt><trkpt lat="47.32937205099349" lon="8.744319235116985"><ele>514.0</ele><time>2026-04-17T19:09:05Z</time></trkpt><trkpt lat="47.329301191880816" lon="8.744363107425695"><ele>513.8333333333334</ele><time>2026-04-17T19:09:06Z</time></trkpt><trkpt lat="47.329229968836856" lon="8.744412211432953"><ele>513.6666666666667</ele><time>2026-04-17T19:09:07Z</time></trkpt><trkpt lat="47.32915832111608" lon="8.744454634461494"><ele>513.5</ele><time>2026-04-17T19:09:08Z</time></trkpt><trkpt lat="47.32908263936051" lon="8.744494304482968"><ele>513.3333333333334</ele><time>2026-04-17T19:09:09Z</time></trkpt><trkpt lat="47.32900464585975" lon="8.744525852832838"><ele>513.1666666666666</ele><time>2026-04-17T19:09:10Z</time></trkpt><trkpt lat="47.32892626878285" lon="8.744557196494021"><ele>513.0</ele><time>2026-04-17T19:09:11Z</time></trkpt><trkpt lat="47.32885443632005" lon="8.744591417805687"><ele>512.0</ele><time>2026-04-17T19:09:12Z</time></trkpt><trkpt lat="47.32878395780473" lon="8.744623137820678"><ele>511.0</ele><time>2026-04-17T19:09:13Z</time></trkpt><trkpt lat="47.328714318231185" lon="8.744653102600534"><ele>510.0</ele><time>2026-04-17T19:09:14Z</time></trkpt><trkpt lat="47.32865030533729" lon="8.744702464937008"><ele>509.0</ele><time>2026-04-17T19:09:15Z</time></trkpt><trkpt lat="47.32857839573222" lon="8.74474667576098"><ele>508.0</ele><time>2026-04-17T19:09:16Z</time></trkpt><trkpt lat="47.32850459420579" lon="8.744794636015369"><ele>507.0</ele><time>2026-04-17T19:09:17Z</time></trkpt><trkpt lat="47.32842558904642" lon="8.744842164700447"><ele>507.0</ele><time>2026-04-17T19:09:18Z</time></trkpt><trkpt lat="47.32834476200567" lon="8.744893600905717"><ele>507.0</ele><time>2026-04-17T19:09:19Z</time></trkpt><trkpt lat="47.328264750248316" lon="8.744946705583011"><ele>507.0</ele><time>2026-04-17T19:09:20Z</time></trkpt><trkpt lat="47.32819695861285" lon="8.745005004225382"><ele>507.0</ele><time>2026-04-17T19:09:21Z</time></trkpt><trkpt lat="47.32813494111915" lon="8.745072439594997"><ele>507.0</ele><time>2026-04-17T19:09:22Z</time></trkpt><trkpt lat="47.32808398869021" lon="8.74515467516436"><ele>507.0</ele><time>2026-04-17T19:09:23Z</time></trkpt><trkpt lat="47.32804152291415" lon="8.745246231623671"><ele>505.8333333333333</ele><time>2026-04-17T19:09:24Z</time></trkpt><trkpt lat="47.32799362685764" lon="8.74533565751735"><ele>504.66666666666663</ele><time>2026-04-17T19:09:25Z</time></trkpt><trkpt lat="47.327943374019675" lon="8.745423906727142"><ele>503.5</ele><time>2026-04-17T19:09:26Z</time></trkpt><trkpt lat="47.32789503778768" lon="8.745515001925645"><ele>502.3333333333333</ele><time>2026-04-17T19:09:27Z</time></trkpt><trkpt lat="47.32784366088369" lon="8.745610573417649"><ele>501.16666666666663</ele><time>2026-04-17T19:09:28Z</time></trkpt><trkpt lat="47.327795416245145" lon="8.745705907163053"><ele>500.0</ele><time>2026-04-17T19:09:29Z</time></trkpt><trkpt lat="47.327749186092795" lon="8.745795307984075"><ele>500.0</ele><time>2026-04-17T19:09:30Z</time></trkpt><trkpt lat="47.32769465196817" lon="8.74587033743383"><ele>500.0</ele><time>2026-04-17T19:09:31Z</time></trkpt><trkpt lat="47.3276296052175" lon="8.745917478475583"><ele>500.0</ele><time>2026-04-17T19:09:32Z</time></trkpt><trkpt lat="47.327559384976404" lon="8.745941323386152"><ele>500.0</ele><time>2026-04-17T19:09:33Z</time></trkpt><trkpt lat="47.32748974611413" lon="8.74596176259886"><ele>500.0</ele><time>2026-04-17T19:09:34Z</time></trkpt><trkpt lat="47.3274176364175" lon="8.745968679548348"><ele>500.0</ele><time>2026-04-17T19:09:35Z</time></trkpt><trkpt lat="47.3273433900768" lon="8.745969404226832"><ele>500.0</ele><time>2026-04-17T19:09:36Z</time></trkpt><trkpt lat="47.32727019356015" lon="8.745982620491539"><ele>499.42857142857144</ele><time>2026-04-17T19:09:37Z</time></trkpt><trkpt lat="47.32720216671015" lon="8.746006651085041"><ele>498.8571428571429</ele><time>2026-04-17T19:09:38Z</time></trkpt><trkpt lat="47.32713757500069" lon="8.746064007263207"><ele>498.28571428571433</ele><time>2026-04-17T19:09:39Z</time></trkpt><trkpt lat="47.32707740086077" lon="8.746132134496952"><ele>497.7142857142857</ele><time>2026-04-17T19:09:40Z</time></trkpt><trkpt lat="47.32701814212485" lon="8.746204295655449"><ele>497.1428571428572</ele><time>2026-04-17T19:09:41Z</time></trkpt><trkpt lat="47.3269594701095" lon="8.746274206344292"><ele>496.5714285714286</ele><time>2026-04-17T19:09:42Z</time></trkpt><trkpt lat="47.32690215093035" lon="8.746343896223234"><ele>496.0</ele><time>2026-04-17T19:09:43Z</time></trkpt><trkpt lat="47.32684413384599" lon="8.74641152442884"><ele>496.0</ele><time>2026-04-17T19:09:44Z</time></trkpt><trkpt lat="47.326786540312455" lon="8.74647989315689"><ele>496.00000000000006</ele><time>2026-04-17T19:09:45Z</time></trkpt><trkpt lat="47.32673030643189" lon="8.746550370213763"><ele>496.0</ele><time>2026-04-17T19:09:46Z</time></trkpt><trkpt lat="47.32667311268865" lon="8.746619638870321"><ele>496.0</ele><time>2026-04-17T19:09:47Z</time></trkpt><trkpt lat="47.326616216305595" lon="8.7466840763936"><ele>496.00000000000006</ele><time>2026-04-17T19:09:48Z</time></trkpt><trkpt lat="47.326556724833196" lon="8.746747782262762"><ele>496.0</ele><time>2026-04-17T19:09:49Z</time></trkpt><trkpt lat="47.326494747537744" lon="8.7468119048912"><ele>496.0</ele><time>2026-04-17T19:09:50Z</time></trkpt><trkpt lat="47.3264298790629" lon="8.746878759439728"><ele>495.83333333333337</ele><time>2026-04-17T19:09:51Z</time></trkpt><trkpt lat="47.32636334921917" lon="8.746947488187782"><ele>495.6666666666667</ele><time>2026-04-17T19:09:52Z</time></trkpt><trkpt lat="47.32629486917631" lon="8.74701764569802"><ele>495.5</ele><time>2026-04-17T19:09:53Z</time></trkpt><trkpt lat="47.326224099643156" lon="8.74708517962362"><ele>495.33333333333337</ele><time>2026-04-17T19:09:54Z</time></trkpt><trkpt lat="47.32614967204892" lon="8.747150753654319"><ele>495.1666666666667</ele><time>2026-04-17T19:09:55Z</time></trkpt><trkpt lat="47.32607532896496" lon="8.747218570689306"><ele>495.0</ele><time>2026-04-17T19:09:56Z</time></trkpt><trkpt lat="47.3260036322093" lon="8.747290461084535"><ele>495.0</ele><time>2026-04-17T19:09:57Z</time></trkpt><trkpt lat="47.32593023682628" lon="8.747356390300224"><ele>495.0</ele><time>2026-04-17T19:09:58Z</time></trkpt><trkpt lat="47.32585719455447" lon="8.747420358668586"><ele>495.0</ele><time>2026-04-17T19:09:59Z</time></trkpt><trkpt lat="47.32578382356723" lon="8.747481157704735"><ele>495.0</ele><time>2026-04-17T19:10:00Z</time></trkpt><trkpt lat="47.32570977006141" lon="8.747533934524585"><ele>495.0</ele><time>2026-04-17T19:10:01Z</time></trkpt><trkpt lat="47.32563740482661" lon="8.747585573501171"><ele>495.0</ele><time>2026-04-17T19:10:02Z</time></trkpt><trkpt lat="47.32556999952954" lon="8.74764478653302"><ele>495.3333333333333</ele><time>2026-04-17T19:10:03Z</time></trkpt><trkpt lat="47.32550631504501" lon="8.747711188221524"><ele>495.66666666666663</ele><time>2026-04-17T19:10:04Z</time></trkpt><trkpt lat="47.32544451915985" lon="8.747778575907908"><ele>496.0</ele><time>2026-04-17T19:10:05Z</time></trkpt><trkpt lat="47.3253867134289" lon="8.747852732989783"><ele>496.3333333333333</ele><time>2026-04-17T19:10:06Z</time></trkpt><trkpt lat="47.32533092607567" lon="8.747929385032405"><ele>496.66666666666663</ele><time>2026-04-17T19:10:07Z</time></trkpt><trkpt lat="47.32527850120196" lon="8.748011761504078"><ele>497.0</ele><time>2026-04-17T19:10:08Z</time></trkpt><trkpt lat="47.32522816040296" lon="8.748095920330275"><ele>496.99999999999994</ele><time>2026-04-17T19:10:09Z</time></trkpt><trkpt lat="47.32518069815869" lon="8.748184700044236"><ele>497.0</ele><time>2026-04-17T19:10:10Z</time></trkpt><trkpt lat="47.32513316885505" lon="8.748271759174628"><ele>497.0</ele><time>2026-04-17T19:10:11Z</time></trkpt><trkpt lat="47.32508547402307" lon="8.748360486293521"><ele>497.0</ele><time>2026-04-17T19:10:12Z</time></trkpt><trkpt lat="47.32503770221144" lon="8.748448207180243"><ele>496.99999999999994</ele><time>2026-04-17T19:10:13Z</time></trkpt><trkpt lat="47.32498999252019" lon="8.748536258102538"><ele>497.0</ele><time>2026-04-17T19:10:14Z</time></trkpt><trkpt lat="47.32494362802596" lon="8.74862550736983"><ele>497.3333333333333</ele><time>2026-04-17T19:10:15Z</time></trkpt><trkpt lat="47.32489773004964" lon="8.748716058241001"><ele>497.66666666666663</ele><time>2026-04-17T19:10:16Z</time></trkpt><trkpt lat="47.32485145045838" lon="8.748803832156577"><ele>498.0</ele><time>2026-04-17T19:10:17Z</time></trkpt><trkpt lat="47.32480219871353" lon="8.748888969974141"><ele>498.33333333333337</ele><time>2026-04-17T19:10:18Z</time></trkpt><trkpt lat="47.32475328437626" lon="8.748973142028053"><ele>498.6666666666667</ele><time>2026-04-17T19:10:19Z</time></trkpt><trkpt lat="47.324706145439734" lon="8.749059530197199"><ele>499.0</ele><time>2026-04-17T19:10:20Z</time></trkpt><trkpt lat="47.32465966855396" lon="8.74914716182044"><ele>499.00000000000006</ele><time>2026-04-17T19:10:21Z</time></trkpt><trkpt lat="47.32461248896074" lon="8.749234152711981"><ele>499.0</ele><time>2026-04-17T19:10:22Z</time></trkpt><trkpt lat="47.324565187596235" lon="8.74932107693535"><ele>499.0</ele><time>2026-04-17T19:10:23Z</time></trkpt><trkpt lat="47.32451770988254" lon="8.749408282034418"><ele>499.0</ele><time>2026-04-17T19:10:24Z</time></trkpt><trkpt lat="47.32447154128618" lon="8.74949708275017"><ele>499.00000000000006</ele><time>2026-04-17T19:10:25Z</time></trkpt><trkpt lat="47.324426529087745" lon="8.749586583704856"><ele>499.0</ele><time>2026-04-17T19:10:26Z</time></trkpt><trkpt lat="47.32438128659842" lon="8.749676430434723"><ele>499.83333333333337</ele><time>2026-04-17T19:10:27Z</time></trkpt><trkpt lat="47.32433538811334" lon="8.749765134789511"><ele>500.6666666666667</ele><time>2026-04-17T19:10:28Z</time></trkpt><trkpt lat="47.32428999560211" lon="8.749854912092584"><ele>501.5</ele><time>2026-04-17T19:10:29Z</time></trkpt><trkpt lat="47.3242449848013" lon="8.749946267659427"><ele>502.33333333333337</ele><time>2026-04-17T19:10:30Z</time></trkpt><trkpt lat="47.324200417628305" lon="8.750037485423885"><ele>503.1666666666667</ele><time>2026-04-17T19:10:31Z</time></trkpt><trkpt lat="47.324154755015584" lon="8.750128493453987"><ele>504.0</ele><time>2026-04-17T19:10:32Z</time></trkpt><trkpt lat="47.32410976655794" lon="8.750220275223366"><ele>504.3333333333333</ele><time>2026-04-17T19:10:33Z</time></trkpt><trkpt lat="47.32406642171161" lon="8.750314311780258"><ele>504.66666666666663</ele><time>2026-04-17T19:10:34Z</time></trkpt><trkpt lat="47.32402378547841" lon="8.750409735000137"><ele>505.0</ele><time>2026-04-17T19:10:35Z</time></trkpt><trkpt lat="47.32398150533049" lon="8.75050522850997"><ele>505.3333333333333</ele><time>2026-04-17T19:10:36Z</time></trkpt><trkpt lat="47.32393925079775" lon="8.750600299190905"><ele>505.66666666666663</ele><time>2026-04-17T19:10:37Z</time></trkpt><trkpt lat="47.323896523069244" lon="8.75069481079399"><ele>506.0</ele><time>2026-04-17T19:10:38Z</time></trkpt><trkpt lat="47.32385369174839" lon="8.750789246291271"><ele>505.99999999999994</ele><time>2026-04-17T19:10:39Z</time></trkpt><trkpt lat="47.3238106095192" lon="8.75088375303877"><ele>506.0</ele><time>2026-04-17T19:10:40Z</time></trkpt><trkpt lat="47.323770900592976" lon="8.750980503759674"><ele>506.0</ele><time>2026-04-17T19:10:41Z</time></trkpt><trkpt lat="47.323736084278146" lon="8.751081464075295"><ele>506.0</ele><time>2026-04-17T19:10:42Z</time></trkpt><trkpt lat="47.323708287655066" lon="8.7511878039323"><ele>505.99999999999994</ele><time>2026-04-17T19:10:43Z</time></trkpt><trkpt lat="47.32368985999495" lon="8.751300196958807"><ele>506.0</ele><time>2026-04-17T19:10:44Z</time></trkpt><trkpt lat="47.32367676352455" lon="8.751412822254487"><ele>506.3333333333333</ele><time>2026-04-17T19:10:45Z</time></trkpt><trkpt lat="47.3236704446053" lon="8.751526684608995"><ele>506.66666666666663</ele><time>2026-04-17T19:10:46Z</time></trkpt><trkpt lat="47.32366854178443" lon="8.751642368252115"><ele>507.0</ele><time>2026-04-17T19:10:47Z</time></trkpt><trkpt lat="47.32367729350224" lon="8.751756541757079"><ele>507.33333333333337</ele><time>2026-04-17T19:10:48Z</time></trkpt><trkpt lat="47.323694237051726" lon="8.75186867581045"><ele>507.6666666666667</ele><time>2026-04-17T19:10:49Z</time></trkpt><trkpt lat="47.323714134968654" lon="8.751981287708126"><ele>508.0</ele><time>2026-04-17T19:10:50Z</time></trkpt><trkpt lat="47.323733545762416" lon="8.752093179279017"><ele>508.33333333333337</ele><time>2026-04-17T19:10:51Z</time></trkpt><trkpt lat="47.32375102996996" lon="8.75220600445068"><ele>508.6666666666667</ele><time>2026-04-17T19:10:52Z</time></trkpt><trkpt lat="47.323767643493376" lon="8.752318121438023"><ele>509.0</ele><time>2026-04-17T19:10:53Z</time></trkpt><trkpt lat="47.32378512249254" lon="8.752430336337962"><ele>509.33333333333337</ele><time>2026-04-17T19:10:54Z</time></trkpt><trkpt lat="47.32380321236697" lon="8.752542131726605"><ele>509.6666666666667</ele><time>2026-04-17T19:10:55Z</time></trkpt><trkpt lat="47.32382336867216" lon="8.752652936726777"><ele>510.0</ele><time>2026-04-17T19:10:56Z</time></trkpt><trkpt lat="47.3238423089819" lon="8.752764088625137"><ele>510.5</ele><time>2026-04-17T19:10:57Z</time></trkpt><trkpt lat="47.323860365722645" lon="8.752876307595594"><ele>511.0</ele><time>2026-04-17T19:10:58Z</time></trkpt><trkpt lat="47.32387850002778" lon="8.752987978574353"><ele>511.5</ele><time>2026-04-17T19:10:59Z</time></trkpt><trkpt lat="47.32389677832296" lon="8.753098490855947"><ele>512.0</ele><time>2026-04-17T19:11:00Z</time></trkpt><trkpt lat="47.32391309501931" lon="8.753210960441443"><ele>512.5</ele><time>2026-04-17T19:11:01Z</time></trkpt><trkpt lat="47.32392909286881" lon="8.753322866794976"><ele>513.0</ele><time>2026-04-17T19:11:02Z</time></trkpt><trkpt lat="47.323942871367464" lon="8.753434975509194"><ele>513.1428571428572</ele><time>2026-04-17T19:11:03Z</time></trkpt><trkpt lat="47.32395395687618" lon="8.753549718367596"><ele>513.2857142857143</ele><time>2026-04-17T19:11:04Z</time></trkpt><trkpt lat="47.32395377708793" lon="8.753663207849732"><ele>513.4285714285714</ele><time>2026-04-17T19:11:05Z</time></trkpt><trkpt lat="47.323958715057294" lon="8.75376729848773"><ele>513.5714285714287</ele><time>2026-04-17T19:11:06Z</time></trkpt><trkpt lat="47.32396684343166" lon="8.753873335069507"><ele>513.7142857142858</ele><time>2026-04-17T19:11:07Z</time></trkpt><trkpt lat="47.32397202144857" lon="8.753979246341036"><ele>513.8571428571429</ele><time>2026-04-17T19:11:08Z</time></trkpt><trkpt lat="47.323968690988025" lon="8.754083570255128"><ele>514.0</ele><time>2026-04-17T19:11:09Z</time></trkpt><trkpt lat="47.32396229951222" lon="8.754191043252328"><ele>514.0</ele><time>2026-04-17T19:11:10Z</time></trkpt><trkpt lat="47.32395240473525" lon="8.754298382477305"><ele>514.0</ele><time>2026-04-17T19:11:11Z</time></trkpt><trkpt lat="47.323934759776606" lon="8.754406991094976"><ele>514.0</ele><time>2026-04-17T19:11:12Z</time></trkpt><trkpt lat="47.323914029477876" lon="8.754513195790125"><ele>514.0</ele><time>2026-04-17T19:11:13Z</time></trkpt><trkpt lat="47.32388479783849" lon="8.754617600076736"><ele>514.0</ele><time>2026-04-17T19:11:14Z</time></trkpt><trkpt lat="47.3238495141879" lon="8.754718140484027"><ele>514.0</ele><time>2026-04-17T19:11:15Z</time></trkpt><trkpt lat="47.32381174828832" lon="8.75481849843846"><ele>514.0</ele><time>2026-04-17T19:11:16Z</time></trkpt><trkpt lat="47.323770979672624" lon="8.754917571694609"><ele>514.0</ele><time>2026-04-17T19:11:17Z</time></trkpt><trkpt lat="47.32372497556722" lon="8.755012494220722"><ele>514.0</ele><time>2026-04-17T19:11:18Z</time></trkpt><trkpt lat="47.32367279609065" lon="8.755102105752803"><ele>514.0</ele><time>2026-04-17T19:11:19Z</time></trkpt><trkpt lat="47.32361975251884" lon="8.755189553368995"><ele>514.0</ele><time>2026-04-17T19:11:20Z</time></trkpt><trkpt lat="47.32356323225895" lon="8.75527454917566"><ele>514.0</ele><time>2026-04-17T19:11:21Z</time></trkpt><trkpt lat="47.3235013133918" lon="8.755352082661311"><ele>514.0</ele><time>2026-04-17T19:11:22Z</time></trkpt><trkpt lat="47.32343713836757" lon="8.755426221750906"><ele>514.0</ele><time>2026-04-17T19:11:23Z</time></trkpt><trkpt lat="47.323370098336326" lon="8.755497804753107"><ele>514.0</ele><time>2026-04-17T19:11:24Z</time></trkpt><trkpt lat="47.32329796431188" lon="8.755561577866814"><ele>514.0</ele><time>2026-04-17T19:11:25Z</time></trkpt><trkpt lat="47.32322391285298" lon="8.755621308703436"><ele>514.0</ele><time>2026-04-17T19:11:26Z</time></trkpt><trkpt lat="47.32315007470427" lon="8.755682389514277"><ele>514.0</ele><time>2026-04-17T19:11:27Z</time></trkpt><trkpt lat="47.32307613639065" lon="8.755742490078788"><ele>514.0</ele><time>2026-04-17T19:11:28Z</time></trkpt><trkpt lat="47.32300119670676" lon="8.755796048079096"><ele>514.0</ele><time>2026-04-17T19:11:29Z</time></trkpt><trkpt lat="47.32292489227561" lon="8.755838936354547"><ele>514.0</ele><time>2026-04-17T19:11:30Z</time></trkpt><trkpt lat="47.32284271801093" lon="8.755871273077632"><ele>514.0</ele><time>2026-04-17T19:11:31Z</time></trkpt><trkpt lat="47.322760601573606" lon="8.755905855959623"><ele>514.0</ele><time>2026-04-17T19:11:32Z</time></trkpt><trkpt lat="47.32267897113837" lon="8.75594422542384"><ele>514.0</ele><time>2026-04-17T19:11:33Z</time></trkpt><trkpt lat="47.322598631023475" lon="8.755994407241106"><ele>513.6666666666667</ele><time>2026-04-17T19:11:34Z</time></trkpt><trkpt lat="47.3225221733455" lon="8.75604990276272"><ele>513.3333333333334</ele><time>2026-04-17T19:11:35Z</time></trkpt><trkpt lat="47.32244166654115" lon="8.756102403962327"><ele>513.0</ele><time>2026-04-17T19:11:36Z</time></trkpt><trkpt lat="47.32236610508258" lon="8.756160395959157"><ele>512.6666666666666</ele><time>2026-04-17T19:11:37Z</time></trkpt><trkpt lat="47.322291322809036" lon="8.75622139533364"><ele>512.3333333333333</ele><time>2026-04-17T19:11:38Z</time></trkpt><trkpt lat="47.32221293345468" lon="8.756274591313689"><ele>512.0</ele><time>2026-04-17T19:11:39Z</time></trkpt><trkpt lat="47.32213387996508" lon="8.756325356769764"><ele>511.40000000000003</ele><time>2026-04-17T19:11:40Z</time></trkpt><trkpt lat="47.32205067605356" lon="8.756375463167938"><ele>510.80000000000007</ele><time>2026-04-17T19:11:41Z</time></trkpt><trkpt lat="47.321973871399024" lon="8.756441232926344"><ele>510.2</ele><time>2026-04-17T19:11:42Z</time></trkpt><trkpt lat="47.321897891493464" lon="8.756508635048506"><ele>509.6</ele><time>2026-04-17T19:11:43Z</time></trkpt><trkpt lat="47.32181623819024" lon="8.756568123092158"><ele>509.0</ele><time>2026-04-17T19:11:44Z</time></trkpt><trkpt lat="47.32173374418853" lon="8.756627233703258"><ele>508.99999999999994</ele><time>2026-04-17T19:11:45Z</time></trkpt><trkpt lat="47.32165384410005" lon="8.756688317944016"><ele>509.0</ele><time>2026-04-17T19:11:46Z</time></trkpt><trkpt lat="47.32157807439526" lon="8.756754401879723"><ele>509.0</ele><time>2026-04-17T19:11:47Z</time></trkpt><trkpt lat="47.32150285349769" lon="8.756825877378535"><ele>509.0</ele><time>2026-04-17T19:11:48Z</time></trkpt><trkpt lat="47.32142704931394" lon="8.756900328542335"><ele>508.99999999999994</ele><time>2026-04-17T19:11:49Z</time></trkpt><trkpt lat="47.32135028021154" lon="8.756970676843338"><ele>509.0</ele><time>2026-04-17T19:11:50Z</time></trkpt><trkpt lat="47.32127149193726" lon="8.757037926825596"><ele>508.6</ele><time>2026-04-17T19:11:51Z</time></trkpt><trkpt lat="47.321191748151236" lon="8.757102412461336"><ele>508.2</ele><time>2026-04-17T19:11:52Z</time></trkpt><trkpt lat="47.32111133380608" lon="8.757167444121734"><ele>507.80000000000007</ele><time>2026-04-17T19:11:53Z</time></trkpt><trkpt lat="47.32103138614149" lon="8.757232355048805"><ele>507.40000000000003</ele><time>2026-04-17T19:11:54Z</time></trkpt><trkpt lat="47.32095355886669" lon="8.757300147878674"><ele>507.0</ele><time>2026-04-17T19:11:55Z</time></trkpt><trkpt lat="47.320879876899355" lon="8.757366738808111"><ele>507.0</ele><time>2026-04-17T19:11:56Z</time></trkpt><trkpt lat="47.32080673931113" lon="8.757427692491905"><ele>507.0</ele><time>2026-04-17T19:11:57Z</time></trkpt><trkpt lat="47.32073472017169" lon="8.757480472852015"><ele>507.0</ele><time>2026-04-17T19:11:58Z</time></trkpt><trkpt lat="47.32066222356991" lon="8.757528004732755"><ele>507.0</ele><time>2026-04-17T19:11:59Z</time></trkpt><trkpt lat="47.32058656755311" lon="8.757559855936849"><ele>507.0</ele><time>2026-04-17T19:12:00Z</time></trkpt><trkpt lat="47.32050360990148" lon="8.757559951125899"><ele>507.0</ele><time>2026-04-17T19:12:01Z</time></trkpt><trkpt lat="47.32042429012091" lon="8.757544806564308"><ele>506.3333333333333</ele><time>2026-04-17T19:12:02Z</time></trkpt><trkpt lat="47.32034788347732" lon="8.75751479083432"><ele>505.66666666666663</ele><time>2026-04-17T19:12:03Z</time></trkpt><trkpt lat="47.320272228656094" lon="8.757477267707193"><ele>505.0</ele><time>2026-04-17T19:12:04Z</time></trkpt><trkpt lat="47.320199376527384" lon="8.75744352311911"><ele>504.3333333333333</ele><time>2026-04-17T19:12:05Z</time></trkpt><trkpt lat="47.320090773014655" lon="8.757388454174055"><ele>503.66666666666663</ele><time>2026-04-17T19:12:07Z</time></trkpt><trkpt lat="47.32002708088251" lon="8.757360537107548"><ele>503.0</ele><time>2026-04-17T19:12:08Z</time></trkpt><trkpt lat="47.319958633403104" lon="8.757328969977083"><ele>503.0</ele><time>2026-04-17T19:12:09Z</time></trkpt><trkpt lat="47.319885684666666" lon="8.757298813963903"><ele>503.00000000000006</ele><time>2026-04-17T19:12:10Z</time></trkpt><trkpt lat="47.3198124782861" lon="8.75727533621342"><ele>503.0</ele><time>2026-04-17T19:12:11Z</time></trkpt><trkpt lat="47.31973863216437" lon="8.75725097057029"><ele>503.0</ele><time>2026-04-17T19:12:12Z</time></trkpt><trkpt lat="47.31966567585815" lon="8.757229433429927"><ele>503.00000000000006</ele><time>2026-04-17T19:12:13Z</time></trkpt><trkpt lat="47.319592686494126" lon="8.757222281992604"><ele>503.0</ele><time>2026-04-17T19:12:14Z</time></trkpt><trkpt lat="47.31952015409736" lon="8.75721893241412"><ele>503.0</ele><time>2026-04-17T19:12:15Z</time></trkpt><trkpt lat="47.319452799374865" lon="8.757180333206385"><ele>503.14285714285717</ele><time>2026-04-17T19:12:16Z</time></trkpt><trkpt lat="47.31938675897025" lon="8.757165251667034"><ele>503.28571428571433</ele><time>2026-04-17T19:12:17Z</time></trkpt><trkpt lat="47.31932259749233" lon="8.75715059925431"><ele>503.42857142857144</ele><time>2026-04-17T19:12:18Z</time></trkpt><trkpt lat="47.31925346712486" lon="8.757137327628463"><ele>503.57142857142856</ele><time>2026-04-17T19:12:19Z</time></trkpt><trkpt lat="47.31917751933621" lon="8.757122430409284"><ele>503.7142857142857</ele><time>2026-04-17T19:12:20Z</time></trkpt><trkpt lat="47.319097731344236" lon="8.757108445214683"><ele>503.8571428571429</ele><time>2026-04-17T19:12:21Z</time></trkpt><trkpt lat="47.31901408777626" lon="8.757096797464415"><ele>504.0</ele><time>2026-04-17T19:12:22Z</time></trkpt><trkpt lat="47.318933413773685" lon="8.757087863099189"><ele>504.3333333333333</ele><time>2026-04-17T19:12:23Z</time></trkpt><trkpt lat="47.318849285760514" lon="8.757080892531658"><ele>504.66666666666663</ele><time>2026-04-17T19:12:24Z</time></trkpt><trkpt lat="47.31876355010243" lon="8.757074740576371"><ele>505.0</ele><time>2026-04-17T19:12:25Z</time></trkpt><trkpt lat="47.31867827164448" lon="8.757069754835284"><ele>505.3333333333333</ele><time>2026-04-17T19:12:26Z</time></trkpt><trkpt lat="47.3185883835113" lon="8.757070231844581"><ele>505.66666666666663</ele><time>2026-04-17T19:12:27Z</time></trkpt><trkpt lat="47.318499589928734" lon="8.757071950456282"><ele>506.0</ele><time>2026-04-17T19:12:28Z</time></trkpt><trkpt lat="47.31841112018843" lon="8.757075250960755"><ele>505.99999999999994</ele><time>2026-04-17T19:12:29Z</time></trkpt><trkpt lat="47.31832205069312" lon="8.757079923015757"><ele>506.0</ele><time>2026-04-17T19:12:30Z</time></trkpt><trkpt lat="47.318234074600795" lon="8.757085503144351"><ele>506.0</ele><time>2026-04-17T19:12:31Z</time></trkpt><trkpt lat="47.31814510712451" lon="8.757090533026643"><ele>506.0</ele><time>2026-04-17T19:12:32Z</time></trkpt><trkpt lat="47.318052026610665" lon="8.757094711723903"><ele>505.99999999999994</ele><time>2026-04-17T19:12:33Z</time></trkpt><trkpt lat="47.31796277015724" lon="8.757096063870376"><ele>506.0</ele><time>2026-04-17T19:12:34Z</time></trkpt><trkpt lat="47.31787779066605" lon="8.757090129196433"><ele>505.20000000000005</ele><time>2026-04-17T19:12:35Z</time></trkpt><trkpt lat="47.317789482689314" lon="8.757075758618207"><ele>504.40000000000003</ele><time>2026-04-17T19:12:36Z</time></trkpt><trkpt lat="47.31771816046454" lon="8.757058590819684"><ele>503.6</ele><time>2026-04-17T19:12:37Z</time></trkpt><trkpt lat="47.31759626925427" lon="8.757021125637484"><ele>502.8</ele><time>2026-04-17T19:12:39Z</time></trkpt><trkpt lat="47.317529929857685" lon="8.756997767920371"><ele>502.0</ele><time>2026-04-17T19:12:40Z</time></trkpt><trkpt lat="47.317413383099684" lon="8.75694107520892"><ele>502.00000000000006</ele><time>2026-04-17T19:12:42Z</time></trkpt><trkpt lat="47.31734357225255" lon="8.756903570871874"><ele>502.0</ele><time>2026-04-17T19:12:43Z</time></trkpt><trkpt lat="47.317280946200846" lon="8.756860480613504"><ele>502.0</ele><time>2026-04-17T19:12:44Z</time></trkpt><trkpt lat="47.31721607343901" lon="8.756814060548745"><ele>502.0</ele><time>2026-04-17T19:12:45Z</time></trkpt><trkpt lat="47.31714970354784" lon="8.756760926875208"><ele>502.00000000000006</ele><time>2026-04-17T19:12:54Z</time></trkpt><trkpt lat="47.31706710462719" lon="8.756710051629994"><ele>502.0</ele><time>2026-04-17T19:12:56Z</time></trkpt><trkpt lat="47.31700992417795" lon="8.756640906110727"><ele>501.1666666666667</ele><time>2026-04-17T19:12:57Z</time></trkpt><trkpt lat="47.31694513627674" lon="8.75656928605899"><ele>500.33333333333337</ele><time>2026-04-17T19:12:58Z</time></trkpt><trkpt lat="47.316879053333466" lon="8.756494059733116"><ele>499.5</ele><time>2026-04-17T19:12:59Z</time></trkpt><trkpt lat="47.316808764221584" lon="8.756422880394089"><ele>498.66666666666663</ele><time>2026-04-17T19:13:00Z</time></trkpt><trkpt lat="47.316739275895145" lon="8.75635326831687"><ele>497.8333333333333</ele><time>2026-04-17T19:13:01Z</time></trkpt><trkpt lat="47.316668992012026" lon="8.756286063764733"><ele>497.0</ele><time>2026-04-17T19:13:02Z</time></trkpt><trkpt lat="47.31659794421866" lon="8.756223547443183"><ele>496.99999999999994</ele><time>2026-04-17T19:13:03Z</time></trkpt><trkpt lat="47.31652579549229" lon="8.756164261076293"><ele>497.0</ele><time>2026-04-17T19:13:04Z</time></trkpt><trkpt lat="47.31645185292753" lon="8.75611510877735"><ele>497.0</ele><time>2026-04-17T19:13:05Z</time></trkpt><trkpt lat="47.31637724457135" lon="8.756068639161194"><ele>497.0</ele><time>2026-04-17T19:13:06Z</time></trkpt><trkpt lat="47.316301377231845" lon="8.756027370010795"><ele>496.99999999999994</ele><time>2026-04-17T19:13:07Z</time></trkpt><trkpt lat="47.31622500695525" lon="8.755989696100158"><ele>497.0</ele><time>2026-04-17T19:13:08Z</time></trkpt><trkpt lat="47.31614868985271" lon="8.755954269028667"><ele>497.49999999999994</ele><time>2026-04-17T19:13:09Z</time></trkpt><trkpt lat="47.31607092219111" lon="8.755927202873215"><ele>498.0</ele><time>2026-04-17T19:13:10Z</time></trkpt><trkpt lat="47.31599299441372" lon="8.755908465614656"><ele>498.5</ele><time>2026-04-17T19:13:11Z</time></trkpt><trkpt lat="47.31591664267992" lon="8.755888808865869"><ele>499.0</ele><time>2026-04-17T19:13:12Z</time></trkpt><trkpt lat="47.315840456156494" lon="8.755871272953893"><ele>499.49999999999994</ele><time>2026-04-17T19:13:13Z</time></trkpt><trkpt lat="47.31576430227665" lon="8.755865777339213"><ele>500.0</ele><time>2026-04-17T19:13:14Z</time></trkpt><trkpt lat="47.31568899966067" lon="8.75586500106139"><ele>500.0</ele><time>2026-04-17T19:13:15Z</time></trkpt><trkpt lat="47.31561426429155" lon="8.755863479254499"><ele>500.0</ele><time>2026-04-17T19:13:16Z</time></trkpt><trkpt lat="47.31553913724495" lon="8.755870018607656"><ele>500.0</ele><time>2026-04-17T19:13:17Z</time></trkpt><trkpt lat="47.315464600420135" lon="8.755879476990765"><ele>500.0</ele><time>2026-04-17T19:13:18Z</time></trkpt><trkpt lat="47.315390604286335" lon="8.755895794539564"><ele>500.0</ele><time>2026-04-17T19:13:19Z</time></trkpt><trkpt lat="47.31531726655396" lon="8.755916100934414"><ele>500.0</ele><time>2026-04-17T19:13:20Z</time></trkpt><trkpt lat="47.315244449185265" lon="8.755939121521063"><ele>500.0</ele><time>2026-04-17T19:13:21Z</time></trkpt><trkpt lat="47.31517240696212" lon="8.755968529469666"><ele>500.2857142857143</ele><time>2026-04-17T19:13:22Z</time></trkpt><trkpt lat="47.31510131648249" lon="8.75600070912413"><ele>500.57142857142856</ele><time>2026-04-17T19:13:23Z</time></trkpt><trkpt lat="47.31503101558776" lon="8.756038627067204"><ele>500.85714285714283</ele><time>2026-04-17T19:13:24Z</time></trkpt><trkpt lat="47.31496285415792" lon="8.756082042863259"><ele>501.1428571428571</ele><time>2026-04-17T19:13:25Z</time></trkpt><trkpt lat="47.31489447176374" lon="8.756125544511232"><ele>501.42857142857144</ele><time>2026-04-17T19:13:26Z</time></trkpt><trkpt lat="47.31482616711856" lon="8.756168978538565"><ele>501.71428571428567</ele><time>2026-04-17T19:13:27Z</time></trkpt><trkpt lat="47.31475794254365" lon="8.756214376941577"><ele>501.99999999999994</ele><time>2026-04-17T19:13:28Z</time></trkpt><trkpt lat="47.31469110939745" lon="8.756262444084895"><ele>501.33333333333337</ele><time>2026-04-17T19:13:29Z</time></trkpt><trkpt lat="47.31462219560723" lon="8.756308675072262"><ele>500.6666666666667</ele><time>2026-04-17T19:13:30Z</time></trkpt><trkpt lat="47.31455380673805" lon="8.756353805808413"><ele>500.0</ele><time>2026-04-17T19:13:31Z</time></trkpt><trkpt lat="47.314485606768145" lon="8.756398122330365"><ele>499.33333333333337</ele><time>2026-04-17T19:13:32Z</time></trkpt><trkpt lat="47.31441658530544" lon="8.756444270547718"><ele>498.6666666666667</ele><time>2026-04-17T19:13:33Z</time></trkpt><trkpt lat="47.314347793969965" lon="8.756489054495562"><ele>498.0</ele><time>2026-04-17T19:13:34Z</time></trkpt><trkpt lat="47.31427808654873" lon="8.756533632163835"><ele>498.0</ele><time>2026-04-17T19:13:35Z</time></trkpt><trkpt lat="47.31420913450492" lon="8.756581120890909"><ele>498.0</ele><time>2026-04-17T19:13:36Z</time></trkpt><trkpt lat="47.314140660591946" lon="8.756630437897815"><ele>498.0</ele><time>2026-04-17T19:13:37Z</time></trkpt><trkpt lat="47.31407044245826" lon="8.756679315194102"><ele>498.0</ele><time>2026-04-17T19:13:38Z</time></trkpt><trkpt lat="47.31400054890797" lon="8.756729261745736"><ele>498.0</ele><time>2026-04-17T19:13:39Z</time></trkpt><trkpt lat="47.31392884840713" lon="8.756774411363656"><ele>498.0</ele><time>2026-04-17T19:13:40Z</time></trkpt><trkpt lat="47.31385651059499" lon="8.756820672613374"><ele>498.5</ele><time>2026-04-17T19:13:41Z</time></trkpt><trkpt lat="47.3137843696308" lon="8.756867189334011"><ele>499.0</ele><time>2026-04-17T19:13:42Z</time></trkpt><trkpt lat="47.31371062906522" lon="8.756916158639271"><ele>499.5</ele><time>2026-04-17T19:13:43Z</time></trkpt><trkpt lat="47.313637202879" lon="8.75696675255616"><ele>500.0</ele><time>2026-04-17T19:13:44Z</time></trkpt><trkpt lat="47.313563270637715" lon="8.757018582480644"><ele>500.5</ele><time>2026-04-17T19:13:45Z</time></trkpt><trkpt lat="47.31348748031082" lon="8.757066523738063"><ele>501.0</ele><time>2026-04-17T19:13:46Z</time></trkpt><trkpt lat="47.31341291217243" lon="8.757114426322145"><ele>501.0</ele><time>2026-04-17T19:13:47Z</time></trkpt><trkpt lat="47.31333942245001" lon="8.757162965962012"><ele>501.0</ele><time>2026-04-17T19:13:48Z</time></trkpt><trkpt lat="47.31326618351417" lon="8.757215161197525"><ele>501.0</ele><time>2026-04-17T19:13:49Z</time></trkpt><trkpt lat="47.31319151755819" lon="8.757263565360386"><ele>501.0</ele><time>2026-04-17T19:13:50Z</time></trkpt><trkpt lat="47.313119579712435" lon="8.757315957233994"><ele>501.0</ele><time>2026-04-17T19:13:51Z</time></trkpt><trkpt lat="47.3130477997955" lon="8.757371707319466"><ele>501.0</ele><time>2026-04-17T19:13:52Z</time></trkpt><trkpt lat="47.31297890869426" lon="8.757440714736594"><ele>501.0</ele><time>2026-04-17T19:13:53Z</time></trkpt><trkpt lat="47.312911750509" lon="8.757516504897302"><ele>501.0</ele><time>2026-04-17T19:13:54Z</time></trkpt><trkpt lat="47.31284779699559" lon="8.75759845924992"><ele>501.0</ele><time>2026-04-17T19:13:55Z</time></trkpt><trkpt lat="47.31278725929371" lon="8.757686585790253"><ele>501.0</ele><time>2026-04-17T19:13:56Z</time></trkpt><trkpt lat="47.31273071279891" lon="8.757782071545247"><ele>501.0</ele><time>2026-04-17T19:13:57Z</time></trkpt><trkpt lat="47.31267642269404" lon="8.757884900879112"><ele>501.0</ele><time>2026-04-17T19:13:58Z</time></trkpt><trkpt lat="47.312620805994044" lon="8.75799103397718"><ele>500.4</ele><time>2026-04-17T19:13:59Z</time></trkpt><trkpt lat="47.31256222876356" lon="8.758093419565135"><ele>499.8</ele><time>2026-04-17T19:14:00Z</time></trkpt><trkpt lat="47.312504670671125" lon="8.75819469398549"><ele>499.19999999999993</ele><time>2026-04-17T19:14:01Z</time></trkpt><trkpt lat="47.31244641605418" lon="8.758295142197316"><ele>498.59999999999997</ele><time>2026-04-17T19:14:02Z</time></trkpt><trkpt lat="47.312385748212755" lon="8.758393249657397"><ele>498.0</ele><time>2026-04-17T19:14:03Z</time></trkpt><trkpt lat="47.31231789772659" lon="8.75847944258097"><ele>497.3333333333333</ele><time>2026-04-17T19:14:04Z</time></trkpt><trkpt lat="47.312239870442326" lon="8.758546195510373"><ele>496.66666666666663</ele><time>2026-04-17T19:14:05Z</time></trkpt><trkpt lat="47.312159594967" lon="8.758604873779912"><ele>496.0</ele><time>2026-04-17T19:14:06Z</time></trkpt><trkpt lat="47.31207720860042" lon="8.758655741219306"><ele>495.3333333333333</ele><time>2026-04-17T19:14:07Z</time></trkpt><trkpt lat="47.31199140093677" lon="8.758687880395252"><ele>494.66666666666663</ele><time>2026-04-17T19:14:08Z</time></trkpt><trkpt lat="47.31190485462338" lon="8.758712921757201"><ele>494.0</ele><time>2026-04-17T19:14:09Z</time></trkpt><trkpt lat="47.3118192079712" lon="8.758740054225301"><ele>493.99999999999994</ele><time>2026-04-17T19:14:10Z</time></trkpt><trkpt lat="47.31173330170225" lon="8.758762676517993"><ele>494.0</ele><time>2026-04-17T19:14:11Z</time></trkpt><trkpt lat="47.31164549250021" lon="8.758781953667423"><ele>494.0</ele><time>2026-04-17T19:14:12Z</time></trkpt><trkpt lat="47.311559673276605" lon="8.758793022617542"><ele>494.0</ele><time>2026-04-17T19:14:13Z</time></trkpt><trkpt lat="47.31147330643171" lon="8.75880670540941"><ele>493.99999999999994</ele><time>2026-04-17T19:14:14Z</time></trkpt><trkpt lat="47.31138811330587" lon="8.758833906340577"><ele>494.0</ele><time>2026-04-17T19:14:15Z</time></trkpt><trkpt lat="47.31130260557345" lon="8.758865845646284"><ele>492.6</ele><time>2026-04-17T19:14:16Z</time></trkpt><trkpt lat="47.311218052415875" lon="8.758907157464229"><ele>491.2</ele><time>2026-04-17T19:14:17Z</time></trkpt><trkpt lat="47.31113105017805" lon="8.758955747721393"><ele>489.80000000000007</ele><time>2026-04-17T19:14:18Z</time></trkpt><trkpt lat="47.311040553303265" lon="8.75899809215522"><ele>488.40000000000003</ele><time>2026-04-17T19:14:19Z</time></trkpt><trkpt lat="47.31095070860192" lon="8.75903670977802"><ele>487.0</ele><time>2026-04-17T19:14:20Z</time></trkpt><trkpt lat="47.3108634346864" lon="8.75908371387462"><ele>487.0</ele><time>2026-04-17T19:14:21Z</time></trkpt><trkpt lat="47.310779098239976" lon="8.7591388574373"><ele>487.00000000000006</ele><time>2026-04-17T19:14:22Z</time></trkpt><trkpt lat="47.31069788100181" lon="8.759200031832872"><ele>487.00000000000006</ele><time>2026-04-17T19:14:23Z</time></trkpt><trkpt lat="47.31061844349695" lon="8.75926592868078"><ele>487.0</ele><time>2026-04-17T19:14:24Z</time></trkpt><trkpt lat="47.310540173998646" lon="8.759333401470156"><ele>487.0</ele><time>2026-04-17T19:14:25Z</time></trkpt><trkpt lat="47.310463118391404" lon="8.759405980076398"><ele>486.20000000000005</ele><time>2026-04-17T19:14:26Z</time></trkpt><trkpt lat="47.31038933819281" lon="8.759484769363828"><ele>485.40000000000003</ele><time>2026-04-17T19:14:27Z</time></trkpt><trkpt lat="47.31031589284559" lon="8.75956771022568"><ele>484.59999999999997</ele><time>2026-04-17T19:14:28Z</time></trkpt><trkpt lat="47.31024173495866" lon="8.759653594207077"><ele>483.79999999999995</ele><time>2026-04-17T19:14:29Z</time></trkpt><trkpt lat="47.31016580367965" lon="8.759736943514657"><ele>483.0</ele><time>2026-04-17T19:14:30Z</time></trkpt><trkpt lat="47.310088504303934" lon="8.759821387195634"><ele>483.0</ele><time>2026-04-17T19:14:31Z</time></trkpt><trkpt lat="47.3100104154863" lon="8.759904696005563"><ele>482.99999999999994</ele><time>2026-04-17T19:14:32Z</time></trkpt><trkpt lat="47.30993244120016" lon="8.759990057725139"><ele>482.99999999999994</ele><time>2026-04-17T19:14:33Z</time></trkpt><trkpt lat="47.309852766521644" lon="8.760072158673669"><ele>483.0</ele><time>2026-04-17T19:14:34Z</time></trkpt><trkpt lat="47.30977181556668" lon="8.760156637724588"><ele>483.0</ele><time>2026-04-17T19:14:35Z</time></trkpt><trkpt lat="47.30969128777918" lon="8.760240169394724"><ele>482.59999999999997</ele><time>2026-04-17T19:14:36Z</time></trkpt><trkpt lat="47.309607032275835" lon="8.760314953438211"><ele>482.19999999999993</ele><time>2026-04-17T19:14:37Z</time></trkpt><trkpt lat="47.30951867122882" lon="8.760377887334329"><ele>481.8</ele><time>2026-04-17T19:14:38Z</time></trkpt><trkpt lat="47.309428435564804" lon="8.760429937902543"><ele>481.4</ele><time>2026-04-17T19:14:39Z</time></trkpt><trkpt lat="47.30933448196828" lon="8.760465417295938"><ele>481.0</ele><time>2026-04-17T19:14:40Z</time></trkpt><trkpt lat="47.30924015700913" lon="8.7604975559172"><ele>481.0</ele><time>2026-04-17T19:14:41Z</time></trkpt><trkpt lat="47.309143964022056" lon="8.760515071426722"><ele>481.0</ele><time>2026-04-17T19:14:42Z</time></trkpt><trkpt lat="47.30904769948802" lon="8.760526653952313"><ele>481.0</ele><time>2026-04-17T19:14:43Z</time></trkpt><trkpt lat="47.308952219294625" lon="8.760524153979507"><ele>481.0</ele><time>2026-04-17T19:14:44Z</time></trkpt><trkpt lat="47.30885782076129" lon="8.760511088262842"><ele>481.0</ele><time>2026-04-17T19:14:45Z</time></trkpt><trkpt lat="47.308764750577204" lon="8.760492028967167"><ele>480.20000000000005</ele><time>2026-04-17T19:14:46Z</time></trkpt><trkpt lat="47.30867307918125" lon="8.760474448946997"><ele>479.40000000000003</ele><time>2026-04-17T19:14:47Z</time></trkpt><trkpt lat="47.30858233420057" lon="8.760453586730602"><ele>478.6</ele><time>2026-04-17T19:14:48Z</time></trkpt><trkpt lat="47.308491113774686" lon="8.76043067176522"><ele>477.8</ele><time>2026-04-17T19:14:49Z</time></trkpt><trkpt lat="47.30839951105564" lon="8.760409862352207"><ele>477.0</ele><time>2026-04-17T19:14:50Z</time></trkpt><trkpt lat="47.3083080130183" lon="8.760388861424532"><ele>477.0</ele><time>2026-04-17T19:14:51Z</time></trkpt><trkpt lat="47.30821431736661" lon="8.760367645329623"><ele>477.0</ele><time>2026-04-17T19:14:52Z</time></trkpt><trkpt lat="47.308121810119744" lon="8.760342886238972"><ele>477.0</ele><time>2026-04-17T19:14:53Z</time></trkpt><trkpt lat="47.30803084990217" lon="8.760327573556294"><ele>477.0</ele><time>2026-04-17T19:14:54Z</time></trkpt><trkpt lat="47.30795095853324" lon="8.760320405735978"><ele>477.0</ele><time>2026-04-17T19:14:55Z</time></trkpt><trkpt lat="47.3078795819777" lon="8.760312951487915"><ele>477.0</ele><time>2026-04-17T19:14:56Z</time></trkpt><trkpt lat="47.30776738540665" lon="8.760295579484332"><ele>476.0</ele><time>2026-04-17T19:14:58Z</time></trkpt><trkpt lat="47.30768880339487" lon="8.760286485162654"><ele>475.00000000000006</ele><time>2026-04-17T19:15:00Z</time></trkpt><trkpt lat="47.307605526380854" lon="8.760240060012357"><ele>474.00000000000006</ele><time>2026-04-17T19:15:03Z</time></trkpt><trkpt lat="47.30753998554848" lon="8.76015020075909"><ele>473.0</ele><time>2026-04-17T19:15:05Z</time></trkpt><trkpt lat="47.30754530927761" lon="8.760021989544889"><ele>472.0</ele><time>2026-04-17T19:15:06Z</time></trkpt><trkpt lat="47.30750120043761" lon="8.75985845715661"><ele>471.6666666666667</ele><time>2026-04-17T19:15:08Z</time></trkpt><trkpt lat="47.307454798538664" lon="8.75969425443691"><ele>471.33333333333337</ele><time>2026-04-17T19:15:10Z</time></trkpt><trkpt lat="47.30743920591052" lon="8.759599076336968"><ele>471.0</ele><time>2026-04-17T19:15:11Z</time></trkpt><trkpt lat="47.30741821407526" lon="8.75950194612402"><ele>470.66666666666663</ele><time>2026-04-17T19:15:12Z</time></trkpt><trkpt lat="47.307392698558694" lon="8.759408726851108"><ele>470.3333333333333</ele><time>2026-04-17T19:15:13Z</time></trkpt><trkpt lat="47.3073691553491" lon="8.759314791292939"><ele>470.0</ele><time>2026-04-17T19:15:14Z</time></trkpt><trkpt lat="47.30734404184845" lon="8.759166383142842"><ele>469.8333333333333</ele><time>2026-04-17T19:15:16Z</time></trkpt><trkpt lat="47.30732156173163" lon="8.75905335509993"><ele>469.66666666666663</ele><time>2026-04-17T19:15:18Z</time></trkpt><trkpt lat="47.30731988759926" lon="8.758930948060817"><ele>469.5</ele><time>2026-04-17T19:15:20Z</time></trkpt><trkpt lat="47.30725122487274" lon="8.758851761770595"><ele>469.33333333333337</ele><time>2026-04-17T19:15:22Z</time></trkpt><trkpt lat="47.30716681485717" lon="8.758793258020972"><ele>469.1666666666667</ele><time>2026-04-17T19:15:24Z</time></trkpt><trkpt lat="47.30709356727039" lon="8.758841165846029"><ele>469.0</ele><time>2026-04-17T19:15:25Z</time></trkpt><trkpt lat="47.306980730938896" lon="8.758777161967492"><ele>469.0</ele><time>2026-04-17T19:15:27Z</time></trkpt><trkpt lat="47.30691867166795" lon="8.758740622969878"><ele>469.0</ele><time>2026-04-17T19:15:28Z</time></trkpt><trkpt lat="47.30685671693452" lon="8.758702520400345"><ele>469.0</ele><time>2026-04-17T19:15:29Z</time></trkpt><trkpt lat="47.30679340922331" lon="8.75866904235597"><ele>469.0</ele><time>2026-04-17T19:15:30Z</time></trkpt><trkpt lat="47.306728428440735" lon="8.758633158217055"><ele>469.0</ele><time>2026-04-17T19:15:31Z</time></trkpt><trkpt lat="47.30666015910744" lon="8.75860563956128"><ele>469.0</ele><time>2026-04-17T19:15:32Z</time></trkpt><trkpt lat="47.30659082721068" lon="8.758579029453653"><ele>469.0</ele><time>2026-04-17T19:15:33Z</time></trkpt><trkpt lat="47.30652087800196" lon="8.758553724199908"><ele>468.33333333333337</ele><time>2026-04-17T19:15:34Z</time></trkpt><trkpt lat="47.30644852968153" lon="8.758534342195274"><ele>467.6666666666667</ele><time>2026-04-17T19:15:35Z</time></trkpt><trkpt lat="47.30637278396187" lon="8.758523144976689"><ele>467.0</ele><time>2026-04-17T19:15:36Z</time></trkpt><trkpt lat="47.30629583148125" lon="8.75851474841906"><ele>466.33333333333337</ele><time>2026-04-17T19:15:37Z</time></trkpt><trkpt lat="47.30621585931254" lon="8.758513336333378"><ele>465.6666666666667</ele><time>2026-04-17T19:15:38Z</time></trkpt><trkpt lat="47.30613496252571" lon="8.758515396577762"><ele>465.0</ele><time>2026-04-17T19:15:39Z</time></trkpt><trkpt lat="47.306053985140615" lon="8.758524384914802"><ele>465.0</ele><time>2026-04-17T19:15:40Z</time></trkpt><trkpt lat="47.30597338019685" lon="8.758534565454106"><ele>465.0</ele><time>2026-04-17T19:15:41Z</time></trkpt><trkpt lat="47.30589203007271" lon="8.758545929326502"><ele>465.0</ele><time>2026-04-17T19:15:42Z</time></trkpt><trkpt lat="47.305810292907864" lon="8.758557409067386"><ele>465.0</ele><time>2026-04-17T19:15:43Z</time></trkpt><trkpt lat="47.305729242406" lon="8.758569548877333"><ele>465.0</ele><time>2026-04-17T19:15:44Z</time></trkpt><trkpt lat="47.30564726937736" lon="8.75858066372471"><ele>465.0</ele><time>2026-04-17T19:15:45Z</time></trkpt><trkpt lat="47.305565873860736" lon="8.758591074306237"><ele>466.1666666666667</ele><time>2026-04-17T19:15:46Z</time></trkpt><trkpt lat="47.3054844797574" lon="8.758595414760379"><ele>467.33333333333337</ele><time>2026-04-17T19:15:47Z</time></trkpt><trkpt lat="47.30540309588361" lon="8.75859244539655"><ele>468.5</ele><time>2026-04-17T19:15:48Z</time></trkpt><trkpt lat="47.3053227242599" lon="8.758582573261508"><ele>469.6666666666667</ele><time>2026-04-17T19:15:49Z</time></trkpt><trkpt lat="47.30524406184041" lon="8.758561668086712"><ele>470.83333333333337</ele><time>2026-04-17T19:15:50Z</time></trkpt><trkpt lat="47.305167137913344" lon="8.758541636293081"><ele>472.0</ele><time>2026-04-17T19:15:51Z</time></trkpt><trkpt lat="47.30509256628334" lon="8.758513217466241"><ele>472.0</ele><time>2026-04-17T19:15:52Z</time></trkpt><trkpt lat="47.305019398936835" lon="8.758483346089019"><ele>472.0</ele><time>2026-04-17T19:15:53Z</time></trkpt><trkpt lat="47.304949569990036" lon="8.758452601279092"><ele>472.0</ele><time>2026-04-17T19:15:54Z</time></trkpt><trkpt lat="47.304881481595196" lon="8.758408227513401"><ele>472.0</ele><time>2026-04-17T19:15:55Z</time></trkpt><trkpt lat="47.30481572228209" lon="8.758363746898025"><ele>472.0</ele><time>2026-04-17T19:15:56Z</time></trkpt><trkpt lat="47.304747494328524" lon="8.75831889599707"><ele>472.0</ele><time>2026-04-17T19:15:57Z</time></trkpt><trkpt lat="47.304681928946195" lon="8.758273755627917"><ele>472.0</ele><time>2026-04-17T19:15:58Z</time></trkpt><trkpt lat="47.304613105347165" lon="8.758238911400055"><ele>472.0</ele><time>2026-04-17T19:15:59Z</time></trkpt><trkpt lat="47.304542406714866" lon="8.75822104944322"><ele>472.0</ele><time>2026-04-17T19:16:00Z</time></trkpt><trkpt lat="47.304470648096796" lon="8.758214525684537"><ele>472.0</ele><time>2026-04-17T19:16:01Z</time></trkpt><trkpt lat="47.30439875693904" lon="8.758231100457564"><ele>472.0</ele><time>2026-04-17T19:16:02Z</time></trkpt><trkpt lat="47.30433426598051" lon="8.75828458508043"><ele>472.0</ele><time>2026-04-17T19:16:03Z</time></trkpt><trkpt lat="47.30428072256037" lon="8.758367003366928"><ele>472.0</ele><time>2026-04-17T19:16:04Z</time></trkpt><trkpt lat="47.30422408674662" lon="8.758438646003333"><ele>472.0</ele><time>2026-04-17T19:16:05Z</time></trkpt><trkpt lat="47.30416460134211" lon="8.75850999321129"><ele>472.33333333333337</ele><time>2026-04-17T19:16:06Z</time></trkpt><trkpt lat="47.3041058867574" lon="8.758582458213036"><ele>472.6666666666667</ele><time>2026-04-17T19:16:07Z</time></trkpt><trkpt lat="47.30404681547193" lon="8.758653317098494"><ele>473.0</ele><time>2026-04-17T19:16:08Z</time></trkpt><trkpt lat="47.30398741652795" lon="8.758723692278153"><ele>473.33333333333337</ele><time>2026-04-17T19:16:09Z</time></trkpt><trkpt lat="47.30392777027283" lon="8.758794194987246"><ele>473.6666666666667</ele><time>2026-04-17T19:16:10Z</time></trkpt><trkpt lat="47.303868704490625" lon="8.75886446529356"><ele>474.0</ele><time>2026-04-17T19:16:11Z</time></trkpt><trkpt lat="47.303810608155345" lon="8.75893635807941"><ele>474.1428571428571</ele><time>2026-04-17T19:16:12Z</time></trkpt><trkpt lat="47.303752163349586" lon="8.759007532361414"><ele>474.2857142857143</ele><time>2026-04-17T19:16:13Z</time></trkpt><trkpt lat="47.303694490544615" lon="8.759079235742709"><ele>474.42857142857144</ele><time>2026-04-17T19:16:14Z</time></trkpt><trkpt lat="47.30363824114824" lon="8.759150182828476"><ele>474.57142857142856</ele><time>2026-04-17T19:16:15Z</time></trkpt><trkpt lat="47.303580613970105" lon="8.759219128995495"><ele>474.7142857142858</ele><time>2026-04-17T19:16:16Z</time></trkpt><trkpt lat="47.3035223294919" lon="8.759284141280348"><ele>474.8571428571429</ele><time>2026-04-17T19:16:17Z</time></trkpt><trkpt lat="47.303464755565805" lon="8.759351482990814"><ele>475.0</ele><time>2026-04-17T19:16:18Z</time></trkpt><trkpt lat="47.303407562138744" lon="8.759417754215244"><ele>475.7142857142857</ele><time>2026-04-17T19:16:19Z</time></trkpt><trkpt lat="47.30335039569561" lon="8.759486170549373"><ele>476.42857142857144</ele><time>2026-04-17T19:16:20Z</time></trkpt><trkpt lat="47.30329207418537" lon="8.759550321106385"><ele>477.14285714285717</ele><time>2026-04-17T19:16:21Z</time></trkpt><trkpt lat="47.303235231260764" lon="8.759617744225281"><ele>477.8571428571429</ele><time>2026-04-17T19:16:22Z</time></trkpt><trkpt lat="47.30317900393916" lon="8.759683686865442"><ele>478.57142857142856</ele><time>2026-04-17T19:16:23Z</time></trkpt><trkpt lat="47.30312334994473" lon="8.75974885824765"><ele>479.28571428571433</ele><time>2026-04-17T19:16:24Z</time></trkpt><trkpt lat="47.303066514153905" lon="8.759813308188464"><ele>480.0</ele><time>2026-04-17T19:16:25Z</time></trkpt><trkpt lat="47.30300762865473" lon="8.759873367945184"><ele>480.0</ele><time>2026-04-17T19:16:26Z</time></trkpt><trkpt lat="47.302946144743984" lon="8.759924573012686"><ele>480.0</ele><time>2026-04-17T19:16:27Z</time></trkpt><trkpt lat="47.30288604360904" lon="8.75998233640669"><ele>480.0</ele><time>2026-04-17T19:16:28Z</time></trkpt><trkpt lat="47.30283231094821" lon="8.76005217497206"><ele>480.0</ele><time>2026-04-17T19:16:29Z</time></trkpt><trkpt lat="47.30278361670086" lon="8.76012818270183"><ele>480.0</ele><time>2026-04-17T19:16:30Z</time></trkpt><trkpt lat="47.30273323234171" lon="8.760200366869013"><ele>480.0</ele><time>2026-04-17T19:16:31Z</time></trkpt><trkpt lat="47.30267892295311" lon="8.76026674871814"><ele>480.0</ele><time>2026-04-17T19:16:32Z</time></trkpt><trkpt lat="47.30262245396223" lon="8.76032863370317"><ele>480.8571428571429</ele><time>2026-04-17T19:16:33Z</time></trkpt><trkpt lat="47.302567930308186" lon="8.760393957151189"><ele>481.71428571428567</ele><time>2026-04-17T19:16:34Z</time></trkpt><trkpt lat="47.30251357442333" lon="8.760460735984637"><ele>482.57142857142856</ele><time>2026-04-17T19:16:35Z</time></trkpt><trkpt lat="47.302459931894745" lon="8.760527112766221"><ele>483.42857142857144</ele><time>2026-04-17T19:16:36Z</time></trkpt><trkpt lat="47.30240649687463" lon="8.760594008167752"><ele>484.28571428571433</ele><time>2026-04-17T19:16:37Z</time></trkpt><trkpt lat="47.302353700883096" lon="8.760662336541804"><ele>485.1428571428571</ele><time>2026-04-17T19:16:38Z</time></trkpt><trkpt lat="47.30230017137601" lon="8.760728997152809"><ele>486.0</ele><time>2026-04-17T19:16:39Z</time></trkpt><trkpt lat="47.30224788343385" lon="8.760797697965154"><ele>486.0</ele><time>2026-04-17T19:16:40Z</time></trkpt><trkpt lat="47.30219622101942" lon="8.760867690349206"><ele>486.0</ele><time>2026-04-17T19:16:41Z</time></trkpt><trkpt lat="47.30214344727225" lon="8.760936114898447"><ele>486.0</ele><time>2026-04-17T19:16:42Z</time></trkpt><trkpt lat="47.30209004694926" lon="8.761006089233886"><ele>486.0</ele><time>2026-04-17T19:16:43Z</time></trkpt><trkpt lat="47.30203828916012" lon="8.76107441030379"><ele>486.0</ele><time>2026-04-17T19:16:44Z</time></trkpt><trkpt lat="47.301985056390386" lon="8.761143988678354"><ele>486.0</ele><time>2026-04-17T19:16:45Z</time></trkpt><trkpt lat="47.301932658408624" lon="8.76121333232246"><ele>486.0</ele><time>2026-04-17T19:16:46Z</time></trkpt><trkpt lat="47.30187922195981" lon="8.761280973978337"><ele>487.42857142857144</ele><time>2026-04-17T19:16:47Z</time></trkpt><trkpt lat="47.30182587714609" lon="8.761349377188631"><ele>488.8571428571429</ele><time>2026-04-17T19:16:48Z</time></trkpt><trkpt lat="47.30177317224333" lon="8.761418278029858"><ele>490.28571428571433</ele><time>2026-04-17T19:16:49Z</time></trkpt><trkpt lat="47.30172008439239" lon="8.761488925522059"><ele>491.7142857142857</ele><time>2026-04-17T19:16:50Z</time></trkpt><trkpt lat="47.30166656150195" lon="8.761557086419826"><ele>493.1428571428572</ele><time>2026-04-17T19:16:51Z</time></trkpt><trkpt lat="47.301614451711536" lon="8.761626681461113"><ele>494.5714285714286</ele><time>2026-04-17T19:16:52Z</time></trkpt><trkpt lat="47.30156321234256" lon="8.761696594298428"><ele>496.0</ele><time>2026-04-17T19:16:53Z</time></trkpt><trkpt lat="47.301511665620296" lon="8.761765672939969"><ele>496.0</ele><time>2026-04-17T19:16:54Z</time></trkpt><trkpt lat="47.30146049501858" lon="8.761836482348285"><ele>496.00000000000006</ele><time>2026-04-17T19:16:55Z</time></trkpt><trkpt lat="47.30141402189642" lon="8.761912173782202"><ele>496.0</ele><time>2026-04-17T19:16:56Z</time></trkpt><trkpt lat="47.30137327499943" lon="8.761996375204516"><ele>496.0</ele><time>2026-04-17T19:16:57Z</time></trkpt><trkpt lat="47.30133984983066" lon="8.762088193423615"><ele>496.00000000000006</ele><time>2026-04-17T19:16:58Z</time></trkpt><trkpt lat="47.30130948518569" lon="8.762182414018177"><ele>496.0</ele><time>2026-04-17T19:16:59Z</time></trkpt><trkpt lat="47.30128092775778" lon="8.76227763725264"><ele>496.0</ele><time>2026-04-17T19:17:00Z</time></trkpt><trkpt lat="47.30125982055271" lon="8.762378197603573"><ele>496.00000000000006</ele><time>2026-04-17T19:17:01Z</time></trkpt><trkpt lat="47.30124443878131" lon="8.762482978509755"><ele>496.0</ele><time>2026-04-17T19:17:02Z</time></trkpt><trkpt lat="47.30123579614111" lon="8.762590869250767"><ele>496.0</ele><time>2026-04-17T19:17:03Z</time></trkpt><trkpt lat="47.30122438149389" lon="8.76270053052823"><ele>496.0</ele><time>2026-04-17T19:17:04Z</time></trkpt><trkpt lat="47.30121515404165" lon="8.762811962045191"><ele>496.00000000000006</ele><time>2026-04-17T19:17:05Z</time></trkpt><trkpt lat="47.3012028604445" lon="8.762922906156653"><ele>496.0</ele><time>2026-04-17T19:17:06Z</time></trkpt><trkpt lat="47.301183608591785" lon="8.763034501702256"><ele>496.00000000000006</ele><time>2026-04-17T19:17:07Z</time></trkpt><trkpt lat="47.301147148781844" lon="8.76314018212444"><ele>496.0</ele><time>2026-04-17T19:17:08Z</time></trkpt><trkpt lat="47.30110586388294" lon="8.763240455662537"><ele>496.0</ele><time>2026-04-17T19:17:09Z</time></trkpt><trkpt lat="47.30105345472871" lon="8.763330916226394"><ele>496.0</ele><time>2026-04-17T19:17:10Z</time></trkpt><trkpt lat="47.300987988149814" lon="8.76340375668816"><ele>496.00000000000006</ele><time>2026-04-17T19:17:11Z</time></trkpt><trkpt lat="47.30092057047265" lon="8.763470075561811"><ele>496.0</ele><time>2026-04-17T19:17:12Z</time></trkpt><trkpt lat="47.30085093488993" lon="8.76353262112035"><ele>496.6666666666667</ele><time>2026-04-17T19:17:13Z</time></trkpt><trkpt lat="47.30078117385652" lon="8.763596353916656"><ele>497.33333333333337</ele><time>2026-04-17T19:17:14Z</time></trkpt><trkpt lat="47.3007123729688" lon="8.76366042977664"><ele>498.0</ele><time>2026-04-17T19:17:15Z</time></trkpt><trkpt lat="47.30064532108231" lon="8.763727613896728"><ele>498.66666666666663</ele><time>2026-04-17T19:17:16Z</time></trkpt><trkpt lat="47.30058752888061" lon="8.763812618572917"><ele>499.3333333333333</ele><time>2026-04-17T19:17:17Z</time></trkpt><trkpt lat="47.30053637608384" lon="8.763905232249213"><ele>500.0</ele><time>2026-04-17T19:17:18Z</time></trkpt><trkpt lat="47.30050119011451" lon="8.764011311380786"><ele>498.49999999999994</ele><time>2026-04-17T19:17:19Z</time></trkpt><trkpt lat="47.30046903574727" lon="8.76411709060127"><ele>497.0</ele><time>2026-04-17T19:17:20Z</time></trkpt><trkpt lat="47.30044299774995" lon="8.764226798685868"><ele>495.5</ele><time>2026-04-17T19:17:21Z</time></trkpt><trkpt lat="47.300423158971775" lon="8.764338414195285"><ele>494.0</ele><time>2026-04-17T19:17:22Z</time></trkpt><trkpt lat="47.300406104830955" lon="8.764450384651044"><ele>492.49999999999994</ele><time>2026-04-17T19:17:23Z</time></trkpt><trkpt lat="47.30038797469779" lon="8.764562609843592"><ele>491.0</ele><time>2026-04-17T19:17:24Z</time></trkpt><trkpt lat="47.30036953814368" lon="8.764673670257972"><ele>490.99999999999994</ele><time>2026-04-17T19:17:25Z</time></trkpt><trkpt lat="47.30035172559181" lon="8.764784789229344"><ele>491.0</ele><time>2026-04-17T19:17:26Z</time></trkpt><trkpt lat="47.300333728139975" lon="8.76489645826754"><ele>491.0</ele><time>2026-04-17T19:17:27Z</time></trkpt><trkpt lat="47.3003159133887" lon="8.765008355249133"><ele>491.0</ele><time>2026-04-17T19:17:28Z</time></trkpt><trkpt lat="47.30029874294768" lon="8.765121828218698"><ele>490.99999999999994</ele><time>2026-04-17T19:17:29Z</time></trkpt><trkpt lat="47.30028371603036" lon="8.765235896646653"><ele>491.0</ele><time>2026-04-17T19:17:30Z</time></trkpt><trkpt lat="47.30026802427848" lon="8.765349316618694"><ele>491.66666666666663</ele><time>2026-04-17T19:17:31Z</time></trkpt><trkpt lat="47.30024918440991" lon="8.765462711746517"><ele>492.3333333333333</ele><time>2026-04-17T19:17:32Z</time></trkpt><trkpt lat="47.3002287695536" lon="8.76557564778317"><ele>493.0</ele><time>2026-04-17T19:17:33Z</time></trkpt><trkpt lat="47.30020944217912" lon="8.765690289075444"><ele>493.66666666666663</ele><time>2026-04-17T19:17:34Z</time></trkpt><trkpt lat="47.30019123081402" lon="8.765805804912638"><ele>494.3333333333333</ele><time>2026-04-17T19:17:35Z</time></trkpt><trkpt lat="47.30017341354361" lon="8.765921311695113"><ele>495.0</ele><time>2026-04-17T19:17:36Z</time></trkpt><trkpt lat="47.300157102273545" lon="8.766037295991518"><ele>496.1666666666667</ele><time>2026-04-17T19:17:37Z</time></trkpt><trkpt lat="47.30013962962059" lon="8.766153206667093"><ele>497.33333333333337</ele><time>2026-04-17T19:17:38Z</time></trkpt><trkpt lat="47.30011983590507" lon="8.766268287627234"><ele>498.5</ele><time>2026-04-17T19:17:39Z</time></trkpt><trkpt lat="47.30010139880852" lon="8.766382928290817"><ele>499.6666666666667</ele><time>2026-04-17T19:17:40Z</time></trkpt><trkpt lat="47.30008323429539" lon="8.766497012949664"><ele>500.83333333333337</ele><time>2026-04-17T19:17:41Z</time></trkpt><trkpt lat="47.300058498265194" lon="8.766608046006633"><ele>502.0</ele><time>2026-04-17T19:17:42Z</time></trkpt><trkpt lat="47.30003102101936" lon="8.766715456771443"><ele>502.0</ele><time>2026-04-17T19:17:43Z</time></trkpt><trkpt lat="47.30001365995971" lon="8.766812803314446"><ele>502.00000000000006</ele><time>2026-04-17T19:17:44Z</time></trkpt><trkpt lat="47.29998876787317" lon="8.766980612875061"><ele>502.00000000000006</ele><time>2026-04-17T19:17:46Z</time></trkpt><trkpt lat="47.299983263552626" lon="8.767155840986225"><ele>502.0</ele><time>2026-04-17T19:17:48Z</time></trkpt><trkpt lat="47.29997675840544" lon="8.767308509312457"><ele>502.0</ele><time>2026-04-17T19:17:50Z</time></trkpt><trkpt lat="47.299939918007155" lon="8.76741126957421"><ele>502.6666666666667</ele><time>2026-04-17T19:17:52Z</time></trkpt><trkpt lat="47.300013746918985" lon="8.767464176320948"><ele>503.33333333333337</ele><time>2026-04-17T19:17:53Z</time></trkpt><trkpt lat="47.29999472481278" lon="8.767552756377945"><ele>504.0</ele><time>2026-04-17T19:19:07Z</time></trkpt><trkpt lat="47.299972066017354" lon="8.767650803043784"><ele>504.66666666666663</ele><time>2026-04-17T19:19:09Z</time></trkpt><trkpt lat="47.29992865888534" lon="8.767785106137104"><ele>505.3333333333333</ele><time>2026-04-17T19:19:11Z</time></trkpt><trkpt lat="47.29986984969417" lon="8.767952628131178"><ele>506.0</ele><time>2026-04-17T19:19:13Z</time></trkpt><trkpt lat="47.29983453891829" lon="8.768039259553284"><ele>506.00000000000006</ele><time>2026-04-17T19:19:14Z</time></trkpt><trkpt lat="47.29980458524221" lon="8.76813171068175"><ele>506.0</ele><time>2026-04-17T19:19:15Z</time></trkpt><trkpt lat="47.299773406282746" lon="8.768224939701195"><ele>506.00000000000006</ele><time>2026-04-17T19:19:16Z</time></trkpt><trkpt lat="47.29972699756868" lon="8.76830667077455"><ele>506.00000000000006</ele><time>2026-04-17T19:19:17Z</time></trkpt><trkpt lat="47.299676534562614" lon="8.76839112646929"><ele>506.0</ele><time>2026-04-17T19:19:18Z</time></trkpt><trkpt lat="47.29961792528249" lon="8.768467808560356"><ele>506.00000000000006</ele><time>2026-04-17T19:19:19Z</time></trkpt><trkpt lat="47.29955912209258" lon="8.768541291044684"><ele>506.00000000000006</ele><time>2026-04-17T19:19:20Z</time></trkpt><trkpt lat="47.29950119479815" lon="8.768619288502888"><ele>506.16666666666663</ele><time>2026-04-17T19:19:21Z</time></trkpt><trkpt lat="47.29944608104243" lon="8.768705116860968"><ele>506.3333333333333</ele><time>2026-04-17T19:19:22Z</time></trkpt><trkpt lat="47.29939235197705" lon="8.76878911017511"><ele>506.5</ele><time>2026-04-17T19:19:23Z</time></trkpt><trkpt lat="47.29927644439472" lon="8.768786649203234"><ele>506.66666666666663</ele><time>2026-04-17T19:19:24Z</time></trkpt><trkpt lat="47.299222360821275" lon="8.768870003873019"><ele>506.8333333333333</ele><time>2026-04-17T19:19:25Z</time></trkpt><trkpt lat="47.29916784288844" lon="8.768954028541494"><ele>507.0</ele><time>2026-04-17T19:19:26Z</time></trkpt><trkpt lat="47.299113257671024" lon="8.76903815653505"><ele>507.0</ele><time>2026-04-17T19:19:27Z</time></trkpt><trkpt lat="47.29905839321309" lon="8.769122715607304"><ele>507.0</ele><time>2026-04-17T19:19:28Z</time></trkpt><trkpt lat="47.299002909404244" lon="8.769208245917305"><ele>507.0</ele><time>2026-04-17T19:19:29Z</time></trkpt><trkpt lat="47.29894868248129" lon="8.769292960797015"><ele>507.0</ele><time>2026-04-17T19:19:30Z</time></trkpt><trkpt lat="47.29889412799958" lon="8.769378187409542"><ele>507.0</ele><time>2026-04-17T19:19:31Z</time></trkpt><trkpt lat="47.29883911734452" lon="8.769465301414634"><ele>507.0</ele><time>2026-04-17T19:19:32Z</time></trkpt><trkpt lat="47.29878613813934" lon="8.769550435409187"><ele>507.3333333333333</ele><time>2026-04-17T19:19:33Z</time></trkpt><trkpt lat="47.29873269113684" lon="8.769640188144082"><ele>507.66666666666663</ele><time>2026-04-17T19:19:34Z</time></trkpt><trkpt lat="47.298684156969756" lon="8.76972415102654"><ele>508.0</ele><time>2026-04-17T19:19:35Z</time></trkpt><trkpt lat="47.29863409763381" lon="8.769816163368322"><ele>508.3333333333333</ele><time>2026-04-17T19:19:36Z</time></trkpt><trkpt lat="47.29858249899637" lon="8.769917376648664"><ele>508.66666666666663</ele><time>2026-04-17T19:19:37Z</time></trkpt><trkpt lat="47.29853661360195" lon="8.770020187464342"><ele>509.0</ele><time>2026-04-17T19:19:38Z</time></trkpt><trkpt lat="47.29849758755182" lon="8.770117612040025"><ele>509.16666666666663</ele><time>2026-04-17T19:19:39Z</time></trkpt><trkpt lat="47.29845634868995" lon="8.770237748792924"><ele>509.3333333333333</ele><time>2026-04-17T19:19:40Z</time></trkpt><trkpt lat="47.298422574000014" lon="8.770342428444259"><ele>509.5</ele><time>2026-04-17T19:19:41Z</time></trkpt><trkpt lat="47.29839164024806" lon="8.770448345194223"><ele>509.66666666666663</ele><time>2026-04-17T19:19:42Z</time></trkpt><trkpt lat="47.298362889662684" lon="8.770556629370024"><ele>509.8333333333333</ele><time>2026-04-17T19:19:43Z</time></trkpt><trkpt lat="47.29833646579114" lon="8.77066092132464"><ele>510.0</ele><time>2026-04-17T19:19:44Z</time></trkpt><trkpt lat="47.2983147771965" lon="8.770783064440392"><ele>510.0</ele><time>2026-04-17T19:19:45Z</time></trkpt><trkpt lat="47.29829578362259" lon="8.7708922625095"><ele>510.0</ele><time>2026-04-17T19:19:46Z</time></trkpt><trkpt lat="47.29828107738441" lon="8.770993769191417"><ele>510.0</ele><time>2026-04-17T19:19:47Z</time></trkpt><trkpt lat="47.298268234139954" lon="8.771088028427634"><ele>510.0</ele><time>2026-04-17T19:19:48Z</time></trkpt><trkpt lat="47.29824616134372" lon="8.771253130525979"><ele>510.0</ele><time>2026-04-17T19:19:50Z</time></trkpt><trkpt lat="47.298234470717205" lon="8.77134845092149"><ele>510.0</ele><time>2026-04-17T19:19:51Z</time></trkpt><trkpt lat="47.29821502189085" lon="8.771518012236825"><ele>510.4</ele><time>2026-04-17T19:19:53Z</time></trkpt><trkpt lat="47.29820372553348" lon="8.771616497723949"><ele>510.8</ele><time>2026-04-17T19:19:54Z</time></trkpt><trkpt lat="47.2981930501427" lon="8.771709569304935"><ele>511.20000000000005</ele><time>2026-04-17T19:19:55Z</time></trkpt><trkpt lat="47.29817804547605" lon="8.771840386008511"><ele>511.6</ele><time>2026-04-17T19:19:57Z</time></trkpt><trkpt lat="47.29816055373363" lon="8.771992889546752"><ele>512.0</ele><time>2026-04-17T19:19:59Z</time></trkpt><trkpt lat="47.29813900674248" lon="8.772172220195914"><ele>512.1428571428571</ele><time>2026-04-17T19:20:01Z</time></trkpt><trkpt lat="47.29812776911878" lon="8.772267904497724"><ele>512.2857142857142</ele><time>2026-04-17T19:20:02Z</time></trkpt><trkpt lat="47.29811592661974" lon="8.772368740814134"><ele>512.4285714285714</ele><time>2026-04-17T19:20:03Z</time></trkpt><trkpt lat="47.29810515963376" lon="8.772473492452734"><ele>512.5714285714286</ele><time>2026-04-17T19:20:04Z</time></trkpt><trkpt lat="47.29809330875663" lon="8.772580047950889"><ele>512.7142857142858</ele><time>2026-04-17T19:20:05Z</time></trkpt><trkpt lat="47.29808131245024" lon="8.772687911031213"><ele>512.8571428571429</ele><time>2026-04-17T19:20:06Z</time></trkpt><trkpt lat="47.298068954147666" lon="8.772799028978554"><ele>513.0</ele><time>2026-04-17T19:20:07Z</time></trkpt><trkpt lat="47.29805649087187" lon="8.772911090741287"><ele>513.8333333333334</ele><time>2026-04-17T19:20:08Z</time></trkpt><trkpt lat="47.29804389174002" lon="8.773024376717999"><ele>514.6666666666666</ele><time>2026-04-17T19:20:09Z</time></trkpt><trkpt lat="47.29803011080499" lon="8.773139558953467"><ele>515.5</ele><time>2026-04-17T19:20:10Z</time></trkpt><trkpt lat="47.29801678716517" lon="8.773253944536602"><ele>516.3333333333333</ele><time>2026-04-17T19:20:11Z</time></trkpt><trkpt lat="47.29800176076501" lon="8.773366778704233"><ele>517.1666666666666</ele><time>2026-04-17T19:20:12Z</time></trkpt><trkpt lat="47.29798655670013" lon="8.773476914773823"><ele>518.0</ele><time>2026-04-17T19:20:13Z</time></trkpt><trkpt lat="47.29796435421011" lon="8.7736260882967"><ele>518.0</ele><time>2026-04-17T19:20:15Z</time></trkpt><trkpt lat="47.297935141007216" lon="8.773792494245123"><ele>518.0</ele><time>2026-04-17T19:20:17Z</time></trkpt><trkpt lat="47.29791656641082" lon="8.773888643845739"><ele>518.0</ele><time>2026-04-17T19:20:18Z</time></trkpt><trkpt lat="47.29789730216933" lon="8.773985464209922"><ele>518.0</ele><time>2026-04-17T19:20:19Z</time></trkpt><trkpt lat="47.29787270685713" lon="8.774090948276697"><ele>518.0</ele><time>2026-04-17T19:20:20Z</time></trkpt><trkpt lat="47.2978502039412" lon="8.774185146984644"><ele>518.0</ele><time>2026-04-17T19:20:21Z</time></trkpt><trkpt lat="47.29782702958775" lon="8.774276334091345"><ele>517.4285714285714</ele><time>2026-04-17T19:20:22Z</time></trkpt><trkpt lat="47.29780233753752" lon="8.774372546072955"><ele>516.8571428571429</ele><time>2026-04-17T19:20:23Z</time></trkpt><trkpt lat="47.29777564512277" lon="8.774472912692222"><ele>516.2857142857142</ele><time>2026-04-17T19:20:24Z</time></trkpt><trkpt lat="47.29774821564721" lon="8.774576050660443"><ele>515.7142857142858</ele><time>2026-04-17T19:20:25Z</time></trkpt><trkpt lat="47.29772053528273" lon="8.774680131927374"><ele>515.1428571428571</ele><time>2026-04-17T19:20:26Z</time></trkpt><trkpt lat="47.297693017000455" lon="8.774783603778555"><ele>514.5714285714286</ele><time>2026-04-17T19:20:27Z</time></trkpt><trkpt lat="47.29766487242987" lon="8.774889430856831"><ele>514.0</ele><time>2026-04-17T19:20:28Z</time></trkpt><trkpt lat="47.297636358644354" lon="8.774996645629898"><ele>514.0</ele><time>2026-04-17T19:20:29Z</time></trkpt><trkpt lat="47.297607975304174" lon="8.775103370139757"><ele>514.0</ele><time>2026-04-17T19:20:30Z</time></trkpt><trkpt lat="47.29757948127969" lon="8.775210511104314"><ele>514.0</ele><time>2026-04-17T19:20:31Z</time></trkpt><trkpt lat="47.29755076951896" lon="8.775316689522473"><ele>514.0</ele><time>2026-04-17T19:20:32Z</time></trkpt><trkpt lat="47.2975208510197" lon="8.775424880294393"><ele>514.0</ele><time>2026-04-17T19:20:33Z</time></trkpt><trkpt lat="47.29749045264648" lon="8.775532441466598"><ele>514.0</ele><time>2026-04-17T19:20:34Z</time></trkpt><trkpt lat="47.297460862048304" lon="8.775632821862395"><ele>514.1428571428571</ele><time>2026-04-17T19:20:35Z</time></trkpt><trkpt lat="47.29743021711954" lon="8.775729464439122"><ele>514.2857142857143</ele><time>2026-04-17T19:20:36Z</time></trkpt><trkpt lat="47.29739932844826" lon="8.775824468281522"><ele>514.4285714285714</ele><time>2026-04-17T19:20:37Z</time></trkpt><trkpt lat="47.29736719147656" lon="8.775918350067458"><ele>514.5714285714286</ele><time>2026-04-17T19:20:38Z</time></trkpt><trkpt lat="47.297332434215114" lon="8.77601951856936"><ele>514.7142857142857</ele><time>2026-04-17T19:20:39Z</time></trkpt><trkpt lat="47.29729827559499" lon="8.776115010455507"><ele>514.8571428571429</ele><time>2026-04-17T19:20:40Z</time></trkpt><trkpt lat="47.29726286067639" lon="8.77621280642678"><ele>515.0</ele><time>2026-04-17T19:20:41Z</time></trkpt><trkpt lat="47.29722788683354" lon="8.776309384125494"><ele>515.0</ele><time>2026-04-17T19:20:42Z</time></trkpt><trkpt lat="47.297192204859805" lon="8.776407917421412"><ele>515.0</ele><time>2026-04-17T19:20:43Z</time></trkpt><trkpt lat="47.29715574670785" lon="8.776508594076786"><ele>515.0</ele><time>2026-04-17T19:20:44Z</time></trkpt><trkpt lat="47.29711871842755" lon="8.776610845161692"><ele>515.0</ele><time>2026-04-17T19:20:45Z</time></trkpt><trkpt lat="47.29708123132544" lon="8.776714363211225"><ele>515.0</ele><time>2026-04-17T19:20:46Z</time></trkpt><trkpt lat="47.29704294447867" lon="8.776820089659308"><ele>515.0</ele><time>2026-04-17T19:20:47Z</time></trkpt><trkpt lat="47.29700432249874" lon="8.7769267415255"><ele>514.0</ele><time>2026-04-17T19:20:48Z</time></trkpt><trkpt lat="47.296966208281404" lon="8.777031991352274"><ele>513.0</ele><time>2026-04-17T19:20:49Z</time></trkpt><trkpt lat="47.29692849210878" lon="8.77713614180972"><ele>512.0</ele><time>2026-04-17T19:20:50Z</time></trkpt><trkpt lat="47.29689067932879" lon="8.77723942858924"><ele>511.0</ele><time>2026-04-17T19:20:51Z</time></trkpt><trkpt lat="47.29685212157314" lon="8.777342267563434"><ele>509.99999999999994</ele><time>2026-04-17T19:20:52Z</time></trkpt><trkpt lat="47.296813258845205" lon="8.77744841659972"><ele>509.0</ele><time>2026-04-17T19:20:53Z</time></trkpt><trkpt lat="47.296776627924274" lon="8.777560460803185"><ele>508.99999999999994</ele><time>2026-04-17T19:20:54Z</time></trkpt><trkpt lat="47.296741783649935" lon="8.777672033337492"><ele>509.0</ele><time>2026-04-17T19:20:55Z</time></trkpt><trkpt lat="47.29670785946844" lon="8.77778363984922"><ele>509.0</ele><time>2026-04-17T19:20:56Z</time></trkpt><trkpt lat="47.29667421270117" lon="8.777899332752284"><ele>509.0</ele><time>2026-04-17T19:20:57Z</time></trkpt><trkpt lat="47.296642459329355" lon="8.778016946978479"><ele>508.99999999999994</ele><time>2026-04-17T19:20:58Z</time></trkpt><trkpt lat="47.29661247233835" lon="8.778136955313585"><ele>509.0</ele><time>2026-04-17T19:20:59Z</time></trkpt><trkpt lat="47.29658736364908" lon="8.77825432224417"><ele>508.3333333333333</ele><time>2026-04-17T19:21:00Z</time></trkpt><trkpt lat="47.29656557091997" lon="8.778365272016538"><ele>507.66666666666663</ele><time>2026-04-17T19:21:01Z</time></trkpt><trkpt lat="47.29654498306011" lon="8.778472020098022"><ele>507.0</ele><time>2026-04-17T19:21:02Z</time></trkpt><trkpt lat="47.29652379019746" lon="8.778581905079216"><ele>506.33333333333337</ele><time>2026-04-17T19:21:03Z</time></trkpt><trkpt lat="47.2965052333985" lon="8.778686576682503"><ele>505.6666666666667</ele><time>2026-04-17T19:21:04Z</time></trkpt><trkpt lat="47.29648568512241" lon="8.77879783106511"><ele>505.0</ele><time>2026-04-17T19:21:06Z</time></trkpt><trkpt lat="47.29644505697593" lon="8.778878186034342"><ele>505.0</ele><time>2026-04-17T19:21:14Z</time></trkpt><trkpt lat="47.296437640818205" lon="8.778975996004183"><ele>505.0</ele><time>2026-04-17T19:21:15Z</time></trkpt><trkpt lat="47.29637828496587" lon="8.779011640150495"><ele>505.0</ele><time>2026-04-17T19:21:17Z</time></trkpt><trkpt lat="47.29627093023955" lon="8.779031191064206"><ele>505.0</ele><time>2026-04-17T19:21:20Z</time></trkpt><trkpt lat="47.296188288768285" lon="8.779037739444426"><ele>505.0</ele><time>2026-04-17T19:21:29Z</time></trkpt><trkpt lat="47.29607009304767" lon="8.778954835869799"><ele>505.00000000000006</ele><time>2026-04-17T19:21:31Z</time></trkpt><trkpt lat="47.2959979216627" lon="8.778935478298724"><ele>505.0</ele><time>2026-04-17T19:21:32Z</time></trkpt><trkpt lat="47.29592282373507" lon="8.7789137157126"><ele>505.0</ele><time>2026-04-17T19:21:33Z</time></trkpt><trkpt lat="47.295843580276994" lon="8.778886952637954"><ele>505.0</ele><time>2026-04-17T19:21:34Z</time></trkpt><trkpt lat="47.2957648443459" lon="8.77885432474838"><ele>505.00000000000006</ele><time>2026-04-17T19:21:35Z</time></trkpt><trkpt lat="47.29568790398483" lon="8.778809481801506"><ele>505.0</ele><time>2026-04-17T19:21:36Z</time></trkpt><trkpt lat="47.295613152462" lon="8.778759829914417"><ele>505.1666666666667</ele><time>2026-04-17T19:21:37Z</time></trkpt><trkpt lat="47.29553941176822" lon="8.778703545810222"><ele>505.33333333333337</ele><time>2026-04-17T19:21:38Z</time></trkpt><trkpt lat="47.29546281193614" lon="8.778648860461265"><ele>505.5</ele><time>2026-04-17T19:21:39Z</time></trkpt><trkpt lat="47.29538779881689" lon="8.778586437845513"><ele>505.66666666666663</ele><time>2026-04-17T19:21:40Z</time></trkpt><trkpt lat="47.29531218656214" lon="8.778526137928512"><ele>505.8333333333333</ele><time>2026-04-17T19:21:41Z</time></trkpt><trkpt lat="47.29523936894612" lon="8.77846077031838"><ele>506.0</ele><time>2026-04-17T19:21:42Z</time></trkpt><trkpt lat="47.295171085034355" lon="8.778402874114962"><ele>505.99999999999994</ele><time>2026-04-17T19:21:43Z</time></trkpt><trkpt lat="47.29510092435747" lon="8.778348161960253"><ele>506.0</ele><time>2026-04-17T19:21:44Z</time></trkpt><trkpt lat="47.29500349663779" lon="8.778306333837524"><ele>506.0</ele><time>2026-04-17T19:21:45Z</time></trkpt><trkpt lat="47.294924831354734" lon="8.778266887972613"><ele>506.0</ele><time>2026-04-17T19:21:46Z</time></trkpt><trkpt lat="47.29483998608592" lon="8.778231325241869"><ele>505.99999999999994</ele><time>2026-04-17T19:21:47Z</time></trkpt><trkpt lat="47.29475536302265" lon="8.778202064308212"><ele>506.0</ele><time>2026-04-17T19:21:48Z</time></trkpt><trkpt lat="47.29466714960871" lon="8.778178227545343"><ele>505.16666666666663</ele><time>2026-04-17T19:21:49Z</time></trkpt><trkpt lat="47.294582122050876" lon="8.778152135898463"><ele>504.3333333333333</ele><time>2026-04-17T19:21:50Z</time></trkpt><trkpt lat="47.294500215311174" lon="8.778127192129672"><ele>503.5</ele><time>2026-04-17T19:21:51Z</time></trkpt><trkpt lat="47.294404729775195" lon="8.778089393839807"><ele>502.66666666666663</ele><time>2026-04-17T19:21:52Z</time></trkpt><trkpt lat="47.294322109842014" lon="8.778058649268782"><ele>501.8333333333333</ele><time>2026-04-17T19:21:53Z</time></trkpt><trkpt lat="47.29423537921659" lon="8.778026757233583"><ele>501.0</ele><time>2026-04-17T19:21:54Z</time></trkpt><trkpt lat="47.294150506660415" lon="8.777994356506932"><ele>501.0</ele><time>2026-04-17T19:21:55Z</time></trkpt><trkpt lat="47.29406640757946" lon="8.777953194473893"><ele>501.0</ele><time>2026-04-17T19:21:56Z</time></trkpt><trkpt lat="47.293983869231184" lon="8.777899049454044"><ele>501.0</ele><time>2026-04-17T19:21:57Z</time></trkpt><trkpt lat="47.29390224498717" lon="8.77784034239597"><ele>501.0</ele><time>2026-04-17T19:21:58Z</time></trkpt><trkpt lat="47.293821650676" lon="8.777777337880718"><ele>501.0</ele><time>2026-04-17T19:21:59Z</time></trkpt><trkpt lat="47.29374874010058" lon="8.777705081384337"><ele>501.0</ele><time>2026-04-17T19:22:00Z</time></trkpt><trkpt lat="47.29367253473968" lon="8.77762446512177"><ele>499.6</ele><time>2026-04-17T19:22:01Z</time></trkpt><trkpt lat="47.29359516895964" lon="8.77754857678979"><ele>498.20000000000005</ele><time>2026-04-17T19:22:02Z</time></trkpt><trkpt lat="47.293516014295115" lon="8.777475535104177"><ele>496.79999999999995</ele><time>2026-04-17T19:22:03Z</time></trkpt><trkpt lat="47.29343849009412" lon="8.77740642458406"><ele>495.4</ele><time>2026-04-17T19:22:04Z</time></trkpt><trkpt lat="47.29336072961204" lon="8.777336361827565"><ele>494.0</ele><time>2026-04-17T19:22:05Z</time></trkpt><trkpt lat="47.29328255939179" lon="8.77726845895921"><ele>493.99999999999994</ele><time>2026-04-17T19:22:06Z</time></trkpt><trkpt lat="47.29320696329777" lon="8.777198234903777"><ele>494.0</ele><time>2026-04-17T19:22:07Z</time></trkpt><trkpt lat="47.29312773842192" lon="8.777131868521488"><ele>494.0</ele><time>2026-04-17T19:22:08Z</time></trkpt><trkpt lat="47.2930556529557" lon="8.777066437998947"><ele>494.0</ele><time>2026-04-17T19:22:09Z</time></trkpt><trkpt lat="47.29300027634458" lon="8.77698552996776"><ele>493.99999999999994</ele><time>2026-04-17T19:22:10Z</time></trkpt><trkpt lat="47.29294907103229" lon="8.776895728728975"><ele>494.0</ele><time>2026-04-17T19:22:11Z</time></trkpt><trkpt lat="47.29291642106053" lon="8.776778007920003"><ele>493.8333333333333</ele><time>2026-04-17T19:22:12Z</time></trkpt><trkpt lat="47.29289797982036" lon="8.776666540403342"><ele>493.66666666666663</ele><time>2026-04-17T19:22:13Z</time></trkpt><trkpt lat="47.29285100519656" lon="8.77655503217287"><ele>493.5</ele><time>2026-04-17T19:22:14Z</time></trkpt><trkpt lat="47.29280858772878" lon="8.776442451340106"><ele>493.33333333333337</ele><time>2026-04-17T19:22:15Z</time></trkpt><trkpt lat="47.29276807598268" lon="8.776333294862855"><ele>493.1666666666667</ele><time>2026-04-17T19:22:16Z</time></trkpt><trkpt lat="47.29272102174058" lon="8.776231019298153"><ele>493.0</ele><time>2026-04-17T19:22:17Z</time></trkpt><trkpt lat="47.29267023807662" lon="8.776142323412953"><ele>493.0</ele><time>2026-04-17T19:22:18Z</time></trkpt><trkpt lat="47.29261089845059" lon="8.776065423155252"><ele>493.0</ele><time>2026-04-17T19:22:19Z</time></trkpt><trkpt lat="47.292549385924815" lon="8.776001872034861"><ele>493.0</ele><time>2026-04-17T19:22:20Z</time></trkpt><trkpt lat="47.292496183512036" lon="8.77593793273744"><ele>493.0</ele><time>2026-04-17T19:22:21Z</time></trkpt><trkpt lat="47.29244425275381" lon="8.775874726343513"><ele>493.0</ele><time>2026-04-17T19:22:22Z</time></trkpt><trkpt lat="47.29238074023436" lon="8.775829552181099"><ele>493.0</ele><time>2026-04-17T19:22:23Z</time></trkpt><trkpt lat="47.29230880390592" lon="8.775786704889033"><ele>493.0</ele><time>2026-04-17T19:22:24Z</time></trkpt><trkpt lat="47.29222905239914" lon="8.775745448365958"><ele>492.50000000000006</ele><time>2026-04-17T19:22:25Z</time></trkpt><trkpt lat="47.29215302851681" lon="8.775707527188175"><ele>492.0</ele><time>2026-04-17T19:22:26Z</time></trkpt><trkpt lat="47.29207347713111" lon="8.775668599473471"><ele>491.5</ele><time>2026-04-17T19:22:27Z</time></trkpt><trkpt lat="47.29199251151345" lon="8.775632585513117"><ele>491.0</ele><time>2026-04-17T19:22:28Z</time></trkpt><trkpt lat="47.29191052177196" lon="8.775592942522016"><ele>490.50000000000006</ele><time>2026-04-17T19:22:29Z</time></trkpt><trkpt lat="47.29182764401722" lon="8.775554823600151"><ele>490.0</ele><time>2026-04-17T19:22:30Z</time></trkpt><trkpt lat="47.29174639205434" lon="8.775513189264359"><ele>490.00000000000006</ele><time>2026-04-17T19:22:31Z</time></trkpt><trkpt lat="47.29166910263971" lon="8.775472427289428"><ele>490.0</ele><time>2026-04-17T19:22:32Z</time></trkpt><trkpt lat="47.29159285180391" lon="8.775430566115189"><ele>490.0</ele><time>2026-04-17T19:22:33Z</time></trkpt><trkpt lat="47.291514020265446" lon="8.775392006829442"><ele>490.0</ele><time>2026-04-17T19:22:34Z</time></trkpt><trkpt lat="47.29143540380027" lon="8.77535297254663"><ele>490.00000000000006</ele><time>2026-04-17T19:22:35Z</time></trkpt><trkpt lat="47.29136585352129" lon="8.775316020946853"><ele>490.0</ele><time>2026-04-17T19:22:36Z</time></trkpt><trkpt lat="47.29130066691998" lon="8.775271235692289"><ele>490.33333333333337</ele><time>2026-04-17T19:22:37Z</time></trkpt><trkpt lat="47.29123349344183" lon="8.775219346451452"><ele>490.6666666666667</ele><time>2026-04-17T19:22:38Z</time></trkpt><trkpt lat="47.29116760197358" lon="8.775149558028476"><ele>491.0</ele><time>2026-04-17T19:22:39Z</time></trkpt><trkpt lat="47.291099689219855" lon="8.77507931639252"><ele>491.33333333333337</ele><time>2026-04-17T19:22:40Z</time></trkpt><trkpt lat="47.291033870706514" lon="8.775004554069268"><ele>491.6666666666667</ele><time>2026-04-17T19:22:41Z</time></trkpt><trkpt lat="47.290969448443455" lon="8.77492873886481"><ele>492.0</ele><time>2026-04-17T19:22:42Z</time></trkpt><trkpt lat="47.29090831627917" lon="8.774840787526424"><ele>492.0</ele><time>2026-04-17T19:22:43Z</time></trkpt><trkpt lat="47.29085331877324" lon="8.774751415117526"><ele>492.0</ele><time>2026-04-17T19:22:44Z</time></trkpt><trkpt lat="47.29080301857981" lon="8.774654961667283"><ele>492.0</ele><time>2026-04-17T19:22:45Z</time></trkpt><trkpt lat="47.29075764928217" lon="8.774552896079353"><ele>492.0</ele><time>2026-04-17T19:22:46Z</time></trkpt><trkpt lat="47.290727542381376" lon="8.774452127744715"><ele>492.0</ele><time>2026-04-17T19:22:47Z</time></trkpt><trkpt lat="47.290697323214445" lon="8.77434841426722"><ele>492.0</ele><time>2026-04-17T19:22:48Z</time></trkpt><trkpt lat="47.29067301959757" lon="8.774253143997322"><ele>491.20000000000005</ele><time>2026-04-17T19:22:49Z</time></trkpt><trkpt lat="47.290647543518126" lon="8.77416088499778"><ele>490.40000000000003</ele><time>2026-04-17T19:22:50Z</time></trkpt><trkpt lat="47.2905997114057" lon="8.773997487439038"><ele>489.59999999999997</ele><time>2026-04-17T19:22:52Z</time></trkpt><trkpt lat="47.29055573165625" lon="8.773847622090694"><ele>488.79999999999995</ele><time>2026-04-17T19:22:54Z</time></trkpt><trkpt lat="47.29051764115495" lon="8.773731654251742"><ele>488.0</ele><time>2026-04-17T19:22:56Z</time></trkpt><trkpt lat="47.290467961236544" lon="8.77356696213226"><ele>487.66666666666663</ele><time>2026-04-17T19:22:58Z</time></trkpt><trkpt lat="47.290441466031936" lon="8.773473587554172"><ele>487.3333333333333</ele><time>2026-04-17T19:22:59Z</time></trkpt><trkpt lat="47.29041171732417" lon="8.77337097071772"><ele>487.0</ele><time>2026-04-17T19:23:00Z</time></trkpt><trkpt lat="47.29038188855511" lon="8.773268069476655"><ele>486.66666666666663</ele><time>2026-04-17T19:23:01Z</time></trkpt><trkpt lat="47.290350185618415" lon="8.773157791125058"><ele>486.3333333333333</ele><time>2026-04-17T19:23:02Z</time></trkpt><trkpt lat="47.29031871534885" lon="8.773047998279159"><ele>486.0</ele><time>2026-04-17T19:23:03Z</time></trkpt><trkpt lat="47.29028519275084" lon="8.772937284731164"><ele>486.0</ele><time>2026-04-17T19:23:04Z</time></trkpt><trkpt lat="47.290254235267646" lon="8.772822849825888"><ele>486.0</ele><time>2026-04-17T19:23:05Z</time></trkpt><trkpt lat="47.29022336010046" lon="8.772705583974084"><ele>486.0</ele><time>2026-04-17T19:23:06Z</time></trkpt><trkpt lat="47.29018905411022" lon="8.772588012420732"><ele>486.0</ele><time>2026-04-17T19:23:07Z</time></trkpt><trkpt lat="47.29015647113676" lon="8.77246811778925"><ele>486.0</ele><time>2026-04-17T19:23:08Z</time></trkpt><trkpt lat="47.29012142633863" lon="8.772347196865447"><ele>486.0</ele><time>2026-04-17T19:23:09Z</time></trkpt><trkpt lat="47.290087690473946" lon="8.77222434685168"><ele>485.5</ele><time>2026-04-17T19:23:10Z</time></trkpt><trkpt lat="47.290052688887954" lon="8.772100181463083"><ele>485.0</ele><time>2026-04-17T19:23:11Z</time></trkpt><trkpt lat="47.29002045110533" lon="8.771981903699345"><ele>484.5</ele><time>2026-04-17T19:23:12Z</time></trkpt><trkpt lat="47.28998548888455" lon="8.771860871951635"><ele>484.0</ele><time>2026-04-17T19:23:13Z</time></trkpt><trkpt lat="47.28995117257202" lon="8.771742689364865"><ele>483.5</ele><time>2026-04-17T19:23:14Z</time></trkpt><trkpt lat="47.289918746421115" lon="8.771622154605682"><ele>483.0</ele><time>2026-04-17T19:23:15Z</time></trkpt><trkpt lat="47.28988382753855" lon="8.77150681083101"><ele>482.6666666666667</ele><time>2026-04-17T19:23:16Z</time></trkpt><trkpt lat="47.289848781057906" lon="8.771389967710698"><ele>482.33333333333337</ele><time>2026-04-17T19:23:17Z</time></trkpt><trkpt lat="47.2898185452547" lon="8.7712825144636"><ele>482.0</ele><time>2026-04-17T19:23:18Z</time></trkpt><trkpt lat="47.28979387402533" lon="8.771175491505302"><ele>481.6666666666667</ele><time>2026-04-17T19:23:19Z</time></trkpt><trkpt lat="47.28976994807876" lon="8.771079973975146"><ele>481.33333333333337</ele><time>2026-04-17T19:23:20Z</time></trkpt><trkpt lat="47.289732617397846" lon="8.770930639871679"><ele>481.0</ele><time>2026-04-17T19:23:22Z</time></trkpt><trkpt lat="47.289675452144444" lon="8.770804219436174"><ele>481.00000000000006</ele><time>2026-04-17T19:23:25Z</time></trkpt><trkpt lat="47.289622206001674" lon="8.770653210409082"><ele>481.0</ele><time>2026-04-17T19:23:27Z</time></trkpt><trkpt lat="47.289588084365434" lon="8.770560475764606"><ele>481.0</ele><time>2026-04-17T19:23:28Z</time></trkpt><trkpt lat="47.2895544223764" lon="8.770459482931408"><ele>481.0</ele><time>2026-04-17T19:23:29Z</time></trkpt><trkpt lat="47.289515648455335" lon="8.770369552899595"><ele>481.00000000000006</ele><time>2026-04-17T19:23:30Z</time></trkpt><trkpt lat="47.28947715661393" lon="8.770275875947751"><ele>481.0</ele><time>2026-04-17T19:23:31Z</time></trkpt><trkpt lat="47.28944213316962" lon="8.7701732461784"><ele>480.83333333333337</ele><time>2026-04-17T19:23:32Z</time></trkpt><trkpt lat="47.28940961460694" lon="8.770066781038938"><ele>480.6666666666667</ele><time>2026-04-17T19:23:33Z</time></trkpt><trkpt lat="47.28937552645762" lon="8.769963137704616"><ele>480.5</ele><time>2026-04-17T19:23:34Z</time></trkpt><trkpt lat="47.28934028248873" lon="8.769857595874843"><ele>480.33333333333337</ele><time>2026-04-17T19:23:35Z</time></trkpt><trkpt lat="47.28930546269811" lon="8.769755936933018"><ele>480.1666666666667</ele><time>2026-04-17T19:23:36Z</time></trkpt><trkpt lat="47.28927022556392" lon="8.769651484550398"><ele>480.0</ele><time>2026-04-17T19:23:37Z</time></trkpt><trkpt lat="47.2892353895301" lon="8.769551015497811"><ele>480.0</ele><time>2026-04-17T19:23:38Z</time></trkpt><trkpt lat="47.28920042183448" lon="8.769449346000064"><ele>480.0</ele><time>2026-04-17T19:23:39Z</time></trkpt><trkpt lat="47.289165024618875" lon="8.769349798189456"><ele>480.0</ele><time>2026-04-17T19:23:40Z</time></trkpt><trkpt lat="47.289131141647125" lon="8.769249855661768"><ele>480.0</ele><time>2026-04-17T19:23:41Z</time></trkpt><trkpt lat="47.28909765303977" lon="8.769149164266173"><ele>480.0</ele><time>2026-04-17T19:23:42Z</time></trkpt><trkpt lat="47.28906481034994" lon="8.769050175233252"><ele>480.0</ele><time>2026-04-17T19:23:43Z</time></trkpt><trkpt lat="47.28902865623994" lon="8.768950701615452"><ele>480.1666666666667</ele><time>2026-04-17T19:23:44Z</time></trkpt><trkpt lat="47.288993479627926" lon="8.76885092827735"><ele>480.33333333333337</ele><time>2026-04-17T19:23:45Z</time></trkpt><trkpt lat="47.28895785320348" lon="8.768748296056335"><ele>480.5</ele><time>2026-04-17T19:23:46Z</time></trkpt><trkpt lat="47.28892044745889" lon="8.768649400269304"><ele>480.6666666666667</ele><time>2026-04-17T19:23:47Z</time></trkpt><trkpt lat="47.288884874523475" lon="8.768548133617005"><ele>480.83333333333337</ele><time>2026-04-17T19:23:48Z</time></trkpt><trkpt lat="47.288844387115695" lon="8.768445281217485"><ele>481.0</ele><time>2026-04-17T19:23:49Z</time></trkpt><trkpt lat="47.288803877874656" lon="8.768343988883883"><ele>481.00000000000006</ele><time>2026-04-17T19:23:50Z</time></trkpt><trkpt lat="47.28876368885181" lon="8.768242230147965"><ele>481.0</ele><time>2026-04-17T19:23:51Z</time></trkpt><trkpt lat="47.2887250604255" lon="8.768137396508381"><ele>481.0</ele><time>2026-04-17T19:23:52Z</time></trkpt><trkpt lat="47.288687220297625" lon="8.768031440203869"><ele>481.0</ele><time>2026-04-17T19:23:53Z</time></trkpt><trkpt lat="47.28864475743234" lon="8.767931181332731"><ele>481.00000000000006</ele><time>2026-04-17T19:23:54Z</time></trkpt><trkpt lat="47.288601797739815" lon="8.767827380427057"><ele>481.0</ele><time>2026-04-17T19:23:55Z</time></trkpt><trkpt lat="47.2885567473662" lon="8.767725050220225"><ele>481.1666666666667</ele><time>2026-04-17T19:23:56Z</time></trkpt><trkpt lat="47.28851290550863" lon="8.767623772315604"><ele>481.33333333333337</ele><time>2026-04-17T19:23:57Z</time></trkpt><trkpt lat="47.28846429938141" lon="8.767525872201581"><ele>481.5</ele><time>2026-04-17T19:23:58Z</time></trkpt><trkpt lat="47.288414207471845" lon="8.76742907575969"><ele>481.66666666666663</ele><time>2026-04-17T19:23:59Z</time></trkpt><trkpt lat="47.28836099377337" lon="8.767336666424981"><ele>481.8333333333333</ele><time>2026-04-17T19:24:00Z</time></trkpt><trkpt lat="47.28830621120305" lon="8.767243944979196"><ele>482.0</ele><time>2026-04-17T19:24:01Z</time></trkpt><trkpt lat="47.28824990028778" lon="8.767157417102277"><ele>481.99999999999994</ele><time>2026-04-17T19:24:02Z</time></trkpt><trkpt lat="47.28819024022512" lon="8.767071438621114"><ele>482.0</ele><time>2026-04-17T19:24:03Z</time></trkpt><trkpt lat="47.2881270737651" lon="8.766993123795181"><ele>482.0</ele><time>2026-04-17T19:24:04Z</time></trkpt><trkpt lat="47.28806142033584" lon="8.766920559015215"><ele>482.0</ele><time>2026-04-17T19:24:05Z</time></trkpt><trkpt lat="47.28799391272833" lon="8.76685065568989"><ele>481.99999999999994</ele><time>2026-04-17T19:24:06Z</time></trkpt><trkpt lat="47.28792450017067" lon="8.766784409709176"><ele>482.0</ele><time>2026-04-17T19:24:07Z</time></trkpt><trkpt lat="47.28785328223107" lon="8.766723243770555"><ele>482.3333333333333</ele><time>2026-04-17T19:24:08Z</time></trkpt><trkpt lat="47.28778099106933" lon="8.76666416734271"><ele>482.66666666666663</ele><time>2026-04-17T19:24:09Z</time></trkpt><trkpt lat="47.287705746396966" lon="8.766614832350301"><ele>483.0</ele><time>2026-04-17T19:24:10Z</time></trkpt><trkpt lat="47.28763399959796" lon="8.766562988332769"><ele>483.33333333333337</ele><time>2026-04-17T19:24:11Z</time></trkpt><trkpt lat="47.28756159462678" lon="8.76650707311842"><ele>483.6666666666667</ele><time>2026-04-17T19:24:12Z</time></trkpt><trkpt lat="47.28748315524867" lon="8.766477362847178"><ele>484.0</ele><time>2026-04-17T19:24:13Z</time></trkpt><trkpt lat="47.28740359990885" lon="8.766459687932134"><ele>484.00000000000006</ele><time>2026-04-17T19:24:14Z</time></trkpt><trkpt lat="47.28732293510809" lon="8.766443635589603"><ele>484.0</ele><time>2026-04-17T19:24:15Z</time></trkpt><trkpt lat="47.28724270027498" lon="8.766423849445161"><ele>484.0</ele><time>2026-04-17T19:24:16Z</time></trkpt><trkpt lat="47.287162303597704" lon="8.766412423569982"><ele>484.0</ele><time>2026-04-17T19:24:17Z</time></trkpt><trkpt lat="47.287080068671045" lon="8.766405835055863"><ele>484.00000000000006</ele><time>2026-04-17T19:24:18Z</time></trkpt><trkpt lat="47.28699874228256" lon="8.76640341821958"><ele>484.0</ele><time>2026-04-17T19:24:19Z</time></trkpt><trkpt lat="47.2869172784618" lon="8.766403944015941"><ele>484.1666666666667</ele><time>2026-04-17T19:24:20Z</time></trkpt><trkpt lat="47.28683619527279" lon="8.766406998329042"><ele>484.33333333333337</ele><time>2026-04-17T19:24:21Z</time></trkpt><trkpt lat="47.28675520963847" lon="8.766413825872903"><ele>484.5</ele><time>2026-04-17T19:24:22Z</time></trkpt><trkpt lat="47.28667396963826" lon="8.766424266721549"><ele>484.66666666666663</ele><time>2026-04-17T19:24:23Z</time></trkpt><trkpt lat="47.28659248533051" lon="8.766433527022764"><ele>484.8333333333333</ele><time>2026-04-17T19:24:24Z</time></trkpt><trkpt lat="47.286511402654796" lon="8.766446102602096"><ele>485.0</ele><time>2026-04-17T19:24:25Z</time></trkpt><trkpt lat="47.28642940145879" lon="8.766456538837087"><ele>484.66666666666663</ele><time>2026-04-17T19:24:26Z</time></trkpt><trkpt lat="47.28634807393447" lon="8.766467206575191"><ele>484.3333333333333</ele><time>2026-04-17T19:24:27Z</time></trkpt><trkpt lat="47.28626686992031" lon="8.766473812451746"><ele>484.0</ele><time>2026-04-17T19:24:28Z</time></trkpt><trkpt lat="47.28618391482934" lon="8.766482636139372"><ele>483.66666666666663</ele><time>2026-04-17T19:24:29Z</time></trkpt><trkpt lat="47.28610299565953" lon="8.76649412263821"><ele>483.3333333333333</ele><time>2026-04-17T19:24:30Z</time></trkpt><trkpt lat="47.286021595872405" lon="8.766507691446755"><ele>483.0</ele><time>2026-04-17T19:24:31Z</time></trkpt><trkpt lat="47.285941247414385" lon="8.766517971463141"><ele>483.0</ele><time>2026-04-17T19:24:32Z</time></trkpt><trkpt lat="47.28586077545347" lon="8.766528708974676"><ele>483.0</ele><time>2026-04-17T19:24:33Z</time></trkpt><trkpt lat="47.285780307000884" lon="8.766539959915713"><ele>483.0</ele><time>2026-04-17T19:24:34Z</time></trkpt><trkpt lat="47.28570077809964" lon="8.766551631747877"><ele>483.0</ele><time>2026-04-17T19:24:35Z</time></trkpt><trkpt lat="47.28562122753157" lon="8.766564481959612"><ele>483.0</ele><time>2026-04-17T19:24:36Z</time></trkpt><trkpt lat="47.28554242659002" lon="8.766575021519143"><ele>483.0</ele><time>2026-04-17T19:24:37Z</time></trkpt><trkpt lat="47.28546300783195" lon="8.76658188758681"><ele>483.5</ele><time>2026-04-17T19:24:38Z</time></trkpt><trkpt lat="47.28538324619632" lon="8.766584997893617"><ele>484.0</ele><time>2026-04-17T19:24:39Z</time></trkpt><trkpt lat="47.2853024291196" lon="8.76658526643353"><ele>484.5</ele><time>2026-04-17T19:24:40Z</time></trkpt><trkpt lat="47.285221796068676" lon="8.766584050312296"><ele>485.0</ele><time>2026-04-17T19:24:41Z</time></trkpt><trkpt lat="47.285142374035196" lon="8.7665825535452"><ele>485.5</ele><time>2026-04-17T19:24:42Z</time></trkpt><trkpt lat="47.28506245571931" lon="8.76657902571397"><ele>486.0</ele><time>2026-04-17T19:24:43Z</time></trkpt><trkpt lat="47.28498371256034" lon="8.766569269253367"><ele>486.0</ele><time>2026-04-17T19:24:44Z</time></trkpt><trkpt lat="47.28490407308901" lon="8.766557167646505"><ele>486.0</ele><time>2026-04-17T19:24:45Z</time></trkpt><trkpt lat="47.284825412971664" lon="8.766547027020287"><ele>486.0</ele><time>2026-04-17T19:24:46Z</time></trkpt><trkpt lat="47.28474661479404" lon="8.766533806448"><ele>486.0</ele><time>2026-04-17T19:24:47Z</time></trkpt><trkpt lat="47.28466755928994" lon="8.766516037867444"><ele>486.0</ele><time>2026-04-17T19:24:48Z</time></trkpt><trkpt lat="47.28458887089203" lon="8.766499101886458"><ele>486.0</ele><time>2026-04-17T19:24:49Z</time></trkpt><trkpt lat="47.284510987104234" lon="8.766482600805594"><ele>486.6666666666667</ele><time>2026-04-17T19:24:50Z</time></trkpt><trkpt lat="47.28443230265137" lon="8.76646694676793"><ele>487.33333333333337</ele><time>2026-04-17T19:24:51Z</time></trkpt><trkpt lat="47.2843544960804" lon="8.766446863811879"><ele>488.0</ele><time>2026-04-17T19:24:52Z</time></trkpt><trkpt lat="47.28427664479076" lon="8.766426139947509"><ele>488.6666666666667</ele><time>2026-04-17T19:24:53Z</time></trkpt><trkpt lat="47.284199064501536" lon="8.766406452404398"><ele>489.33333333333337</ele><time>2026-04-17T19:24:54Z</time></trkpt><trkpt lat="47.28412103044177" lon="8.766385231290302"><ele>490.0</ele><time>2026-04-17T19:24:55Z</time></trkpt><trkpt lat="47.28404376783117" lon="8.766362241534045"><ele>490.00000000000006</ele><time>2026-04-17T19:24:56Z</time></trkpt><trkpt lat="47.283966396306695" lon="8.766339776172611"><ele>490.0</ele><time>2026-04-17T19:24:57Z</time></trkpt><trkpt lat="47.283888457896595" lon="8.766318566120775"><ele>490.0</ele><time>2026-04-17T19:24:58Z</time></trkpt><trkpt lat="47.283811215890374" lon="8.766300433030391"><ele>490.0</ele><time>2026-04-17T19:24:59Z</time></trkpt><trkpt lat="47.283733084639266" lon="8.766282610844302"><ele>490.00000000000006</ele><time>2026-04-17T19:25:00Z</time></trkpt><trkpt lat="47.283656137430086" lon="8.766268337028746"><ele>490.0</ele><time>2026-04-17T19:25:01Z</time></trkpt><trkpt lat="47.28358430725391" lon="8.766253033438574"><ele>490.2857142857143</ele><time>2026-04-17T19:25:02Z</time></trkpt><trkpt lat="47.283517132345324" lon="8.766221193364569"><ele>490.57142857142856</ele><time>2026-04-17T19:25:03Z</time></trkpt><trkpt lat="47.2834588029564" lon="8.766166745757014"><ele>490.8571428571429</ele><time>2026-04-17T19:25:04Z</time></trkpt><trkpt lat="47.28340642194382" lon="8.766091611665413"><ele>491.14285714285717</ele><time>2026-04-17T19:25:05Z</time></trkpt><trkpt lat="47.283369325950886" lon="8.765999507942585"><ele>491.42857142857144</ele><time>2026-04-17T19:25:06Z</time></trkpt><trkpt lat="47.28335213908101" lon="8.765894552829458"><ele>491.7142857142858</ele><time>2026-04-17T19:25:07Z</time></trkpt><trkpt lat="47.2833500127162" lon="8.76578703785394"><ele>492.00000000000006</ele><time>2026-04-17T19:25:08Z</time></trkpt><trkpt lat="47.28336815817048" lon="8.765680149361273"><ele>492.0</ele><time>2026-04-17T19:25:09Z</time></trkpt><trkpt lat="47.28340221672396" lon="8.765582401645865"><ele>492.0</ele><time>2026-04-17T19:25:10Z</time></trkpt><trkpt lat="47.28344803628236" lon="8.765495969802721"><ele>492.0</ele><time>2026-04-17T19:25:11Z</time></trkpt><trkpt lat="47.28350154263996" lon="8.76541929270457"><ele>492.0</ele><time>2026-04-17T19:25:12Z</time></trkpt><trkpt lat="47.283559576182896" lon="8.765348101860173"><ele>492.0</ele><time>2026-04-17T19:25:13Z</time></trkpt><trkpt lat="47.28361734165581" lon="8.765276468033885"><ele>492.0</ele><time>2026-04-17T19:25:14Z</time></trkpt><trkpt lat="47.28367620545438" lon="8.765202745802593"><ele>492.0</ele><time>2026-04-17T19:25:15Z</time></trkpt><trkpt lat="47.28373508189079" lon="8.765128344695148"><ele>492.0</ele><time>2026-04-17T19:25:16Z</time></trkpt><trkpt lat="47.28379516201543" lon="8.765050219660404"><ele>492.0</ele><time>2026-04-17T19:25:17Z</time></trkpt><trkpt lat="47.283853072064865" lon="8.764965959253452"><ele>492.0</ele><time>2026-04-17T19:25:18Z</time></trkpt><trkpt lat="47.28390457482319" lon="8.764878220995142"><ele>492.0</ele><time>2026-04-17T19:25:19Z</time></trkpt><trkpt lat="47.2839440209684" lon="8.764778135321793"><ele>492.0</ele><time>2026-04-17T19:25:20Z</time></trkpt><trkpt lat="47.283984068984644" lon="8.764676051168626"><ele>492.1666666666667</ele><time>2026-04-17T19:25:21Z</time></trkpt><trkpt lat="47.284018642741806" lon="8.764576322074365"><ele>492.33333333333337</ele><time>2026-04-17T19:25:22Z</time></trkpt><trkpt lat="47.284050815563845" lon="8.764489197471498"><ele>492.5</ele><time>2026-04-17T19:25:23Z</time></trkpt><trkpt lat="47.28410875608617" lon="8.764335582045653"><ele>492.6666666666667</ele><time>2026-04-17T19:25:25Z</time></trkpt><trkpt lat="47.284139225137345" lon="8.764247953507033"><ele>492.83333333333337</ele><time>2026-04-17T19:25:26Z</time></trkpt><trkpt lat="47.284172423629975" lon="8.764155672184883"><ele>493.0</ele><time>2026-04-17T19:25:27Z</time></trkpt><trkpt lat="47.284210483194734" lon="8.764059419374414"><ele>493.00000000000006</ele><time>2026-04-17T19:25:28Z</time></trkpt><trkpt lat="47.28425249738031" lon="8.763962450394818"><ele>493.0</ele><time>2026-04-17T19:25:29Z</time></trkpt><trkpt lat="47.28429482543086" lon="8.763860546886248"><ele>493.0</ele><time>2026-04-17T19:25:30Z</time></trkpt><trkpt lat="47.28433558470078" lon="8.763758899341745"><ele>493.0</ele><time>2026-04-17T19:25:31Z</time></trkpt><trkpt lat="47.284376471890646" lon="8.763652824867822"><ele>493.00000000000006</ele><time>2026-04-17T19:25:32Z</time></trkpt><trkpt lat="47.284414446216736" lon="8.763555516273883"><ele>493.0</ele><time>2026-04-17T19:25:33Z</time></trkpt><trkpt lat="47.28445291867991" lon="8.763460028439605"><ele>493.1666666666667</ele><time>2026-04-17T19:25:34Z</time></trkpt><trkpt lat="47.28449106196988" lon="8.7633671803389"><ele>493.33333333333337</ele><time>2026-04-17T19:25:35Z</time></trkpt><trkpt lat="47.28452646292791" lon="8.763275338156983"><ele>493.5</ele><time>2026-04-17T19:25:36Z</time></trkpt><trkpt lat="47.2845553364372" lon="8.763122564821312"><ele>493.66666666666663</ele><time>2026-04-17T19:25:38Z</time></trkpt><trkpt lat="47.28448671630288" lon="8.762995806816765"><ele>493.8333333333333</ele><time>2026-04-17T19:25:40Z</time></trkpt><trkpt lat="47.28443294481463" lon="8.762939938403088"><ele>494.0</ele><time>2026-04-17T19:25:41Z</time></trkpt><trkpt lat="47.2843746483116" lon="8.762869894102263"><ele>493.99999999999994</ele><time>2026-04-17T19:25:42Z</time></trkpt><trkpt lat="47.28431493089819" lon="8.762794127121715"><ele>494.0</ele><time>2026-04-17T19:25:43Z</time></trkpt><trkpt lat="47.28425280693013" lon="8.762710331713071"><ele>494.0</ele><time>2026-04-17T19:25:44Z</time></trkpt><trkpt lat="47.284183350575866" lon="8.762627922514023"><ele>494.0</ele><time>2026-04-17T19:25:45Z</time></trkpt><trkpt lat="47.28411152934708" lon="8.76255105841355"><ele>493.99999999999994</ele><time>2026-04-17T19:25:46Z</time></trkpt><trkpt lat="47.28404048364665" lon="8.76246651525093"><ele>494.0</ele><time>2026-04-17T19:25:47Z</time></trkpt><trkpt lat="47.28396587119394" lon="8.762381350448686"><ele>491.4</ele><time>2026-04-17T19:25:48Z</time></trkpt><trkpt lat="47.28388665214636" lon="8.762297078353926"><ele>488.79999999999995</ele><time>2026-04-17T19:25:49Z</time></trkpt><trkpt lat="47.28380488725368" lon="8.762215931843707"><ele>486.20000000000005</ele><time>2026-04-17T19:25:50Z</time></trkpt><trkpt lat="47.283723024111474" lon="8.762136478719079"><ele>483.6</ele><time>2026-04-17T19:25:51Z</time></trkpt><trkpt lat="47.28363912472307" lon="8.762065402702541"><ele>481.0</ele><time>2026-04-17T19:25:52Z</time></trkpt><trkpt lat="47.28355718282786" lon="8.761996822713165"><ele>481.00000000000006</ele><time>2026-04-17T19:25:53Z</time></trkpt><trkpt lat="47.28347799958246" lon="8.761929945497053"><ele>481.0</ele><time>2026-04-17T19:25:54Z</time></trkpt><trkpt lat="47.28340279631131" lon="8.761860870365915"><ele>481.0</ele><time>2026-04-17T19:25:55Z</time></trkpt><trkpt lat="47.283329407881894" lon="8.761797343790873"><ele>481.0</ele><time>2026-04-17T19:25:56Z</time></trkpt><trkpt lat="47.28325978778615" lon="8.761747677657443"><ele>481.00000000000006</ele><time>2026-04-17T19:25:57Z</time></trkpt><trkpt lat="47.28319121928902" lon="8.761696315629838"><ele>481.0</ele><time>2026-04-17T19:25:58Z</time></trkpt><trkpt lat="47.28312596175721" lon="8.761639092931036"><ele>481.6666666666667</ele><time>2026-04-17T19:25:59Z</time></trkpt><trkpt lat="47.283067946277185" lon="8.76157715034577"><ele>482.33333333333337</ele><time>2026-04-17T19:26:00Z</time></trkpt><trkpt lat="47.28299042308812" lon="8.761502163845003"><ele>483.0</ele><time>2026-04-17T19:26:02Z</time></trkpt><trkpt lat="47.2830378621685" lon="8.761317432651152"><ele>483.66666666666663</ele><time>2026-04-17T19:26:03Z</time></trkpt><trkpt lat="47.28307503588738" lon="8.761225890800493"><ele>484.3333333333333</ele><time>2026-04-17T19:26:04Z</time></trkpt><trkpt lat="47.28310042858154" lon="8.761128375906319"><ele>485.0</ele><time>2026-04-17T19:26:05Z</time></trkpt><trkpt lat="47.28312973064267" lon="8.761029292766208"><ele>485.66666666666663</ele><time>2026-04-17T19:26:06Z</time></trkpt><trkpt lat="47.28316351640508" lon="8.760930230249715"><ele>486.3333333333333</ele><time>2026-04-17T19:26:07Z</time></trkpt><trkpt lat="47.28319156940703" lon="8.760823962641563"><ele>487.0</ele><time>2026-04-17T19:26:08Z</time></trkpt><trkpt lat="47.283225718280896" lon="8.76072197550843"><ele>487.66666666666663</ele><time>2026-04-17T19:26:09Z</time></trkpt><trkpt lat="47.283257793087635" lon="8.76061856910089"><ele>488.3333333333333</ele><time>2026-04-17T19:26:10Z</time></trkpt><trkpt lat="47.283289062890745" lon="8.760512878796797"><ele>489.0</ele><time>2026-04-17T19:26:11Z</time></trkpt><trkpt lat="47.2833193553807" lon="8.760407581916526"><ele>489.0</ele><time>2026-04-17T19:26:12Z</time></trkpt><trkpt lat="47.28334923224476" lon="8.760300362697256"><ele>489.0</ele><time>2026-04-17T19:26:13Z</time></trkpt><trkpt lat="47.28338106188756" lon="8.760193534609414"><ele>489.0</ele><time>2026-04-17T19:26:14Z</time></trkpt><trkpt lat="47.28340971443475" lon="8.76008527310067"><ele>489.0</ele><time>2026-04-17T19:26:15Z</time></trkpt><trkpt lat="47.283435734929064" lon="8.759976342181853"><ele>489.0</ele><time>2026-04-17T19:26:16Z</time></trkpt><trkpt lat="47.283458210891446" lon="8.75986384024589"><ele>489.0</ele><time>2026-04-17T19:26:17Z</time></trkpt><trkpt lat="47.283480484682784" lon="8.759752961782938"><ele>489.1666666666667</ele><time>2026-04-17T19:26:18Z</time></trkpt><trkpt lat="47.28350648649557" lon="8.759642903632738"><ele>489.33333333333337</ele><time>2026-04-17T19:26:19Z</time></trkpt><trkpt lat="47.28353426086436" lon="8.759533660918569"><ele>489.5</ele><time>2026-04-17T19:26:20Z</time></trkpt><trkpt lat="47.28356490327062" lon="8.759425565499356"><ele>489.6666666666667</ele><time>2026-04-17T19:26:21Z</time></trkpt><trkpt lat="47.283595227276884" lon="8.759317995549935"><ele>489.83333333333337</ele><time>2026-04-17T19:26:22Z</time></trkpt><trkpt lat="47.28362513041396" lon="8.75920986343161"><ele>490.0</ele><time>2026-04-17T19:26:23Z</time></trkpt><trkpt lat="47.28365785818876" lon="8.759117247818828"><ele>490.4</ele><time>2026-04-17T19:26:24Z</time></trkpt><trkpt lat="47.28369601759438" lon="8.758975161179466"><ele>490.8</ele><time>2026-04-17T19:26:26Z</time></trkpt><trkpt lat="47.283725131506" lon="8.75887929928448"><ele>491.20000000000005</ele><time>2026-04-17T19:26:28Z</time></trkpt><trkpt lat="47.28376568603707" lon="8.758738775411084"><ele>491.6</ele><time>2026-04-17T19:26:30Z</time></trkpt><trkpt lat="47.28381614541295" lon="8.758564070167342"><ele>492.0</ele><time>2026-04-17T19:26:32Z</time></trkpt><trkpt lat="47.28384580754221" lon="8.758463137419735"><ele>492.1666666666667</ele><time>2026-04-17T19:26:33Z</time></trkpt><trkpt lat="47.28387545781389" lon="8.758362245058294"><ele>492.33333333333337</ele><time>2026-04-17T19:26:34Z</time></trkpt><trkpt lat="47.28390603515972" lon="8.758258198048567"><ele>492.5</ele><time>2026-04-17T19:26:35Z</time></trkpt><trkpt lat="47.28393618915722" lon="8.758152753874"><ele>492.6666666666667</ele><time>2026-04-17T19:26:36Z</time></trkpt><trkpt lat="47.28396603553626" lon="8.758048134174688"><ele>492.83333333333337</ele><time>2026-04-17T19:26:37Z</time></trkpt><trkpt lat="47.283996304632645" lon="8.757942032873137"><ele>493.0</ele><time>2026-04-17T19:26:38Z</time></trkpt><trkpt lat="47.284026525694784" lon="8.757836099865822"><ele>493.00000000000006</ele><time>2026-04-17T19:26:39Z</time></trkpt><trkpt lat="47.284056584730834" lon="8.757730732386815"><ele>493.0</ele><time>2026-04-17T19:26:40Z</time></trkpt><trkpt lat="47.284087685475576" lon="8.757625984851432"><ele>493.0</ele><time>2026-04-17T19:26:41Z</time></trkpt><trkpt lat="47.28411934669586" lon="8.75751791676855"><ele>493.0</ele><time>2026-04-17T19:26:42Z</time></trkpt><trkpt lat="47.284150458508684" lon="8.757411724001088"><ele>493.00000000000006</ele><time>2026-04-17T19:26:43Z</time></trkpt><trkpt lat="47.28418130049067" lon="8.757306452276715"><ele>493.0</ele><time>2026-04-17T19:26:44Z</time></trkpt><trkpt lat="47.28421184307854" lon="8.757200607473656"><ele>493.00000000000006</ele><time>2026-04-17T19:26:45Z</time></trkpt><trkpt lat="47.28424297182707" lon="8.757091436976763"><ele>493.0</ele><time>2026-04-17T19:26:46Z</time></trkpt><trkpt lat="47.284272727730745" lon="8.756984175602659"><ele>493.0</ele><time>2026-04-17T19:26:47Z</time></trkpt><trkpt lat="47.28430198590377" lon="8.756878708335034"><ele>493.0</ele><time>2026-04-17T19:26:48Z</time></trkpt><trkpt lat="47.28433112558283" lon="8.756773668161667"><ele>493.00000000000006</ele><time>2026-04-17T19:26:49Z</time></trkpt><trkpt lat="47.28436104394399" lon="8.756665311801436"><ele>493.0</ele><time>2026-04-17T19:26:50Z</time></trkpt><trkpt lat="47.28438974463057" lon="8.75656011810274"><ele>493.50000000000006</ele><time>2026-04-17T19:26:51Z</time></trkpt><trkpt lat="47.284418348376946" lon="8.756455279612455"><ele>494.0</ele><time>2026-04-17T19:26:52Z</time></trkpt><trkpt lat="47.28444701634267" lon="8.756350205699675"><ele>494.5</ele><time>2026-04-17T19:26:53Z</time></trkpt><trkpt lat="47.28447555326419" lon="8.75624561217264"><ele>495.0</ele><time>2026-04-17T19:26:54Z</time></trkpt><trkpt lat="47.284504998223106" lon="8.756137690411848"><ele>495.50000000000006</ele><time>2026-04-17T19:26:55Z</time></trkpt><trkpt lat="47.28453418890969" lon="8.756029179582612"><ele>496.0</ele><time>2026-04-17T19:26:56Z</time></trkpt><trkpt lat="47.284562529304345" lon="8.75592337552164"><ele>496.00000000000006</ele><time>2026-04-17T19:26:57Z</time></trkpt><trkpt lat="47.28458937023907" lon="8.755807556589552"><ele>496.0</ele><time>2026-04-17T19:26:58Z</time></trkpt><trkpt lat="47.2846107829316" lon="8.755695374295374"><ele>496.0</ele><time>2026-04-17T19:26:59Z</time></trkpt><trkpt lat="47.284627259291526" lon="8.755579364242337"><ele>496.0</ele><time>2026-04-17T19:27:00Z</time></trkpt><trkpt lat="47.28463707084519" lon="8.755449225308137"><ele>496.00000000000006</ele><time>2026-04-17T19:27:01Z</time></trkpt><trkpt lat="47.28464428607644" lon="8.755324323614817"><ele>496.0</ele><time>2026-04-17T19:27:02Z</time></trkpt><trkpt lat="47.28464972443354" lon="8.755195760304053"><ele>496.1666666666667</ele><time>2026-04-17T19:27:03Z</time></trkpt><trkpt lat="47.284651524997784" lon="8.7550711913199"><ele>496.33333333333337</ele><time>2026-04-17T19:27:04Z</time></trkpt><trkpt lat="47.28465266529406" lon="8.754949383609999"><ele>496.5</ele><time>2026-04-17T19:27:05Z</time></trkpt><trkpt lat="47.28465373473014" lon="8.754835144484263"><ele>496.66666666666663</ele><time>2026-04-17T19:27:06Z</time></trkpt><trkpt lat="47.28465480950652" lon="8.75472033240537"><ele>496.8333333333333</ele><time>2026-04-17T19:27:07Z</time></trkpt><trkpt lat="47.28465714227376" lon="8.754605882034454"><ele>497.0</ele><time>2026-04-17T19:27:08Z</time></trkpt><trkpt lat="47.284659384965124" lon="8.754492334875922"><ele>496.99999999999994</ele><time>2026-04-17T19:27:09Z</time></trkpt><trkpt lat="47.28466351003961" lon="8.754375666545467"><ele>497.0</ele><time>2026-04-17T19:27:10Z</time></trkpt><trkpt lat="47.284671224427186" lon="8.75427231971484"><ele>497.0</ele><time>2026-04-17T19:27:11Z</time></trkpt><trkpt lat="47.284680331095295" lon="8.754166565518863"><ele>497.0</ele><time>2026-04-17T19:27:12Z</time></trkpt><trkpt lat="47.284691729466296" lon="8.754052581755671"><ele>496.99999999999994</ele><time>2026-04-17T19:27:13Z</time></trkpt><trkpt lat="47.28470601864099" lon="8.753941832194357"><ele>497.0</ele><time>2026-04-17T19:27:14Z</time></trkpt><trkpt lat="47.28472245691353" lon="8.753830069000797"><ele>496.99999999999994</ele><time>2026-04-17T19:27:15Z</time></trkpt><trkpt lat="47.28474037493871" lon="8.753719700667734"><ele>497.0</ele><time>2026-04-17T19:27:16Z</time></trkpt><trkpt lat="47.28476127538117" lon="8.753606763501416"><ele>497.0</ele><time>2026-04-17T19:27:17Z</time></trkpt><trkpt lat="47.28478358574527" lon="8.753491013739634"><ele>497.0</ele><time>2026-04-17T19:27:18Z</time></trkpt><trkpt lat="47.284803912204204" lon="8.753385556995388"><ele>496.99999999999994</ele><time>2026-04-17T19:27:19Z</time></trkpt><trkpt lat="47.28483384170921" lon="8.753224290396279"><ele>497.0</ele><time>2026-04-17T19:27:21Z</time></trkpt><trkpt lat="47.284865305996234" lon="8.753051446639557"><ele>497.0</ele><time>2026-04-17T19:27:23Z</time></trkpt><trkpt lat="47.28488323591379" lon="8.75295283549049"><ele>497.0</ele><time>2026-04-17T19:27:24Z</time></trkpt><trkpt lat="47.28490174620057" lon="8.752851032056157"><ele>497.0</ele><time>2026-04-17T19:27:25Z</time></trkpt><trkpt lat="47.28492100786113" lon="8.752745096485732"><ele>497.0</ele><time>2026-04-17T19:27:26Z</time></trkpt><trkpt lat="47.28494088479985" lon="8.752635776306683"><ele>497.0</ele><time>2026-04-17T19:27:27Z</time></trkpt><trkpt lat="47.28496112284587" lon="8.752524471058262"><ele>497.0</ele><time>2026-04-17T19:27:28Z</time></trkpt><trkpt lat="47.28498165702656" lon="8.752411536613034"><ele>497.0</ele><time>2026-04-17T19:27:29Z</time></trkpt><trkpt lat="47.28500234918974" lon="8.752297733499892"><ele>496.99999999999994</ele><time>2026-04-17T19:27:30Z</time></trkpt><trkpt lat="47.285023046376374" lon="8.752183902568662"><ele>497.0</ele><time>2026-04-17T19:27:31Z</time></trkpt><trkpt lat="47.285043825864854" lon="8.752069618905137"><ele>497.0</ele><time>2026-04-17T19:27:32Z</time></trkpt><trkpt lat="47.28506223139078" lon="8.751968391833076"><ele>497.0</ele><time>2026-04-17T19:27:33Z</time></trkpt><trkpt lat="47.2850902296403" lon="8.75181440647762"><ele>496.99999999999994</ele><time>2026-04-17T19:27:35Z</time></trkpt><trkpt lat="47.285109218611986" lon="8.751709970457933"><ele>497.0</ele><time>2026-04-17T19:27:37Z</time></trkpt><trkpt lat="47.285128972936604" lon="8.75160070179311"><ele>496.99999999999994</ele><time>2026-04-17T19:27:41Z</time></trkpt><trkpt lat="47.285167583592" lon="8.751443039555856"><ele>497.0</ele><time>2026-04-17T19:27:43Z</time></trkpt><trkpt lat="47.285185432699116" lon="8.751351620372533"><ele>497.0</ele><time>2026-04-17T19:27:44Z</time></trkpt><trkpt lat="47.28520296947967" lon="8.751253033711112"><ele>497.0</ele><time>2026-04-17T19:27:45Z</time></trkpt><trkpt lat="47.285224103056734" lon="8.751151931692688"><ele>496.99999999999994</ele><time>2026-04-17T19:27:46Z</time></trkpt><trkpt lat="47.285244458212766" lon="8.751047028214742"><ele>497.0</ele><time>2026-04-17T19:27:47Z</time></trkpt><trkpt lat="47.285265976443405" lon="8.750938524372495"><ele>497.16666666666663</ele><time>2026-04-17T19:27:48Z</time></trkpt><trkpt lat="47.285288653211715" lon="8.75082923745645"><ele>497.3333333333333</ele><time>2026-04-17T19:27:49Z</time></trkpt><trkpt lat="47.285309723926545" lon="8.750717667352562"><ele>497.5</ele><time>2026-04-17T19:27:50Z</time></trkpt><trkpt lat="47.28532907369929" lon="8.750605746095655"><ele>497.66666666666663</ele><time>2026-04-17T19:27:51Z</time></trkpt><trkpt lat="47.2853471206324" lon="8.750494152912992"><ele>497.8333333333333</ele><time>2026-04-17T19:27:52Z</time></trkpt><trkpt lat="47.28536601066091" lon="8.75038138429301"><ele>498.0</ele><time>2026-04-17T19:27:53Z</time></trkpt><trkpt lat="47.285387639099795" lon="8.750268544090773"><ele>498.0</ele><time>2026-04-17T19:27:54Z</time></trkpt><trkpt lat="47.28540821362995" lon="8.750154947708008"><ele>498.0</ele><time>2026-04-17T19:27:55Z</time></trkpt><trkpt lat="47.285430062640636" lon="8.750041899758052"><ele>498.0</ele><time>2026-04-17T19:27:56Z</time></trkpt><trkpt lat="47.2854528959497" lon="8.74992910559707"><ele>498.0</ele><time>2026-04-17T19:27:57Z</time></trkpt><trkpt lat="47.285473060718374" lon="8.749815192773116"><ele>498.0</ele><time>2026-04-17T19:27:58Z</time></trkpt><trkpt lat="47.28549635888975" lon="8.749702061693775"><ele>498.0</ele><time>2026-04-17T19:27:59Z</time></trkpt><trkpt lat="47.285522533489136" lon="8.74958878280366"><ele>498.0</ele><time>2026-04-17T19:28:00Z</time></trkpt><trkpt lat="47.28555013707485" lon="8.749477630580063"><ele>498.0</ele><time>2026-04-17T19:28:01Z</time></trkpt><trkpt lat="47.2855814464269" lon="8.7493667334949"><ele>498.0</ele><time>2026-04-17T19:28:02Z</time></trkpt><trkpt lat="47.28562073017023" lon="8.749263213297173"><ele>498.0</ele><time>2026-04-17T19:28:03Z</time></trkpt><trkpt lat="47.28566254550804" lon="8.74915930395171"><ele>498.0</ele><time>2026-04-17T19:28:04Z</time></trkpt><trkpt lat="47.28570436568725" lon="8.749057248221645"><ele>498.0</ele><time>2026-04-17T19:28:05Z</time></trkpt><trkpt lat="47.285748092434076" lon="8.748956265919121"><ele>498.3333333333333</ele><time>2026-04-17T19:28:06Z</time></trkpt><trkpt lat="47.28579287749713" lon="8.748855595058233"><ele>498.66666666666663</ele><time>2026-04-17T19:28:07Z</time></trkpt><trkpt lat="47.285836079717775" lon="8.748751605890998"><ele>499.0</ele><time>2026-04-17T19:28:08Z</time></trkpt><trkpt lat="47.28588045473378" lon="8.748647603020729"><ele>499.3333333333333</ele><time>2026-04-17T19:28:09Z</time></trkpt><trkpt lat="47.28592439568736" lon="8.748544075780238"><ele>499.66666666666663</ele><time>2026-04-17T19:28:10Z</time></trkpt><trkpt lat="47.28596830717699" lon="8.748439207878235"><ele>500.0</ele><time>2026-04-17T19:28:11Z</time></trkpt><trkpt lat="47.28601127701155" lon="8.748333606198688"><ele>499.99999999999994</ele><time>2026-04-17T19:28:12Z</time></trkpt><trkpt lat="47.28605581811668" lon="8.74822798122772"><ele>500.0</ele><time>2026-04-17T19:28:13Z</time></trkpt><trkpt lat="47.286100670323485" lon="8.748123739149154"><ele>500.0</ele><time>2026-04-17T19:28:14Z</time></trkpt><trkpt lat="47.28614640433684" lon="8.748019807965406"><ele>500.0</ele><time>2026-04-17T19:28:15Z</time></trkpt><trkpt lat="47.2861912685081" lon="8.747912703947396"><ele>499.99999999999994</ele><time>2026-04-17T19:28:16Z</time></trkpt><trkpt lat="47.286233033606116" lon="8.747805330370126"><ele>500.0</ele><time>2026-04-17T19:28:17Z</time></trkpt><trkpt lat="47.286275631934885" lon="8.747696743351097"><ele>499.99999999999994</ele><time>2026-04-17T19:28:18Z</time></trkpt><trkpt lat="47.28632141256671" lon="8.747590393803623"><ele>500.0</ele><time>2026-04-17T19:28:19Z</time></trkpt><trkpt lat="47.28636729599904" lon="8.747485198026473"><ele>500.0</ele><time>2026-04-17T19:28:20Z</time></trkpt><trkpt lat="47.286414163162824" lon="8.74737905307889"><ele>500.0</ele><time>2026-04-17T19:28:21Z</time></trkpt><trkpt lat="47.286459665206415" lon="8.747270721725888"><ele>499.99999999999994</ele><time>2026-04-17T19:28:22Z</time></trkpt><trkpt lat="47.286506300585486" lon="8.747164450496447"><ele>500.0</ele><time>2026-04-17T19:28:23Z</time></trkpt><trkpt lat="47.28655274321132" lon="8.747055954834027"><ele>499.8333333333333</ele><time>2026-04-17T19:28:24Z</time></trkpt><trkpt lat="47.286594589740005" lon="8.746948683741788"><ele>499.66666666666663</ele><time>2026-04-17T19:28:25Z</time></trkpt><trkpt lat="47.28663791552348" lon="8.746841446118186"><ele>499.5</ele><time>2026-04-17T19:28:26Z</time></trkpt><trkpt lat="47.286681273037054" lon="8.746733171534189"><ele>499.33333333333337</ele><time>2026-04-17T19:28:27Z</time></trkpt><trkpt lat="47.28672702354225" lon="8.746628911156623"><ele>499.1666666666667</ele><time>2026-04-17T19:28:28Z</time></trkpt><trkpt lat="47.28677211346224" lon="8.746520076814305"><ele>499.0</ele><time>2026-04-17T19:28:29Z</time></trkpt><trkpt lat="47.286817508307394" lon="8.746413981156202"><ele>499.00000000000006</ele><time>2026-04-17T19:28:30Z</time></trkpt><trkpt lat="47.28685625009965" lon="8.7462998314743"><ele>499.0</ele><time>2026-04-17T19:28:31Z</time></trkpt><trkpt lat="47.286890454984466" lon="8.746182513178137"><ele>499.0</ele><time>2026-04-17T19:28:32Z</time></trkpt><trkpt lat="47.28693898845267" lon="8.74608267397916"><ele>499.0</ele><time>2026-04-17T19:28:33Z</time></trkpt><trkpt lat="47.286982037755145" lon="8.745980311520283"><ele>499.00000000000006</ele><time>2026-04-17T19:28:34Z</time></trkpt><trkpt lat="47.28702470229164" lon="8.745878864487974"><ele>499.0</ele><time>2026-04-17T19:28:35Z</time></trkpt><trkpt lat="47.28709188190703" lon="8.74577298773902"><ele>499.33333333333337</ele><time>2026-04-17T19:28:36Z</time></trkpt><trkpt lat="47.28713524779732" lon="8.745664508577933"><ele>499.6666666666667</ele><time>2026-04-17T19:28:37Z</time></trkpt><trkpt lat="47.287176553539226" lon="8.74555500894371"><ele>500.0</ele><time>2026-04-17T19:28:38Z</time></trkpt><trkpt lat="47.28722117586273" lon="8.745449028396928"><ele>500.33333333333337</ele><time>2026-04-17T19:28:39Z</time></trkpt><trkpt lat="47.28726412868348" lon="8.745341805258846"><ele>500.6666666666667</ele><time>2026-04-17T19:28:40Z</time></trkpt><trkpt lat="47.287306956902185" lon="8.745234648032724"><ele>501.0</ele><time>2026-04-17T19:28:41Z</time></trkpt><trkpt lat="47.28735269730118" lon="8.745127338068459"><ele>500.0</ele><time>2026-04-17T19:28:42Z</time></trkpt><trkpt lat="47.28739520564707" lon="8.745018452412817"><ele>499.0</ele><time>2026-04-17T19:28:43Z</time></trkpt><trkpt lat="47.28743996103451" lon="8.744916053225518"><ele>498.0</ele><time>2026-04-17T19:28:44Z</time></trkpt><trkpt lat="47.287484774480895" lon="8.74481708231491"><ele>497.0</ele><time>2026-04-17T19:28:45Z</time></trkpt><trkpt lat="47.28752349337386" lon="8.744723784153223"><ele>496.0</ele><time>2026-04-17T19:28:46Z</time></trkpt><trkpt lat="47.287563180620644" lon="8.744629158998475"><ele>495.0</ele><time>2026-04-17T19:28:47Z</time></trkpt><trkpt lat="47.28759701605911" lon="8.744520629376005"><ele>495.0</ele><time>2026-04-17T19:28:48Z</time></trkpt><trkpt lat="47.287624744804425" lon="8.744406031354284"><ele>495.0</ele><time>2026-04-17T19:28:49Z</time></trkpt><trkpt lat="47.287650031711756" lon="8.744289907199377"><ele>495.0</ele><time>2026-04-17T19:28:50Z</time></trkpt><trkpt lat="47.28766563166628" lon="8.744170078328198"><ele>495.0</ele><time>2026-04-17T19:28:51Z</time></trkpt><trkpt lat="47.28766969851678" lon="8.744046179427315"><ele>495.0</ele><time>2026-04-17T19:28:52Z</time></trkpt><trkpt lat="47.287670527075385" lon="8.743924001081687"><ele>495.0</ele><time>2026-04-17T19:28:53Z</time></trkpt><trkpt lat="47.28766300250525" lon="8.74380187583139"><ele>495.3333333333333</ele><time>2026-04-17T19:28:54Z</time></trkpt><trkpt lat="47.28764808734412" lon="8.743682701643722"><ele>495.66666666666663</ele><time>2026-04-17T19:28:55Z</time></trkpt><trkpt lat="47.28762937123229" lon="8.743565362026049"><ele>496.0</ele><time>2026-04-17T19:28:56Z</time></trkpt><trkpt lat="47.28760968843411" lon="8.74344851459637"><ele>496.3333333333333</ele><time>2026-04-17T19:28:57Z</time></trkpt><trkpt lat="47.28759299755683" lon="8.743333537770202"><ele>496.66666666666663</ele><time>2026-04-17T19:28:58Z</time></trkpt><trkpt lat="47.287571184104706" lon="8.74322080722684"><ele>497.0</ele><time>2026-04-17T19:28:59Z</time></trkpt><trkpt lat="47.28755831844783" lon="8.743106678133255"><ele>497.0</ele><time>2026-04-17T19:29:00Z</time></trkpt><trkpt lat="47.28754397688943" lon="8.74299418809575"><ele>497.0</ele><time>2026-04-17T19:29:01Z</time></trkpt><trkpt lat="47.28753177678398" lon="8.742884219508513"><ele>497.0</ele><time>2026-04-17T19:29:02Z</time></trkpt><trkpt lat="47.28752165518762" lon="8.74277583921377"><ele>497.0</ele><time>2026-04-17T19:29:03Z</time></trkpt><trkpt lat="47.28751515773152" lon="8.74266550578485"><ele>497.0</ele><time>2026-04-17T19:29:04Z</time></trkpt><trkpt lat="47.2875147397638" lon="8.742559266167369"><ele>497.0</ele><time>2026-04-17T19:29:05Z</time></trkpt><trkpt lat="47.2875155384334" lon="8.742449245936625"><ele>497.0</ele><time>2026-04-17T19:29:06Z</time></trkpt><trkpt lat="47.28752111828077" lon="8.742343391447955"><ele>497.2857142857143</ele><time>2026-04-17T19:29:07Z</time></trkpt><trkpt lat="47.28753027666721" lon="8.742235083983614"><ele>497.57142857142856</ele><time>2026-04-17T19:29:08Z</time></trkpt><trkpt lat="47.28754002076427" lon="8.7421289276612"><ele>497.8571428571429</ele><time>2026-04-17T19:29:09Z</time></trkpt><trkpt lat="47.28755356068213" lon="8.742021576907137"><ele>498.14285714285717</ele><time>2026-04-17T19:29:10Z</time></trkpt><trkpt lat="47.287571655853355" lon="8.741913097834043"><ele>498.42857142857144</ele><time>2026-04-17T19:29:11Z</time></trkpt><trkpt lat="47.28759094840994" lon="8.741808492240084"><ele>498.7142857142858</ele><time>2026-04-17T19:29:12Z</time></trkpt><trkpt lat="47.28761373847812" lon="8.741702837704253"><ele>499.00000000000006</ele><time>2026-04-17T19:29:13Z</time></trkpt><trkpt lat="47.28764050917665" lon="8.741596028852506"><ele>499.6666666666667</ele><time>2026-04-17T19:29:14Z</time></trkpt><trkpt lat="47.28767306286977" lon="8.741493325597443"><ele>500.33333333333337</ele><time>2026-04-17T19:29:15Z</time></trkpt><trkpt lat="47.28770936707545" lon="8.741390598693407"><ele>501.0</ele><time>2026-04-17T19:29:16Z</time></trkpt><trkpt lat="47.28774485096657" lon="8.741288166618157"><ele>501.66666666666663</ele><time>2026-04-17T19:29:17Z</time></trkpt><trkpt lat="47.2877786708241" lon="8.741181847231719"><ele>502.3333333333333</ele><time>2026-04-17T19:29:18Z</time></trkpt><trkpt lat="47.28781489877448" lon="8.74107847848836"><ele>503.0</ele><time>2026-04-17T19:29:19Z</time></trkpt><trkpt lat="47.2878496707871" lon="8.740973313218221"><ele>503.66666666666663</ele><time>2026-04-17T19:29:20Z</time></trkpt><trkpt lat="47.28788573825063" lon="8.74087025711235"><ele>504.3333333333333</ele><time>2026-04-17T19:29:21Z</time></trkpt><trkpt lat="47.28792090014699" lon="8.740761129133364"><ele>505.0</ele><time>2026-04-17T19:29:22Z</time></trkpt><trkpt lat="47.287956788131616" lon="8.740655591111349"><ele>505.66666666666663</ele><time>2026-04-17T19:29:23Z</time></trkpt><trkpt lat="47.28799394487402" lon="8.740546531288988"><ele>506.3333333333333</ele><time>2026-04-17T19:29:24Z</time></trkpt><trkpt lat="47.288030843245444" lon="8.740437635652741"><ele>507.0</ele><time>2026-04-17T19:29:25Z</time></trkpt><trkpt lat="47.288066142188235" lon="8.740325747607226"><ele>507.1666666666667</ele><time>2026-04-17T19:29:26Z</time></trkpt><trkpt lat="47.28810167426523" lon="8.740214600760408"><ele>507.33333333333337</ele><time>2026-04-17T19:29:27Z</time></trkpt><trkpt lat="47.28813803736895" lon="8.740106442196385"><ele>507.5</ele><time>2026-04-17T19:29:28Z</time></trkpt><trkpt lat="47.28817077973629" lon="8.739989189260374"><ele>507.6666666666667</ele><time>2026-04-17T19:29:29Z</time></trkpt><trkpt lat="47.288199059662844" lon="8.73987429443173"><ele>507.83333333333337</ele><time>2026-04-17T19:29:30Z</time></trkpt><trkpt lat="47.28822420506427" lon="8.739756038699955"><ele>508.0</ele><time>2026-04-17T19:29:31Z</time></trkpt><trkpt lat="47.28824532713953" lon="8.739636089702088"><ele>508.00000000000006</ele><time>2026-04-17T19:29:32Z</time></trkpt><trkpt lat="47.28825458749789" lon="8.739509675208641"><ele>508.0</ele><time>2026-04-17T19:29:33Z</time></trkpt><trkpt lat="47.28826072494861" lon="8.73938736323326"><ele>508.0</ele><time>2026-04-17T19:29:34Z</time></trkpt><trkpt lat="47.288261116297534" lon="8.739262128197147"><ele>508.0</ele><time>2026-04-17T19:29:35Z</time></trkpt><trkpt lat="47.28825899210036" lon="8.73913580816104"><ele>508.00000000000006</ele><time>2026-04-17T19:29:36Z</time></trkpt><trkpt lat="47.28825899446406" lon="8.739005859875002"><ele>508.0</ele><time>2026-04-17T19:29:37Z</time></trkpt><trkpt lat="47.288254790542624" lon="8.738882326351126"><ele>508.00000000000006</ele><time>2026-04-17T19:29:38Z</time></trkpt><trkpt lat="47.28824677053231" lon="8.738754144509056"><ele>508.0</ele><time>2026-04-17T19:29:39Z</time></trkpt><trkpt lat="47.2882346660174" lon="8.738625004347174"><ele>508.0</ele><time>2026-04-17T19:29:40Z</time></trkpt><trkpt lat="47.28822269863956" lon="8.738501933511982"><ele>508.0</ele><time>2026-04-17T19:29:41Z</time></trkpt><trkpt lat="47.288217134509416" lon="8.73837471093384"><ele>508.00000000000006</ele><time>2026-04-17T19:29:42Z</time></trkpt><trkpt lat="47.28821137974826" lon="8.73825561805488"><ele>508.0</ele><time>2026-04-17T19:29:43Z</time></trkpt><trkpt lat="47.28820166443498" lon="8.738126767710632"><ele>507.59999999999997</ele><time>2026-04-17T19:29:44Z</time></trkpt><trkpt lat="47.288191027456676" lon="8.737996155895106"><ele>507.19999999999993</ele><time>2026-04-17T19:29:45Z</time></trkpt><trkpt lat="47.28818001661158" lon="8.737866477508549"><ele>506.8</ele><time>2026-04-17T19:29:46Z</time></trkpt><trkpt lat="47.28816856580928" lon="8.737734074294993"><ele>506.4</ele><time>2026-04-17T19:29:47Z</time></trkpt><trkpt lat="47.28815706086281" lon="8.737599805442061"><ele>506.0</ele><time>2026-04-17T19:29:48Z</time></trkpt><trkpt lat="47.2881445804626" lon="8.737463895807025"><ele>505.4</ele><time>2026-04-17T19:29:49Z</time></trkpt><trkpt lat="47.28813280640195" lon="8.737325827610375"><ele>504.8</ele><time>2026-04-17T19:29:50Z</time></trkpt><trkpt lat="47.2881272401123" lon="8.737194978264943"><ele>504.19999999999993</ele><time>2026-04-17T19:29:51Z</time></trkpt><trkpt lat="47.28812666341454" lon="8.73705875563621"><ele>503.59999999999997</ele><time>2026-04-17T19:29:52Z</time></trkpt><trkpt lat="47.28813495011034" lon="8.73692605250367"><ele>503.0</ele><time>2026-04-17T19:29:53Z</time></trkpt><trkpt lat="47.288149267015065" lon="8.73679229803518"><ele>502.59999999999997</ele><time>2026-04-17T19:29:54Z</time></trkpt><trkpt lat="47.28816700088683" lon="8.736661556350047"><ele>502.19999999999993</ele><time>2026-04-17T19:29:55Z</time></trkpt><trkpt lat="47.28818954620341" lon="8.736536491594407"><ele>501.8</ele><time>2026-04-17T19:29:56Z</time></trkpt><trkpt lat="47.28821877604519" lon="8.73641041743606"><ele>501.4</ele><time>2026-04-17T19:29:57Z</time></trkpt><trkpt lat="47.28825558261465" lon="8.736288956889558"><ele>501.0</ele><time>2026-04-17T19:29:58Z</time></trkpt><trkpt lat="47.288294018664466" lon="8.736165930450904"><ele>500.3333333333333</ele><time>2026-04-17T19:29:59Z</time></trkpt><trkpt lat="47.2883385858433" lon="8.73605166819691"><ele>499.66666666666663</ele><time>2026-04-17T19:30:00Z</time></trkpt><trkpt lat="47.2883843788639" lon="8.735939680420822"><ele>499.0</ele><time>2026-04-17T19:30:01Z</time></trkpt><trkpt lat="47.28842727596391" lon="8.735837283625445"><ele>498.3333333333333</ele><time>2026-04-17T19:30:02Z</time></trkpt><trkpt lat="47.288461315212686" lon="8.735754539048669"><ele>497.66666666666663</ele><time>2026-04-17T19:30:03Z</time></trkpt><trkpt lat="47.288506598796154" lon="8.735671361132805"><ele>497.0</ele><time>2026-04-17T19:30:04Z</time></trkpt><trkpt lat="47.28855170221123" lon="8.73560366554459"><ele>497.0</ele><time>2026-04-17T19:30:05Z</time></trkpt><trkpt lat="47.28860055031877" lon="8.735493610641914"><ele>497.00000000000006</ele><time>2026-04-17T19:30:07Z</time></trkpt><trkpt lat="47.288569462545695" lon="8.735373708513213"><ele>497.00000000000006</ele><time>2026-04-17T19:30:09Z</time></trkpt><trkpt lat="47.28850392091132" lon="8.735259644551444"><ele>497.0</ele><time>2026-04-17T19:30:11Z</time></trkpt><trkpt lat="47.28846342564692" lon="8.735090166467852"><ele>497.0</ele><time>2026-04-17T19:30:13Z</time></trkpt><trkpt lat="47.288447007586164" lon="8.734915321301262"><ele>496.40000000000003</ele><time>2026-04-17T19:30:15Z</time></trkpt><trkpt lat="47.28846708148642" lon="8.734757583311232"><ele>495.80000000000007</ele><time>2026-04-17T19:30:17Z</time></trkpt><trkpt lat="47.28850533329895" lon="8.734590916341173"><ele>495.2</ele><time>2026-04-17T19:30:19Z</time></trkpt><trkpt lat="47.28852474089135" lon="8.734495778682193"><ele>494.6</ele><time>2026-04-17T19:30:20Z</time></trkpt><trkpt lat="47.28856831862336" lon="8.734333945541701"><ele>494.0</ele><time>2026-04-17T19:30:22Z</time></trkpt><trkpt lat="47.28860508721001" lon="8.73418719541971"><ele>493.8333333333333</ele><time>2026-04-17T19:30:24Z</time></trkpt><trkpt lat="47.288637628352355" lon="8.734053013552339"><ele>493.66666666666663</ele><time>2026-04-17T19:30:26Z</time></trkpt><trkpt lat="47.288685549751015" lon="8.733900820545715"><ele>493.5</ele><time>2026-04-17T19:30:28Z</time></trkpt><trkpt lat="47.28871579533915" lon="8.73380917573382"><ele>493.33333333333337</ele><time>2026-04-17T19:30:29Z</time></trkpt><trkpt lat="47.288752319293366" lon="8.733712493145013"><ele>493.1666666666667</ele><time>2026-04-17T19:30:30Z</time></trkpt><trkpt lat="47.28878881982297" lon="8.733617364258585"><ele>493.0</ele><time>2026-04-17T19:30:31Z</time></trkpt><trkpt lat="47.28882284155434" lon="8.733530269335665"><ele>492.85714285714283</ele><time>2026-04-17T19:30:32Z</time></trkpt><trkpt lat="47.288853829880786" lon="8.733446357670527"><ele>492.7142857142858</ele><time>2026-04-17T19:30:33Z</time></trkpt><trkpt lat="47.28888306337621" lon="8.733363520567693"><ele>492.5714285714286</ele><time>2026-04-17T19:30:34Z</time></trkpt><trkpt lat="47.28891816339738" lon="8.73328116302851"><ele>492.42857142857144</ele><time>2026-04-17T19:30:35Z</time></trkpt><trkpt lat="47.28895351510362" lon="8.73318553186541"><ele>492.28571428571433</ele><time>2026-04-17T19:30:36Z</time></trkpt><trkpt lat="47.28899080962815" lon="8.733087214255452"><ele>492.1428571428572</ele><time>2026-04-17T19:30:37Z</time></trkpt><trkpt lat="47.28903034830765" lon="8.732986405917124"><ele>492.00000000000006</ele><time>2026-04-17T19:30:38Z</time></trkpt><trkpt lat="47.28907044512011" lon="8.732882631268994"><ele>492.3333333333333</ele><time>2026-04-17T19:30:39Z</time></trkpt><trkpt lat="47.289106550297156" lon="8.732775374842477"><ele>492.66666666666663</ele><time>2026-04-17T19:30:40Z</time></trkpt><trkpt lat="47.28913559074809" lon="8.732662975807456"><ele>493.0</ele><time>2026-04-17T19:30:41Z</time></trkpt><trkpt lat="47.28915595741742" lon="8.732546091861238"><ele>493.3333333333333</ele><time>2026-04-17T19:30:42Z</time></trkpt><trkpt lat="47.28917152451927" lon="8.73242649834316"><ele>493.66666666666663</ele><time>2026-04-17T19:30:43Z</time></trkpt><trkpt lat="47.289182910171355" lon="8.73230362803721"><ele>494.0</ele><time>2026-04-17T19:30:44Z</time></trkpt><trkpt lat="47.289199194119035" lon="8.732176653549367"><ele>493.99999999999994</ele><time>2026-04-17T19:30:45Z</time></trkpt><trkpt lat="47.2892030038502" lon="8.732059696669646"><ele>494.0</ele><time>2026-04-17T19:30:46Z</time></trkpt><trkpt lat="47.289176609891186" lon="8.731931570374059"><ele>494.0</ele><time>2026-04-17T19:30:47Z</time></trkpt><trkpt lat="47.289165074532825" lon="8.731810714467551"><ele>494.0</ele><time>2026-04-17T19:30:48Z</time></trkpt><trkpt lat="47.28915961072978" lon="8.73168430655917"><ele>493.99999999999994</ele><time>2026-04-17T19:30:49Z</time></trkpt><trkpt lat="47.289155514505396" lon="8.731561715026672"><ele>494.0</ele><time>2026-04-17T19:30:50Z</time></trkpt><trkpt lat="47.2891521120571" lon="8.731438025015427"><ele>493.66666666666663</ele><time>2026-04-17T19:30:51Z</time></trkpt><trkpt lat="47.28914598051935" lon="8.731317179491535"><ele>493.3333333333333</ele><time>2026-04-17T19:30:52Z</time></trkpt><trkpt lat="47.289145338298624" lon="8.731194327985149"><ele>493.0</ele><time>2026-04-17T19:30:53Z</time></trkpt><trkpt lat="47.28914708742738" lon="8.73107160081691"><ele>492.66666666666663</ele><time>2026-04-17T19:30:54Z</time></trkpt><trkpt lat="47.28914799158508" lon="8.730948336423236"><ele>492.3333333333333</ele><time>2026-04-17T19:30:55Z</time></trkpt><trkpt lat="47.289148735468004" lon="8.73082474784204"><ele>492.0</ele><time>2026-04-17T19:30:56Z</time></trkpt><trkpt lat="47.2891545508555" lon="8.730703858258423"><ele>491.3333333333333</ele><time>2026-04-17T19:30:57Z</time></trkpt><trkpt lat="47.28916179758001" lon="8.730580954184708"><ele>490.66666666666663</ele><time>2026-04-17T19:30:58Z</time></trkpt><trkpt lat="47.289173097199935" lon="8.730460250764219"><ele>490.0</ele><time>2026-04-17T19:30:59Z</time></trkpt><trkpt lat="47.28918425280028" lon="8.730339266349697"><ele>489.3333333333333</ele><time>2026-04-17T19:31:00Z</time></trkpt><trkpt lat="47.28919586388963" lon="8.730217625291909"><ele>488.66666666666663</ele><time>2026-04-17T19:31:01Z</time></trkpt><trkpt lat="47.28921235281696" lon="8.730098149018211"><ele>488.0</ele><time>2026-04-17T19:31:02Z</time></trkpt><trkpt lat="47.28922639594399" lon="8.729976710779697"><ele>487.99999999999994</ele><time>2026-04-17T19:31:03Z</time></trkpt><trkpt lat="47.28924013561996" lon="8.729856270155686"><ele>488.0</ele><time>2026-04-17T19:31:04Z</time></trkpt><trkpt lat="47.28925331977852" lon="8.729735979023783"><ele>488.0</ele><time>2026-04-17T19:31:05Z</time></trkpt><trkpt lat="47.289271198549876" lon="8.729616627139446"><ele>488.0</ele><time>2026-04-17T19:31:06Z</time></trkpt><trkpt lat="47.289288441893035" lon="8.729496141551037"><ele>487.99999999999994</ele><time>2026-04-17T19:31:07Z</time></trkpt><trkpt lat="47.28930573472746" lon="8.729376888023873"><ele>488.0</ele><time>2026-04-17T19:31:08Z</time></trkpt><trkpt lat="47.28932301372811" lon="8.729256298930995"><ele>488.16666666666663</ele><time>2026-04-17T19:31:09Z</time></trkpt><trkpt lat="47.28933948277387" lon="8.72913507491499"><ele>488.3333333333333</ele><time>2026-04-17T19:31:10Z</time></trkpt><trkpt lat="47.28935465351423" lon="8.729013694866133"><ele>488.5</ele><time>2026-04-17T19:31:11Z</time></trkpt><trkpt lat="47.2893707907383" lon="8.728892292659735"><ele>488.66666666666663</ele><time>2026-04-17T19:31:12Z</time></trkpt><trkpt lat="47.289386057485736" lon="8.728770967066518"><ele>488.8333333333333</ele><time>2026-04-17T19:31:13Z</time></trkpt><trkpt lat="47.289400553104976" lon="8.728649235301761"><ele>489.0</ele><time>2026-04-17T19:31:14Z</time></trkpt><trkpt lat="47.289416601847925" lon="8.728527171749972"><ele>488.6666666666667</ele><time>2026-04-17T19:31:15Z</time></trkpt><trkpt lat="47.28943354083746" lon="8.728406343333603"><ele>488.33333333333337</ele><time>2026-04-17T19:31:16Z</time></trkpt><trkpt lat="47.289451335349995" lon="8.728285196007594"><ele>488.0</ele><time>2026-04-17T19:31:17Z</time></trkpt><trkpt lat="47.28946885367082" lon="8.728163610820578"><ele>487.6666666666667</ele><time>2026-04-17T19:31:18Z</time></trkpt><trkpt lat="47.289487663261475" lon="8.728042303450076"><ele>487.33333333333337</ele><time>2026-04-17T19:31:19Z</time></trkpt><trkpt lat="47.28950600112835" lon="8.727920624838415"><ele>487.0</ele><time>2026-04-17T19:31:20Z</time></trkpt><trkpt lat="47.28952422375165" lon="8.72779828262958"><ele>487.1666666666667</ele><time>2026-04-17T19:31:21Z</time></trkpt><trkpt lat="47.28954021479129" lon="8.727675635439438"><ele>487.33333333333337</ele><time>2026-04-17T19:31:22Z</time></trkpt><trkpt lat="47.28955644393214" lon="8.727553649495198"><ele>487.5</ele><time>2026-04-17T19:31:23Z</time></trkpt><trkpt lat="47.28957307512978" lon="8.727431287216804"><ele>487.66666666666663</ele><time>2026-04-17T19:31:24Z</time></trkpt><trkpt lat="47.28959056191085" lon="8.727309232517912"><ele>487.8333333333333</ele><time>2026-04-17T19:31:25Z</time></trkpt><trkpt lat="47.289605929564544" lon="8.727186491391105"><ele>488.0</ele><time>2026-04-17T19:31:26Z</time></trkpt><trkpt lat="47.28962118383489" lon="8.72706345352949"><ele>487.99999999999994</ele><time>2026-04-17T19:31:27Z</time></trkpt><trkpt lat="47.28963572494027" lon="8.726938683845642"><ele>488.0</ele><time>2026-04-17T19:31:28Z</time></trkpt><trkpt lat="47.28965183350447" lon="8.726816926001934"><ele>488.0</ele><time>2026-04-17T19:31:29Z</time></trkpt><trkpt lat="47.289669398808236" lon="8.726696147769745"><ele>488.0</ele><time>2026-04-17T19:31:30Z</time></trkpt><trkpt lat="47.28968406564537" lon="8.726580613825963"><ele>487.99999999999994</ele><time>2026-04-17T19:31:31Z</time></trkpt><trkpt lat="47.289698875548595" lon="8.72647555020834"><ele>488.0</ele><time>2026-04-17T19:31:32Z</time></trkpt><trkpt lat="47.28971372456789" lon="8.726374173380309"><ele>488.16666666666663</ele><time>2026-04-17T19:31:33Z</time></trkpt><trkpt lat="47.28972881293401" lon="8.726266666194046"><ele>488.3333333333333</ele><time>2026-04-17T19:31:34Z</time></trkpt><trkpt lat="47.28974499954383" lon="8.726154506386903"><ele>488.5</ele><time>2026-04-17T19:31:35Z</time></trkpt><trkpt lat="47.28976080943646" lon="8.726039997256533"><ele>488.66666666666663</ele><time>2026-04-17T19:31:36Z</time></trkpt><trkpt lat="47.28977774095295" lon="8.725923688034472"><ele>488.8333333333333</ele><time>2026-04-17T19:31:37Z</time></trkpt><trkpt lat="47.28979432745467" lon="8.725807733318923"><ele>489.0</ele><time>2026-04-17T19:31:38Z</time></trkpt><trkpt lat="47.2898121985948" lon="8.725689015386685"><ele>488.6666666666667</ele><time>2026-04-17T19:31:39Z</time></trkpt><trkpt lat="47.28983072195047" lon="8.725569456364566"><ele>488.33333333333337</ele><time>2026-04-17T19:31:40Z</time></trkpt><trkpt lat="47.289848557949306" lon="8.725449623516884"><ele>488.0</ele><time>2026-04-17T19:31:41Z</time></trkpt><trkpt lat="47.28986394087138" lon="8.725328710719337"><ele>487.6666666666667</ele><time>2026-04-17T19:31:42Z</time></trkpt><trkpt lat="47.2898782370537" lon="8.725208902059741"><ele>487.33333333333337</ele><time>2026-04-17T19:31:43Z</time></trkpt><trkpt lat="47.289892965525915" lon="8.725087927331762"><ele>487.0</ele><time>2026-04-17T19:31:44Z</time></trkpt><trkpt lat="47.289907620712114" lon="8.724964738883848"><ele>487.00000000000006</ele><time>2026-04-17T19:31:45Z</time></trkpt><trkpt lat="47.289923017888825" lon="8.724843542312756"><ele>487.0</ele><time>2026-04-17T19:31:46Z</time></trkpt><trkpt lat="47.28993776043179" lon="8.724721191880786"><ele>487.0</ele><time>2026-04-17T19:31:47Z</time></trkpt><trkpt lat="47.28995065292841" lon="8.724606834425549"><ele>487.0</ele><time>2026-04-17T19:31:48Z</time></trkpt><trkpt lat="47.28996379517631" lon="8.72449732422215"><ele>487.00000000000006</ele><time>2026-04-17T19:31:49Z</time></trkpt><trkpt lat="47.289976435396056" lon="8.72439126959942"><ele>487.0</ele><time>2026-04-17T19:31:50Z</time></trkpt><trkpt lat="47.289991939006924" lon="8.724280223604433"><ele>486.6666666666667</ele><time>2026-04-17T19:31:51Z</time></trkpt><trkpt lat="47.29000990642732" lon="8.724166255931392"><ele>486.33333333333337</ele><time>2026-04-17T19:31:52Z</time></trkpt><trkpt lat="47.29002698100214" lon="8.724051111951026"><ele>486.0</ele><time>2026-04-17T19:31:53Z</time></trkpt><trkpt lat="47.29004365441482" lon="8.72393529706964"><ele>485.66666666666663</ele><time>2026-04-17T19:31:54Z</time></trkpt><trkpt lat="47.290060250212235" lon="8.723818254437594"><ele>485.3333333333333</ele><time>2026-04-17T19:31:55Z</time></trkpt><trkpt lat="47.290078211909666" lon="8.723700794221463"><ele>485.0</ele><time>2026-04-17T19:31:56Z</time></trkpt><trkpt lat="47.290095891767685" lon="8.723583715221277"><ele>484.99999999999994</ele><time>2026-04-17T19:31:57Z</time></trkpt><trkpt lat="47.290113794414616" lon="8.723465761692792"><ele>485.0</ele><time>2026-04-17T19:31:58Z</time></trkpt><trkpt lat="47.29013119351799" lon="8.723347718574729"><ele>485.0</ele><time>2026-04-17T19:31:59Z</time></trkpt><trkpt lat="47.29014799647341" lon="8.723227860940627"><ele>485.0</ele><time>2026-04-17T19:32:00Z</time></trkpt><trkpt lat="47.29016632271164" lon="8.723110743866092"><ele>484.99999999999994</ele><time>2026-04-17T19:32:01Z</time></trkpt><trkpt lat="47.29018610685231" lon="8.722992083444987"><ele>485.0</ele><time>2026-04-17T19:32:02Z</time></trkpt><trkpt lat="47.29020618766564" lon="8.722872562102257"><ele>484.99999999999994</ele><time>2026-04-17T19:32:03Z</time></trkpt><trkpt lat="47.29022635148388" lon="8.72275336662535"><ele>485.0</ele><time>2026-04-17T19:32:04Z</time></trkpt><trkpt lat="47.29024733503773" lon="8.722634223385404"><ele>485.0</ele><time>2026-04-17T19:32:05Z</time></trkpt><trkpt lat="47.29026841454986" lon="8.722514911229784"><ele>485.0</ele><time>2026-04-17T19:32:06Z</time></trkpt><trkpt lat="47.29029001473773" lon="8.722394883994056"><ele>484.99999999999994</ele><time>2026-04-17T19:32:07Z</time></trkpt><trkpt lat="47.29030841489207" lon="8.722273658894121"><ele>485.0</ele><time>2026-04-17T19:32:08Z</time></trkpt><trkpt lat="47.290325935408184" lon="8.722150010286127"><ele>484.8333333333333</ele><time>2026-04-17T19:32:09Z</time></trkpt><trkpt lat="47.29034594874098" lon="8.722029125532634"><ele>484.66666666666663</ele><time>2026-04-17T19:32:10Z</time></trkpt><trkpt lat="47.29036926027553" lon="8.721905252883962"><ele>484.5</ele><time>2026-04-17T19:32:11Z</time></trkpt><trkpt lat="47.29039300553497" lon="8.721781657219154"><ele>484.33333333333337</ele><time>2026-04-17T19:32:12Z</time></trkpt><trkpt lat="47.29041585185518" lon="8.721656696691575"><ele>484.1666666666667</ele><time>2026-04-17T19:32:13Z</time></trkpt><trkpt lat="47.290436786483745" lon="8.721531216842806"><ele>484.0</ele><time>2026-04-17T19:32:14Z</time></trkpt><trkpt lat="47.29045886309569" lon="8.72140466856013"><ele>484.00000000000006</ele><time>2026-04-17T19:32:15Z</time></trkpt><trkpt lat="47.29048444327203" lon="8.72127967582108"><ele>484.0</ele><time>2026-04-17T19:32:16Z</time></trkpt><trkpt lat="47.29051162754542" lon="8.72115906567967"><ele>484.0</ele><time>2026-04-17T19:32:17Z</time></trkpt><trkpt lat="47.29053527520191" lon="8.721052167979481"><ele>484.0</ele><time>2026-04-17T19:32:18Z</time></trkpt><trkpt lat="47.29055710579042" lon="8.720954129827645"><ele>484.00000000000006</ele><time>2026-04-17T19:32:19Z</time></trkpt><trkpt lat="47.290580698068425" lon="8.720857235458158"><ele>484.0</ele><time>2026-04-17T19:32:20Z</time></trkpt><trkpt lat="47.29060543709302" lon="8.72076397204034"><ele>483.1666666666667</ele><time>2026-04-17T19:32:21Z</time></trkpt><trkpt lat="47.290634883434116" lon="8.720661017654216"><ele>482.33333333333337</ele><time>2026-04-17T19:32:22Z</time></trkpt><trkpt lat="47.29066205479121" lon="8.720559097696707"><ele>481.5</ele><time>2026-04-17T19:32:23Z</time></trkpt><trkpt lat="47.29068605637412" lon="8.72046112124781"><ele>480.66666666666663</ele><time>2026-04-17T19:32:24Z</time></trkpt><trkpt lat="47.29070800018781" lon="8.720368534902859"><ele>479.8333333333333</ele><time>2026-04-17T19:32:25Z</time></trkpt><trkpt lat="47.290733787509" lon="8.720281414119716"><ele>479.0</ele><time>2026-04-17T19:32:26Z</time></trkpt><trkpt lat="47.290787694712456" lon="8.72012114644508"><ele>478.99999999999994</ele><time>2026-04-17T19:32:28Z</time></trkpt><trkpt lat="47.29081559174194" lon="8.720034418753448"><ele>479.0</ele><time>2026-04-17T19:32:29Z</time></trkpt><trkpt lat="47.29085718212413" lon="8.719862991719621"><ele>479.0</ele><time>2026-04-17T19:32:31Z</time></trkpt><trkpt lat="47.290885767183106" lon="8.719773517406342"><ele>479.0</ele><time>2026-04-17T19:32:32Z</time></trkpt><trkpt lat="47.29092192253311" lon="8.719682339074614"><ele>478.99999999999994</ele><time>2026-04-17T19:32:33Z</time></trkpt><trkpt lat="47.290957278338034" lon="8.719588324444542"><ele>479.0</ele><time>2026-04-17T19:32:34Z</time></trkpt><trkpt lat="47.290994408928974" lon="8.719491626624587"><ele>479.3333333333333</ele><time>2026-04-17T19:32:35Z</time></trkpt><trkpt lat="47.29103682424172" lon="8.719397504879488"><ele>479.66666666666663</ele><time>2026-04-17T19:32:36Z</time></trkpt><trkpt lat="47.291082230475" lon="8.719304293097386"><ele>480.0</ele><time>2026-04-17T19:32:37Z</time></trkpt><trkpt lat="47.29112686467693" lon="8.719209589490848"><ele>480.33333333333337</ele><time>2026-04-17T19:32:38Z</time></trkpt><trkpt lat="47.29116603936655" lon="8.719128083719339"><ele>480.6666666666667</ele><time>2026-04-17T19:32:39Z</time></trkpt><trkpt lat="47.291219795225686" lon="8.718994643623818"><ele>481.0</ele><time>2026-04-17T19:32:41Z</time></trkpt><trkpt lat="47.291285737219496" lon="8.718862929838334"><ele>481.00000000000006</ele><time>2026-04-17T19:32:43Z</time></trkpt><trkpt lat="47.29131993465681" lon="8.718780685998853"><ele>481.0</ele><time>2026-04-17T19:32:44Z</time></trkpt><trkpt lat="47.291350716082704" lon="8.718699434277127"><ele>481.0</ele><time>2026-04-17T19:32:45Z</time></trkpt><trkpt lat="47.291369676424665" lon="8.71852689195351"><ele>481.0</ele><time>2026-04-17T19:32:47Z</time></trkpt><trkpt lat="47.29133010190743" lon="8.71843268033132"><ele>481.00000000000006</ele><time>2026-04-17T19:32:48Z</time></trkpt><trkpt lat="47.29124857342759" lon="8.71839260979241"><ele>481.0</ele><time>2026-04-17T19:32:49Z</time></trkpt><trkpt lat="47.29118922401151" lon="8.71834362926361"><ele>480.8</ele><time>2026-04-17T19:32:50Z</time></trkpt><trkpt lat="47.291096260397275" lon="8.718253509878078"><ele>480.6</ele><time>2026-04-17T19:32:52Z</time></trkpt><trkpt lat="47.29101285194352" lon="8.718155281001337"><ele>480.4</ele><time>2026-04-17T19:32:54Z</time></trkpt><trkpt lat="47.29095201163161" lon="8.718022681203703"><ele>480.2</ele><time>2026-04-17T19:32:56Z</time></trkpt><trkpt lat="47.29091558618822" lon="8.717852863124241"><ele>480.0</ele><time>2026-04-17T19:32:58Z</time></trkpt><trkpt lat="47.29089996228554" lon="8.717760868620845"><ele>479.7142857142857</ele><time>2026-04-17T19:32:59Z</time></trkpt><trkpt lat="47.290884350404724" lon="8.71766425531432"><ele>479.42857142857144</ele><time>2026-04-17T19:33:00Z</time></trkpt><trkpt lat="47.29086805282292" lon="8.717559538360668"><ele>479.14285714285717</ele><time>2026-04-17T19:33:01Z</time></trkpt><trkpt lat="47.2908497971223" lon="8.717452043534138"><ele>478.8571428571429</ele><time>2026-04-17T19:33:02Z</time></trkpt><trkpt lat="47.29082357473436" lon="8.717345515064899"><ele>478.57142857142856</ele><time>2026-04-17T19:33:03Z</time></trkpt><trkpt lat="47.29080384713289" lon="8.717235406149255"><ele>478.28571428571433</ele><time>2026-04-17T19:33:04Z</time></trkpt><trkpt lat="47.290786536067365" lon="8.717121329610064"><ele>478.00000000000006</ele><time>2026-04-17T19:33:05Z</time></trkpt><trkpt lat="47.290763259985596" lon="8.717008932693906"><ele>477.83333333333337</ele><time>2026-04-17T19:33:06Z</time></trkpt><trkpt lat="47.290739129715064" lon="8.71689641840696"><ele>477.6666666666667</ele><time>2026-04-17T19:33:07Z</time></trkpt><trkpt lat="47.290720809519016" lon="8.716780514828795"><ele>477.5</ele><time>2026-04-17T19:33:08Z</time></trkpt><trkpt lat="47.29069935678262" lon="8.716666021070063"><ele>477.33333333333337</ele><time>2026-04-17T19:33:09Z</time></trkpt><trkpt lat="47.290681349180126" lon="8.716549514734073"><ele>477.1666666666667</ele><time>2026-04-17T19:33:10Z</time></trkpt><trkpt lat="47.29066031163136" lon="8.716433985116081"><ele>477.0</ele><time>2026-04-17T19:33:11Z</time></trkpt><trkpt lat="47.29063878381487" lon="8.716318018186923"><ele>477.0</ele><time>2026-04-17T19:33:12Z</time></trkpt><trkpt lat="47.29061730909481" lon="8.716202041259399"><ele>477.0</ele><time>2026-04-17T19:33:13Z</time></trkpt><trkpt lat="47.29059581503658" lon="8.716086553476101"><ele>477.0</ele><time>2026-04-17T19:33:14Z</time></trkpt><trkpt lat="47.29057680360247" lon="8.715969694161396"><ele>477.0</ele><time>2026-04-17T19:33:15Z</time></trkpt><trkpt lat="47.290551837231824" lon="8.715854075776662"><ele>477.0</ele><time>2026-04-17T19:33:16Z</time></trkpt><trkpt lat="47.29053206675789" lon="8.715737669011759"><ele>477.0</ele><time>2026-04-17T19:33:17Z</time></trkpt><trkpt lat="47.290510581054846" lon="8.715622532040435"><ele>477.0</ele><time>2026-04-17T19:33:18Z</time></trkpt><trkpt lat="47.29049137090305" lon="8.71550567441878"><ele>477.0</ele><time>2026-04-17T19:33:19Z</time></trkpt><trkpt lat="47.290472324650054" lon="8.715390225176543"><ele>477.0</ele><time>2026-04-17T19:33:20Z</time></trkpt><trkpt lat="47.29045182919419" lon="8.715274129764207"><ele>477.0</ele><time>2026-04-17T19:33:21Z</time></trkpt><trkpt lat="47.2904277297852" lon="8.715159756410461"><ele>477.0</ele><time>2026-04-17T19:33:22Z</time></trkpt><trkpt lat="47.290394469887005" lon="8.715049328020509"><ele>477.0</ele><time>2026-04-17T19:33:23Z</time></trkpt><trkpt lat="47.29035433335927" lon="8.714943557703524"><ele>477.0</ele><time>2026-04-17T19:33:24Z</time></trkpt><trkpt lat="47.2902999077952" lon="8.714850868624497"><ele>477.0</ele><time>2026-04-17T19:33:25Z</time></trkpt><trkpt lat="47.29024123187122" lon="8.714765854953981"><ele>477.0</ele><time>2026-04-17T19:33:26Z</time></trkpt><trkpt lat="47.290173361126676" lon="8.714696232627274"><ele>477.0</ele><time>2026-04-17T19:33:27Z</time></trkpt><trkpt lat="47.290102624650096" lon="8.714633811071492"><ele>477.0</ele><time>2026-04-17T19:33:28Z</time></trkpt><trkpt lat="47.29002411568844" lon="8.71458953699514"><ele>477.0</ele><time>2026-04-17T19:33:29Z</time></trkpt><trkpt lat="47.28994203675668" lon="8.714548893137845"><ele>477.0</ele><time>2026-04-17T19:33:30Z</time></trkpt><trkpt lat="47.28985450664455" lon="8.714531170556334"><ele>477.0</ele><time>2026-04-17T19:33:31Z</time></trkpt><trkpt lat="47.28976643688302" lon="8.71451706738456"><ele>477.0</ele><time>2026-04-17T19:33:32Z</time></trkpt><trkpt lat="47.28967580265264" lon="8.714537334229979"><ele>477.0</ele><time>2026-04-17T19:33:33Z</time></trkpt><trkpt lat="47.28958801258794" lon="8.71450898381687"><ele>477.0</ele><time>2026-04-17T19:33:34Z</time></trkpt><trkpt lat="47.28950360475657" lon="8.714486678452987"><ele>477.0</ele><time>2026-04-17T19:33:35Z</time></trkpt><trkpt lat="47.28943362310856" lon="8.714454983128752"><ele>477.5</ele><time>2026-04-17T19:33:36Z</time></trkpt><trkpt lat="47.28934776825088" lon="8.714387460658791"><ele>478.0</ele><time>2026-04-17T19:33:38Z</time></trkpt><trkpt lat="47.28929626982499" lon="8.71432164166236"><ele>478.5</ele><time>2026-04-17T19:33:40Z</time></trkpt><trkpt lat="47.28920679367082" lon="8.714324758394392"><ele>479.0</ele><time>2026-04-17T19:33:41Z</time></trkpt><trkpt lat="47.28914250805192" lon="8.714338220013648"><ele>479.5</ele><time>2026-04-17T19:33:43Z</time></trkpt><trkpt lat="47.289059873329535" lon="8.714343896892782"><ele>480.0</ele><time>2026-04-17T19:33:45Z</time></trkpt><trkpt lat="47.288971798722706" lon="8.714342595213152"><ele>480.0</ele><time>2026-04-17T19:33:47Z</time></trkpt><trkpt lat="47.2888747250893" lon="8.714329434732438"><ele>480.0</ele><time>2026-04-17T19:33:49Z</time></trkpt><trkpt lat="47.28877417005843" lon="8.714287862812585"><ele>480.0</ele><time>2026-04-17T19:33:51Z</time></trkpt><trkpt lat="47.28867917973902" lon="8.71419738237175"><ele>480.0</ele><time>2026-04-17T19:33:53Z</time></trkpt><trkpt lat="47.28858467128089" lon="8.714069508433667"><ele>480.0</ele><time>2026-04-17T19:33:55Z</time></trkpt><trkpt lat="47.28852450340219" lon="8.714021068210881"><ele>480.0</ele><time>2026-04-17T19:33:56Z</time></trkpt><trkpt lat="47.28847231551291" lon="8.713960258843848"><ele>480.0</ele><time>2026-04-17T19:33:57Z</time></trkpt><trkpt lat="47.288417054778776" lon="8.713902019841273"><ele>480.0</ele><time>2026-04-17T19:33:58Z</time></trkpt><trkpt lat="47.288362719713014" lon="8.713845538242966"><ele>480.0</ele><time>2026-04-17T19:33:59Z</time></trkpt><trkpt lat="47.288321488207785" lon="8.713768928543065"><ele>480.0</ele><time>2026-04-17T19:34:00Z</time></trkpt><trkpt lat="47.28826111666534" lon="8.713731155638092"><ele>480.0</ele><time>2026-04-17T19:34:01Z</time></trkpt><trkpt lat="47.28815935862626" lon="8.713622649403005"><ele>480.14285714285717</ele><time>2026-04-17T19:34:03Z</time></trkpt><trkpt lat="47.2881096136969" lon="8.713564364697627"><ele>480.2857142857142</ele><time>2026-04-17T19:34:04Z</time></trkpt><trkpt lat="47.28804842672707" lon="8.713524329660403"><ele>480.4285714285714</ele><time>2026-04-17T19:34:05Z</time></trkpt><trkpt lat="47.28798554600927" lon="8.713479809877594"><ele>480.57142857142856</ele><time>2026-04-17T19:34:06Z</time></trkpt><trkpt lat="47.28791932914206" lon="8.713420030268045"><ele>480.71428571428567</ele><time>2026-04-17T19:34:07Z</time></trkpt><trkpt lat="47.287845147735155" lon="8.71337263278134"><ele>480.8571428571428</ele><time>2026-04-17T19:34:08Z</time></trkpt><trkpt lat="47.28777411989381" lon="8.713311872124427"><ele>480.99999999999994</ele><time>2026-04-17T19:34:09Z</time></trkpt><trkpt lat="47.28769355517679" lon="8.713284107933925"><ele>481.1666666666667</ele><time>2026-04-17T19:34:10Z</time></trkpt><trkpt lat="47.28760681729288" lon="8.713291637208444"><ele>481.33333333333337</ele><time>2026-04-17T19:34:11Z</time></trkpt><trkpt lat="47.287529350825196" lon="8.713253847395759"><ele>481.5</ele><time>2026-04-17T19:34:12Z</time></trkpt><trkpt lat="47.28744464906891" lon="8.713295883394482"><ele>481.66666666666663</ele><time>2026-04-17T19:34:13Z</time></trkpt><trkpt lat="47.28736359566275" lon="8.713318525004427"><ele>481.8333333333333</ele><time>2026-04-17T19:34:14Z</time></trkpt><trkpt lat="47.287285822130364" lon="8.713334854017333"><ele>482.0</ele><time>2026-04-17T19:34:15Z</time></trkpt><trkpt lat="47.28721239401724" lon="8.713348873577056"><ele>485.0</ele><time>2026-04-17T19:34:16Z</time></trkpt><trkpt lat="47.287107926078626" lon="8.713362060219415"><ele>485.0</ele><time>2026-04-17T19:34:18Z</time></trkpt><trkpt lat="47.28704033488822" lon="8.713380780993004"><ele>485.0</ele><time>2026-04-17T19:34:20Z</time></trkpt><trkpt lat="47.28697749009229" lon="8.71336502104491"><ele>485.0</ele><time>2026-04-17T19:34:23Z</time></trkpt></trkseg></trk></gpx>